<?xml version='1.0' encoding='UTF-8'?><gpx version="1.1" creator="JPX - https://github.com/jenetics/jpx" xmlns="http://www.topografix.com/GPX/1/1"><trk><trkseg><trkpt lat="43.5440037" lon="10.526663"><ele>42.0</ele><time>2026-04-19T08:05:44.881Z</time></trkpt><trkpt lat="43.5440184" lon="10.5265307"><ele>42.0</ele><time>2026-04-19T08:05:47.879Z</time></trkpt><trkpt lat="43.5439813" lon="10.5263842"><ele>42.0</ele><time>2026-04-19T08:05:49.879Z</time></trkpt><trkpt lat="43.5439164" lon="10.5263561"><ele>42.0</ele><time>2026-04-19T08:05:51.874Z</time></trkpt><trkpt lat="43.543801" lon="10.526439"><ele>42.0</ele><time>2026-04-19T08:05:53.867Z</time></trkpt><trkpt lat="43.5437239" lon="10.5264815"><ele>41.8</ele><time>2026-04-19T08:05:54.878Z</time></trkpt><trkpt lat="43.5436398" lon="10.5265237"><ele>41.6</ele><time>2026-04-19T08:05:55.869Z</time></trkpt><trkpt lat="43.54355" lon="10.52657"><ele>41.4</ele><time>2026-04-19T08:05:56.893Z</time></trkpt><trkpt lat="43.5434541" lon="10.5266141"><ele>41.199999999999996</ele><time>2026-04-19T08:05:57.881Z</time></trkpt><trkpt lat="43.5433535" lon="10.5266626"><ele>41.0</ele><time>2026-04-19T08:05:58.88Z</time></trkpt><trkpt lat="43.5432472" lon="10.5267105"><ele>41.0</ele><time>2026-04-19T08:05:59.882Z</time></trkpt><trkpt lat="43.543145" lon="10.5267579"><ele>41.0</ele><time>2026-04-19T08:06:00.873Z</time></trkpt><trkpt lat="43.5430411" lon="10.5268116"><ele>41.0</ele><time>2026-04-19T08:06:01.875Z</time></trkpt><trkpt lat="43.5429386" lon="10.5268656"><ele>41.0</ele><time>2026-04-19T08:06:02.867Z</time></trkpt><trkpt lat="43.5428346" lon="10.5269162"><ele>41.0</ele><time>2026-04-19T08:06:03.872Z</time></trkpt><trkpt lat="43.5427293" lon="10.5269611"><ele>41.25</ele><time>2026-04-19T08:06:04.874Z</time></trkpt><trkpt lat="43.542621" lon="10.5269991"><ele>41.5</ele><time>2026-04-19T08:06:05.874Z</time></trkpt><trkpt lat="43.5425097" lon="10.5270267"><ele>41.75</ele><time>2026-04-19T08:06:06.876Z</time></trkpt><trkpt lat="43.5423989" lon="10.5270469"><ele>42.0</ele><time>2026-04-19T08:06:07.882Z</time></trkpt><trkpt lat="43.5422845" lon="10.5270603"><ele>42.0</ele><time>2026-04-19T08:06:08.874Z</time></trkpt><trkpt lat="43.542169" lon="10.5270662"><ele>42.0</ele><time>2026-04-19T08:06:09.872Z</time></trkpt><trkpt lat="43.5420513" lon="10.5270672"><ele>42.0</ele><time>2026-04-19T08:06:10.869Z</time></trkpt><trkpt lat="43.5419336" lon="10.5270638"><ele>42.0</ele><time>2026-04-19T08:06:11.874Z</time></trkpt><trkpt lat="43.5418115" lon="10.5270562"><ele>41.25</ele><time>2026-04-19T08:06:12.872Z</time></trkpt><trkpt lat="43.5416831" lon="10.5270433"><ele>40.5</ele><time>2026-04-19T08:06:13.876Z</time></trkpt><trkpt lat="43.5415483" lon="10.5270214"><ele>39.75</ele><time>2026-04-19T08:06:14.872Z</time></trkpt><trkpt lat="43.541413" lon="10.5270004"><ele>39.0</ele><time>2026-04-19T08:06:15.869Z</time></trkpt><trkpt lat="43.5412727" lon="10.526968"><ele>39.25</ele><time>2026-04-19T08:06:16.874Z</time></trkpt><trkpt lat="43.5411304" lon="10.526934"><ele>39.5</ele><time>2026-04-19T08:06:17.883Z</time></trkpt><trkpt lat="43.540989" lon="10.5268951"><ele>39.75</ele><time>2026-04-19T08:06:18.879Z</time></trkpt><trkpt lat="43.5408465" lon="10.5268551"><ele>40.0</ele><time>2026-04-19T08:06:19.878Z</time></trkpt><trkpt lat="43.5407064" lon="10.5268143"><ele>40.0</ele><time>2026-04-19T08:06:20.878Z</time></trkpt><trkpt lat="43.5405688" lon="10.5267663"><ele>40.0</ele><time>2026-04-19T08:06:21.888Z</time></trkpt><trkpt lat="43.5404333" lon="10.526713"><ele>40.0</ele><time>2026-04-19T08:06:22.882Z</time></trkpt><trkpt lat="43.5402985" lon="10.5266587"><ele>40.0</ele><time>2026-04-19T08:06:23.873Z</time></trkpt><trkpt lat="43.5401646" lon="10.526601"><ele>40.75</ele><time>2026-04-19T08:06:24.881Z</time></trkpt><trkpt lat="43.5400334" lon="10.5265429"><ele>41.5</ele><time>2026-04-19T08:06:25.86Z</time></trkpt><trkpt lat="43.5399033" lon="10.526485"><ele>42.25</ele><time>2026-04-19T08:06:26.865Z</time></trkpt><trkpt lat="43.5397732" lon="10.5264306"><ele>43.0</ele><time>2026-04-19T08:06:27.869Z</time></trkpt><trkpt lat="43.5396414" lon="10.5263829"><ele>42.75</ele><time>2026-04-19T08:06:28.875Z</time></trkpt><trkpt lat="43.5395067" lon="10.5263461"><ele>42.5</ele><time>2026-04-19T08:06:29.877Z</time></trkpt><trkpt lat="43.5393706" lon="10.5263108"><ele>42.25</ele><time>2026-04-19T08:06:30.872Z</time></trkpt><trkpt lat="43.5392304" lon="10.5263065"><ele>42.0</ele><time>2026-04-19T08:06:31.875Z</time></trkpt><trkpt lat="43.5390892" lon="10.5263117"><ele>42.0</ele><time>2026-04-19T08:06:32.872Z</time></trkpt><trkpt lat="43.5389485" lon="10.5263267"><ele>42.0</ele><time>2026-04-19T08:06:33.878Z</time></trkpt><trkpt lat="43.5388075" lon="10.526349"><ele>42.0</ele><time>2026-04-19T08:06:34.873Z</time></trkpt><trkpt lat="43.5386681" lon="10.5263754"><ele>42.0</ele><time>2026-04-19T08:06:35.885Z</time></trkpt><trkpt lat="43.5385285" lon="10.5264023"><ele>42.25</ele><time>2026-04-19T08:06:36.876Z</time></trkpt><trkpt lat="43.5383856" lon="10.5264332"><ele>42.5</ele><time>2026-04-19T08:06:37.866Z</time></trkpt><trkpt lat="43.5382456" lon="10.5264605"><ele>42.75</ele><time>2026-04-19T08:06:38.872Z</time></trkpt><trkpt lat="43.5381034" lon="10.5264819"><ele>43.0</ele><time>2026-04-19T08:06:39.88Z</time></trkpt><trkpt lat="43.5379606" lon="10.5264935"><ele>42.25</ele><time>2026-04-19T08:06:40.873Z</time></trkpt><trkpt lat="43.5378171" lon="10.5264966"><ele>41.5</ele><time>2026-04-19T08:06:41.882Z</time></trkpt><trkpt lat="43.5376724" lon="10.5264928"><ele>40.75</ele><time>2026-04-19T08:06:42.872Z</time></trkpt><trkpt lat="43.537527" lon="10.5264869"><ele>40.0</ele><time>2026-04-19T08:06:43.867Z</time></trkpt><trkpt lat="43.5373806" lon="10.5264838"><ele>40.0</ele><time>2026-04-19T08:06:44.869Z</time></trkpt><trkpt lat="43.5372335" lon="10.5264932"><ele>40.0</ele><time>2026-04-19T08:06:45.881Z</time></trkpt><trkpt lat="43.5370878" lon="10.5265288"><ele>40.0</ele><time>2026-04-19T08:06:46.871Z</time></trkpt><trkpt lat="43.5369466" lon="10.5265922"><ele>40.0</ele><time>2026-04-19T08:06:47.884Z</time></trkpt><trkpt lat="43.536812" lon="10.526675"><ele>40.25</ele><time>2026-04-19T08:06:48.878Z</time></trkpt><trkpt lat="43.5366786" lon="10.5267577"><ele>40.5</ele><time>2026-04-19T08:06:49.863Z</time></trkpt><trkpt lat="43.536551" lon="10.5268642"><ele>40.75</ele><time>2026-04-19T08:06:50.881Z</time></trkpt><trkpt lat="43.5364238" lon="10.526969"><ele>41.0</ele><time>2026-04-19T08:06:51.876Z</time></trkpt><trkpt lat="43.5362893" lon="10.5270448"><ele>41.5</ele><time>2026-04-19T08:06:52.883Z</time></trkpt><trkpt lat="43.5361485" lon="10.5271021"><ele>42.0</ele><time>2026-04-19T08:06:53.884Z</time></trkpt><trkpt lat="43.5360063" lon="10.5271346"><ele>42.5</ele><time>2026-04-19T08:06:54.871Z</time></trkpt><trkpt lat="43.535862" lon="10.5271487"><ele>43.0</ele><time>2026-04-19T08:06:55.872Z</time></trkpt><trkpt lat="43.5357151" lon="10.5271576"><ele>43.0</ele><time>2026-04-19T08:06:56.879Z</time></trkpt><trkpt lat="43.5355705" lon="10.5271646"><ele>43.0</ele><time>2026-04-19T08:06:57.871Z</time></trkpt><trkpt lat="43.5354262" lon="10.5271706"><ele>43.0</ele><time>2026-04-19T08:06:58.88Z</time></trkpt><trkpt lat="43.535281" lon="10.527177"><ele>43.0</ele><time>2026-04-19T08:06:59.87Z</time></trkpt><trkpt lat="43.5351349" lon="10.5271866"><ele>42.75</ele><time>2026-04-19T08:07:00.876Z</time></trkpt><trkpt lat="43.5349903" lon="10.5271986"><ele>42.5</ele><time>2026-04-19T08:07:01.877Z</time></trkpt><trkpt lat="43.5348468" lon="10.5272153"><ele>42.25</ele><time>2026-04-19T08:07:02.883Z</time></trkpt><trkpt lat="43.5347041" lon="10.5272386"><ele>42.0</ele><time>2026-04-19T08:07:03.878Z</time></trkpt><trkpt lat="43.5345621" lon="10.52727"><ele>42.5</ele><time>2026-04-19T08:07:04.866Z</time></trkpt><trkpt lat="43.5344213" lon="10.5273079"><ele>43.0</ele><time>2026-04-19T08:07:05.878Z</time></trkpt><trkpt lat="43.5342816" lon="10.5273505"><ele>43.5</ele><time>2026-04-19T08:07:06.875Z</time></trkpt><trkpt lat="43.534144" lon="10.5273982"><ele>44.0</ele><time>2026-04-19T08:07:07.886Z</time></trkpt><trkpt lat="43.5340059" lon="10.5274494"><ele>44.0</ele><time>2026-04-19T08:07:08.887Z</time></trkpt><trkpt lat="43.5338676" lon="10.5274989"><ele>44.0</ele><time>2026-04-19T08:07:09.882Z</time></trkpt><trkpt lat="43.5337285" lon="10.5275426"><ele>44.0</ele><time>2026-04-19T08:07:10.88Z</time></trkpt><trkpt lat="43.5335875" lon="10.5275807"><ele>44.0</ele><time>2026-04-19T08:07:11.873Z</time></trkpt><trkpt lat="43.533445" lon="10.5276089"><ele>43.75</ele><time>2026-04-19T08:07:12.873Z</time></trkpt><trkpt lat="43.5333001" lon="10.5276289"><ele>43.5</ele><time>2026-04-19T08:07:13.872Z</time></trkpt><trkpt lat="43.5331528" lon="10.5276402"><ele>43.25</ele><time>2026-04-19T08:07:14.872Z</time></trkpt><trkpt lat="43.5330042" lon="10.5276452"><ele>43.0</ele><time>2026-04-19T08:07:15.873Z</time></trkpt><trkpt lat="43.5328556" lon="10.5276455"><ele>43.0</ele><time>2026-04-19T08:07:16.885Z</time></trkpt><trkpt lat="43.5327075" lon="10.5276472"><ele>43.0</ele><time>2026-04-19T08:07:17.881Z</time></trkpt><trkpt lat="43.5325601" lon="10.5276527"><ele>43.0</ele><time>2026-04-19T08:07:18.87Z</time></trkpt><trkpt lat="43.5324139" lon="10.5276621"><ele>43.0</ele><time>2026-04-19T08:07:19.878Z</time></trkpt><trkpt lat="43.5322677" lon="10.5276766"><ele>43.0</ele><time>2026-04-19T08:07:20.876Z</time></trkpt><trkpt lat="43.5321204" lon="10.5276952"><ele>43.0</ele><time>2026-04-19T08:07:21.877Z</time></trkpt><trkpt lat="43.5319717" lon="10.5277146"><ele>43.0</ele><time>2026-04-19T08:07:22.882Z</time></trkpt><trkpt lat="43.5318218" lon="10.527735"><ele>43.0</ele><time>2026-04-19T08:07:23.885Z</time></trkpt><trkpt lat="43.5316714" lon="10.5277571"><ele>43.25</ele><time>2026-04-19T08:07:24.876Z</time></trkpt><trkpt lat="43.5315219" lon="10.527778"><ele>43.5</ele><time>2026-04-19T08:07:25.864Z</time></trkpt><trkpt lat="43.5313733" lon="10.5277966"><ele>43.75</ele><time>2026-04-19T08:07:26.878Z</time></trkpt><trkpt lat="43.5312269" lon="10.5278127"><ele>44.0</ele><time>2026-04-19T08:07:27.863Z</time></trkpt><trkpt lat="43.5310803" lon="10.5278281"><ele>44.0</ele><time>2026-04-19T08:07:28.883Z</time></trkpt><trkpt lat="43.5309342" lon="10.5278399"><ele>44.0</ele><time>2026-04-19T08:07:29.877Z</time></trkpt><trkpt lat="43.5307878" lon="10.5278443"><ele>44.0</ele><time>2026-04-19T08:07:30.884Z</time></trkpt><trkpt lat="43.5306417" lon="10.5278373"><ele>44.0</ele><time>2026-04-19T08:07:31.869Z</time></trkpt><trkpt lat="43.5304963" lon="10.5278132"><ele>44.5</ele><time>2026-04-19T08:07:32.879Z</time></trkpt><trkpt lat="43.5303511" lon="10.527775"><ele>45.0</ele><time>2026-04-19T08:07:33.872Z</time></trkpt><trkpt lat="43.5302072" lon="10.5277277"><ele>45.5</ele><time>2026-04-19T08:07:34.878Z</time></trkpt><trkpt lat="43.5300638" lon="10.5276764"><ele>46.0</ele><time>2026-04-19T08:07:35.873Z</time></trkpt><trkpt lat="43.5299184" lon="10.5276269"><ele>46.0</ele><time>2026-04-19T08:07:36.87Z</time></trkpt><trkpt lat="43.5297715" lon="10.5275787"><ele>46.0</ele><time>2026-04-19T08:07:37.872Z</time></trkpt><trkpt lat="43.5296234" lon="10.5275318"><ele>46.0</ele><time>2026-04-19T08:07:38.872Z</time></trkpt><trkpt lat="43.5294732" lon="10.5274911"><ele>46.0</ele><time>2026-04-19T08:07:39.881Z</time></trkpt><trkpt lat="43.5293215" lon="10.52746"><ele>46.0</ele><time>2026-04-19T08:07:40.885Z</time></trkpt><trkpt lat="43.5291688" lon="10.5274383"><ele>46.0</ele><time>2026-04-19T08:07:41.872Z</time></trkpt><trkpt lat="43.5290162" lon="10.5274235"><ele>46.0</ele><time>2026-04-19T08:07:42.871Z</time></trkpt><trkpt lat="43.5288634" lon="10.527411"><ele>46.0</ele><time>2026-04-19T08:07:43.878Z</time></trkpt><trkpt lat="43.5287119" lon="10.5273996"><ele>46.0</ele><time>2026-04-19T08:07:44.878Z</time></trkpt><trkpt lat="43.5285588" lon="10.5273899"><ele>46.0</ele><time>2026-04-19T08:07:45.888Z</time></trkpt><trkpt lat="43.5284057" lon="10.5273798"><ele>46.0</ele><time>2026-04-19T08:07:46.879Z</time></trkpt><trkpt lat="43.5282522" lon="10.5273702"><ele>46.0</ele><time>2026-04-19T08:07:47.876Z</time></trkpt><trkpt lat="43.528099" lon="10.5273618"><ele>46.0</ele><time>2026-04-19T08:07:48.864Z</time></trkpt><trkpt lat="43.5279482" lon="10.5273539"><ele>46.0</ele><time>2026-04-19T08:07:49.881Z</time></trkpt><trkpt lat="43.5278079" lon="10.5273441"><ele>46.0</ele><time>2026-04-19T08:07:50.877Z</time></trkpt><trkpt lat="43.5276786" lon="10.5273306"><ele>46.0</ele><time>2026-04-19T08:07:51.877Z</time></trkpt><trkpt lat="43.5275613" lon="10.5273169"><ele>45.8</ele><time>2026-04-19T08:07:52.879Z</time></trkpt><trkpt lat="43.5274512" lon="10.5273056"><ele>45.599999999999994</ele><time>2026-04-19T08:07:53.88Z</time></trkpt><trkpt lat="43.5273542" lon="10.5273122"><ele>45.4</ele><time>2026-04-19T08:07:54.884Z</time></trkpt><trkpt lat="43.5272656" lon="10.5273461"><ele>45.2</ele><time>2026-04-19T08:07:55.879Z</time></trkpt><trkpt lat="43.5271857" lon="10.5274171"><ele>45.0</ele><time>2026-04-19T08:07:56.884Z</time></trkpt><trkpt lat="43.5271178" lon="10.52752"><ele>45.75</ele><time>2026-04-19T08:07:57.88Z</time></trkpt><trkpt lat="43.5270542" lon="10.5276505"><ele>46.5</ele><time>2026-04-19T08:07:58.878Z</time></trkpt><trkpt lat="43.5269888" lon="10.5277935"><ele>47.25</ele><time>2026-04-19T08:07:59.873Z</time></trkpt><trkpt lat="43.5269188" lon="10.5279461"><ele>48.0</ele><time>2026-04-19T08:08:00.881Z</time></trkpt><trkpt lat="43.526841" lon="10.5280999"><ele>48.0</ele><time>2026-04-19T08:08:01.882Z</time></trkpt><trkpt lat="43.526757" lon="10.5282585"><ele>48.0</ele><time>2026-04-19T08:08:02.888Z</time></trkpt><trkpt lat="43.5266705" lon="10.5284235"><ele>48.0</ele><time>2026-04-19T08:08:03.87Z</time></trkpt><trkpt lat="43.5265843" lon="10.5285907"><ele>48.0</ele><time>2026-04-19T08:08:04.877Z</time></trkpt><trkpt lat="43.5264973" lon="10.5287552"><ele>48.25</ele><time>2026-04-19T08:08:05.891Z</time></trkpt><trkpt lat="43.5264079" lon="10.5289216"><ele>48.5</ele><time>2026-04-19T08:08:06.886Z</time></trkpt><trkpt lat="43.5263186" lon="10.5290882"><ele>48.75</ele><time>2026-04-19T08:08:07.886Z</time></trkpt><trkpt lat="43.5262298" lon="10.5292514"><ele>49.0</ele><time>2026-04-19T08:08:08.878Z</time></trkpt><trkpt lat="43.526144" lon="10.5294142"><ele>49.5</ele><time>2026-04-19T08:08:09.878Z</time></trkpt><trkpt lat="43.5260584" lon="10.5295769"><ele>50.0</ele><time>2026-04-19T08:08:10.867Z</time></trkpt><trkpt lat="43.525971" lon="10.5297387"><ele>50.5</ele><time>2026-04-19T08:08:11.881Z</time></trkpt><trkpt lat="43.5258835" lon="10.5299022"><ele>51.0</ele><time>2026-04-19T08:08:12.882Z</time></trkpt><trkpt lat="43.5257987" lon="10.5300661"><ele>51.0</ele><time>2026-04-19T08:08:13.874Z</time></trkpt><trkpt lat="43.525714" lon="10.5302322"><ele>51.0</ele><time>2026-04-19T08:08:14.883Z</time></trkpt><trkpt lat="43.5256277" lon="10.5303967"><ele>51.0</ele><time>2026-04-19T08:08:15.884Z</time></trkpt><trkpt lat="43.5255421" lon="10.5305635"><ele>51.0</ele><time>2026-04-19T08:08:16.886Z</time></trkpt><trkpt lat="43.5254566" lon="10.5307302"><ele>51.75</ele><time>2026-04-19T08:08:17.88Z</time></trkpt><trkpt lat="43.5253705" lon="10.5308934"><ele>52.5</ele><time>2026-04-19T08:08:18.887Z</time></trkpt><trkpt lat="43.5252825" lon="10.5310543"><ele>53.25</ele><time>2026-04-19T08:08:19.88Z</time></trkpt><trkpt lat="43.5251975" lon="10.5312161"><ele>54.0</ele><time>2026-04-19T08:08:20.879Z</time></trkpt><trkpt lat="43.5251144" lon="10.5313769"><ele>54.0</ele><time>2026-04-19T08:08:21.882Z</time></trkpt><trkpt lat="43.5250344" lon="10.5315374"><ele>54.0</ele><time>2026-04-19T08:08:22.871Z</time></trkpt><trkpt lat="43.5249555" lon="10.5316989"><ele>54.0</ele><time>2026-04-19T08:08:23.889Z</time></trkpt><trkpt lat="43.5248794" lon="10.5318633"><ele>54.0</ele><time>2026-04-19T08:08:24.878Z</time></trkpt><trkpt lat="43.5248118" lon="10.532035"><ele>54.25</ele><time>2026-04-19T08:08:25.881Z</time></trkpt><trkpt lat="43.5247577" lon="10.5322151"><ele>54.5</ele><time>2026-04-19T08:08:26.871Z</time></trkpt><trkpt lat="43.5247148" lon="10.5324038"><ele>54.75</ele><time>2026-04-19T08:08:27.874Z</time></trkpt><trkpt lat="43.5246859" lon="10.532599"><ele>55.0</ele><time>2026-04-19T08:08:28.869Z</time></trkpt><trkpt lat="43.5246719" lon="10.5328004"><ele>55.25</ele><time>2026-04-19T08:08:29.867Z</time></trkpt><trkpt lat="43.5246709" lon="10.5330063"><ele>55.5</ele><time>2026-04-19T08:08:30.87Z</time></trkpt><trkpt lat="43.5246818" lon="10.5332161"><ele>55.75</ele><time>2026-04-19T08:08:31.869Z</time></trkpt><trkpt lat="43.5247008" lon="10.5334176"><ele>56.0</ele><time>2026-04-19T08:08:32.866Z</time></trkpt><trkpt lat="43.524724" lon="10.5336026"><ele>56.199999999999996</ele><time>2026-04-19T08:08:33.879Z</time></trkpt><trkpt lat="43.5247477" lon="10.5337665"><ele>56.39999999999999</ele><time>2026-04-19T08:08:34.867Z</time></trkpt><trkpt lat="43.5247691" lon="10.5339136"><ele>56.6</ele><time>2026-04-19T08:08:35.874Z</time></trkpt><trkpt lat="43.5247821" lon="10.5340541"><ele>56.8</ele><time>2026-04-19T08:08:36.884Z</time></trkpt><trkpt lat="43.5247829" lon="10.5341955"><ele>57.0</ele><time>2026-04-19T08:08:37.873Z</time></trkpt><trkpt lat="43.5247692" lon="10.5343346"><ele>57.0</ele><time>2026-04-19T08:08:38.873Z</time></trkpt><trkpt lat="43.5247462" lon="10.5344692"><ele>57.0</ele><time>2026-04-19T08:08:39.873Z</time></trkpt><trkpt lat="43.5247199" lon="10.5345936"><ele>57.0</ele><time>2026-04-19T08:08:40.883Z</time></trkpt><trkpt lat="43.5246916" lon="10.5347099"><ele>57.0</ele><time>2026-04-19T08:08:41.874Z</time></trkpt><trkpt lat="43.5246686" lon="10.5348324"><ele>57.0</ele><time>2026-04-19T08:08:42.875Z</time></trkpt><trkpt lat="43.5246468" lon="10.5349594"><ele>57.0</ele><time>2026-04-19T08:08:43.872Z</time></trkpt><trkpt lat="43.5246361" lon="10.5350943"><ele>57.0</ele><time>2026-04-19T08:08:44.884Z</time></trkpt><trkpt lat="43.5246216" lon="10.5352158"><ele>57.0</ele><time>2026-04-19T08:08:45.877Z</time></trkpt><trkpt lat="43.5246036" lon="10.5353185"><ele>57.0</ele><time>2026-04-19T08:08:46.884Z</time></trkpt><trkpt lat="43.5245786" lon="10.5354009"><ele>57.0</ele><time>2026-04-19T08:08:47.879Z</time></trkpt><trkpt lat="43.524505" lon="10.5354761"><ele>57.0</ele><time>2026-04-19T08:08:49.872Z</time></trkpt><trkpt lat="43.524403" lon="10.5354484"><ele>56.8</ele><time>2026-04-19T08:08:51.871Z</time></trkpt><trkpt lat="43.5243329" lon="10.5353977"><ele>56.6</ele><time>2026-04-19T08:08:52.873Z</time></trkpt><trkpt lat="43.5242475" lon="10.5353346"><ele>56.39999999999999</ele><time>2026-04-19T08:08:53.865Z</time></trkpt><trkpt lat="43.5241586" lon="10.5352637"><ele>56.199999999999996</ele><time>2026-04-19T08:08:54.875Z</time></trkpt><trkpt lat="43.5240726" lon="10.5352014"><ele>56.0</ele><time>2026-04-19T08:08:55.871Z</time></trkpt><trkpt lat="43.5239972" lon="10.5351737"><ele>56.00000000000001</ele><time>2026-04-19T08:08:56.863Z</time></trkpt><trkpt lat="43.5239303" lon="10.5351676"><ele>56.0</ele><time>2026-04-19T08:08:57.879Z</time></trkpt><trkpt lat="43.5238686" lon="10.5352231"><ele>56.0</ele><time>2026-04-19T08:08:58.872Z</time></trkpt><trkpt lat="43.5238024" lon="10.5353028"><ele>56.0</ele><time>2026-04-19T08:08:59.881Z</time></trkpt><trkpt lat="43.5237584" lon="10.5354047"><ele>56.00000000000001</ele><time>2026-04-19T08:09:00.873Z</time></trkpt><trkpt lat="43.5237098" lon="10.535512"><ele>56.0</ele><time>2026-04-19T08:09:01.876Z</time></trkpt><trkpt lat="43.5236494" lon="10.5356116"><ele>56.0</ele><time>2026-04-19T08:09:02.872Z</time></trkpt><trkpt lat="43.5235693" lon="10.5356803"><ele>55.99999999999999</ele><time>2026-04-19T08:09:03.875Z</time></trkpt><trkpt lat="43.5234679" lon="10.5357083"><ele>55.99999999999999</ele><time>2026-04-19T08:09:04.862Z</time></trkpt><trkpt lat="43.5233507" lon="10.5357057"><ele>56.0</ele><time>2026-04-19T08:09:05.885Z</time></trkpt><trkpt lat="43.5232237" lon="10.5356917"><ele>56.0</ele><time>2026-04-19T08:09:06.875Z</time></trkpt><trkpt lat="43.5230876" lon="10.5356907"><ele>56.0</ele><time>2026-04-19T08:09:07.884Z</time></trkpt><trkpt lat="43.5229455" lon="10.5357161"><ele>56.0</ele><time>2026-04-19T08:09:08.884Z</time></trkpt><trkpt lat="43.522808" lon="10.5357632"><ele>56.0</ele><time>2026-04-19T08:09:09.88Z</time></trkpt><trkpt lat="43.5226776" lon="10.5358225"><ele>56.0</ele><time>2026-04-19T08:09:10.882Z</time></trkpt><trkpt lat="43.5225533" lon="10.5358978"><ele>55.75</ele><time>2026-04-19T08:09:11.87Z</time></trkpt><trkpt lat="43.5224335" lon="10.5359839"><ele>55.5</ele><time>2026-04-19T08:09:12.877Z</time></trkpt><trkpt lat="43.5223152" lon="10.5360674"><ele>55.25</ele><time>2026-04-19T08:09:13.874Z</time></trkpt><trkpt lat="43.522196" lon="10.5361417"><ele>55.0</ele><time>2026-04-19T08:09:14.875Z</time></trkpt><trkpt lat="43.5220814" lon="10.5362174"><ele>55.0</ele><time>2026-04-19T08:09:15.878Z</time></trkpt><trkpt lat="43.5219838" lon="10.5363073"><ele>55.0</ele><time>2026-04-19T08:09:16.871Z</time></trkpt><trkpt lat="43.5219049" lon="10.5364203"><ele>55.0</ele><time>2026-04-19T08:09:17.883Z</time></trkpt><trkpt lat="43.5218447" lon="10.5365598"><ele>55.0</ele><time>2026-04-19T08:09:18.876Z</time></trkpt><trkpt lat="43.5218031" lon="10.5367232"><ele>55.0</ele><time>2026-04-19T08:09:19.882Z</time></trkpt><trkpt lat="43.5217647" lon="10.5368968"><ele>55.0</ele><time>2026-04-19T08:09:20.862Z</time></trkpt><trkpt lat="43.5217181" lon="10.5370664"><ele>55.0</ele><time>2026-04-19T08:09:21.881Z</time></trkpt><trkpt lat="43.5216576" lon="10.5372232"><ele>55.0</ele><time>2026-04-19T08:09:22.881Z</time></trkpt><trkpt lat="43.5215853" lon="10.537364"><ele>55.25</ele><time>2026-04-19T08:09:23.881Z</time></trkpt><trkpt lat="43.5215024" lon="10.5374919"><ele>55.5</ele><time>2026-04-19T08:09:24.878Z</time></trkpt><trkpt lat="43.521413" lon="10.5376151"><ele>55.75</ele><time>2026-04-19T08:09:25.878Z</time></trkpt><trkpt lat="43.52132" lon="10.5377395"><ele>56.0</ele><time>2026-04-19T08:09:26.864Z</time></trkpt><trkpt lat="43.5212214" lon="10.5378551"><ele>55.75</ele><time>2026-04-19T08:09:27.874Z</time></trkpt><trkpt lat="43.5211221" lon="10.5379647"><ele>55.5</ele><time>2026-04-19T08:09:28.875Z</time></trkpt><trkpt lat="43.5210211" lon="10.5380694"><ele>55.25</ele><time>2026-04-19T08:09:29.871Z</time></trkpt><trkpt lat="43.5209321" lon="10.5381604"><ele>55.0</ele><time>2026-04-19T08:09:30.881Z</time></trkpt><trkpt lat="43.5208486" lon="10.5382584"><ele>55.0</ele><time>2026-04-19T08:09:31.863Z</time></trkpt><trkpt lat="43.5207935" lon="10.5383787"><ele>55.0</ele><time>2026-04-19T08:09:32.879Z</time></trkpt><trkpt lat="43.5207596" lon="10.5385442"><ele>55.0</ele><time>2026-04-19T08:09:33.89Z</time></trkpt><trkpt lat="43.5207438" lon="10.5386928"><ele>55.0</ele><time>2026-04-19T08:09:34.874Z</time></trkpt><trkpt lat="43.5207411" lon="10.5388315"><ele>55.0</ele><time>2026-04-19T08:09:35.874Z</time></trkpt><trkpt lat="43.5207406" lon="10.5389449"><ele>54.83333333333333</ele><time>2026-04-19T08:09:36.882Z</time></trkpt><trkpt lat="43.5207263" lon="10.5390341"><ele>54.666666666666664</ele><time>2026-04-19T08:09:37.874Z</time></trkpt><trkpt lat="43.5206862" lon="10.5391306"><ele>54.5</ele><time>2026-04-19T08:09:39.875Z</time></trkpt><trkpt lat="43.5205829" lon="10.5391577"><ele>54.33333333333333</ele><time>2026-04-19T08:09:42.877Z</time></trkpt><trkpt lat="43.5205181" lon="10.5391483"><ele>54.166666666666664</ele><time>2026-04-19T08:09:43.879Z</time></trkpt><trkpt lat="43.520444" lon="10.5391333"><ele>54.0</ele><time>2026-04-19T08:09:44.88Z</time></trkpt><trkpt lat="43.520361" lon="10.5391137"><ele>54.800000000000004</ele><time>2026-04-19T08:09:45.878Z</time></trkpt><trkpt lat="43.5202618" lon="10.539086"><ele>55.60000000000001</ele><time>2026-04-19T08:09:46.869Z</time></trkpt><trkpt lat="43.5201608" lon="10.5390573"><ele>56.4</ele><time>2026-04-19T08:09:47.873Z</time></trkpt><trkpt lat="43.5200644" lon="10.5390431"><ele>57.2</ele><time>2026-04-19T08:09:48.865Z</time></trkpt><trkpt lat="43.5199491" lon="10.5390636"><ele>58.0</ele><time>2026-04-19T08:09:49.872Z</time></trkpt><trkpt lat="43.5198441" lon="10.5391072"><ele>58.0</ele><time>2026-04-19T08:09:50.868Z</time></trkpt><trkpt lat="43.5197421" lon="10.5391696"><ele>58.0</ele><time>2026-04-19T08:09:51.864Z</time></trkpt><trkpt lat="43.5196597" lon="10.5392998"><ele>58.0</ele><time>2026-04-19T08:09:52.868Z</time></trkpt><trkpt lat="43.5195767" lon="10.5394218"><ele>58.0</ele><time>2026-04-19T08:09:53.871Z</time></trkpt><trkpt lat="43.5194885" lon="10.5395363"><ele>59.75</ele><time>2026-04-19T08:09:54.863Z</time></trkpt><trkpt lat="43.5193891" lon="10.5396007"><ele>61.5</ele><time>2026-04-19T08:09:55.88Z</time></trkpt><trkpt lat="43.5192759" lon="10.5396457"><ele>63.25</ele><time>2026-04-19T08:09:56.877Z</time></trkpt><trkpt lat="43.5191688" lon="10.5397034"><ele>65.0</ele><time>2026-04-19T08:09:57.87Z</time></trkpt><trkpt lat="43.5190728" lon="10.53977"><ele>65.0</ele><time>2026-04-19T08:09:58.875Z</time></trkpt><trkpt lat="43.5189901" lon="10.5398197"><ele>65.0</ele><time>2026-04-19T08:09:59.875Z</time></trkpt><trkpt lat="43.5189078" lon="10.5398202"><ele>65.0</ele><time>2026-04-19T08:10:00.872Z</time></trkpt><trkpt lat="43.5188192" lon="10.5398115"><ele>65.0</ele><time>2026-04-19T08:10:01.879Z</time></trkpt><trkpt lat="43.518723" lon="10.5397918"><ele>65.0</ele><time>2026-04-19T08:10:02.883Z</time></trkpt><trkpt lat="43.518618" lon="10.5398238"><ele>64.75</ele><time>2026-04-19T08:10:03.873Z</time></trkpt><trkpt lat="43.518509" lon="10.5399085"><ele>64.5</ele><time>2026-04-19T08:10:04.871Z</time></trkpt><trkpt lat="43.5183865" lon="10.540015"><ele>64.25</ele><time>2026-04-19T08:10:05.875Z</time></trkpt><trkpt lat="43.5182543" lon="10.5401441"><ele>64.0</ele><time>2026-04-19T08:10:06.878Z</time></trkpt><trkpt lat="43.518114" lon="10.5402913"><ele>64.33333333333333</ele><time>2026-04-19T08:10:07.871Z</time></trkpt><trkpt lat="43.5179643" lon="10.5404544"><ele>64.66666666666667</ele><time>2026-04-19T08:10:08.876Z</time></trkpt><trkpt lat="43.5178244" lon="10.5406021"><ele>65.0</ele><time>2026-04-19T08:10:09.87Z</time></trkpt><trkpt lat="43.5177215" lon="10.5407322"><ele>65.0</ele><time>2026-04-19T08:10:10.872Z</time></trkpt><trkpt lat="43.5176331" lon="10.5408823"><ele>65.0</ele><time>2026-04-19T08:10:11.872Z</time></trkpt><trkpt lat="43.5175463" lon="10.5410599"><ele>65.0</ele><time>2026-04-19T08:10:12.884Z</time></trkpt><trkpt lat="43.517458" lon="10.5412648"><ele>65.33333333333334</ele><time>2026-04-19T08:10:13.863Z</time></trkpt><trkpt lat="43.5173682" lon="10.5414733"><ele>65.66666666666667</ele><time>2026-04-19T08:10:14.878Z</time></trkpt><trkpt lat="43.5172737" lon="10.5416644"><ele>66.0</ele><time>2026-04-19T08:10:15.88Z</time></trkpt><trkpt lat="43.5171738" lon="10.5418317"><ele>66.0</ele><time>2026-04-19T08:10:16.864Z</time></trkpt><trkpt lat="43.5170745" lon="10.5419858"><ele>66.0</ele><time>2026-04-19T08:10:17.869Z</time></trkpt><trkpt lat="43.5169736" lon="10.5421413"><ele>66.0</ele><time>2026-04-19T08:10:18.871Z</time></trkpt><trkpt lat="43.5168766" lon="10.5423074"><ele>67.66666666666667</ele><time>2026-04-19T08:10:19.863Z</time></trkpt><trkpt lat="43.5167927" lon="10.5424963"><ele>69.33333333333334</ele><time>2026-04-19T08:10:20.881Z</time></trkpt><trkpt lat="43.5167105" lon="10.5426907"><ele>71.0</ele><time>2026-04-19T08:10:21.867Z</time></trkpt><trkpt lat="43.5166276" lon="10.5428851"><ele>71.25</ele><time>2026-04-19T08:10:22.873Z</time></trkpt><trkpt lat="43.5165533" lon="10.5430465"><ele>71.5</ele><time>2026-04-19T08:10:23.874Z</time></trkpt><trkpt lat="43.5164642" lon="10.5431666"><ele>71.75</ele><time>2026-04-19T08:10:24.876Z</time></trkpt><trkpt lat="43.5163496" lon="10.5432527"><ele>72.0</ele><time>2026-04-19T08:10:25.883Z</time></trkpt><trkpt lat="43.5162066" lon="10.5433259"><ele>74.0</ele><time>2026-04-19T08:10:26.876Z</time></trkpt><trkpt lat="43.5160472" lon="10.543403"><ele>76.0</ele><time>2026-04-19T08:10:27.873Z</time></trkpt><trkpt lat="43.5158805" lon="10.5435001"><ele>78.0</ele><time>2026-04-19T08:10:28.877Z</time></trkpt><trkpt lat="43.5157087" lon="10.5435877"><ele>78.0</ele><time>2026-04-19T08:10:29.876Z</time></trkpt><trkpt lat="43.5155446" lon="10.5436847"><ele>78.0</ele><time>2026-04-19T08:10:30.875Z</time></trkpt><trkpt lat="43.5154023" lon="10.543758"><ele>78.0</ele><time>2026-04-19T08:10:31.871Z</time></trkpt><trkpt lat="43.5152725" lon="10.5438212"><ele>82.0</ele><time>2026-04-19T08:10:32.878Z</time></trkpt><trkpt lat="43.5151356" lon="10.5438691"><ele>86.0</ele><time>2026-04-19T08:10:33.861Z</time></trkpt><trkpt lat="43.518723" lon="10.5397918"><ele>80.5</ele><time>2026-04-19T08:10:02.883Z</time></trkpt><trkpt lat="43.518618" lon="10.5398238"><ele>75.0</ele><time>2026-04-19T08:10:03.873Z</time></trkpt><trkpt lat="43.518509" lon="10.5399085"><ele>69.5</ele><time>2026-04-19T08:10:04.871Z</time></trkpt><trkpt lat="43.5183865" lon="10.540015"><ele>64.0</ele><time>2026-04-19T08:10:05.875Z</time></trkpt><trkpt lat="43.5182543" lon="10.5401441"><ele>64.0</ele><time>2026-04-19T08:10:06.878Z</time></trkpt><trkpt lat="43.518114" lon="10.5402913"><ele>64.0</ele><time>2026-04-19T08:10:07.871Z</time></trkpt><trkpt lat="43.5179643" lon="10.5404544"><ele>64.0</ele><time>2026-04-19T08:10:08.876Z</time></trkpt><trkpt lat="43.5178244" lon="10.5406021"><ele>64.25</ele><time>2026-04-19T08:10:09.87Z</time></trkpt><trkpt lat="43.5177215" lon="10.5407322"><ele>64.5</ele><time>2026-04-19T08:10:10.872Z</time></trkpt><trkpt lat="43.5176331" lon="10.5408823"><ele>64.75</ele><time>2026-04-19T08:10:11.872Z</time></trkpt><trkpt lat="43.5175463" lon="10.5410599"><ele>65.0</ele><time>2026-04-19T08:10:12.884Z</time></trkpt><trkpt lat="43.517458" lon="10.5412648"><ele>65.33333333333334</ele><time>2026-04-19T08:10:13.863Z</time></trkpt><trkpt lat="43.5173682" lon="10.5414733"><ele>65.66666666666667</ele><time>2026-04-19T08:10:14.878Z</time></trkpt><trkpt lat="43.5172737" lon="10.5416644"><ele>66.0</ele><time>2026-04-19T08:10:15.88Z</time></trkpt><trkpt lat="43.5171738" lon="10.5418317"><ele>66.0</ele><time>2026-04-19T08:10:16.864Z</time></trkpt><trkpt lat="43.5170745" lon="10.5419858"><ele>66.0</ele><time>2026-04-19T08:10:17.869Z</time></trkpt><trkpt lat="43.5169736" lon="10.5421413"><ele>66.0</ele><time>2026-04-19T08:10:18.871Z</time></trkpt><trkpt lat="43.5168766" lon="10.5423074"><ele>67.66666666666667</ele><time>2026-04-19T08:10:19.863Z</time></trkpt><trkpt lat="43.5167927" lon="10.5424963"><ele>69.33333333333334</ele><time>2026-04-19T08:10:20.881Z</time></trkpt><trkpt lat="43.5167105" lon="10.5426907"><ele>71.0</ele><time>2026-04-19T08:10:21.867Z</time></trkpt><trkpt lat="43.5166276" lon="10.5428851"><ele>71.25</ele><time>2026-04-19T08:10:22.873Z</time></trkpt><trkpt lat="43.5165533" lon="10.5430465"><ele>71.5</ele><time>2026-04-19T08:10:23.874Z</time></trkpt><trkpt lat="43.5164642" lon="10.5431666"><ele>71.75</ele><time>2026-04-19T08:10:24.876Z</time></trkpt><trkpt lat="43.5163496" lon="10.5432527"><ele>72.0</ele><time>2026-04-19T08:10:25.883Z</time></trkpt><trkpt lat="43.5162066" lon="10.5433259"><ele>74.0</ele><time>2026-04-19T08:10:26.876Z</time></trkpt><trkpt lat="43.5160472" lon="10.543403"><ele>76.0</ele><time>2026-04-19T08:10:27.873Z</time></trkpt><trkpt lat="43.5158805" lon="10.5435001"><ele>78.0</ele><time>2026-04-19T08:10:28.877Z</time></trkpt><trkpt lat="43.5157087" lon="10.5435877"><ele>78.0</ele><time>2026-04-19T08:10:29.876Z</time></trkpt><trkpt lat="43.5155446" lon="10.5436847"><ele>78.0</ele><time>2026-04-19T08:10:30.875Z</time></trkpt><trkpt lat="43.5154023" lon="10.543758"><ele>78.0</ele><time>2026-04-19T08:10:31.871Z</time></trkpt><trkpt lat="43.5152725" lon="10.5438212"><ele>80.0</ele><time>2026-04-19T08:10:32.878Z</time></trkpt><trkpt lat="43.5151356" lon="10.5438691"><ele>82.0</ele><time>2026-04-19T08:10:33.861Z</time></trkpt><trkpt lat="43.5149869" lon="10.5438978"><ele>84.0</ele><time>2026-04-19T08:10:34.878Z</time></trkpt><trkpt lat="43.5148391" lon="10.5439239"><ele>86.0</ele><time>2026-04-19T08:10:35.905Z</time></trkpt><trkpt lat="43.5146989" lon="10.5439401"><ele>86.6</ele><time>2026-04-19T08:10:36.872Z</time></trkpt><trkpt lat="43.5145639" lon="10.5439701"><ele>87.19999999999999</ele><time>2026-04-19T08:10:37.861Z</time></trkpt><trkpt lat="43.5144502" lon="10.5440111"><ele>87.80000000000001</ele><time>2026-04-19T08:10:38.874Z</time></trkpt><trkpt lat="43.5143537" lon="10.5440464"><ele>88.4</ele><time>2026-04-19T08:10:39.863Z</time></trkpt><trkpt lat="43.5142871" lon="10.5440934"><ele>89.0</ele><time>2026-04-19T08:10:40.876Z</time></trkpt><trkpt lat="43.5142392" lon="10.5442053"><ele>89.0</ele><time>2026-04-19T08:10:41.876Z</time></trkpt><trkpt lat="43.5141853" lon="10.5443433"><ele>89.0</ele><time>2026-04-19T08:10:42.871Z</time></trkpt><trkpt lat="43.5141084" lon="10.5444625"><ele>89.0</ele><time>2026-04-19T08:10:43.863Z</time></trkpt><trkpt lat="43.5140169" lon="10.5445918"><ele>89.0</ele><time>2026-04-19T08:10:44.864Z</time></trkpt><trkpt lat="43.5138772" lon="10.5447198"><ele>88.66666666666667</ele><time>2026-04-19T08:10:45.869Z</time></trkpt><trkpt lat="43.5137286" lon="10.5448502"><ele>88.33333333333333</ele><time>2026-04-19T08:10:46.888Z</time></trkpt><trkpt lat="43.5135713" lon="10.5449694"><ele>88.0</ele><time>2026-04-19T08:10:47.871Z</time></trkpt><trkpt lat="43.5134094" lon="10.5450879"><ele>88.0</ele><time>2026-04-19T08:10:48.87Z</time></trkpt><trkpt lat="43.5132341" lon="10.5451902"><ele>88.0</ele><time>2026-04-19T08:10:49.864Z</time></trkpt><trkpt lat="43.5130534" lon="10.5452776"><ele>88.0</ele><time>2026-04-19T08:10:50.881Z</time></trkpt><trkpt lat="43.5128641" lon="10.5453517"><ele>88.66666666666666</ele><time>2026-04-19T08:10:51.863Z</time></trkpt><trkpt lat="43.5126723" lon="10.5454199"><ele>89.33333333333333</ele><time>2026-04-19T08:10:52.861Z</time></trkpt><trkpt lat="43.5124896" lon="10.5454995"><ele>90.0</ele><time>2026-04-19T08:10:53.874Z</time></trkpt><trkpt lat="43.5123204" lon="10.5455952"><ele>90.0</ele><time>2026-04-19T08:10:54.873Z</time></trkpt><trkpt lat="43.512154" lon="10.5456982"><ele>90.0</ele><time>2026-04-19T08:10:55.858Z</time></trkpt><trkpt lat="43.511988" lon="10.5458159"><ele>90.0</ele><time>2026-04-19T08:10:56.876Z</time></trkpt><trkpt lat="43.5118283" lon="10.5459451"><ele>90.66666666666667</ele><time>2026-04-19T08:10:57.88Z</time></trkpt><trkpt lat="43.5116794" lon="10.5460548"><ele>91.33333333333334</ele><time>2026-04-19T08:10:58.883Z</time></trkpt><trkpt lat="43.5115299" lon="10.5461211"><ele>92.0</ele><time>2026-04-19T08:10:59.867Z</time></trkpt><trkpt lat="43.5113705" lon="10.5461766"><ele>93.33333333333334</ele><time>2026-04-19T08:11:00.87Z</time></trkpt><trkpt lat="43.5111918" lon="10.5461774"><ele>94.66666666666667</ele><time>2026-04-19T08:11:01.873Z</time></trkpt><trkpt lat="43.5110081" lon="10.5461799"><ele>96.0</ele><time>2026-04-19T08:11:02.872Z</time></trkpt><trkpt lat="43.5108197" lon="10.5461754"><ele>96.0</ele><time>2026-04-19T08:11:03.87Z</time></trkpt><trkpt lat="43.5106397" lon="10.5461591"><ele>96.0</ele><time>2026-04-19T08:11:04.887Z</time></trkpt><trkpt lat="43.5104675" lon="10.5461314"><ele>96.0</ele><time>2026-04-19T08:11:05.885Z</time></trkpt><trkpt lat="43.5103043" lon="10.5461228"><ele>98.66666666666666</ele><time>2026-04-19T08:11:06.866Z</time></trkpt><trkpt lat="43.510155" lon="10.5461089"><ele>101.33333333333333</ele><time>2026-04-19T08:11:07.866Z</time></trkpt><trkpt lat="43.5099997" lon="10.5460786"><ele>104.0</ele><time>2026-04-19T08:11:08.882Z</time></trkpt><trkpt lat="43.5098538" lon="10.5460103"><ele>104.0</ele><time>2026-04-19T08:11:09.869Z</time></trkpt><trkpt lat="43.5097156" lon="10.5459114"><ele>104.0</ele><time>2026-04-19T08:11:10.867Z</time></trkpt><trkpt lat="43.5095728" lon="10.5458049"><ele>104.0</ele><time>2026-04-19T08:11:11.867Z</time></trkpt><trkpt lat="43.5094313" lon="10.5456876"><ele>105.33333333333333</ele><time>2026-04-19T08:11:12.858Z</time></trkpt><trkpt lat="43.5092853" lon="10.5455725"><ele>106.66666666666666</ele><time>2026-04-19T08:11:13.869Z</time></trkpt><trkpt lat="43.5091446" lon="10.5454517"><ele>108.0</ele><time>2026-04-19T08:11:14.86Z</time></trkpt><trkpt lat="43.5090039" lon="10.5453356"><ele>109.66666666666666</ele><time>2026-04-19T08:11:15.876Z</time></trkpt><trkpt lat="43.5088643" lon="10.5452387"><ele>111.33333333333333</ele><time>2026-04-19T08:11:16.885Z</time></trkpt><trkpt lat="43.5087284" lon="10.5451419"><ele>113.0</ele><time>2026-04-19T08:11:17.87Z</time></trkpt><trkpt lat="43.5085884" lon="10.5450279"><ele>113.0</ele><time>2026-04-19T08:11:18.885Z</time></trkpt><trkpt lat="43.5084634" lon="10.5448885"><ele>113.0</ele><time>2026-04-19T08:11:19.86Z</time></trkpt><trkpt lat="43.5083469" lon="10.5447588"><ele>113.0</ele><time>2026-04-19T08:11:20.859Z</time></trkpt><trkpt lat="43.5082384" lon="10.5446239"><ele>115.66666666666666</ele><time>2026-04-19T08:11:21.874Z</time></trkpt><trkpt lat="43.5081326" lon="10.5444632"><ele>118.33333333333334</ele><time>2026-04-19T08:11:22.883Z</time></trkpt><trkpt lat="43.5080274" lon="10.5442987"><ele>121.0</ele><time>2026-04-19T08:11:23.881Z</time></trkpt><trkpt lat="43.5079316" lon="10.5441228"><ele>121.66666666666667</ele><time>2026-04-19T08:11:24.862Z</time></trkpt><trkpt lat="43.5078358" lon="10.5439446"><ele>122.33333333333334</ele><time>2026-04-19T08:11:25.865Z</time></trkpt><trkpt lat="43.5077437" lon="10.5437686"><ele>123.0</ele><time>2026-04-19T08:11:26.871Z</time></trkpt><trkpt lat="43.5076598" lon="10.5435953"><ele>123.0</ele><time>2026-04-19T08:11:27.887Z</time></trkpt><trkpt lat="43.5075932" lon="10.5434503"><ele>123.00000000000001</ele><time>2026-04-19T08:11:28.881Z</time></trkpt><trkpt lat="43.5075307" lon="10.5433473"><ele>123.00000000000001</ele><time>2026-04-19T08:11:29.865Z</time></trkpt><trkpt lat="43.507474" lon="10.5432587"><ele>123.0</ele><time>2026-04-19T08:11:30.886Z</time></trkpt><trkpt lat="43.50738" lon="10.5432347"><ele>123.0</ele><time>2026-04-19T08:11:31.865Z</time></trkpt><trkpt lat="43.5072553" lon="10.5432428"><ele>123.0</ele><time>2026-04-19T08:11:32.89Z</time></trkpt><trkpt lat="43.5071043" lon="10.5432394"><ele>123.0</ele><time>2026-04-19T08:11:33.873Z</time></trkpt><trkpt lat="43.5069449" lon="10.5432247"><ele>123.0</ele><time>2026-04-19T08:11:34.874Z</time></trkpt><trkpt lat="43.5067863" lon="10.543194"><ele>124.33333333333334</ele><time>2026-04-19T08:11:35.859Z</time></trkpt><trkpt lat="43.5066169" lon="10.5431608"><ele>125.66666666666667</ele><time>2026-04-19T08:11:36.878Z</time></trkpt><trkpt lat="43.5064488" lon="10.5431286"><ele>127.0</ele><time>2026-04-19T08:11:37.877Z</time></trkpt><trkpt lat="43.5062799" lon="10.5431161"><ele>128.0</ele><time>2026-04-19T08:11:38.873Z</time></trkpt><trkpt lat="43.5061114" lon="10.5431253"><ele>129.0</ele><time>2026-04-19T08:11:39.891Z</time></trkpt><trkpt lat="43.5059476" lon="10.5431437"><ele>130.0</ele><time>2026-04-19T08:11:40.875Z</time></trkpt><trkpt lat="43.505785" lon="10.5431559"><ele>130.0</ele><time>2026-04-19T08:11:41.87Z</time></trkpt><trkpt lat="43.505619" lon="10.5431781"><ele>130.0</ele><time>2026-04-19T08:11:42.879Z</time></trkpt><trkpt lat="43.5054601" lon="10.543201"><ele>130.0</ele><time>2026-04-19T08:11:43.871Z</time></trkpt><trkpt lat="43.5053189" lon="10.5432211"><ele>130.5</ele><time>2026-04-19T08:11:44.869Z</time></trkpt><trkpt lat="43.5051902" lon="10.5432417"><ele>131.0</ele><time>2026-04-19T08:11:45.883Z</time></trkpt><trkpt lat="43.5050708" lon="10.5432548"><ele>131.5</ele><time>2026-04-19T08:11:46.875Z</time></trkpt><trkpt lat="43.5049626" lon="10.5432543"><ele>132.0</ele><time>2026-04-19T08:11:47.874Z</time></trkpt><trkpt lat="43.5048602" lon="10.5432389"><ele>132.0</ele><time>2026-04-19T08:11:48.873Z</time></trkpt><trkpt lat="43.5047677" lon="10.5432136"><ele>132.0</ele><time>2026-04-19T08:11:49.879Z</time></trkpt><trkpt lat="43.5046786" lon="10.5431875"><ele>132.0</ele><time>2026-04-19T08:11:50.862Z</time></trkpt><trkpt lat="43.5045867" lon="10.5431667"><ele>132.0</ele><time>2026-04-19T08:11:51.86Z</time></trkpt><trkpt lat="43.5044917" lon="10.5431545"><ele>132.0</ele><time>2026-04-19T08:11:52.877Z</time></trkpt><trkpt lat="43.5043897" lon="10.5431429"><ele>132.33333333333334</ele><time>2026-04-19T08:11:53.882Z</time></trkpt><trkpt lat="43.5042904" lon="10.5431297"><ele>132.66666666666666</ele><time>2026-04-19T08:11:54.873Z</time></trkpt><trkpt lat="43.5041973" lon="10.5431195"><ele>133.0</ele><time>2026-04-19T08:11:55.879Z</time></trkpt><trkpt lat="43.5041227" lon="10.5431055"><ele>133.33333333333331</ele><time>2026-04-19T08:11:56.865Z</time></trkpt><trkpt lat="43.504054" lon="10.5430786"><ele>133.66666666666666</ele><time>2026-04-19T08:11:57.879Z</time></trkpt><trkpt lat="43.5039907" lon="10.5430232"><ele>134.0</ele><time>2026-04-19T08:11:58.86Z</time></trkpt><trkpt lat="43.5039251" lon="10.5429299"><ele>132.25</ele><time>2026-04-19T08:11:59.874Z</time></trkpt><trkpt lat="43.5038514" lon="10.5428174"><ele>130.5</ele><time>2026-04-19T08:12:00.885Z</time></trkpt><trkpt lat="43.5037718" lon="10.5426966"><ele>128.75</ele><time>2026-04-19T08:12:01.889Z</time></trkpt><trkpt lat="43.5036917" lon="10.542562"><ele>127.0</ele><time>2026-04-19T08:12:02.868Z</time></trkpt><trkpt lat="43.5036141" lon="10.5424155"><ele>126.66666666666667</ele><time>2026-04-19T08:12:03.873Z</time></trkpt><trkpt lat="43.5035339" lon="10.542245"><ele>126.33333333333334</ele><time>2026-04-19T08:12:04.881Z</time></trkpt><trkpt lat="43.5034492" lon="10.5420634"><ele>126.0</ele><time>2026-04-19T08:12:05.875Z</time></trkpt><trkpt lat="43.5033647" lon="10.5418726"><ele>126.0</ele><time>2026-04-19T08:12:06.868Z</time></trkpt><trkpt lat="43.5032772" lon="10.5416824"><ele>126.0</ele><time>2026-04-19T08:12:07.877Z</time></trkpt><trkpt lat="43.5031899" lon="10.5414931"><ele>126.0</ele><time>2026-04-19T08:12:08.875Z</time></trkpt><trkpt lat="43.5031038" lon="10.5413102"><ele>125.75</ele><time>2026-04-19T08:12:09.879Z</time></trkpt><trkpt lat="43.50302" lon="10.5411331"><ele>125.5</ele><time>2026-04-19T08:12:10.869Z</time></trkpt><trkpt lat="43.5029415" lon="10.5409753"><ele>125.25</ele><time>2026-04-19T08:12:11.875Z</time></trkpt><trkpt lat="43.5028495" lon="10.5408305"><ele>125.0</ele><time>2026-04-19T08:12:12.872Z</time></trkpt><trkpt lat="43.5027418" lon="10.5406987"><ele>125.5</ele><time>2026-04-19T08:12:13.881Z</time></trkpt><trkpt lat="43.5026308" lon="10.5405713"><ele>126.0</ele><time>2026-04-19T08:12:14.878Z</time></trkpt><trkpt lat="43.5025217" lon="10.5404425"><ele>126.5</ele><time>2026-04-19T08:12:15.867Z</time></trkpt><trkpt lat="43.5024136" lon="10.5403146"><ele>127.0</ele><time>2026-04-19T08:12:16.875Z</time></trkpt><trkpt lat="43.5023168" lon="10.540177"><ele>127.0</ele><time>2026-04-19T08:12:17.872Z</time></trkpt><trkpt lat="43.5022356" lon="10.5400174"><ele>127.0</ele><time>2026-04-19T08:12:18.875Z</time></trkpt><trkpt lat="43.5021659" lon="10.5398399"><ele>127.0</ele><time>2026-04-19T08:12:19.887Z</time></trkpt><trkpt lat="43.5021002" lon="10.5396661"><ele>127.0</ele><time>2026-04-19T08:12:20.868Z</time></trkpt><trkpt lat="43.5020404" lon="10.5395166"><ele>130.25</ele><time>2026-04-19T08:12:21.881Z</time></trkpt><trkpt lat="43.5019739" lon="10.5393929"><ele>133.5</ele><time>2026-04-19T08:12:22.88Z</time></trkpt><trkpt lat="43.5018959" lon="10.5392948"><ele>136.75</ele><time>2026-04-19T08:12:23.883Z</time></trkpt><trkpt lat="43.5018013" lon="10.539211"><ele>140.0</ele><time>2026-04-19T08:12:24.883Z</time></trkpt><trkpt lat="43.5016963" lon="10.5391264"><ele>140.0</ele><time>2026-04-19T08:12:25.884Z</time></trkpt><trkpt lat="43.5015664" lon="10.5390607"><ele>140.0</ele><time>2026-04-19T08:12:26.879Z</time></trkpt><trkpt lat="43.5014362" lon="10.5390031"><ele>140.0</ele><time>2026-04-19T08:12:27.875Z</time></trkpt><trkpt lat="43.5013091" lon="10.5389529"><ele>140.0</ele><time>2026-04-19T08:12:28.886Z</time></trkpt><trkpt lat="43.5011767" lon="10.5389123"><ele>140.5</ele><time>2026-04-19T08:12:29.875Z</time></trkpt><trkpt lat="43.5010366" lon="10.5388918"><ele>141.0</ele><time>2026-04-19T08:12:30.861Z</time></trkpt><trkpt lat="43.5008868" lon="10.5388599"><ele>141.5</ele><time>2026-04-19T08:12:31.878Z</time></trkpt><trkpt lat="43.5007369" lon="10.5388152"><ele>142.0</ele><time>2026-04-19T08:12:32.868Z</time></trkpt><trkpt lat="43.5005823" lon="10.5387693"><ele>142.0</ele><time>2026-04-19T08:12:33.887Z</time></trkpt><trkpt lat="43.5004201" lon="10.5387243"><ele>142.0</ele><time>2026-04-19T08:12:34.878Z</time></trkpt><trkpt lat="43.500255" lon="10.5386819"><ele>142.0</ele><time>2026-04-19T08:12:35.877Z</time></trkpt><trkpt lat="43.5001012" lon="10.53865"><ele>141.75</ele><time>2026-04-19T08:12:36.874Z</time></trkpt><trkpt lat="43.4999585" lon="10.5386341"><ele>141.5</ele><time>2026-04-19T08:12:37.87Z</time></trkpt><trkpt lat="43.4998168" lon="10.5386422"><ele>141.25</ele><time>2026-04-19T08:12:38.865Z</time></trkpt><trkpt lat="43.4996793" lon="10.5386984"><ele>141.0</ele><time>2026-04-19T08:12:39.862Z</time></trkpt><trkpt lat="43.4995487" lon="10.5387974"><ele>140.33333333333334</ele><time>2026-04-19T08:12:40.873Z</time></trkpt><trkpt lat="43.4994215" lon="10.538933"><ele>139.66666666666669</ele><time>2026-04-19T08:12:41.873Z</time></trkpt><trkpt lat="43.4992928" lon="10.5390819"><ele>139.0</ele><time>2026-04-19T08:12:42.882Z</time></trkpt><trkpt lat="43.499163" lon="10.5392328"><ele>139.0</ele><time>2026-04-19T08:12:43.892Z</time></trkpt><trkpt lat="43.4990344" lon="10.5393848"><ele>139.0</ele><time>2026-04-19T08:12:44.87Z</time></trkpt><trkpt lat="43.4989062" lon="10.5395312"><ele>139.0</ele><time>2026-04-19T08:12:45.864Z</time></trkpt><trkpt lat="43.498779" lon="10.5396766"><ele>139.5</ele><time>2026-04-19T08:12:46.885Z</time></trkpt><trkpt lat="43.4986545" lon="10.5398177"><ele>140.0</ele><time>2026-04-19T08:12:47.872Z</time></trkpt><trkpt lat="43.4985366" lon="10.5399404"><ele>140.5</ele><time>2026-04-19T08:12:48.879Z</time></trkpt><trkpt lat="43.4984196" lon="10.5400278"><ele>141.0</ele><time>2026-04-19T08:12:49.879Z</time></trkpt><trkpt lat="43.4982889" lon="10.5400802"><ele>141.0</ele><time>2026-04-19T08:12:50.859Z</time></trkpt><trkpt lat="43.4981424" lon="10.5401196"><ele>141.0</ele><time>2026-04-19T08:12:51.877Z</time></trkpt><trkpt lat="43.4979939" lon="10.5401567"><ele>141.0</ele><time>2026-04-19T08:12:52.872Z</time></trkpt><trkpt lat="43.4978422" lon="10.5401926"><ele>142.0</ele><time>2026-04-19T08:12:53.881Z</time></trkpt><trkpt lat="43.4976867" lon="10.5402394"><ele>143.0</ele><time>2026-04-19T08:12:54.875Z</time></trkpt><trkpt lat="43.4975256" lon="10.540279"><ele>144.0</ele><time>2026-04-19T08:12:55.89Z</time></trkpt><trkpt lat="43.4973615" lon="10.5402956"><ele>144.0</ele><time>2026-04-19T08:12:56.873Z</time></trkpt><trkpt lat="43.4972085" lon="10.5402825"><ele>144.0</ele><time>2026-04-19T08:12:57.873Z</time></trkpt><trkpt lat="43.497075" lon="10.5402721"><ele>144.0</ele><time>2026-04-19T08:12:58.865Z</time></trkpt><trkpt lat="43.4969537" lon="10.5402804"><ele>144.0</ele><time>2026-04-19T08:12:59.862Z</time></trkpt><trkpt lat="43.4968408" lon="10.5403118"><ele>144.2</ele><time>2026-04-19T08:13:00.859Z</time></trkpt><trkpt lat="43.4967328" lon="10.5403533"><ele>144.4</ele><time>2026-04-19T08:13:01.871Z</time></trkpt><trkpt lat="43.496633" lon="10.5404102"><ele>144.6</ele><time>2026-04-19T08:13:02.871Z</time></trkpt><trkpt lat="43.4965367" lon="10.540465"><ele>144.8</ele><time>2026-04-19T08:13:03.886Z</time></trkpt><trkpt lat="43.4964467" lon="10.5405106"><ele>145.0</ele><time>2026-04-19T08:13:04.882Z</time></trkpt><trkpt lat="43.4963648" lon="10.5405573"><ele>144.66666666666669</ele><time>2026-04-19T08:13:05.871Z</time></trkpt><trkpt lat="43.4962853" lon="10.5405993"><ele>144.33333333333334</ele><time>2026-04-19T08:13:06.873Z</time></trkpt><trkpt lat="43.4962071" lon="10.5406409"><ele>144.0</ele><time>2026-04-19T08:13:07.876Z</time></trkpt><trkpt lat="43.4961265" lon="10.5406897"><ele>143.66666666666666</ele><time>2026-04-19T08:13:08.875Z</time></trkpt><trkpt lat="43.496037" lon="10.5407311"><ele>143.33333333333331</ele><time>2026-04-19T08:13:09.878Z</time></trkpt><trkpt lat="43.4959485" lon="10.5407661"><ele>143.0</ele><time>2026-04-19T08:13:10.869Z</time></trkpt><trkpt lat="43.4958551" lon="10.5408028"><ele>144.20000000000002</ele><time>2026-04-19T08:13:11.875Z</time></trkpt><trkpt lat="43.4957591" lon="10.5408353"><ele>145.4</ele><time>2026-04-19T08:13:12.873Z</time></trkpt><trkpt lat="43.4956583" lon="10.5408678"><ele>146.60000000000002</ele><time>2026-04-19T08:13:13.875Z</time></trkpt><trkpt lat="43.4955532" lon="10.5409041"><ele>147.8</ele><time>2026-04-19T08:13:14.875Z</time></trkpt><trkpt lat="43.4954515" lon="10.5409397"><ele>149.0</ele><time>2026-04-19T08:13:15.881Z</time></trkpt><trkpt lat="43.4953526" lon="10.5409768"><ele>149.0</ele><time>2026-04-19T08:13:16.857Z</time></trkpt><trkpt lat="43.4952514" lon="10.5410165"><ele>149.0</ele><time>2026-04-19T08:13:17.858Z</time></trkpt><trkpt lat="43.4951484" lon="10.541066"><ele>149.0</ele><time>2026-04-19T08:13:18.872Z</time></trkpt><trkpt lat="43.4950567" lon="10.5411242"><ele>149.0</ele><time>2026-04-19T08:13:19.874Z</time></trkpt><trkpt lat="43.4949762" lon="10.5411836"><ele>149.0</ele><time>2026-04-19T08:13:20.885Z</time></trkpt><trkpt lat="43.4949037" lon="10.5412439"><ele>149.0</ele><time>2026-04-19T08:13:21.861Z</time></trkpt><trkpt lat="43.4948398" lon="10.5412938"><ele>149.0</ele><time>2026-04-19T08:13:22.867Z</time></trkpt><trkpt lat="43.4947698" lon="10.5413378"><ele>149.0</ele><time>2026-04-19T08:13:23.874Z</time></trkpt><trkpt lat="43.494691" lon="10.5413834"><ele>149.0</ele><time>2026-04-19T08:13:24.879Z</time></trkpt><trkpt lat="43.4946056" lon="10.5414163"><ele>149.0</ele><time>2026-04-19T08:13:25.868Z</time></trkpt><trkpt lat="43.4945136" lon="10.5414271"><ele>149.0</ele><time>2026-04-19T08:13:26.875Z</time></trkpt><trkpt lat="43.4944221" lon="10.5414078"><ele>149.33333333333331</ele><time>2026-04-19T08:13:27.857Z</time></trkpt><trkpt lat="43.4943329" lon="10.5413758"><ele>149.66666666666666</ele><time>2026-04-19T08:13:28.88Z</time></trkpt><trkpt lat="43.4942432" lon="10.5413553"><ele>150.0</ele><time>2026-04-19T08:13:29.877Z</time></trkpt><trkpt lat="43.4941526" lon="10.5413439"><ele>150.33333333333334</ele><time>2026-04-19T08:13:30.876Z</time></trkpt><trkpt lat="43.4940641" lon="10.5413515"><ele>150.66666666666669</ele><time>2026-04-19T08:13:31.881Z</time></trkpt><trkpt lat="43.4939823" lon="10.5413822"><ele>151.0</ele><time>2026-04-19T08:13:32.878Z</time></trkpt><trkpt lat="43.4939019" lon="10.5414378"><ele>151.0</ele><time>2026-04-19T08:13:33.872Z</time></trkpt><trkpt lat="43.4938232" lon="10.5415194"><ele>151.0</ele><time>2026-04-19T08:13:34.867Z</time></trkpt><trkpt lat="43.4937503" lon="10.5416234"><ele>151.0</ele><time>2026-04-19T08:13:35.87Z</time></trkpt><trkpt lat="43.4936872" lon="10.5417503"><ele>151.0</ele><time>2026-04-19T08:13:36.878Z</time></trkpt><trkpt lat="43.4936394" lon="10.5418947"><ele>151.0</ele><time>2026-04-19T08:13:37.883Z</time></trkpt><trkpt lat="43.4936067" lon="10.5420521"><ele>148.5</ele><time>2026-04-19T08:13:38.884Z</time></trkpt><trkpt lat="43.4935827" lon="10.5422152"><ele>146.0</ele><time>2026-04-19T08:13:39.873Z</time></trkpt><trkpt lat="43.4935554" lon="10.5423732"><ele>143.5</ele><time>2026-04-19T08:13:40.875Z</time></trkpt><trkpt lat="43.4935147" lon="10.5425267"><ele>141.0</ele><time>2026-04-19T08:13:41.875Z</time></trkpt><trkpt lat="43.4934601" lon="10.5426754"><ele>141.0</ele><time>2026-04-19T08:13:42.868Z</time></trkpt><trkpt lat="43.493395" lon="10.5428173"><ele>141.0</ele><time>2026-04-19T08:13:43.889Z</time></trkpt><trkpt lat="43.4933247" lon="10.5429431"><ele>141.0</ele><time>2026-04-19T08:13:44.874Z</time></trkpt><trkpt lat="43.4932452" lon="10.5430529"><ele>141.0</ele><time>2026-04-19T08:13:45.869Z</time></trkpt><trkpt lat="43.493151" lon="10.5431394"><ele>140.5</ele><time>2026-04-19T08:13:46.88Z</time></trkpt><trkpt lat="43.4930475" lon="10.5431846"><ele>140.0</ele><time>2026-04-19T08:13:47.887Z</time></trkpt><trkpt lat="43.4929347" lon="10.5431993"><ele>139.5</ele><time>2026-04-19T08:13:48.868Z</time></trkpt><trkpt lat="43.4928186" lon="10.5431967"><ele>139.0</ele><time>2026-04-19T08:13:49.871Z</time></trkpt><trkpt lat="43.4927024" lon="10.5431893"><ele>139.0</ele><time>2026-04-19T08:13:50.878Z</time></trkpt><trkpt lat="43.4925832" lon="10.5431925"><ele>139.0</ele><time>2026-04-19T08:13:51.876Z</time></trkpt><trkpt lat="43.4924635" lon="10.5432105"><ele>139.0</ele><time>2026-04-19T08:13:52.874Z</time></trkpt><trkpt lat="43.4923443" lon="10.5432309"><ele>139.0</ele><time>2026-04-19T08:13:53.871Z</time></trkpt><trkpt lat="43.4922228" lon="10.5432792"><ele>139.0</ele><time>2026-04-19T08:13:54.851Z</time></trkpt><trkpt lat="43.4921098" lon="10.5433353"><ele>139.0</ele><time>2026-04-19T08:13:55.878Z</time></trkpt><trkpt lat="43.491999" lon="10.5434046"><ele>139.0</ele><time>2026-04-19T08:13:56.868Z</time></trkpt><trkpt lat="43.4918937" lon="10.5434841"><ele>139.0</ele><time>2026-04-19T08:13:57.855Z</time></trkpt><trkpt lat="43.491794" lon="10.5435743"><ele>139.2</ele><time>2026-04-19T08:13:58.86Z</time></trkpt><trkpt lat="43.491707" lon="10.5436734"><ele>139.4</ele><time>2026-04-19T08:13:59.857Z</time></trkpt><trkpt lat="43.4916272" lon="10.5437769"><ele>139.6</ele><time>2026-04-19T08:14:00.867Z</time></trkpt><trkpt lat="43.4915525" lon="10.5438796"><ele>139.8</ele><time>2026-04-19T08:14:01.866Z</time></trkpt><trkpt lat="43.4914786" lon="10.5439763"><ele>140.0</ele><time>2026-04-19T08:14:02.85Z</time></trkpt><trkpt lat="43.4914051" lon="10.5440693"><ele>140.0</ele><time>2026-04-19T08:14:03.874Z</time></trkpt><trkpt lat="43.4913317" lon="10.544163"><ele>140.0</ele><time>2026-04-19T08:14:04.883Z</time></trkpt><trkpt lat="43.4912596" lon="10.5442571"><ele>140.0</ele><time>2026-04-19T08:14:05.869Z</time></trkpt><trkpt lat="43.4911921" lon="10.5443527"><ele>140.0</ele><time>2026-04-19T08:14:06.877Z</time></trkpt><trkpt lat="43.4911326" lon="10.5444462"><ele>140.0</ele><time>2026-04-19T08:14:07.868Z</time></trkpt><trkpt lat="43.4910781" lon="10.5445381"><ele>141.16666666666666</ele><time>2026-04-19T08:14:08.883Z</time></trkpt><trkpt lat="43.4910278" lon="10.5446283"><ele>142.33333333333331</ele><time>2026-04-19T08:14:09.877Z</time></trkpt><trkpt lat="43.4909823" lon="10.5447166"><ele>143.5</ele><time>2026-04-19T08:14:10.879Z</time></trkpt><trkpt lat="43.490942" lon="10.5448046"><ele>144.66666666666666</ele><time>2026-04-19T08:14:11.866Z</time></trkpt><trkpt lat="43.4909058" lon="10.5448956"><ele>145.83333333333334</ele><time>2026-04-19T08:14:12.881Z</time></trkpt><trkpt lat="43.490874" lon="10.5449863"><ele>147.0</ele><time>2026-04-19T08:14:13.873Z</time></trkpt><trkpt lat="43.4908438" lon="10.5450748"><ele>147.0</ele><time>2026-04-19T08:14:14.873Z</time></trkpt><trkpt lat="43.4908228" lon="10.5451699"><ele>147.0</ele><time>2026-04-19T08:14:15.863Z</time></trkpt><trkpt lat="43.4908096" lon="10.5452603"><ele>147.0</ele><time>2026-04-19T08:14:16.872Z</time></trkpt><trkpt lat="43.4907967" lon="10.545351"><ele>147.0</ele><time>2026-04-19T08:14:17.873Z</time></trkpt><trkpt lat="43.4907834" lon="10.5454474"><ele>147.0</ele><time>2026-04-19T08:14:18.89Z</time></trkpt><trkpt lat="43.4907712" lon="10.5455455"><ele>147.0</ele><time>2026-04-19T08:14:19.877Z</time></trkpt><trkpt lat="43.4907611" lon="10.545646"><ele>147.0</ele><time>2026-04-19T08:14:20.874Z</time></trkpt><trkpt lat="43.4907525" lon="10.5457526"><ele>147.0</ele><time>2026-04-19T08:14:21.876Z</time></trkpt><trkpt lat="43.4907463" lon="10.5458601"><ele>147.0</ele><time>2026-04-19T08:14:22.87Z</time></trkpt><trkpt lat="43.4907379" lon="10.5459728"><ele>147.0</ele><time>2026-04-19T08:14:23.878Z</time></trkpt><trkpt lat="43.490726" lon="10.5460908"><ele>147.0</ele><time>2026-04-19T08:14:24.875Z</time></trkpt><trkpt lat="43.4907121" lon="10.5462114"><ele>147.0</ele><time>2026-04-19T08:14:25.883Z</time></trkpt><trkpt lat="43.4906958" lon="10.5463387"><ele>147.0</ele><time>2026-04-19T08:14:26.882Z</time></trkpt><trkpt lat="43.4906802" lon="10.5464755"><ele>147.0</ele><time>2026-04-19T08:14:27.882Z</time></trkpt><trkpt lat="43.490665" lon="10.5466207"><ele>147.0</ele><time>2026-04-19T08:14:28.878Z</time></trkpt><trkpt lat="43.4906507" lon="10.5467692"><ele>147.0</ele><time>2026-04-19T08:14:29.884Z</time></trkpt><trkpt lat="43.4906359" lon="10.5469236"><ele>147.0</ele><time>2026-04-19T08:14:30.875Z</time></trkpt><trkpt lat="43.4906211" lon="10.5470799"><ele>147.0</ele><time>2026-04-19T08:14:31.879Z</time></trkpt><trkpt lat="43.4906072" lon="10.5472342"><ele>147.4</ele><time>2026-04-19T08:14:32.879Z</time></trkpt><trkpt lat="43.4905943" lon="10.5473844"><ele>147.79999999999998</ele><time>2026-04-19T08:14:33.88Z</time></trkpt><trkpt lat="43.490583" lon="10.5475337"><ele>148.2</ele><time>2026-04-19T08:14:34.873Z</time></trkpt><trkpt lat="43.4905752" lon="10.5476812"><ele>148.6</ele><time>2026-04-19T08:14:35.882Z</time></trkpt><trkpt lat="43.490568" lon="10.5478299"><ele>149.0</ele><time>2026-04-19T08:14:36.878Z</time></trkpt><trkpt lat="43.4905797" lon="10.5479787"><ele>149.6</ele><time>2026-04-19T08:14:37.885Z</time></trkpt><trkpt lat="43.4905992" lon="10.5481229"><ele>150.2</ele><time>2026-04-19T08:14:38.871Z</time></trkpt><trkpt lat="43.4906223" lon="10.5482667"><ele>150.79999999999998</ele><time>2026-04-19T08:14:39.873Z</time></trkpt><trkpt lat="43.490646" lon="10.5484133"><ele>151.4</ele><time>2026-04-19T08:14:40.867Z</time></trkpt><trkpt lat="43.4906674" lon="10.5485621"><ele>152.0</ele><time>2026-04-19T08:14:41.878Z</time></trkpt><trkpt lat="43.4906844" lon="10.5487136"><ele>152.4</ele><time>2026-04-19T08:14:42.874Z</time></trkpt><trkpt lat="43.4906961" lon="10.5488667"><ele>152.79999999999998</ele><time>2026-04-19T08:14:43.867Z</time></trkpt><trkpt lat="43.4907039" lon="10.5490211"><ele>153.2</ele><time>2026-04-19T08:14:44.871Z</time></trkpt><trkpt lat="43.4907105" lon="10.5491741"><ele>153.6</ele><time>2026-04-19T08:14:45.869Z</time></trkpt><trkpt lat="43.4907154" lon="10.5493252"><ele>154.0</ele><time>2026-04-19T08:14:46.873Z</time></trkpt><trkpt lat="43.4907196" lon="10.549476"><ele>153.8</ele><time>2026-04-19T08:14:47.868Z</time></trkpt><trkpt lat="43.4907225" lon="10.5496241"><ele>153.60000000000002</ele><time>2026-04-19T08:14:48.891Z</time></trkpt><trkpt lat="43.4907241" lon="10.549775"><ele>153.4</ele><time>2026-04-19T08:14:49.881Z</time></trkpt><trkpt lat="43.4907243" lon="10.5499257"><ele>153.20000000000002</ele><time>2026-04-19T08:14:50.875Z</time></trkpt><trkpt lat="43.490719" lon="10.5500804"><ele>153.0</ele><time>2026-04-19T08:14:51.871Z</time></trkpt><trkpt lat="43.4907028" lon="10.5502347"><ele>152.20000000000002</ele><time>2026-04-19T08:14:52.881Z</time></trkpt><trkpt lat="43.4906857" lon="10.5503853"><ele>151.4</ele><time>2026-04-19T08:14:53.881Z</time></trkpt><trkpt lat="43.4906531" lon="10.5505277"><ele>150.60000000000002</ele><time>2026-04-19T08:14:54.864Z</time></trkpt><trkpt lat="43.4906164" lon="10.5506712"><ele>149.8</ele><time>2026-04-19T08:14:55.876Z</time></trkpt><trkpt lat="43.490575" lon="10.5508153"><ele>149.0</ele><time>2026-04-19T08:14:56.874Z</time></trkpt><trkpt lat="43.4905364" lon="10.5509579"><ele>149.0</ele><time>2026-04-19T08:14:57.875Z</time></trkpt><trkpt lat="43.4905078" lon="10.5511036"><ele>149.0</ele><time>2026-04-19T08:14:58.877Z</time></trkpt><trkpt lat="43.4904918" lon="10.5512534"><ele>149.0</ele><time>2026-04-19T08:14:59.878Z</time></trkpt><trkpt lat="43.4904902" lon="10.5514059"><ele>149.0</ele><time>2026-04-19T08:15:00.878Z</time></trkpt><trkpt lat="43.4904994" lon="10.5515643"><ele>149.0</ele><time>2026-04-19T08:15:01.872Z</time></trkpt><trkpt lat="43.4905082" lon="10.5517199"><ele>148.4</ele><time>2026-04-19T08:15:02.876Z</time></trkpt><trkpt lat="43.4905071" lon="10.5518682"><ele>147.8</ele><time>2026-04-19T08:15:03.865Z</time></trkpt><trkpt lat="43.4904929" lon="10.5520152"><ele>147.2</ele><time>2026-04-19T08:15:04.87Z</time></trkpt><trkpt lat="43.4904669" lon="10.5521587"><ele>146.6</ele><time>2026-04-19T08:15:05.866Z</time></trkpt><trkpt lat="43.4904403" lon="10.5522986"><ele>146.0</ele><time>2026-04-19T08:15:06.882Z</time></trkpt><trkpt lat="43.4904011" lon="10.5524387"><ele>146.0</ele><time>2026-04-19T08:15:07.861Z</time></trkpt><trkpt lat="43.4903613" lon="10.5525824"><ele>146.0</ele><time>2026-04-19T08:15:08.874Z</time></trkpt><trkpt lat="43.490324" lon="10.5527267"><ele>146.0</ele><time>2026-04-19T08:15:09.857Z</time></trkpt><trkpt lat="43.4902906" lon="10.5528731"><ele>146.0</ele><time>2026-04-19T08:15:10.889Z</time></trkpt><trkpt lat="43.4902622" lon="10.55302"><ele>146.0</ele><time>2026-04-19T08:15:11.872Z</time></trkpt><trkpt lat="43.4902388" lon="10.5531701"><ele>146.0</ele><time>2026-04-19T08:15:12.868Z</time></trkpt><trkpt lat="43.490219" lon="10.5533139"><ele>146.0</ele><time>2026-04-19T08:15:13.867Z</time></trkpt><trkpt lat="43.4901983" lon="10.5534549"><ele>146.0</ele><time>2026-04-19T08:15:14.858Z</time></trkpt><trkpt lat="43.4901778" lon="10.5535986"><ele>146.0</ele><time>2026-04-19T08:15:15.864Z</time></trkpt><trkpt lat="43.490156" lon="10.5537427"><ele>146.0</ele><time>2026-04-19T08:15:16.89Z</time></trkpt><trkpt lat="43.4901327" lon="10.5538836"><ele>147.0</ele><time>2026-04-19T08:15:17.883Z</time></trkpt><trkpt lat="43.4901017" lon="10.5540215"><ele>148.0</ele><time>2026-04-19T08:15:18.885Z</time></trkpt><trkpt lat="43.4900652" lon="10.5541587"><ele>149.0</ele><time>2026-04-19T08:15:19.88Z</time></trkpt><trkpt lat="43.4900277" lon="10.5542947"><ele>150.0</ele><time>2026-04-19T08:15:20.884Z</time></trkpt><trkpt lat="43.4899703" lon="10.5544224"><ele>151.0</ele><time>2026-04-19T08:15:21.872Z</time></trkpt><trkpt lat="43.4899009" lon="10.5545381"><ele>151.5</ele><time>2026-04-19T08:15:22.857Z</time></trkpt><trkpt lat="43.489824" lon="10.5546478"><ele>152.0</ele><time>2026-04-19T08:15:23.865Z</time></trkpt><trkpt lat="43.4897434" lon="10.5547553"><ele>152.5</ele><time>2026-04-19T08:15:24.863Z</time></trkpt><trkpt lat="43.4896603" lon="10.5548651"><ele>153.0</ele><time>2026-04-19T08:15:25.872Z</time></trkpt><trkpt lat="43.4895753" lon="10.5549777"><ele>154.0</ele><time>2026-04-19T08:15:26.865Z</time></trkpt><trkpt lat="43.4894869" lon="10.555095"><ele>155.0</ele><time>2026-04-19T08:15:27.873Z</time></trkpt><trkpt lat="43.4893961" lon="10.5552134"><ele>156.0</ele><time>2026-04-19T08:15:28.865Z</time></trkpt><trkpt lat="43.4893055" lon="10.5553348"><ele>157.0</ele><time>2026-04-19T08:15:29.872Z</time></trkpt><trkpt lat="43.4892212" lon="10.5554647"><ele>158.0</ele><time>2026-04-19T08:15:30.881Z</time></trkpt><trkpt lat="43.4891481" lon="10.5556087"><ele>159.0</ele><time>2026-04-19T08:15:31.874Z</time></trkpt><trkpt lat="43.4890854" lon="10.555766"><ele>160.0</ele><time>2026-04-19T08:15:32.877Z</time></trkpt><trkpt lat="43.489031" lon="10.5559307"><ele>161.0</ele><time>2026-04-19T08:15:33.879Z</time></trkpt><trkpt lat="43.4889798" lon="10.556101"><ele>161.0</ele><time>2026-04-19T08:15:34.871Z</time></trkpt><trkpt lat="43.4889287" lon="10.5562719"><ele>161.0</ele><time>2026-04-19T08:15:35.87Z</time></trkpt><trkpt lat="43.4888791" lon="10.5564481"><ele>161.0</ele><time>2026-04-19T08:15:36.872Z</time></trkpt><trkpt lat="43.4888357" lon="10.5566279"><ele>161.0</ele><time>2026-04-19T08:15:37.877Z</time></trkpt><trkpt lat="43.488796" lon="10.5568139"><ele>161.0</ele><time>2026-04-19T08:15:38.88Z</time></trkpt><trkpt lat="43.4887605" lon="10.5570038"><ele>161.0</ele><time>2026-04-19T08:15:39.877Z</time></trkpt><trkpt lat="43.4887266" lon="10.5571971"><ele>161.0</ele><time>2026-04-19T08:15:40.866Z</time></trkpt><trkpt lat="43.4886942" lon="10.5573937"><ele>161.0</ele><time>2026-04-19T08:15:41.863Z</time></trkpt><trkpt lat="43.4886631" lon="10.5575933"><ele>161.75</ele><time>2026-04-19T08:15:42.87Z</time></trkpt><trkpt lat="43.4886334" lon="10.5577948"><ele>162.5</ele><time>2026-04-19T08:15:43.869Z</time></trkpt><trkpt lat="43.4886034" lon="10.5579972"><ele>163.25</ele><time>2026-04-19T08:15:44.877Z</time></trkpt><trkpt lat="43.4885721" lon="10.5582"><ele>164.0</ele><time>2026-04-19T08:15:45.874Z</time></trkpt><trkpt lat="43.4885402" lon="10.5584012"><ele>164.0</ele><time>2026-04-19T08:15:46.867Z</time></trkpt><trkpt lat="43.4885093" lon="10.5586022"><ele>164.0</ele><time>2026-04-19T08:15:47.869Z</time></trkpt><trkpt lat="43.4884822" lon="10.5588026"><ele>164.0</ele><time>2026-04-19T08:15:48.88Z</time></trkpt><trkpt lat="43.4884635" lon="10.5590028"><ele>164.0</ele><time>2026-04-19T08:15:49.876Z</time></trkpt><trkpt lat="43.4884552" lon="10.5592038"><ele>164.75</ele><time>2026-04-19T08:15:50.873Z</time></trkpt><trkpt lat="43.4884544" lon="10.5594029"><ele>165.5</ele><time>2026-04-19T08:15:51.871Z</time></trkpt><trkpt lat="43.488459" lon="10.5596025"><ele>166.25</ele><time>2026-04-19T08:15:52.876Z</time></trkpt><trkpt lat="43.488463" lon="10.5598004"><ele>167.0</ele><time>2026-04-19T08:15:53.878Z</time></trkpt><trkpt lat="43.488468" lon="10.5599955"><ele>167.5</ele><time>2026-04-19T08:15:54.887Z</time></trkpt><trkpt lat="43.4884715" lon="10.5601896"><ele>168.0</ele><time>2026-04-19T08:15:55.876Z</time></trkpt><trkpt lat="43.4884712" lon="10.5603851"><ele>168.5</ele><time>2026-04-19T08:15:56.869Z</time></trkpt><trkpt lat="43.488464" lon="10.5605783"><ele>169.0</ele><time>2026-04-19T08:15:57.871Z</time></trkpt><trkpt lat="43.4884531" lon="10.5607727"><ele>169.25</ele><time>2026-04-19T08:15:58.886Z</time></trkpt><trkpt lat="43.4884398" lon="10.5609688"><ele>169.5</ele><time>2026-04-19T08:15:59.877Z</time></trkpt><trkpt lat="43.4884273" lon="10.561154"><ele>169.75</ele><time>2026-04-19T08:16:00.887Z</time></trkpt><trkpt lat="43.488417" lon="10.561318"><ele>170.0</ele><time>2026-04-19T08:16:01.877Z</time></trkpt><trkpt lat="43.4884047" lon="10.5614575"><ele>170.33333333333331</ele><time>2026-04-19T08:16:02.878Z</time></trkpt><trkpt lat="43.4883906" lon="10.561578"><ele>170.66666666666666</ele><time>2026-04-19T08:16:03.885Z</time></trkpt><trkpt lat="43.4883737" lon="10.5616701"><ele>171.0</ele><time>2026-04-19T08:16:04.885Z</time></trkpt><trkpt lat="43.4883423" lon="10.5617669"><ele>171.33333333333334</ele><time>2026-04-19T08:16:06.879Z</time></trkpt><trkpt lat="43.4883154" lon="10.5618507"><ele>171.66666666666669</ele><time>2026-04-19T08:16:57.865Z</time></trkpt><trkpt lat="43.4882122" lon="10.5619726"><ele>172.0</ele><time>2026-04-19T08:16:59.868Z</time></trkpt><trkpt lat="43.4881412" lon="10.562049"><ele>172.8</ele><time>2026-04-19T08:17:00.87Z</time></trkpt><trkpt lat="43.4880639" lon="10.5621376"><ele>173.6</ele><time>2026-04-19T08:17:01.867Z</time></trkpt><trkpt lat="43.4879828" lon="10.5622403"><ele>174.4</ele><time>2026-04-19T08:17:02.861Z</time></trkpt><trkpt lat="43.4879012" lon="10.5623528"><ele>175.20000000000002</ele><time>2026-04-19T08:17:03.867Z</time></trkpt><trkpt lat="43.4878227" lon="10.5624691"><ele>176.0</ele><time>2026-04-19T08:17:04.858Z</time></trkpt><trkpt lat="43.4877466" lon="10.5625887"><ele>175.4</ele><time>2026-04-19T08:17:05.882Z</time></trkpt><trkpt lat="43.4876751" lon="10.562712"><ele>174.8</ele><time>2026-04-19T08:17:06.86Z</time></trkpt><trkpt lat="43.4876116" lon="10.5628312"><ele>174.20000000000002</ele><time>2026-04-19T08:17:07.866Z</time></trkpt><trkpt lat="43.4875562" lon="10.5629438"><ele>173.60000000000002</ele><time>2026-04-19T08:17:08.846Z</time></trkpt><trkpt lat="43.4875077" lon="10.5630471"><ele>173.0</ele><time>2026-04-19T08:17:09.848Z</time></trkpt><trkpt lat="43.4874606" lon="10.5631445"><ele>173.0</ele><time>2026-04-19T08:17:10.855Z</time></trkpt><trkpt lat="43.4874046" lon="10.5632144"><ele>173.0</ele><time>2026-04-19T08:17:11.861Z</time></trkpt><trkpt lat="43.4873487" lon="10.5632785"><ele>173.0</ele><time>2026-04-19T08:17:12.853Z</time></trkpt><trkpt lat="43.4872706" lon="10.5632881"><ele>173.0</ele><time>2026-04-19T08:17:13.856Z</time></trkpt><trkpt lat="43.487177" lon="10.5632875"><ele>173.0</ele><time>2026-04-19T08:17:14.857Z</time></trkpt><trkpt lat="43.487074" lon="10.5632851"><ele>173.0</ele><time>2026-04-19T08:17:15.861Z</time></trkpt><trkpt lat="43.4869659" lon="10.5632824"><ele>174.33333333333331</ele><time>2026-04-19T08:17:16.861Z</time></trkpt><trkpt lat="43.4868682" lon="10.5632809"><ele>175.66666666666666</ele><time>2026-04-19T08:17:17.886Z</time></trkpt><trkpt lat="43.4867806" lon="10.5632756"><ele>177.0</ele><time>2026-04-19T08:17:18.862Z</time></trkpt><trkpt lat="43.4867205" lon="10.5632353"><ele>178.33333333333334</ele><time>2026-04-19T08:17:19.86Z</time></trkpt><trkpt lat="43.486678" lon="10.5631559"><ele>179.66666666666669</ele><time>2026-04-19T08:17:20.866Z</time></trkpt><trkpt lat="43.4866379" lon="10.5630746"><ele>181.0</ele><time>2026-04-19T08:17:21.853Z</time></trkpt><trkpt lat="43.4865981" lon="10.5629688"><ele>178.8</ele><time>2026-04-19T08:17:22.863Z</time></trkpt><trkpt lat="43.4865849" lon="10.5628425"><ele>176.60000000000002</ele><time>2026-04-19T08:17:23.847Z</time></trkpt><trkpt lat="43.4865514" lon="10.5627136"><ele>174.4</ele><time>2026-04-19T08:17:24.848Z</time></trkpt><trkpt lat="43.4864952" lon="10.5625809"><ele>172.2</ele><time>2026-04-19T08:17:25.849Z</time></trkpt><trkpt lat="43.4863996" lon="10.5624609"><ele>170.0</ele><time>2026-04-19T08:17:26.848Z</time></trkpt><trkpt lat="43.486305" lon="10.5623532"><ele>170.0</ele><time>2026-04-19T08:17:27.861Z</time></trkpt><trkpt lat="43.4861979" lon="10.562259"><ele>170.0</ele><time>2026-04-19T08:17:28.86Z</time></trkpt><trkpt lat="43.4860829" lon="10.5621624"><ele>170.0</ele><time>2026-04-19T08:17:29.853Z</time></trkpt><trkpt lat="43.4859767" lon="10.5620736"><ele>170.0</ele><time>2026-04-19T08:17:30.865Z</time></trkpt><trkpt lat="43.4858854" lon="10.5620101"><ele>170.0</ele><time>2026-04-19T08:17:31.863Z</time></trkpt><trkpt lat="43.4858017" lon="10.5619677"><ele>170.0</ele><time>2026-04-19T08:17:32.872Z</time></trkpt><trkpt lat="43.4857198" lon="10.5619465"><ele>170.0</ele><time>2026-04-19T08:17:33.871Z</time></trkpt><trkpt lat="43.4856482" lon="10.5619586"><ele>170.0</ele><time>2026-04-19T08:17:34.864Z</time></trkpt><trkpt lat="43.4855644" lon="10.5620517"><ele>170.0</ele><time>2026-04-19T08:17:36.858Z</time></trkpt><trkpt lat="43.485537" lon="10.5622097"><ele>173.6</ele><time>2026-04-19T08:17:38.865Z</time></trkpt><trkpt lat="43.4855354" lon="10.5623175"><ele>177.2</ele><time>2026-04-19T08:17:39.865Z</time></trkpt><trkpt lat="43.4855193" lon="10.5624476"><ele>180.8</ele><time>2026-04-19T08:17:40.858Z</time></trkpt><trkpt lat="43.4854947" lon="10.5625846"><ele>184.4</ele><time>2026-04-19T08:17:41.871Z</time></trkpt><trkpt lat="43.4854748" lon="10.5627381"><ele>188.0</ele><time>2026-04-19T08:17:42.859Z</time></trkpt><trkpt lat="43.4854723" lon="10.5628991"><ele>191.5</ele><time>2026-04-19T08:17:43.865Z</time></trkpt><trkpt lat="43.4854757" lon="10.563065"><ele>195.0</ele><time>2026-04-19T08:17:44.864Z</time></trkpt><trkpt lat="43.4854977" lon="10.563234"><ele>198.5</ele><time>2026-04-19T08:17:45.863Z</time></trkpt><trkpt lat="43.4855334" lon="10.563411"><ele>202.0</ele><time>2026-04-19T08:17:46.867Z</time></trkpt><trkpt lat="43.4856235" lon="10.5637756"><ele>203.75</ele><time>2026-04-19T08:17:48.858Z</time></trkpt><trkpt lat="43.4856462" lon="10.5639284"><ele>205.5</ele><time>2026-04-19T08:17:49.863Z</time></trkpt><trkpt lat="43.4856464" lon="10.5640945"><ele>207.25</ele><time>2026-04-19T08:17:50.847Z</time></trkpt><trkpt lat="43.4856391" lon="10.5642776"><ele>209.0</ele><time>2026-04-19T08:17:51.867Z</time></trkpt><trkpt lat="43.4856211" lon="10.5644658"><ele>211.0</ele><time>2026-04-19T08:17:52.857Z</time></trkpt><trkpt lat="43.4855862" lon="10.5646488"><ele>213.0</ele><time>2026-04-19T08:17:53.845Z</time></trkpt><trkpt lat="43.4855507" lon="10.5648281"><ele>215.0</ele><time>2026-04-19T08:17:54.859Z</time></trkpt><trkpt lat="43.4854909" lon="10.5649865"><ele>217.0</ele><time>2026-04-19T08:17:55.866Z</time></trkpt><trkpt lat="43.4854215" lon="10.5651335"><ele>217.0</ele><time>2026-04-19T08:17:56.866Z</time></trkpt><trkpt lat="43.4853445" lon="10.5652755"><ele>217.0</ele><time>2026-04-19T08:17:57.865Z</time></trkpt><trkpt lat="43.4852578" lon="10.5654164"><ele>217.0</ele><time>2026-04-19T08:17:58.867Z</time></trkpt><trkpt lat="43.4851655" lon="10.5655506"><ele>217.0</ele><time>2026-04-19T08:17:59.874Z</time></trkpt><trkpt lat="43.485068" lon="10.5656788"><ele>219.0</ele><time>2026-04-19T08:18:00.866Z</time></trkpt><trkpt lat="43.4849686" lon="10.565805"><ele>221.0</ele><time>2026-04-19T08:18:01.876Z</time></trkpt><trkpt lat="43.4848665" lon="10.565925"><ele>223.0</ele><time>2026-04-19T08:18:02.867Z</time></trkpt><trkpt lat="43.484763" lon="10.5660442"><ele>225.0</ele><time>2026-04-19T08:18:03.878Z</time></trkpt><trkpt lat="43.484658" lon="10.566163"><ele>226.25</ele><time>2026-04-19T08:18:04.878Z</time></trkpt><trkpt lat="43.484552" lon="10.5662781"><ele>227.5</ele><time>2026-04-19T08:18:05.865Z</time></trkpt><trkpt lat="43.4844476" lon="10.566385"><ele>228.75</ele><time>2026-04-19T08:18:06.887Z</time></trkpt><trkpt lat="43.4843436" lon="10.5664887"><ele>230.0</ele><time>2026-04-19T08:18:07.877Z</time></trkpt><trkpt lat="43.4842422" lon="10.5665916"><ele>230.0</ele><time>2026-04-19T08:18:08.869Z</time></trkpt><trkpt lat="43.4841406" lon="10.5666897"><ele>230.0</ele><time>2026-04-19T08:18:09.881Z</time></trkpt><trkpt lat="43.4840388" lon="10.5667878"><ele>230.0</ele><time>2026-04-19T08:18:10.87Z</time></trkpt><trkpt lat="43.4839254" lon="10.5668474"><ele>230.0</ele><time>2026-04-19T08:18:11.883Z</time></trkpt><trkpt lat="43.4838077" lon="10.5669075"><ele>231.5</ele><time>2026-04-19T08:18:12.882Z</time></trkpt><trkpt lat="43.4836862" lon="10.5669373"><ele>233.0</ele><time>2026-04-19T08:18:13.878Z</time></trkpt><trkpt lat="43.4835686" lon="10.5669643"><ele>234.5</ele><time>2026-04-19T08:18:14.878Z</time></trkpt><trkpt lat="43.4834509" lon="10.5669913"><ele>236.0</ele><time>2026-04-19T08:18:15.88Z</time></trkpt><trkpt lat="43.4833361" lon="10.567052"><ele>239.5</ele><time>2026-04-19T08:18:16.881Z</time></trkpt><trkpt lat="43.4832349" lon="10.567129"><ele>243.0</ele><time>2026-04-19T08:18:17.876Z</time></trkpt><trkpt lat="43.4831255" lon="10.5672058"><ele>246.5</ele><time>2026-04-19T08:18:18.875Z</time></trkpt><trkpt lat="43.4830218" lon="10.5672856"><ele>250.0</ele><time>2026-04-19T08:18:19.876Z</time></trkpt><trkpt lat="43.4829287" lon="10.5673671"><ele>251.0</ele><time>2026-04-19T08:18:20.87Z</time></trkpt><trkpt lat="43.4828599" lon="10.5674595"><ele>252.0</ele><time>2026-04-19T08:18:21.877Z</time></trkpt><trkpt lat="43.4828094" lon="10.5675713"><ele>253.0</ele><time>2026-04-19T08:18:22.874Z</time></trkpt><trkpt lat="43.482769" lon="10.5677051"><ele>254.0</ele><time>2026-04-19T08:18:23.879Z</time></trkpt><trkpt lat="43.4827358" lon="10.5678616"><ele>255.0</ele><time>2026-04-19T08:18:24.859Z</time></trkpt><trkpt lat="43.4827029" lon="10.5680225"><ele>257.25</ele><time>2026-04-19T08:18:25.865Z</time></trkpt><trkpt lat="43.4826809" lon="10.5682035"><ele>259.5</ele><time>2026-04-19T08:18:26.872Z</time></trkpt><trkpt lat="43.4826606" lon="10.5684013"><ele>261.75</ele><time>2026-04-19T08:18:27.87Z</time></trkpt><trkpt lat="43.4826353" lon="10.5686057"><ele>264.0</ele><time>2026-04-19T08:18:28.883Z</time></trkpt><trkpt lat="43.4826036" lon="10.5688006"><ele>264.75</ele><time>2026-04-19T08:18:29.875Z</time></trkpt><trkpt lat="43.4825649" lon="10.5689834"><ele>265.5</ele><time>2026-04-19T08:18:30.855Z</time></trkpt><trkpt lat="43.4825161" lon="10.5691496"><ele>266.25</ele><time>2026-04-19T08:18:31.877Z</time></trkpt><trkpt lat="43.4824558" lon="10.5693018"><ele>267.0</ele><time>2026-04-19T08:18:32.884Z</time></trkpt><trkpt lat="43.4823943" lon="10.5694423"><ele>267.1666666666667</ele><time>2026-04-19T08:18:33.867Z</time></trkpt><trkpt lat="43.4823433" lon="10.5695635"><ele>267.3333333333333</ele><time>2026-04-19T08:18:34.874Z</time></trkpt><trkpt lat="43.4823059" lon="10.5696671"><ele>267.5</ele><time>2026-04-19T08:18:35.864Z</time></trkpt><trkpt lat="43.482277" lon="10.5697485"><ele>267.66666666666663</ele><time>2026-04-19T08:18:36.877Z</time></trkpt><trkpt lat="43.4822445" lon="10.5698548"><ele>267.8333333333333</ele><time>2026-04-19T08:18:38.881Z</time></trkpt><trkpt lat="43.4822456" lon="10.5699724"><ele>268.0</ele><time>2026-04-19T08:20:26.87Z</time></trkpt><trkpt lat="43.4821738" lon="10.5701301"><ele>268.0</ele><time>2026-04-19T08:20:28.87Z</time></trkpt><trkpt lat="43.4821235" lon="10.5702067"><ele>268.0</ele><time>2026-04-19T08:20:29.872Z</time></trkpt><trkpt lat="43.4820552" lon="10.5702808"><ele>268.0</ele><time>2026-04-19T08:20:30.873Z</time></trkpt><trkpt lat="43.4819835" lon="10.5703535"><ele>268.0</ele><time>2026-04-19T08:20:31.869Z</time></trkpt><trkpt lat="43.4819341" lon="10.5704144"><ele>268.0</ele><time>2026-04-19T08:20:32.872Z</time></trkpt><trkpt lat="43.4818513" lon="10.5704545"><ele>268.0</ele><time>2026-04-19T08:20:34.877Z</time></trkpt><trkpt lat="43.4817342" lon="10.5704356"><ele>268.8333333333333</ele><time>2026-04-19T08:20:36.88Z</time></trkpt><trkpt lat="43.4816439" lon="10.5704447"><ele>269.66666666666663</ele><time>2026-04-19T08:20:37.87Z</time></trkpt><trkpt lat="43.4815453" lon="10.5704378"><ele>270.5</ele><time>2026-04-19T08:20:38.868Z</time></trkpt><trkpt lat="43.4814628" lon="10.5704127"><ele>271.3333333333333</ele><time>2026-04-19T08:20:39.869Z</time></trkpt><trkpt lat="43.481396" lon="10.5703933"><ele>272.1666666666667</ele><time>2026-04-19T08:20:40.864Z</time></trkpt><trkpt lat="43.4813142" lon="10.5704038"><ele>273.0</ele><time>2026-04-19T08:20:42.887Z</time></trkpt><trkpt lat="43.4812217" lon="10.5705111"><ele>273.6</ele><time>2026-04-19T08:20:44.857Z</time></trkpt><trkpt lat="43.4811099" lon="10.5705956"><ele>274.20000000000005</ele><time>2026-04-19T08:20:46.871Z</time></trkpt><trkpt lat="43.4810277" lon="10.5706195"><ele>274.8</ele><time>2026-04-19T08:20:47.861Z</time></trkpt><trkpt lat="43.4809458" lon="10.5706321"><ele>275.40000000000003</ele><time>2026-04-19T08:20:48.865Z</time></trkpt><trkpt lat="43.4808829" lon="10.5704904"><ele>276.0</ele><time>2026-04-19T08:20:50.874Z</time></trkpt><trkpt lat="43.4808268" lon="10.5704228"><ele>275.6666666666667</ele><time>2026-04-19T08:20:51.859Z</time></trkpt><trkpt lat="43.4807655" lon="10.5703329"><ele>275.3333333333333</ele><time>2026-04-19T08:20:52.867Z</time></trkpt><trkpt lat="43.4807088" lon="10.5702431"><ele>275.0</ele><time>2026-04-19T08:20:53.87Z</time></trkpt><trkpt lat="43.4806476" lon="10.5701762"><ele>274.66666666666663</ele><time>2026-04-19T08:20:54.865Z</time></trkpt><trkpt lat="43.4805505" lon="10.5700855"><ele>274.3333333333333</ele><time>2026-04-19T08:20:56.876Z</time></trkpt><trkpt lat="43.4804966" lon="10.5700231"><ele>274.0</ele><time>2026-04-19T08:20:57.868Z</time></trkpt><trkpt lat="43.4804265" lon="10.5699572"><ele>274.0</ele><time>2026-04-19T08:20:58.871Z</time></trkpt><trkpt lat="43.4803349" lon="10.5698815"><ele>274.0</ele><time>2026-04-19T08:20:59.871Z</time></trkpt><trkpt lat="43.4802262" lon="10.5697958"><ele>274.0</ele><time>2026-04-19T08:21:00.876Z</time></trkpt><trkpt lat="43.4801211" lon="10.5697025"><ele>274.0</ele><time>2026-04-19T08:21:01.874Z</time></trkpt><trkpt lat="43.4800121" lon="10.5696066"><ele>270.0</ele><time>2026-04-19T08:21:02.889Z</time></trkpt><trkpt lat="43.4799147" lon="10.5695136"><ele>266.0</ele><time>2026-04-19T08:21:03.867Z</time></trkpt><trkpt lat="43.479825" lon="10.5694226"><ele>262.0</ele><time>2026-04-19T08:21:04.863Z</time></trkpt><trkpt lat="43.4797528" lon="10.5693324"><ele>258.0</ele><time>2026-04-19T08:21:05.864Z</time></trkpt><trkpt lat="43.479678" lon="10.5692457"><ele>254.0</ele><time>2026-04-19T08:21:06.86Z</time></trkpt><trkpt lat="43.4796009" lon="10.5691665"><ele>256.75</ele><time>2026-04-19T08:21:07.867Z</time></trkpt><trkpt lat="43.4794909" lon="10.5691037"><ele>259.5</ele><time>2026-04-19T08:21:08.874Z</time></trkpt><trkpt lat="43.4793804" lon="10.5690606"><ele>262.25</ele><time>2026-04-19T08:21:09.86Z</time></trkpt><trkpt lat="43.479246" lon="10.5690483"><ele>265.0</ele><time>2026-04-19T08:21:10.866Z</time></trkpt><trkpt lat="43.4791072" lon="10.5690511"><ele>265.0</ele><time>2026-04-19T08:21:11.877Z</time></trkpt><trkpt lat="43.478966" lon="10.5690571"><ele>265.0</ele><time>2026-04-19T08:21:12.856Z</time></trkpt><trkpt lat="43.4788173" lon="10.5690554"><ele>265.0</ele><time>2026-04-19T08:21:13.864Z</time></trkpt><trkpt lat="43.4786651" lon="10.5690589"><ele>265.0</ele><time>2026-04-19T08:21:14.862Z</time></trkpt><trkpt lat="43.4785138" lon="10.5690447"><ele>265.0</ele><time>2026-04-19T08:21:15.86Z</time></trkpt><trkpt lat="43.4783665" lon="10.5690238"><ele>265.0</ele><time>2026-04-19T08:21:16.873Z</time></trkpt><trkpt lat="43.4782172" lon="10.5689999"><ele>265.0</ele><time>2026-04-19T08:21:17.874Z</time></trkpt><trkpt lat="43.4780758" lon="10.5689828"><ele>265.0</ele><time>2026-04-19T08:21:18.871Z</time></trkpt><trkpt lat="43.4779474" lon="10.5689822"><ele>263.5</ele><time>2026-04-19T08:21:19.867Z</time></trkpt><trkpt lat="43.4778354" lon="10.5689914"><ele>262.0</ele><time>2026-04-19T08:21:20.854Z</time></trkpt><trkpt lat="43.4777264" lon="10.5689978"><ele>260.5</ele><time>2026-04-19T08:21:21.866Z</time></trkpt><trkpt lat="43.477623" lon="10.5689629"><ele>259.0</ele><time>2026-04-19T08:21:22.871Z</time></trkpt><trkpt lat="43.4775092" lon="10.5689025"><ele>259.0</ele><time>2026-04-19T08:21:23.871Z</time></trkpt><trkpt lat="43.4774028" lon="10.5688327"><ele>259.0</ele><time>2026-04-19T08:21:24.871Z</time></trkpt><trkpt lat="43.4772815" lon="10.5687531"><ele>259.0</ele><time>2026-04-19T08:21:25.863Z</time></trkpt><trkpt lat="43.4771621" lon="10.5686994"><ele>259.0</ele><time>2026-04-19T08:21:26.879Z</time></trkpt><trkpt lat="43.477033" lon="10.5686912"><ele>255.75</ele><time>2026-04-19T08:21:27.877Z</time></trkpt><trkpt lat="43.4768886" lon="10.5686879"><ele>252.5</ele><time>2026-04-19T08:21:28.873Z</time></trkpt><trkpt lat="43.4767633" lon="10.5687009"><ele>249.25</ele><time>2026-04-19T08:21:29.891Z</time></trkpt><trkpt lat="43.476663" lon="10.5687726"><ele>246.0</ele><time>2026-04-19T08:21:30.873Z</time></trkpt><trkpt lat="43.4765808" lon="10.5688739"><ele>246.0</ele><time>2026-04-19T08:21:31.86Z</time></trkpt><trkpt lat="43.4765208" lon="10.5689912"><ele>246.00000000000003</ele><time>2026-04-19T08:21:32.863Z</time></trkpt><trkpt lat="43.4764849" lon="10.5691182"><ele>246.00000000000003</ele><time>2026-04-19T08:21:33.857Z</time></trkpt><trkpt lat="43.4764702" lon="10.5692525"><ele>246.0</ele><time>2026-04-19T08:21:34.881Z</time></trkpt><trkpt lat="43.4764807" lon="10.5693774"><ele>246.0</ele><time>2026-04-19T08:21:35.872Z</time></trkpt><trkpt lat="43.4765151" lon="10.5694966"><ele>246.0</ele><time>2026-04-19T08:21:36.876Z</time></trkpt><trkpt lat="43.4765517" lon="10.5696186"><ele>246.0</ele><time>2026-04-19T08:21:37.881Z</time></trkpt><trkpt lat="43.4766156" lon="10.5697355"><ele>246.0</ele><time>2026-04-19T08:21:38.867Z</time></trkpt><trkpt lat="43.4766679" lon="10.5698373"><ele>246.0</ele><time>2026-04-19T08:21:39.868Z</time></trkpt><trkpt lat="43.4767003" lon="10.5699286"><ele>246.0</ele><time>2026-04-19T08:21:40.878Z</time></trkpt><trkpt lat="43.4767068" lon="10.5700165"><ele>246.0</ele><time>2026-04-19T08:21:41.873Z</time></trkpt><trkpt lat="43.4767097" lon="10.5701041"><ele>246.0</ele><time>2026-04-19T08:21:42.866Z</time></trkpt><trkpt lat="43.4766603" lon="10.5701892"><ele>246.0</ele><time>2026-04-19T08:21:43.878Z</time></trkpt><trkpt lat="43.4766082" lon="10.5702761"><ele>246.0</ele><time>2026-04-19T08:21:44.865Z</time></trkpt><trkpt lat="43.4765455" lon="10.5703521"><ele>246.0</ele><time>2026-04-19T08:21:45.881Z</time></trkpt><trkpt lat="43.4764811" lon="10.5704091"><ele>246.0</ele><time>2026-04-19T08:21:46.873Z</time></trkpt><trkpt lat="43.476412" lon="10.5704266"><ele>246.0</ele><time>2026-04-19T08:21:47.873Z</time></trkpt><trkpt lat="43.4763474" lon="10.5703552"><ele>246.0</ele><time>2026-04-19T08:21:48.873Z</time></trkpt><trkpt lat="43.4762714" lon="10.5702534"><ele>246.0</ele><time>2026-04-19T08:21:49.875Z</time></trkpt><trkpt lat="43.4761799" lon="10.5701312"><ele>246.0</ele><time>2026-04-19T08:21:50.87Z</time></trkpt><trkpt lat="43.4760824" lon="10.5700099"><ele>246.0</ele><time>2026-04-19T08:21:51.87Z</time></trkpt><trkpt lat="43.4759772" lon="10.5698949"><ele>246.25</ele><time>2026-04-19T08:21:52.869Z</time></trkpt><trkpt lat="43.4758623" lon="10.5697753"><ele>246.5</ele><time>2026-04-19T08:21:53.859Z</time></trkpt><trkpt lat="43.4757536" lon="10.5696905"><ele>246.75</ele><time>2026-04-19T08:21:54.857Z</time></trkpt><trkpt lat="43.4756414" lon="10.5696219"><ele>247.0</ele><time>2026-04-19T08:21:55.869Z</time></trkpt><trkpt lat="43.475536" lon="10.5695611"><ele>248.0</ele><time>2026-04-19T08:21:56.856Z</time></trkpt><trkpt lat="43.4754225" lon="10.5695549"><ele>249.0</ele><time>2026-04-19T08:21:57.864Z</time></trkpt><trkpt lat="43.4753013" lon="10.5695748"><ele>250.0</ele><time>2026-04-19T08:21:58.849Z</time></trkpt><trkpt lat="43.4751745" lon="10.5695585"><ele>251.0</ele><time>2026-04-19T08:21:59.87Z</time></trkpt><trkpt lat="43.475062" lon="10.569487"><ele>247.0</ele><time>2026-04-19T08:22:00.863Z</time></trkpt><trkpt lat="43.4749417" lon="10.5694399"><ele>243.00000000000003</ele><time>2026-04-19T08:22:01.86Z</time></trkpt><trkpt lat="43.4748163" lon="10.5693891"><ele>239.00000000000003</ele><time>2026-04-19T08:22:02.868Z</time></trkpt><trkpt lat="43.474718" lon="10.569362"><ele>235.0</ele><time>2026-04-19T08:22:03.868Z</time></trkpt><trkpt lat="43.4746318" lon="10.5693223"><ele>231.0</ele><time>2026-04-19T08:22:04.87Z</time></trkpt><trkpt lat="43.4745656" lon="10.569255"><ele>231.0</ele><time>2026-04-19T08:22:05.87Z</time></trkpt><trkpt lat="43.4745296" lon="10.5691663"><ele>231.0</ele><time>2026-04-19T08:22:06.863Z</time></trkpt><trkpt lat="43.4745203" lon="10.5690569"><ele>231.0</ele><time>2026-04-19T08:22:07.866Z</time></trkpt><trkpt lat="43.4745142" lon="10.5689461"><ele>231.0</ele><time>2026-04-19T08:22:08.858Z</time></trkpt><trkpt lat="43.474522" lon="10.5688092"><ele>231.0</ele><time>2026-04-19T08:22:09.852Z</time></trkpt><trkpt lat="43.4745101" lon="10.5686877"><ele>231.0</ele><time>2026-04-19T08:22:10.874Z</time></trkpt><trkpt lat="43.4744664" lon="10.5685732"><ele>228.0</ele><time>2026-04-19T08:22:11.873Z</time></trkpt><trkpt lat="43.4743973" lon="10.5684616"><ele>225.0</ele><time>2026-04-19T08:22:12.868Z</time></trkpt><trkpt lat="43.4743273" lon="10.5683495"><ele>222.0</ele><time>2026-04-19T08:22:13.871Z</time></trkpt><trkpt lat="43.4742307" lon="10.5682566"><ele>219.0</ele><time>2026-04-19T08:22:14.871Z</time></trkpt><trkpt lat="43.4741286" lon="10.5681432"><ele>219.0</ele><time>2026-04-19T08:22:15.861Z</time></trkpt><trkpt lat="43.4740365" lon="10.5680111"><ele>219.0</ele><time>2026-04-19T08:22:16.861Z</time></trkpt><trkpt lat="43.4739498" lon="10.5678612"><ele>219.0</ele><time>2026-04-19T08:22:17.868Z</time></trkpt><trkpt lat="43.473869" lon="10.5677187"><ele>219.0</ele><time>2026-04-19T08:22:18.872Z</time></trkpt><trkpt lat="43.4738027" lon="10.5675691"><ele>218.75</ele><time>2026-04-19T08:22:19.876Z</time></trkpt><trkpt lat="43.4737375" lon="10.5674182"><ele>218.5</ele><time>2026-04-19T08:22:20.875Z</time></trkpt><trkpt lat="43.4737018" lon="10.567242"><ele>218.25</ele><time>2026-04-19T08:22:21.88Z</time></trkpt><trkpt lat="43.4736501" lon="10.5670684"><ele>218.0</ele><time>2026-04-19T08:22:22.876Z</time></trkpt><trkpt lat="43.4735966" lon="10.5668786"><ele>218.0</ele><time>2026-04-19T08:22:23.873Z</time></trkpt><trkpt lat="43.473556" lon="10.5666927"><ele>218.0</ele><time>2026-04-19T08:22:24.868Z</time></trkpt><trkpt lat="43.4735272" lon="10.5665348"><ele>218.0</ele><time>2026-04-19T08:22:25.868Z</time></trkpt><trkpt lat="43.473489" lon="10.5664015"><ele>218.0</ele><time>2026-04-19T08:22:26.88Z</time></trkpt><trkpt lat="43.4734517" lon="10.5662676"><ele>213.5</ele><time>2026-04-19T08:22:27.879Z</time></trkpt><trkpt lat="43.4733749" lon="10.5661404"><ele>209.0</ele><time>2026-04-19T08:22:28.874Z</time></trkpt><trkpt lat="43.4732832" lon="10.5660088"><ele>204.5</ele><time>2026-04-19T08:22:29.854Z</time></trkpt><trkpt lat="43.4731919" lon="10.565882"><ele>200.0</ele><time>2026-04-19T08:22:30.882Z</time></trkpt><trkpt lat="43.4731019" lon="10.5657618"><ele>200.0</ele><time>2026-04-19T08:22:31.862Z</time></trkpt><trkpt lat="43.4730175" lon="10.5656468"><ele>200.0</ele><time>2026-04-19T08:22:32.879Z</time></trkpt><trkpt lat="43.4729378" lon="10.5655389"><ele>200.0</ele><time>2026-04-19T08:22:33.858Z</time></trkpt><trkpt lat="43.4728645" lon="10.565441"><ele>200.0</ele><time>2026-04-19T08:22:34.868Z</time></trkpt><trkpt lat="43.4727954" lon="10.5653575"><ele>200.0</ele><time>2026-04-19T08:22:35.875Z</time></trkpt><trkpt lat="43.4727498" lon="10.5652875"><ele>199.8</ele><time>2026-04-19T08:22:36.879Z</time></trkpt><trkpt lat="43.4726833" lon="10.5651611"><ele>199.6</ele><time>2026-04-19T08:22:38.873Z</time></trkpt><trkpt lat="43.4726044" lon="10.5650844"><ele>199.39999999999998</ele><time>2026-04-19T08:22:41.853Z</time></trkpt><trkpt lat="43.4725355" lon="10.5650757"><ele>199.2</ele><time>2026-04-19T08:22:42.872Z</time></trkpt><trkpt lat="43.4724506" lon="10.5650557"><ele>199.0</ele><time>2026-04-19T08:22:43.865Z</time></trkpt><trkpt lat="43.4723605" lon="10.5650041"><ele>199.0</ele><time>2026-04-19T08:22:44.877Z</time></trkpt><trkpt lat="43.4722677" lon="10.5649295"><ele>199.0</ele><time>2026-04-19T08:22:45.866Z</time></trkpt><trkpt lat="43.4721688" lon="10.5648451"><ele>199.0</ele><time>2026-04-19T08:22:46.879Z</time></trkpt><trkpt lat="43.472075" lon="10.5647572"><ele>199.0</ele><time>2026-04-19T08:22:47.871Z</time></trkpt><trkpt lat="43.471992" lon="10.564664"><ele>199.0</ele><time>2026-04-19T08:22:48.87Z</time></trkpt><trkpt lat="43.4719273" lon="10.5645496"><ele>197.5</ele><time>2026-04-19T08:22:49.862Z</time></trkpt><trkpt lat="43.471874" lon="10.5644152"><ele>196.0</ele><time>2026-04-19T08:22:50.87Z</time></trkpt><trkpt lat="43.4718261" lon="10.5642636"><ele>194.5</ele><time>2026-04-19T08:22:51.878Z</time></trkpt><trkpt lat="43.471782" lon="10.564098"><ele>193.0</ele><time>2026-04-19T08:22:52.873Z</time></trkpt><trkpt lat="43.4717373" lon="10.5639322"><ele>193.0</ele><time>2026-04-19T08:22:53.875Z</time></trkpt><trkpt lat="43.4716988" lon="10.5637639"><ele>193.0</ele><time>2026-04-19T08:22:54.862Z</time></trkpt><trkpt lat="43.4716501" lon="10.5636021"><ele>193.0</ele><time>2026-04-19T08:22:55.866Z</time></trkpt><trkpt lat="43.4716009" lon="10.5634411"><ele>193.0</ele><time>2026-04-19T08:22:56.868Z</time></trkpt><trkpt lat="43.4715406" lon="10.5632948"><ele>193.0</ele><time>2026-04-19T08:22:57.885Z</time></trkpt><trkpt lat="43.4714537" lon="10.563163"><ele>193.0</ele><time>2026-04-19T08:22:58.861Z</time></trkpt><trkpt lat="43.4713611" lon="10.5630381"><ele>193.0</ele><time>2026-04-19T08:22:59.871Z</time></trkpt><trkpt lat="43.4712674" lon="10.5629075"><ele>193.0</ele><time>2026-04-19T08:23:00.873Z</time></trkpt><trkpt lat="43.4711747" lon="10.562776"><ele>191.5</ele><time>2026-04-19T08:23:01.873Z</time></trkpt><trkpt lat="43.4710758" lon="10.5626504"><ele>190.0</ele><time>2026-04-19T08:23:02.874Z</time></trkpt><trkpt lat="43.470971" lon="10.5625428"><ele>188.5</ele><time>2026-04-19T08:23:03.875Z</time></trkpt><trkpt lat="43.4708621" lon="10.5624482"><ele>187.0</ele><time>2026-04-19T08:23:04.87Z</time></trkpt><trkpt lat="43.4707551" lon="10.5623506"><ele>187.0</ele><time>2026-04-19T08:23:05.877Z</time></trkpt><trkpt lat="43.4706545" lon="10.5622408"><ele>187.0</ele><time>2026-04-19T08:23:06.873Z</time></trkpt><trkpt lat="43.4705621" lon="10.5621157"><ele>187.0</ele><time>2026-04-19T08:23:07.88Z</time></trkpt><trkpt lat="43.4704778" lon="10.5619775"><ele>187.0</ele><time>2026-04-19T08:23:08.873Z</time></trkpt><trkpt lat="43.4703989" lon="10.56183"><ele>185.5</ele><time>2026-04-19T08:23:09.874Z</time></trkpt><trkpt lat="43.4703227" lon="10.5616719"><ele>184.0</ele><time>2026-04-19T08:23:10.87Z</time></trkpt><trkpt lat="43.4702506" lon="10.5615093"><ele>182.5</ele><time>2026-04-19T08:23:11.877Z</time></trkpt><trkpt lat="43.4701888" lon="10.5613516"><ele>181.0</ele><time>2026-04-19T08:23:12.875Z</time></trkpt><trkpt lat="43.4701352" lon="10.5612052"><ele>182.4</ele><time>2026-04-19T08:23:13.886Z</time></trkpt><trkpt lat="43.4700904" lon="10.5610675"><ele>183.8</ele><time>2026-04-19T08:23:14.877Z</time></trkpt><trkpt lat="43.4700592" lon="10.5609365"><ele>185.20000000000002</ele><time>2026-04-19T08:23:15.902Z</time></trkpt><trkpt lat="43.4700442" lon="10.5608146"><ele>186.60000000000002</ele><time>2026-04-19T08:23:16.894Z</time></trkpt><trkpt lat="43.4700388" lon="10.5607123"><ele>188.0</ele><time>2026-04-19T08:23:17.868Z</time></trkpt><trkpt lat="43.470014" lon="10.5606053"><ele>188.0</ele><time>2026-04-19T08:23:19.859Z</time></trkpt><trkpt lat="43.4699375" lon="10.5606203"><ele>188.0</ele><time>2026-04-19T08:23:22.874Z</time></trkpt><trkpt lat="43.4699007" lon="10.5607044"><ele>188.0</ele><time>2026-04-19T08:23:23.874Z</time></trkpt><trkpt lat="43.4698644" lon="10.5607935"><ele>188.0</ele><time>2026-04-19T08:23:24.87Z</time></trkpt><trkpt lat="43.4698419" lon="10.5609087"><ele>188.0</ele><time>2026-04-19T08:23:25.87Z</time></trkpt><trkpt lat="43.469837" lon="10.5610341"><ele>188.0</ele><time>2026-04-19T08:23:26.869Z</time></trkpt><trkpt lat="43.4698542" lon="10.5611898"><ele>186.25</ele><time>2026-04-19T08:23:27.86Z</time></trkpt><trkpt lat="43.4698746" lon="10.5613649"><ele>184.5</ele><time>2026-04-19T08:23:28.87Z</time></trkpt><trkpt lat="43.4698936" lon="10.5615495"><ele>182.75</ele><time>2026-04-19T08:23:29.872Z</time></trkpt><trkpt lat="43.4699174" lon="10.5617403"><ele>181.0</ele><time>2026-04-19T08:23:30.877Z</time></trkpt><trkpt lat="43.4699525" lon="10.5619066"><ele>180.5</ele><time>2026-04-19T08:23:31.857Z</time></trkpt><trkpt lat="43.4700002" lon="10.5620768"><ele>180.0</ele><time>2026-04-19T08:23:32.857Z</time></trkpt><trkpt lat="43.4700393" lon="10.562245"><ele>179.5</ele><time>2026-04-19T08:23:33.883Z</time></trkpt><trkpt lat="43.4700786" lon="10.5624169"><ele>179.0</ele><time>2026-04-19T08:23:34.878Z</time></trkpt><trkpt lat="43.4701109" lon="10.562585"><ele>179.0</ele><time>2026-04-19T08:23:35.888Z</time></trkpt><trkpt lat="43.470119" lon="10.5627433"><ele>179.0</ele><time>2026-04-19T08:23:36.877Z</time></trkpt><trkpt lat="43.4701259" lon="10.5629086"><ele>179.0</ele><time>2026-04-19T08:23:37.879Z</time></trkpt><trkpt lat="43.4701453" lon="10.5630652"><ele>179.0</ele><time>2026-04-19T08:23:38.876Z</time></trkpt><trkpt lat="43.4701774" lon="10.5632075"><ele>179.79999999999998</ele><time>2026-04-19T08:23:39.874Z</time></trkpt><trkpt lat="43.4701921" lon="10.5633464"><ele>180.6</ele><time>2026-04-19T08:23:40.864Z</time></trkpt><trkpt lat="43.4701617" lon="10.5634881"><ele>181.4</ele><time>2026-04-19T08:23:41.879Z</time></trkpt><trkpt lat="43.4701111" lon="10.5636172"><ele>182.2</ele><time>2026-04-19T08:23:42.885Z</time></trkpt><trkpt lat="43.4700638" lon="10.5637484"><ele>183.0</ele><time>2026-04-19T08:23:43.867Z</time></trkpt><trkpt lat="43.4700198" lon="10.5638777"><ele>184.60000000000002</ele><time>2026-04-19T08:23:44.883Z</time></trkpt><trkpt lat="43.4699803" lon="10.5640284"><ele>186.20000000000002</ele><time>2026-04-19T08:23:45.873Z</time></trkpt><trkpt lat="43.4699534" lon="10.5641889"><ele>187.8</ele><time>2026-04-19T08:23:46.876Z</time></trkpt><trkpt lat="43.469932" lon="10.5642923"><ele>189.4</ele><time>2026-04-19T08:23:47.877Z</time></trkpt><trkpt lat="43.4698644" lon="10.5644144"><ele>191.0</ele><time>2026-04-19T08:23:49.885Z</time></trkpt><trkpt lat="43.4697421" lon="10.5643841"><ele>191.0</ele><time>2026-04-19T08:23:51.864Z</time></trkpt><trkpt lat="43.4696601" lon="10.5643485"><ele>191.0</ele><time>2026-04-19T08:23:52.874Z</time></trkpt><trkpt lat="43.4695614" lon="10.5643214"><ele>191.0</ele><time>2026-04-19T08:23:53.873Z</time></trkpt><trkpt lat="43.4694543" lon="10.5643103"><ele>191.0</ele><time>2026-04-19T08:23:54.884Z</time></trkpt><trkpt lat="43.4693418" lon="10.5643154"><ele>191.0</ele><time>2026-04-19T08:23:55.872Z</time></trkpt><trkpt lat="43.4692341" lon="10.5643457"><ele>193.75</ele><time>2026-04-19T08:23:56.875Z</time></trkpt><trkpt lat="43.4691213" lon="10.564386"><ele>196.5</ele><time>2026-04-19T08:23:57.869Z</time></trkpt><trkpt lat="43.469011" lon="10.5644432"><ele>199.25</ele><time>2026-04-19T08:23:58.873Z</time></trkpt><trkpt lat="43.4689012" lon="10.5644996"><ele>202.0</ele><time>2026-04-19T08:23:59.878Z</time></trkpt><trkpt lat="43.4687959" lon="10.5645577"><ele>204.6</ele><time>2026-04-19T08:24:00.864Z</time></trkpt><trkpt lat="43.4686942" lon="10.5646185"><ele>207.2</ele><time>2026-04-19T08:24:01.875Z</time></trkpt><trkpt lat="43.4686034" lon="10.5646783"><ele>209.8</ele><time>2026-04-19T08:24:02.874Z</time></trkpt><trkpt lat="43.4685302" lon="10.5647328"><ele>212.4</ele><time>2026-04-19T08:24:03.863Z</time></trkpt><trkpt lat="43.4684842" lon="10.5648058"><ele>215.0</ele><time>2026-04-19T08:24:04.877Z</time></trkpt><trkpt lat="43.4684547" lon="10.5649161"><ele>215.0</ele><time>2026-04-19T08:24:05.853Z</time></trkpt><trkpt lat="43.4684189" lon="10.5650262"><ele>215.0</ele><time>2026-04-19T08:24:06.873Z</time></trkpt><trkpt lat="43.4683818" lon="10.5651495"><ele>215.0</ele><time>2026-04-19T08:24:07.876Z</time></trkpt><trkpt lat="43.4683484" lon="10.5652622"><ele>215.0</ele><time>2026-04-19T08:24:08.866Z</time></trkpt><trkpt lat="43.4683221" lon="10.5653931"><ele>215.0</ele><time>2026-04-19T08:24:09.871Z</time></trkpt><trkpt lat="43.4682874" lon="10.5655171"><ele>216.83333333333334</ele><time>2026-04-19T08:24:10.88Z</time></trkpt><trkpt lat="43.4682625" lon="10.5656361"><ele>218.66666666666669</ele><time>2026-04-19T08:24:11.88Z</time></trkpt><trkpt lat="43.468243" lon="10.5657488"><ele>220.5</ele><time>2026-04-19T08:24:12.893Z</time></trkpt><trkpt lat="43.468246" lon="10.5658612"><ele>222.33333333333331</ele><time>2026-04-19T08:24:13.887Z</time></trkpt><trkpt lat="43.4682628" lon="10.5659803"><ele>224.16666666666666</ele><time>2026-04-19T08:24:14.869Z</time></trkpt><trkpt lat="43.4682772" lon="10.5661015"><ele>226.0</ele><time>2026-04-19T08:24:15.877Z</time></trkpt><trkpt lat="43.4682666" lon="10.566246"><ele>226.20000000000002</ele><time>2026-04-19T08:24:17.876Z</time></trkpt><trkpt lat="43.4681787" lon="10.5663128"><ele>226.40000000000003</ele><time>2026-04-19T08:24:19.872Z</time></trkpt><trkpt lat="43.4681162" lon="10.5663411"><ele>226.6</ele><time>2026-04-19T08:24:20.883Z</time></trkpt><trkpt lat="43.4680437" lon="10.5663918"><ele>226.8</ele><time>2026-04-19T08:24:21.88Z</time></trkpt><trkpt lat="43.4679798" lon="10.5664889"><ele>227.0</ele><time>2026-04-19T08:24:22.879Z</time></trkpt><trkpt lat="43.4679133" lon="10.5666102"><ele>225.0</ele><time>2026-04-19T08:24:23.885Z</time></trkpt><trkpt lat="43.4678398" lon="10.5667611"><ele>223.0</ele><time>2026-04-19T08:24:24.882Z</time></trkpt><trkpt lat="43.4677645" lon="10.5669123"><ele>221.0</ele><time>2026-04-19T08:24:25.883Z</time></trkpt><trkpt lat="43.4676942" lon="10.567044"><ele>219.0</ele><time>2026-04-19T08:24:26.885Z</time></trkpt><trkpt lat="43.4676181" lon="10.5671606"><ele>219.0</ele><time>2026-04-19T08:24:27.877Z</time></trkpt><trkpt lat="43.4675404" lon="10.5672786"><ele>219.0</ele><time>2026-04-19T08:24:28.878Z</time></trkpt><trkpt lat="43.4674557" lon="10.5673844"><ele>219.0</ele><time>2026-04-19T08:24:29.878Z</time></trkpt><trkpt lat="43.4673764" lon="10.5675003"><ele>219.0</ele><time>2026-04-19T08:24:30.891Z</time></trkpt><trkpt lat="43.4672996" lon="10.5676276"><ele>219.0</ele><time>2026-04-19T08:24:31.87Z</time></trkpt><trkpt lat="43.467233" lon="10.567757"><ele>218.99999999999997</ele><time>2026-04-19T08:24:32.886Z</time></trkpt><trkpt lat="43.4671685" lon="10.5678704"><ele>218.99999999999997</ele><time>2026-04-19T08:24:33.882Z</time></trkpt><trkpt lat="43.4671115" lon="10.5679535"><ele>219.0</ele><time>2026-04-19T08:24:34.944Z</time></trkpt><trkpt lat="43.4670574" lon="10.5680042"><ele>219.0</ele><time>2026-04-19T08:24:35.873Z</time></trkpt><trkpt lat="43.4669654" lon="10.5679289"><ele>218.83333333333334</ele><time>2026-04-19T08:24:37.867Z</time></trkpt><trkpt lat="43.4669258" lon="10.5677797"><ele>218.66666666666669</ele><time>2026-04-19T08:24:39.862Z</time></trkpt><trkpt lat="43.4669641" lon="10.5676996"><ele>218.5</ele><time>2026-04-19T08:24:40.853Z</time></trkpt><trkpt lat="43.46699" lon="10.5675967"><ele>218.33333333333334</ele><time>2026-04-19T08:24:41.861Z</time></trkpt><trkpt lat="43.4670029" lon="10.5674937"><ele>218.16666666666669</ele><time>2026-04-19T08:24:42.869Z</time></trkpt><trkpt lat="43.4669902" lon="10.5673985"><ele>218.0</ele><time>2026-04-19T08:24:43.873Z</time></trkpt><trkpt lat="43.4669319" lon="10.5672729"><ele>218.0</ele><time>2026-04-19T08:24:45.873Z</time></trkpt><trkpt lat="43.466806" lon="10.5671629"><ele>218.0</ele><time>2026-04-19T08:24:47.865Z</time></trkpt><trkpt lat="43.4667106" lon="10.5671127"><ele>218.0</ele><time>2026-04-19T08:24:48.871Z</time></trkpt><trkpt lat="43.4666124" lon="10.5670852"><ele>218.0</ele><time>2026-04-19T08:24:49.87Z</time></trkpt><trkpt lat="43.4665171" lon="10.5670597"><ele>218.0</ele><time>2026-04-19T08:24:50.875Z</time></trkpt><trkpt lat="43.466427" lon="10.5670474"><ele>218.00000000000003</ele><time>2026-04-19T08:24:51.866Z</time></trkpt><trkpt lat="43.4663474" lon="10.5670419"><ele>218.0</ele><time>2026-04-19T08:24:52.874Z</time></trkpt><trkpt lat="43.4662828" lon="10.5670238"><ele>218.0</ele><time>2026-04-19T08:24:53.867Z</time></trkpt><trkpt lat="43.4661814" lon="10.5669674"><ele>218.0</ele><time>2026-04-19T08:24:55.875Z</time></trkpt><trkpt lat="43.4661163" lon="10.5669308"><ele>218.00000000000003</ele><time>2026-04-19T08:24:56.871Z</time></trkpt><trkpt lat="43.4660366" lon="10.5668872"><ele>218.0</ele><time>2026-04-19T08:24:57.865Z</time></trkpt><trkpt lat="43.4659536" lon="10.5668522"><ele>218.2</ele><time>2026-04-19T08:24:58.874Z</time></trkpt><trkpt lat="43.465862" lon="10.5668187"><ele>218.4</ele><time>2026-04-19T08:24:59.873Z</time></trkpt><trkpt lat="43.465772" lon="10.5667841"><ele>218.59999999999997</ele><time>2026-04-19T08:25:00.868Z</time></trkpt><trkpt lat="43.4656652" lon="10.5667437"><ele>218.79999999999998</ele><time>2026-04-19T08:25:01.879Z</time></trkpt><trkpt lat="43.4655634" lon="10.5667077"><ele>219.0</ele><time>2026-04-19T08:25:02.886Z</time></trkpt><trkpt lat="43.4654826" lon="10.5666791"><ele>219.6</ele><time>2026-04-19T08:25:03.885Z</time></trkpt><trkpt lat="43.4654092" lon="10.566663"><ele>220.2</ele><time>2026-04-19T08:25:04.87Z</time></trkpt><trkpt lat="43.4653265" lon="10.5666733"><ele>220.79999999999998</ele><time>2026-04-19T08:25:05.886Z</time></trkpt><trkpt lat="43.465231" lon="10.5667025"><ele>221.39999999999998</ele><time>2026-04-19T08:25:06.871Z</time></trkpt><trkpt lat="43.4651303" lon="10.566734"><ele>222.0</ele><time>2026-04-19T08:25:07.876Z</time></trkpt><trkpt lat="43.4650269" lon="10.5667753"><ele>222.0</ele><time>2026-04-19T08:25:08.876Z</time></trkpt><trkpt lat="43.464932" lon="10.5668339"><ele>222.0</ele><time>2026-04-19T08:25:09.873Z</time></trkpt><trkpt lat="43.4648389" lon="10.5669283"><ele>222.0</ele><time>2026-04-19T08:25:10.869Z</time></trkpt><trkpt lat="43.464753" lon="10.5670264"><ele>222.0</ele><time>2026-04-19T08:25:11.879Z</time></trkpt><trkpt lat="43.4646746" lon="10.5671215"><ele>222.0</ele><time>2026-04-19T08:25:12.876Z</time></trkpt><trkpt lat="43.464606" lon="10.5672402"><ele>223.5</ele><time>2026-04-19T08:25:13.879Z</time></trkpt><trkpt lat="43.4645501" lon="10.5673423"><ele>225.0</ele><time>2026-04-19T08:25:14.873Z</time></trkpt><trkpt lat="43.464505" lon="10.5674136"><ele>226.5</ele><time>2026-04-19T08:25:15.869Z</time></trkpt><trkpt lat="43.4644499" lon="10.5674596"><ele>228.0</ele><time>2026-04-19T08:25:16.869Z</time></trkpt><trkpt lat="43.4643793" lon="10.567454"><ele>229.5</ele><time>2026-04-19T08:25:17.86Z</time></trkpt><trkpt lat="43.4642962" lon="10.5674372"><ele>231.0</ele><time>2026-04-19T08:25:18.877Z</time></trkpt><trkpt lat="43.4642122" lon="10.5674204"><ele>231.0</ele><time>2026-04-19T08:25:19.874Z</time></trkpt><trkpt lat="43.4641361" lon="10.5673986"><ele>231.00000000000003</ele><time>2026-04-19T08:25:20.872Z</time></trkpt><trkpt lat="43.4640681" lon="10.5673704"><ele>231.00000000000003</ele><time>2026-04-19T08:25:21.877Z</time></trkpt><trkpt lat="43.4639634" lon="10.5673139"><ele>231.0</ele><time>2026-04-19T08:25:23.882Z</time></trkpt><trkpt lat="43.463836" lon="10.5672884"><ele>231.0</ele><time>2026-04-19T08:25:25.868Z</time></trkpt><trkpt lat="43.4637663" lon="10.5672828"><ele>232.33333333333334</ele><time>2026-04-19T08:25:26.881Z</time></trkpt><trkpt lat="43.4636837" lon="10.5672706"><ele>233.66666666666669</ele><time>2026-04-19T08:25:28.883Z</time></trkpt><trkpt lat="43.4635975" lon="10.5672769"><ele>235.0</ele><time>2026-04-19T08:25:30.873Z</time></trkpt><trkpt lat="43.4635288" lon="10.5672942"><ele>236.33333333333334</ele><time>2026-04-19T08:25:31.862Z</time></trkpt><trkpt lat="43.4634499" lon="10.5673141"><ele>237.66666666666669</ele><time>2026-04-19T08:25:32.87Z</time></trkpt><trkpt lat="43.4633808" lon="10.5673359"><ele>239.0</ele><time>2026-04-19T08:25:33.873Z</time></trkpt><trkpt lat="43.4633199" lon="10.5673625"><ele>239.0</ele><time>2026-04-19T08:25:34.861Z</time></trkpt><trkpt lat="43.4632011" lon="10.5673666"><ele>238.99999999999997</ele><time>2026-04-19T08:25:36.872Z</time></trkpt><trkpt lat="43.4631286" lon="10.5673254"><ele>238.99999999999997</ele><time>2026-04-19T08:25:37.88Z</time></trkpt><trkpt lat="43.463044" lon="10.5672754"><ele>239.0</ele><time>2026-04-19T08:25:38.871Z</time></trkpt><trkpt lat="43.4629596" lon="10.5672024"><ele>239.0</ele><time>2026-04-19T08:25:39.87Z</time></trkpt><trkpt lat="43.4628737" lon="10.5671213"><ele>240.50000000000003</ele><time>2026-04-19T08:25:40.871Z</time></trkpt><trkpt lat="43.4628122" lon="10.5670391"><ele>242.0</ele><time>2026-04-19T08:25:41.87Z</time></trkpt><trkpt lat="43.4627749" lon="10.566968"><ele>243.5</ele><time>2026-04-19T08:25:42.864Z</time></trkpt><trkpt lat="43.4627406" lon="10.566815"><ele>245.0</ele><time>2026-04-19T08:25:44.874Z</time></trkpt><trkpt lat="43.4627468" lon="10.5667132"><ele>246.50000000000003</ele><time>2026-04-19T08:25:45.872Z</time></trkpt><trkpt lat="43.4627504" lon="10.5666137"><ele>248.0</ele><time>2026-04-19T08:25:46.879Z</time></trkpt><trkpt lat="43.4627368" lon="10.5665153"><ele>248.00000000000003</ele><time>2026-04-19T08:25:47.874Z</time></trkpt><trkpt lat="43.4627026" lon="10.5664069"><ele>248.0</ele><time>2026-04-19T08:25:48.868Z</time></trkpt><trkpt lat="43.4626749" lon="10.5662958"><ele>248.0</ele><time>2026-04-19T08:25:49.863Z</time></trkpt><trkpt lat="43.4626542" lon="10.5661678"><ele>248.0</ele><time>2026-04-19T08:25:50.866Z</time></trkpt><trkpt lat="43.4626386" lon="10.5660352"><ele>248.00000000000003</ele><time>2026-04-19T08:25:51.859Z</time></trkpt><trkpt lat="43.4626316" lon="10.5659199"><ele>248.0</ele><time>2026-04-19T08:25:52.874Z</time></trkpt><trkpt lat="43.4626202" lon="10.5658099"><ele>247.33333333333334</ele><time>2026-04-19T08:25:53.875Z</time></trkpt><trkpt lat="43.4626025" lon="10.565714"><ele>246.66666666666669</ele><time>2026-04-19T08:25:54.87Z</time></trkpt><trkpt lat="43.4625878" lon="10.5656214"><ele>246.0</ele><time>2026-04-19T08:25:55.869Z</time></trkpt><trkpt lat="43.4625689" lon="10.5654843"><ele>245.33333333333331</ele><time>2026-04-19T08:25:57.884Z</time></trkpt><trkpt lat="43.4625382" lon="10.5653698"><ele>244.66666666666666</ele><time>2026-04-19T08:26:00.884Z</time></trkpt><trkpt lat="43.4624954" lon="10.5652844"><ele>244.0</ele><time>2026-04-19T08:26:02.873Z</time></trkpt><trkpt lat="43.4624327" lon="10.5652109"><ele>244.6</ele><time>2026-04-19T08:26:04.865Z</time></trkpt><trkpt lat="43.4623608" lon="10.5651706"><ele>245.2</ele><time>2026-04-19T08:26:06.873Z</time></trkpt><trkpt lat="43.4622819" lon="10.5652051"><ele>245.79999999999998</ele><time>2026-04-19T08:26:09.871Z</time></trkpt><trkpt lat="43.4621721" lon="10.5652638"><ele>246.39999999999998</ele><time>2026-04-19T08:26:11.866Z</time></trkpt><trkpt lat="43.4620603" lon="10.565328"><ele>247.0</ele><time>2026-04-19T08:26:13.866Z</time></trkpt><trkpt lat="43.4620081" lon="10.5654422"><ele>247.0</ele><time>2026-04-19T08:26:15.871Z</time></trkpt><trkpt lat="43.4620507" lon="10.5656061"><ele>247.0</ele><time>2026-04-19T08:26:17.862Z</time></trkpt><trkpt lat="43.462087" lon="10.5657228"><ele>247.0</ele><time>2026-04-19T08:26:18.874Z</time></trkpt><trkpt lat="43.4621028" lon="10.5658519"><ele>247.0</ele><time>2026-04-19T08:26:19.88Z</time></trkpt><trkpt lat="43.4620882" lon="10.5659935"><ele>247.0</ele><time>2026-04-19T08:26:20.882Z</time></trkpt><trkpt lat="43.4620753" lon="10.5661323"><ele>247.2</ele><time>2026-04-19T08:26:21.873Z</time></trkpt><trkpt lat="43.4620844" lon="10.5662557"><ele>247.39999999999998</ele><time>2026-04-19T08:26:22.87Z</time></trkpt><trkpt lat="43.4621094" lon="10.5663913"><ele>247.60000000000002</ele><time>2026-04-19T08:26:23.877Z</time></trkpt><trkpt lat="43.4621458" lon="10.56653"><ele>247.8</ele><time>2026-04-19T08:26:24.876Z</time></trkpt><trkpt lat="43.4621685" lon="10.5666527"><ele>248.0</ele><time>2026-04-19T08:26:25.872Z</time></trkpt><trkpt lat="43.4621829" lon="10.5667579"><ele>248.00000000000003</ele><time>2026-04-19T08:26:26.875Z</time></trkpt><trkpt lat="43.4621618" lon="10.5668786"><ele>248.0</ele><time>2026-04-19T08:26:28.87Z</time></trkpt><trkpt lat="43.4620963" lon="10.5669112"><ele>248.0</ele><time>2026-04-19T08:26:29.876Z</time></trkpt><trkpt lat="43.4620415" lon="10.5669854"><ele>248.0</ele><time>2026-04-19T08:26:30.879Z</time></trkpt><trkpt lat="43.4619815" lon="10.5671225"><ele>248.00000000000003</ele><time>2026-04-19T08:26:32.874Z</time></trkpt><trkpt lat="43.4619942" lon="10.5672392"><ele>248.0</ele><time>2026-04-19T08:26:33.862Z</time></trkpt><trkpt lat="43.4620187" lon="10.5673728"><ele>249.8</ele><time>2026-04-19T08:26:34.868Z</time></trkpt><trkpt lat="43.4620554" lon="10.5674898"><ele>251.60000000000002</ele><time>2026-04-19T08:26:35.877Z</time></trkpt><trkpt lat="43.4620777" lon="10.567595"><ele>253.39999999999998</ele><time>2026-04-19T08:26:36.881Z</time></trkpt><trkpt lat="43.462014" lon="10.5677572"><ele>255.2</ele><time>2026-04-19T08:26:38.874Z</time></trkpt><trkpt lat="43.46197" lon="10.5678518"><ele>257.0</ele><time>2026-04-19T08:26:39.882Z</time></trkpt><trkpt lat="43.461927" lon="10.5679393"><ele>257.6666666666667</ele><time>2026-04-19T08:26:40.873Z</time></trkpt><trkpt lat="43.4618897" lon="10.5680318"><ele>258.33333333333337</ele><time>2026-04-19T08:26:41.871Z</time></trkpt><trkpt lat="43.4618566" lon="10.5681354"><ele>259.0</ele><time>2026-04-19T08:26:42.877Z</time></trkpt><trkpt lat="43.4618092" lon="10.5682564"><ele>259.6666666666667</ele><time>2026-04-19T08:26:43.873Z</time></trkpt><trkpt lat="43.4617601" lon="10.5683666"><ele>260.3333333333333</ele><time>2026-04-19T08:26:44.867Z</time></trkpt><trkpt lat="43.4617186" lon="10.5684853"><ele>261.0</ele><time>2026-04-19T08:26:45.864Z</time></trkpt><trkpt lat="43.4616554" lon="10.5685461"><ele>261.0</ele><time>2026-04-19T08:26:46.881Z</time></trkpt><trkpt lat="43.461583" lon="10.5685838"><ele>261.0</ele><time>2026-04-19T08:26:47.874Z</time></trkpt><trkpt lat="43.4615125" lon="10.5686582"><ele>261.0</ele><time>2026-04-19T08:26:48.877Z</time></trkpt><trkpt lat="43.4614269" lon="10.5687456"><ele>261.0</ele><time>2026-04-19T08:26:49.878Z</time></trkpt><trkpt lat="43.4613301" lon="10.5688238"><ele>261.0</ele><time>2026-04-19T08:26:50.87Z</time></trkpt><trkpt lat="43.46123" lon="10.5688884"><ele>262.0</ele><time>2026-04-19T08:26:51.875Z</time></trkpt><trkpt lat="43.4611511" lon="10.5689658"><ele>263.0</ele><time>2026-04-19T08:26:52.868Z</time></trkpt><trkpt lat="43.4610592" lon="10.5690553"><ele>264.0</ele><time>2026-04-19T08:26:53.88Z</time></trkpt><trkpt lat="43.4609798" lon="10.5691428"><ele>265.0</ele><time>2026-04-19T08:26:54.873Z</time></trkpt><trkpt lat="43.4608976" lon="10.5692035"><ele>266.0</ele><time>2026-04-19T08:26:55.885Z</time></trkpt><trkpt lat="43.4608103" lon="10.5692684"><ele>266.0</ele><time>2026-04-19T08:26:56.872Z</time></trkpt><trkpt lat="43.460693" lon="10.5693059"><ele>266.0</ele><time>2026-04-19T08:26:57.878Z</time></trkpt><trkpt lat="43.4605684" lon="10.5693333"><ele>266.0</ele><time>2026-04-19T08:26:58.871Z</time></trkpt><trkpt lat="43.4604535" lon="10.5693784"><ele>266.0</ele><time>2026-04-19T08:26:59.863Z</time></trkpt><trkpt lat="43.4603547" lon="10.569403"><ele>265.6666666666667</ele><time>2026-04-19T08:27:00.861Z</time></trkpt><trkpt lat="43.4602856" lon="10.5694225"><ele>265.33333333333337</ele><time>2026-04-19T08:27:01.861Z</time></trkpt><trkpt lat="43.4601793" lon="10.5694778"><ele>265.0</ele><time>2026-04-19T08:27:03.861Z</time></trkpt><trkpt lat="43.4601018" lon="10.5695393"><ele>264.6666666666667</ele><time>2026-04-19T08:27:05.878Z</time></trkpt><trkpt lat="43.4600522" lon="10.5696132"><ele>264.3333333333333</ele><time>2026-04-19T08:27:18.888Z</time></trkpt><trkpt lat="43.4599817" lon="10.5695749"><ele>264.0</ele><time>2026-04-19T08:27:21.873Z</time></trkpt><trkpt lat="43.4599138" lon="10.5694697"><ele>262.59999999999997</ele><time>2026-04-19T08:27:23.868Z</time></trkpt><trkpt lat="43.4598427" lon="10.569344"><ele>261.2</ele><time>2026-04-19T08:27:25.865Z</time></trkpt><trkpt lat="43.459782" lon="10.5692216"><ele>259.79999999999995</ele><time>2026-04-19T08:27:27.87Z</time></trkpt><trkpt lat="43.4597277" lon="10.5690761"><ele>258.4</ele><time>2026-04-19T08:27:29.866Z</time></trkpt><trkpt lat="43.4597074" lon="10.568978"><ele>257.0</ele><time>2026-04-19T08:27:30.871Z</time></trkpt><trkpt lat="43.4596973" lon="10.5688786"><ele>257.0</ele><time>2026-04-19T08:27:31.867Z</time></trkpt><trkpt lat="43.4597077" lon="10.5687794"><ele>257.0</ele><time>2026-04-19T08:27:32.865Z</time></trkpt><trkpt lat="43.4597294" lon="10.568659"><ele>257.0</ele><time>2026-04-19T08:27:33.866Z</time></trkpt><trkpt lat="43.4597474" lon="10.5685484"><ele>257.0</ele><time>2026-04-19T08:27:34.866Z</time></trkpt><trkpt lat="43.4597476" lon="10.5684196"><ele>257.0</ele><time>2026-04-19T08:27:35.858Z</time></trkpt><trkpt lat="43.4597534" lon="10.5682872"><ele>257.0</ele><time>2026-04-19T08:27:36.878Z</time></trkpt><trkpt lat="43.4597759" lon="10.5681737"><ele>254.8</ele><time>2026-04-19T08:27:37.862Z</time></trkpt><trkpt lat="43.4598134" lon="10.5680559"><ele>252.6</ele><time>2026-04-19T08:27:38.858Z</time></trkpt><trkpt lat="43.4598613" lon="10.5679333"><ele>250.40000000000003</ele><time>2026-04-19T08:27:39.866Z</time></trkpt><trkpt lat="43.4599088" lon="10.567802"><ele>248.20000000000002</ele><time>2026-04-19T08:27:40.866Z</time></trkpt><trkpt lat="43.4599525" lon="10.5676722"><ele>246.0</ele><time>2026-04-19T08:27:41.867Z</time></trkpt><trkpt lat="43.459994" lon="10.5675488"><ele>243.0</ele><time>2026-04-19T08:27:42.879Z</time></trkpt><trkpt lat="43.4600292" lon="10.5674124"><ele>240.00000000000003</ele><time>2026-04-19T08:27:43.883Z</time></trkpt><trkpt lat="43.460066" lon="10.5672796"><ele>237.00000000000003</ele><time>2026-04-19T08:27:44.874Z</time></trkpt><trkpt lat="43.4601005" lon="10.5671576"><ele>234.0</ele><time>2026-04-19T08:27:45.866Z</time></trkpt><trkpt lat="43.4601302" lon="10.5670499"><ele>231.0</ele><time>2026-04-19T08:27:46.87Z</time></trkpt><trkpt lat="43.4601488" lon="10.5669118"><ele>231.0</ele><time>2026-04-19T08:27:48.878Z</time></trkpt><trkpt lat="43.4600763" lon="10.5668581"><ele>231.00000000000003</ele><time>2026-04-19T08:27:50.863Z</time></trkpt><trkpt lat="43.4599534" lon="10.5669113"><ele>231.00000000000003</ele><time>2026-04-19T08:27:52.867Z</time></trkpt><trkpt lat="43.4598826" lon="10.5669582"><ele>231.0</ele><time>2026-04-19T08:27:53.877Z</time></trkpt><trkpt lat="43.4598028" lon="10.5670237"><ele>231.0</ele><time>2026-04-19T08:27:54.868Z</time></trkpt><trkpt lat="43.4597116" lon="10.5671034"><ele>231.0</ele><time>2026-04-19T08:27:55.877Z</time></trkpt><trkpt lat="43.459619" lon="10.5671831"><ele>231.00000000000003</ele><time>2026-04-19T08:27:56.873Z</time></trkpt><trkpt lat="43.4595335" lon="10.5672563"><ele>231.00000000000003</ele><time>2026-04-19T08:27:57.867Z</time></trkpt><trkpt lat="43.4594524" lon="10.5673203"><ele>231.0</ele><time>2026-04-19T08:27:58.879Z</time></trkpt><trkpt lat="43.4593741" lon="10.5673746"><ele>231.0</ele><time>2026-04-19T08:27:59.868Z</time></trkpt><trkpt lat="43.4592969" lon="10.5674394"><ele>229.0</ele><time>2026-04-19T08:28:00.862Z</time></trkpt><trkpt lat="43.4592203" lon="10.5675005"><ele>227.00000000000003</ele><time>2026-04-19T08:28:01.868Z</time></trkpt><trkpt lat="43.4591416" lon="10.567565"><ele>225.00000000000003</ele><time>2026-04-19T08:28:02.873Z</time></trkpt><trkpt lat="43.459063" lon="10.5676319"><ele>223.0</ele><time>2026-04-19T08:28:03.877Z</time></trkpt><trkpt lat="43.4589832" lon="10.5676891"><ele>221.0</ele><time>2026-04-19T08:28:04.865Z</time></trkpt><trkpt lat="43.4588986" lon="10.5677271"><ele>221.00000000000003</ele><time>2026-04-19T08:28:05.877Z</time></trkpt><trkpt lat="43.4588137" lon="10.5677654"><ele>221.0</ele><time>2026-04-19T08:28:06.875Z</time></trkpt><trkpt lat="43.4587354" lon="10.5677829"><ele>221.0</ele><time>2026-04-19T08:28:07.874Z</time></trkpt><trkpt lat="43.4586709" lon="10.5677872"><ele>221.0</ele><time>2026-04-19T08:28:08.855Z</time></trkpt><trkpt lat="43.4585802" lon="10.5677375"><ele>221.00000000000003</ele><time>2026-04-19T08:28:10.874Z</time></trkpt><trkpt lat="43.4585036" lon="10.5676771"><ele>221.0</ele><time>2026-04-19T08:28:13.863Z</time></trkpt><trkpt lat="43.4583792" lon="10.567683"><ele>219.4</ele><time>2026-04-19T08:28:15.873Z</time></trkpt><trkpt lat="43.4582865" lon="10.5676787"><ele>217.8</ele><time>2026-04-19T08:28:16.878Z</time></trkpt><trkpt lat="43.4581873" lon="10.5676719"><ele>216.20000000000002</ele><time>2026-04-19T08:28:17.88Z</time></trkpt><trkpt lat="43.4580985" lon="10.5675875"><ele>214.60000000000002</ele><time>2026-04-19T08:28:18.856Z</time></trkpt><trkpt lat="43.458011" lon="10.567502"><ele>213.0</ele><time>2026-04-19T08:28:19.863Z</time></trkpt><trkpt lat="43.4579395" lon="10.5674047"><ele>212.5</ele><time>2026-04-19T08:28:20.877Z</time></trkpt><trkpt lat="43.4578604" lon="10.5673487"><ele>212.0</ele><time>2026-04-19T08:28:21.858Z</time></trkpt><trkpt lat="43.4577804" lon="10.5673314"><ele>211.5</ele><time>2026-04-19T08:28:22.862Z</time></trkpt><trkpt lat="43.4577029" lon="10.5673529"><ele>211.0</ele><time>2026-04-19T08:28:23.86Z</time></trkpt><trkpt lat="43.4576317" lon="10.5674151"><ele>210.5</ele><time>2026-04-19T08:28:24.865Z</time></trkpt><trkpt lat="43.4575654" lon="10.5674804"><ele>210.0</ele><time>2026-04-19T08:28:25.86Z</time></trkpt><trkpt lat="43.4575287" lon="10.5675843"><ele>210.0</ele><time>2026-04-19T08:28:26.853Z</time></trkpt><trkpt lat="43.4574749" lon="10.5676666"><ele>210.0</ele><time>2026-04-19T08:28:27.876Z</time></trkpt><trkpt lat="43.4574061" lon="10.5677023"><ele>210.0</ele><time>2026-04-19T08:28:28.863Z</time></trkpt><trkpt lat="43.4573217" lon="10.5676981"><ele>210.0</ele><time>2026-04-19T08:28:29.867Z</time></trkpt><trkpt lat="43.4572386" lon="10.5676871"><ele>210.0</ele><time>2026-04-19T08:28:30.863Z</time></trkpt><trkpt lat="43.4571591" lon="10.5676122"><ele>210.0</ele><time>2026-04-19T08:28:31.86Z</time></trkpt><trkpt lat="43.4570918" lon="10.5674785"><ele>208.75</ele><time>2026-04-19T08:28:32.876Z</time></trkpt><trkpt lat="43.4570157" lon="10.5673366"><ele>207.5</ele><time>2026-04-19T08:28:33.855Z</time></trkpt><trkpt lat="43.456917" lon="10.5672033"><ele>206.25</ele><time>2026-04-19T08:28:34.867Z</time></trkpt><trkpt lat="43.4568027" lon="10.5670996"><ele>205.0</ele><time>2026-04-19T08:28:35.87Z</time></trkpt><trkpt lat="43.4566879" lon="10.5670005"><ele>205.0</ele><time>2026-04-19T08:28:36.869Z</time></trkpt><trkpt lat="43.4565536" lon="10.5669486"><ele>205.0</ele><time>2026-04-19T08:28:37.878Z</time></trkpt><trkpt lat="43.4564191" lon="10.5669079"><ele>205.0</ele><time>2026-04-19T08:28:38.877Z</time></trkpt><trkpt lat="43.4563015" lon="10.5668549"><ele>205.0</ele><time>2026-04-19T08:28:39.877Z</time></trkpt><trkpt lat="43.4561966" lon="10.5667658"><ele>206.75</ele><time>2026-04-19T08:28:40.873Z</time></trkpt><trkpt lat="43.4560976" lon="10.5666471"><ele>208.5</ele><time>2026-04-19T08:28:41.873Z</time></trkpt><trkpt lat="43.4560002" lon="10.5665205"><ele>210.25</ele><time>2026-04-19T08:28:42.878Z</time></trkpt><trkpt lat="43.4558975" lon="10.5664131"><ele>212.0</ele><time>2026-04-19T08:28:43.867Z</time></trkpt><trkpt lat="43.4557948" lon="10.5663081"><ele>212.0</ele><time>2026-04-19T08:28:44.878Z</time></trkpt><trkpt lat="43.4556653" lon="10.5662674"><ele>212.0</ele><time>2026-04-19T08:28:45.88Z</time></trkpt><trkpt lat="43.4555267" lon="10.5662358"><ele>212.0</ele><time>2026-04-19T08:28:46.867Z</time></trkpt><trkpt lat="43.4553867" lon="10.5662019"><ele>212.0</ele><time>2026-04-19T08:28:47.885Z</time></trkpt><trkpt lat="43.4552421" lon="10.5661709"><ele>209.75</ele><time>2026-04-19T08:28:48.88Z</time></trkpt><trkpt lat="43.4550988" lon="10.5661334"><ele>207.5</ele><time>2026-04-19T08:28:49.873Z</time></trkpt><trkpt lat="43.4549562" lon="10.5660981"><ele>205.25</ele><time>2026-04-19T08:28:50.874Z</time></trkpt><trkpt lat="43.4548236" lon="10.5660391"><ele>203.0</ele><time>2026-04-19T08:28:51.876Z</time></trkpt><trkpt lat="43.4547108" lon="10.565949"><ele>205.0</ele><time>2026-04-19T08:28:52.878Z</time></trkpt><trkpt lat="43.4545969" lon="10.5658563"><ele>207.0</ele><time>2026-04-19T08:28:53.865Z</time></trkpt><trkpt lat="43.4544948" lon="10.5657439"><ele>209.0</ele><time>2026-04-19T08:28:54.879Z</time></trkpt><trkpt lat="43.4543991" lon="10.56564"><ele>211.0</ele><time>2026-04-19T08:28:55.877Z</time></trkpt><trkpt lat="43.4542819" lon="10.5655657"><ele>211.0</ele><time>2026-04-19T08:28:56.877Z</time></trkpt><trkpt lat="43.454162" lon="10.5654929"><ele>211.0</ele><time>2026-04-19T08:28:57.872Z</time></trkpt><trkpt lat="43.4540211" lon="10.5654667"><ele>211.0</ele><time>2026-04-19T08:28:58.868Z</time></trkpt><trkpt lat="43.4538775" lon="10.5654655"><ele>211.0</ele><time>2026-04-19T08:28:59.879Z</time></trkpt><trkpt lat="43.4537337" lon="10.5654869"><ele>208.75</ele><time>2026-04-19T08:29:00.884Z</time></trkpt><trkpt lat="43.4536035" lon="10.565517"><ele>206.5</ele><time>2026-04-19T08:29:01.871Z</time></trkpt><trkpt lat="43.4534887" lon="10.5655438"><ele>204.25</ele><time>2026-04-19T08:29:02.877Z</time></trkpt><trkpt lat="43.4533887" lon="10.5655831"><ele>202.0</ele><time>2026-04-19T08:29:03.873Z</time></trkpt><trkpt lat="43.4532872" lon="10.5656238"><ele>202.0</ele><time>2026-04-19T08:29:04.872Z</time></trkpt><trkpt lat="43.4532007" lon="10.5657219"><ele>202.0</ele><time>2026-04-19T08:29:05.872Z</time></trkpt><trkpt lat="43.4531241" lon="10.565848"><ele>202.0</ele><time>2026-04-19T08:29:06.873Z</time></trkpt><trkpt lat="43.4530588" lon="10.5660166"><ele>202.0</ele><time>2026-04-19T08:29:07.88Z</time></trkpt><trkpt lat="43.452991" lon="10.5662213"><ele>201.75</ele><time>2026-04-19T08:29:08.878Z</time></trkpt><trkpt lat="43.4529241" lon="10.5664163"><ele>201.5</ele><time>2026-04-19T08:29:09.893Z</time></trkpt><trkpt lat="43.4528549" lon="10.5666009"><ele>201.25</ele><time>2026-04-19T08:29:10.879Z</time></trkpt><trkpt lat="43.4527942" lon="10.5667479"><ele>201.0</ele><time>2026-04-19T08:29:11.883Z</time></trkpt><trkpt lat="43.4527382" lon="10.5668912"><ele>201.0</ele><time>2026-04-19T08:29:12.873Z</time></trkpt><trkpt lat="43.4526877" lon="10.5670041"><ele>201.0</ele><time>2026-04-19T08:29:13.883Z</time></trkpt><trkpt lat="43.4526398" lon="10.5671173"><ele>201.0</ele><time>2026-04-19T08:29:14.876Z</time></trkpt><trkpt lat="43.4525888" lon="10.5671786"><ele>201.0</ele><time>2026-04-19T08:29:15.871Z</time></trkpt><trkpt lat="43.4525212" lon="10.5672727"><ele>201.0</ele><time>2026-04-19T08:29:17.877Z</time></trkpt><trkpt lat="43.4525205" lon="10.5674174"><ele>202.33333333333334</ele><time>2026-04-19T08:29:19.881Z</time></trkpt><trkpt lat="43.4525305" lon="10.5675128"><ele>203.66666666666669</ele><time>2026-04-19T08:29:20.882Z</time></trkpt><trkpt lat="43.4525582" lon="10.5676264"><ele>205.0</ele><time>2026-04-19T08:29:21.885Z</time></trkpt><trkpt lat="43.4525842" lon="10.5677384"><ele>206.33333333333334</ele><time>2026-04-19T08:29:22.884Z</time></trkpt><trkpt lat="43.452545" lon="10.5678514"><ele>207.66666666666669</ele><time>2026-04-19T08:29:24.874Z</time></trkpt><trkpt lat="43.4524789" lon="10.5678011"><ele>209.0</ele><time>2026-04-19T08:29:26.872Z</time></trkpt><trkpt lat="43.4524373" lon="10.567685"><ele>209.0</ele><time>2026-04-19T08:29:28.88Z</time></trkpt><trkpt lat="43.4524059" lon="10.5675875"><ele>209.0</ele><time>2026-04-19T08:29:29.886Z</time></trkpt><trkpt lat="43.4523367" lon="10.5674257"><ele>209.0</ele><time>2026-04-19T08:29:30.88Z</time></trkpt><trkpt lat="43.452263" lon="10.5672389"><ele>209.0</ele><time>2026-04-19T08:29:31.864Z</time></trkpt><trkpt lat="43.4522131" lon="10.5670216"><ele>207.66666666666669</ele><time>2026-04-19T08:29:32.862Z</time></trkpt><trkpt lat="43.4521942" lon="10.5668685"><ele>206.33333333333334</ele><time>2026-04-19T08:29:33.867Z</time></trkpt><trkpt lat="43.4521597" lon="10.5667587"><ele>205.0</ele><time>2026-04-19T08:29:34.874Z</time></trkpt><trkpt lat="43.4521063" lon="10.5666742"><ele>203.66666666666669</ele><time>2026-04-19T08:29:35.871Z</time></trkpt><trkpt lat="43.4520519" lon="10.5666148"><ele>202.33333333333334</ele><time>2026-04-19T08:29:36.869Z</time></trkpt><trkpt lat="43.4519808" lon="10.5666311"><ele>201.0</ele><time>2026-04-19T08:29:37.878Z</time></trkpt><trkpt lat="43.4519041" lon="10.5666601"><ele>205.5</ele><time>2026-04-19T08:29:38.877Z</time></trkpt><trkpt lat="43.4517884" lon="10.5667049"><ele>210.0</ele><time>2026-04-19T08:29:39.867Z</time></trkpt><trkpt lat="43.4516391" lon="10.5667458"><ele>214.5</ele><time>2026-04-19T08:29:40.866Z</time></trkpt><trkpt lat="43.4514749" lon="10.566779"><ele>219.0</ele><time>2026-04-19T08:29:41.867Z</time></trkpt><trkpt lat="43.4513104" lon="10.5668136"><ele>219.0</ele><time>2026-04-19T08:29:42.878Z</time></trkpt><trkpt lat="43.4511378" lon="10.5668606"><ele>219.0</ele><time>2026-04-19T08:29:43.868Z</time></trkpt><trkpt lat="43.4509868" lon="10.5668962"><ele>219.0</ele><time>2026-04-19T08:29:44.866Z</time></trkpt><trkpt lat="43.4508777" lon="10.5669344"><ele>219.0</ele><time>2026-04-19T08:29:45.869Z</time></trkpt><trkpt lat="43.4507916" lon="10.5669901"><ele>224.5</ele><time>2026-04-19T08:29:46.875Z</time></trkpt><trkpt lat="43.4507281" lon="10.5671011"><ele>230.0</ele><time>2026-04-19T08:29:47.862Z</time></trkpt><trkpt lat="43.4506726" lon="10.5672568"><ele>235.5</ele><time>2026-04-19T08:29:48.874Z</time></trkpt><trkpt lat="43.4506221" lon="10.5674509"><ele>241.0</ele><time>2026-04-19T08:29:49.871Z</time></trkpt><trkpt lat="43.4505647" lon="10.5676539"><ele>241.0</ele><time>2026-04-19T08:29:50.883Z</time></trkpt><trkpt lat="43.4504964" lon="10.5678006"><ele>241.0</ele><time>2026-04-19T08:29:51.873Z</time></trkpt><trkpt lat="43.4504282" lon="10.5679029"><ele>241.0</ele><time>2026-04-19T08:29:52.878Z</time></trkpt><trkpt lat="43.4503397" lon="10.5679903"><ele>241.0</ele><time>2026-04-19T08:29:53.866Z</time></trkpt><trkpt lat="43.4502281" lon="10.5680631"><ele>242.5</ele><time>2026-04-19T08:29:54.87Z</time></trkpt><trkpt lat="43.4501402" lon="10.568188"><ele>244.0</ele><time>2026-04-19T08:29:55.877Z</time></trkpt><trkpt lat="43.4500377" lon="10.5682813"><ele>245.5</ele><time>2026-04-19T08:29:56.874Z</time></trkpt><trkpt lat="43.4499323" lon="10.5683637"><ele>247.0</ele><time>2026-04-19T08:29:57.877Z</time></trkpt><trkpt lat="43.4498549" lon="10.568463"><ele>247.0</ele><time>2026-04-19T08:29:58.88Z</time></trkpt><trkpt lat="43.4497899" lon="10.5685763"><ele>247.0</ele><time>2026-04-19T08:29:59.877Z</time></trkpt><trkpt lat="43.449758" lon="10.568713"><ele>247.0</ele><time>2026-04-19T08:30:00.873Z</time></trkpt><trkpt lat="43.4497235" lon="10.5688684"><ele>247.0</ele><time>2026-04-19T08:30:01.875Z</time></trkpt><trkpt lat="43.4497033" lon="10.5690479"><ele>249.2</ele><time>2026-04-19T08:30:02.88Z</time></trkpt><trkpt lat="43.4496892" lon="10.5691942"><ele>251.39999999999998</ele><time>2026-04-19T08:30:03.87Z</time></trkpt><trkpt lat="43.4496885" lon="10.5693231"><ele>253.60000000000002</ele><time>2026-04-19T08:30:04.881Z</time></trkpt><trkpt lat="43.4497131" lon="10.5694037"><ele>255.8</ele><time>2026-04-19T08:30:05.881Z</time></trkpt><trkpt lat="43.4498205" lon="10.5695202"><ele>258.0</ele><time>2026-04-19T08:30:07.875Z</time></trkpt><trkpt lat="43.4498759" lon="10.569575"><ele>258.0</ele><time>2026-04-19T08:30:08.876Z</time></trkpt><trkpt lat="43.4499304" lon="10.569635"><ele>258.0</ele><time>2026-04-19T08:30:09.875Z</time></trkpt><trkpt lat="43.4500077" lon="10.5697215"><ele>258.0</ele><time>2026-04-19T08:30:11.888Z</time></trkpt><trkpt lat="43.450116" lon="10.5698247"><ele>258.0</ele><time>2026-04-19T08:37:28.88Z</time></trkpt><trkpt lat="43.4501418" lon="10.5699566"><ele>258.0</ele><time>2026-04-19T08:37:31.872Z</time></trkpt><trkpt lat="43.4502355" lon="10.5700944"><ele>258.0</ele><time>2026-04-19T08:37:33.865Z</time></trkpt><trkpt lat="43.4502986" lon="10.5701609"><ele>258.0</ele><time>2026-04-19T08:37:34.875Z</time></trkpt><trkpt lat="43.4503667" lon="10.5702187"><ele>258.0</ele><time>2026-04-19T08:37:35.871Z</time></trkpt><trkpt lat="43.4504378" lon="10.5702465"><ele>258.0</ele><time>2026-04-19T08:37:36.869Z</time></trkpt><trkpt lat="43.4505118" lon="10.5702792"><ele>258.0</ele><time>2026-04-19T08:37:37.868Z</time></trkpt><trkpt lat="43.4505918" lon="10.5703144"><ele>258.0</ele><time>2026-04-19T08:37:38.862Z</time></trkpt><trkpt lat="43.4506966" lon="10.5703688"><ele>260.5</ele><time>2026-04-19T08:37:39.869Z</time></trkpt><trkpt lat="43.4507965" lon="10.5704513"><ele>263.0</ele><time>2026-04-19T08:37:40.882Z</time></trkpt><trkpt lat="43.4508883" lon="10.5705577"><ele>265.5</ele><time>2026-04-19T08:37:41.879Z</time></trkpt><trkpt lat="43.4509785" lon="10.5706793"><ele>268.0</ele><time>2026-04-19T08:37:42.88Z</time></trkpt><trkpt lat="43.4510705" lon="10.5707986"><ele>268.0</ele><time>2026-04-19T08:37:43.88Z</time></trkpt><trkpt lat="43.4511596" lon="10.5709144"><ele>268.0</ele><time>2026-04-19T08:37:44.885Z</time></trkpt><trkpt lat="43.4512476" lon="10.5710115"><ele>268.0</ele><time>2026-04-19T08:37:45.878Z</time></trkpt><trkpt lat="43.4513326" lon="10.57111"><ele>268.0</ele><time>2026-04-19T08:37:46.887Z</time></trkpt><trkpt lat="43.4513917" lon="10.571226"><ele>268.0</ele><time>2026-04-19T08:37:47.88Z</time></trkpt><trkpt lat="43.4514136" lon="10.5713461"><ele>268.3333333333333</ele><time>2026-04-19T08:37:48.875Z</time></trkpt><trkpt lat="43.4514267" lon="10.5714549"><ele>268.66666666666663</ele><time>2026-04-19T08:37:49.872Z</time></trkpt><trkpt lat="43.4514222" lon="10.5715431"><ele>269.0</ele><time>2026-04-19T08:37:50.867Z</time></trkpt><trkpt lat="43.4514064" lon="10.5716497"><ele>269.3333333333333</ele><time>2026-04-19T08:37:52.876Z</time></trkpt><trkpt lat="43.4513707" lon="10.5717601"><ele>269.6666666666667</ele><time>2026-04-19T08:38:42.87Z</time></trkpt><trkpt lat="43.4513757" lon="10.5718584"><ele>270.0</ele><time>2026-04-19T08:38:44.879Z</time></trkpt><trkpt lat="43.4513849" lon="10.5719863"><ele>272.0</ele><time>2026-04-19T08:38:51.863Z</time></trkpt><trkpt lat="43.4513995" lon="10.5720733"><ele>274.0</ele><time>2026-04-19T08:38:52.868Z</time></trkpt><trkpt lat="43.4514148" lon="10.5721788"><ele>276.0</ele><time>2026-04-19T08:38:53.864Z</time></trkpt><trkpt lat="43.4514269" lon="10.5723056"><ele>278.0</ele><time>2026-04-19T08:38:54.861Z</time></trkpt><trkpt lat="43.4514371" lon="10.5724237"><ele>280.0</ele><time>2026-04-19T08:38:55.876Z</time></trkpt><trkpt lat="43.4514405" lon="10.572521"><ele>282.0</ele><time>2026-04-19T08:38:56.855Z</time></trkpt><trkpt lat="43.4514445" lon="10.5726085"><ele>282.0</ele><time>2026-04-19T08:38:57.854Z</time></trkpt><trkpt lat="43.4514587" lon="10.5727536"><ele>282.0</ele><time>2026-04-19T08:38:59.87Z</time></trkpt><trkpt lat="43.4515266" lon="10.5727825"><ele>282.0</ele><time>2026-04-19T08:39:04.854Z</time></trkpt><trkpt lat="43.451627" lon="10.5727465"><ele>282.0</ele><time>2026-04-19T08:39:06.868Z</time></trkpt><trkpt lat="43.4516974" lon="10.5727339"><ele>282.0</ele><time>2026-04-19T08:39:07.867Z</time></trkpt><trkpt lat="43.4517635" lon="10.572753"><ele>282.0</ele><time>2026-04-19T08:39:08.864Z</time></trkpt><trkpt lat="43.4518589" lon="10.5727944"><ele>282.0</ele><time>2026-04-19T08:39:10.875Z</time></trkpt><trkpt lat="43.4519289" lon="10.5728489"><ele>282.0</ele><time>2026-04-19T08:39:12.855Z</time></trkpt><trkpt lat="43.4520066" lon="10.5729382"><ele>282.0</ele><time>2026-04-19T08:39:14.863Z</time></trkpt><trkpt lat="43.4520891" lon="10.5730653"><ele>282.0</ele><time>2026-04-19T08:39:17.855Z</time></trkpt><trkpt lat="43.45215" lon="10.5731545"><ele>282.0</ele><time>2026-04-19T08:39:19.863Z</time></trkpt><trkpt lat="43.4522279" lon="10.5732137"><ele>283.0</ele><time>2026-04-19T08:39:21.868Z</time></trkpt><trkpt lat="43.4523604" lon="10.5731264"><ele>284.0</ele><time>2026-04-19T08:39:24.86Z</time></trkpt><trkpt lat="43.4524124" lon="10.5730164"><ele>285.0</ele><time>2026-04-19T08:39:26.881Z</time></trkpt><trkpt lat="43.452532" lon="10.5728935"><ele>286.0</ele><time>2026-04-19T08:39:28.862Z</time></trkpt><trkpt lat="43.4526474" lon="10.5728469"><ele>283.8</ele><time>2026-04-19T08:39:29.867Z</time></trkpt><trkpt lat="43.4527523" lon="10.5728106"><ele>281.6</ele><time>2026-04-19T08:39:30.879Z</time></trkpt><trkpt lat="43.4528709" lon="10.5727827"><ele>279.4</ele><time>2026-04-19T08:39:31.877Z</time></trkpt><trkpt lat="43.4529701" lon="10.5727564"><ele>277.2</ele><time>2026-04-19T08:39:32.867Z</time></trkpt><trkpt lat="43.4530609" lon="10.5727604"><ele>275.0</ele><time>2026-04-19T08:39:33.882Z</time></trkpt><trkpt lat="43.4531499" lon="10.5727648"><ele>273.33333333333337</ele><time>2026-04-19T08:39:34.873Z</time></trkpt><trkpt lat="43.453234" lon="10.5727663"><ele>271.6666666666667</ele><time>2026-04-19T08:39:35.864Z</time></trkpt><trkpt lat="43.4533097" lon="10.5727882"><ele>270.0</ele><time>2026-04-19T08:39:36.866Z</time></trkpt><trkpt lat="43.4533833" lon="10.5728213"><ele>268.3333333333333</ele><time>2026-04-19T08:39:37.871Z</time></trkpt><trkpt lat="43.4534634" lon="10.5728623"><ele>266.66666666666663</ele><time>2026-04-19T08:39:38.875Z</time></trkpt><trkpt lat="43.4535403" lon="10.5729115"><ele>265.0</ele><time>2026-04-19T08:39:39.863Z</time></trkpt><trkpt lat="43.4536008" lon="10.5729807"><ele>268.3333333333333</ele><time>2026-04-19T08:39:40.866Z</time></trkpt><trkpt lat="43.4536764" lon="10.5730668"><ele>271.66666666666663</ele><time>2026-04-19T08:39:41.863Z</time></trkpt><trkpt lat="43.4537517" lon="10.5731256"><ele>275.0</ele><time>2026-04-19T08:39:42.862Z</time></trkpt><trkpt lat="43.4538209" lon="10.5731572"><ele>278.3333333333333</ele><time>2026-04-19T08:39:43.859Z</time></trkpt><trkpt lat="43.4539158" lon="10.5731743"><ele>281.6666666666667</ele><time>2026-04-19T08:39:44.874Z</time></trkpt><trkpt lat="43.4540009" lon="10.5731673"><ele>285.0</ele><time>2026-04-19T08:39:45.866Z</time></trkpt><trkpt lat="43.4540939" lon="10.5731222"><ele>285.0</ele><time>2026-04-19T08:39:46.868Z</time></trkpt><trkpt lat="43.454246" lon="10.5729756"><ele>285.0</ele><time>2026-04-19T08:39:48.872Z</time></trkpt><trkpt lat="43.4543071" lon="10.5729059"><ele>285.0</ele><time>2026-04-19T08:39:49.855Z</time></trkpt><trkpt lat="43.4543677" lon="10.5728618"><ele>285.0</ele><time>2026-04-19T08:39:50.869Z</time></trkpt><trkpt lat="43.4544265" lon="10.5728307"><ele>285.0</ele><time>2026-04-19T08:39:51.885Z</time></trkpt><trkpt lat="43.4545037" lon="10.5728233"><ele>285.0</ele><time>2026-04-19T08:39:52.871Z</time></trkpt><trkpt lat="43.4545906" lon="10.5728568"><ele>285.0</ele><time>2026-04-19T08:39:53.871Z</time></trkpt><trkpt lat="43.4546715" lon="10.5729208"><ele>285.0</ele><time>2026-04-19T08:39:54.877Z</time></trkpt><trkpt lat="43.4547575" lon="10.5729961"><ele>285.0</ele><time>2026-04-19T08:39:55.879Z</time></trkpt><trkpt lat="43.4548438" lon="10.5730767"><ele>285.0</ele><time>2026-04-19T08:39:56.867Z</time></trkpt><trkpt lat="43.4549323" lon="10.5731599"><ele>283.5</ele><time>2026-04-19T08:39:57.868Z</time></trkpt><trkpt lat="43.4550143" lon="10.5732342"><ele>282.0</ele><time>2026-04-19T08:39:58.877Z</time></trkpt><trkpt lat="43.4526474" lon="10.5728469"><ele>280.6</ele><time>2026-04-19T08:39:29.867Z</time></trkpt><trkpt lat="43.4527523" lon="10.5728106"><ele>279.2</ele><time>2026-04-19T08:39:30.879Z</time></trkpt><trkpt lat="43.4528709" lon="10.5727827"><ele>277.8</ele><time>2026-04-19T08:39:31.877Z</time></trkpt><trkpt lat="43.4529701" lon="10.5727564"><ele>276.4</ele><time>2026-04-19T08:39:32.867Z</time></trkpt><trkpt lat="43.4530609" lon="10.5727604"><ele>275.0</ele><time>2026-04-19T08:39:33.882Z</time></trkpt><trkpt lat="43.4531499" lon="10.5727648"><ele>273.33333333333337</ele><time>2026-04-19T08:39:34.873Z</time></trkpt><trkpt lat="43.453234" lon="10.5727663"><ele>271.6666666666667</ele><time>2026-04-19T08:39:35.864Z</time></trkpt><trkpt lat="43.4533097" lon="10.5727882"><ele>270.0</ele><time>2026-04-19T08:39:36.866Z</time></trkpt><trkpt lat="43.4533833" lon="10.5728213"><ele>268.3333333333333</ele><time>2026-04-19T08:39:37.871Z</time></trkpt><trkpt lat="43.4534634" lon="10.5728623"><ele>266.66666666666663</ele><time>2026-04-19T08:39:38.875Z</time></trkpt><trkpt lat="43.4535403" lon="10.5729115"><ele>265.0</ele><time>2026-04-19T08:39:39.863Z</time></trkpt><trkpt lat="43.4536008" lon="10.5729807"><ele>268.3333333333333</ele><time>2026-04-19T08:39:40.866Z</time></trkpt><trkpt lat="43.4536764" lon="10.5730668"><ele>271.66666666666663</ele><time>2026-04-19T08:39:41.863Z</time></trkpt><trkpt lat="43.4537517" lon="10.5731256"><ele>275.0</ele><time>2026-04-19T08:39:42.862Z</time></trkpt><trkpt lat="43.4538209" lon="10.5731572"><ele>278.3333333333333</ele><time>2026-04-19T08:39:43.859Z</time></trkpt><trkpt lat="43.4539158" lon="10.5731743"><ele>281.6666666666667</ele><time>2026-04-19T08:39:44.874Z</time></trkpt><trkpt lat="43.4540009" lon="10.5731673"><ele>285.0</ele><time>2026-04-19T08:39:45.866Z</time></trkpt><trkpt lat="43.4540939" lon="10.5731222"><ele>285.0</ele><time>2026-04-19T08:39:46.868Z</time></trkpt><trkpt lat="43.454246" lon="10.5729756"><ele>285.0</ele><time>2026-04-19T08:39:48.872Z</time></trkpt><trkpt lat="43.4543071" lon="10.5729059"><ele>285.0</ele><time>2026-04-19T08:39:49.855Z</time></trkpt><trkpt lat="43.4543677" lon="10.5728618"><ele>285.0</ele><time>2026-04-19T08:39:50.869Z</time></trkpt><trkpt lat="43.4544265" lon="10.5728307"><ele>285.0</ele><time>2026-04-19T08:39:51.885Z</time></trkpt><trkpt lat="43.4545037" lon="10.5728233"><ele>285.0</ele><time>2026-04-19T08:39:52.871Z</time></trkpt><trkpt lat="43.4545906" lon="10.5728568"><ele>285.0</ele><time>2026-04-19T08:39:53.871Z</time></trkpt><trkpt lat="43.4546715" lon="10.5729208"><ele>285.0</ele><time>2026-04-19T08:39:54.877Z</time></trkpt><trkpt lat="43.4547575" lon="10.5729961"><ele>285.0</ele><time>2026-04-19T08:39:55.879Z</time></trkpt><trkpt lat="43.4548438" lon="10.5730767"><ele>285.0</ele><time>2026-04-19T08:39:56.867Z</time></trkpt><trkpt lat="43.4549323" lon="10.5731599"><ele>284.4</ele><time>2026-04-19T08:39:57.868Z</time></trkpt><trkpt lat="43.4550143" lon="10.5732342"><ele>283.8</ele><time>2026-04-19T08:39:58.877Z</time></trkpt><trkpt lat="43.4551248" lon="10.5733174"><ele>283.2</ele><time>2026-04-19T08:40:00.87Z</time></trkpt><trkpt lat="43.4551887" lon="10.5733808"><ele>282.6</ele><time>2026-04-19T08:40:01.867Z</time></trkpt><trkpt lat="43.4552479" lon="10.5734508"><ele>282.0</ele><time>2026-04-19T08:40:02.863Z</time></trkpt><trkpt lat="43.4553099" lon="10.5735055"><ele>282.0</ele><time>2026-04-19T08:40:03.861Z</time></trkpt><trkpt lat="43.4553793" lon="10.5735494"><ele>282.0</ele><time>2026-04-19T08:40:04.874Z</time></trkpt><trkpt lat="43.4554496" lon="10.5735938"><ele>282.0</ele><time>2026-04-19T08:40:05.864Z</time></trkpt><trkpt lat="43.4555222" lon="10.5736905"><ele>282.0</ele><time>2026-04-19T08:40:07.877Z</time></trkpt><trkpt lat="43.4555854" lon="10.5737946"><ele>282.0</ele><time>2026-04-19T08:40:09.882Z</time></trkpt><trkpt lat="43.4556578" lon="10.5738733"><ele>282.0</ele><time>2026-04-19T08:40:11.871Z</time></trkpt><trkpt lat="43.4556841" lon="10.5739763"><ele>281.5</ele><time>2026-04-19T08:40:13.878Z</time></trkpt><trkpt lat="43.4556711" lon="10.5738209"><ele>281.0</ele><time>2026-04-19T08:40:17.868Z</time></trkpt><trkpt lat="43.4556853" lon="10.5737277"><ele>280.5</ele><time>2026-04-19T08:40:18.87Z</time></trkpt><trkpt lat="43.4557162" lon="10.5735601"><ele>280.0</ele><time>2026-04-19T08:40:20.875Z</time></trkpt><trkpt lat="43.4557725" lon="10.5733628"><ele>279.3333333333333</ele><time>2026-04-19T08:40:22.875Z</time></trkpt><trkpt lat="43.4558222" lon="10.5732832"><ele>278.66666666666663</ele><time>2026-04-19T08:40:23.87Z</time></trkpt><trkpt lat="43.4558581" lon="10.573193"><ele>278.0</ele><time>2026-04-19T08:40:24.866Z</time></trkpt><trkpt lat="43.4558965" lon="10.57308"><ele>277.3333333333333</ele><time>2026-04-19T08:40:25.865Z</time></trkpt><trkpt lat="43.4560148" lon="10.5730474"><ele>276.6666666666667</ele><time>2026-04-19T08:40:37.874Z</time></trkpt><trkpt lat="43.4560882" lon="10.5730421"><ele>276.0</ele><time>2026-04-19T08:40:44.866Z</time></trkpt><trkpt lat="43.4561689" lon="10.5730385"><ele>276.0</ele><time>2026-04-19T08:40:54.878Z</time></trkpt><trkpt lat="43.4562529" lon="10.5730899"><ele>276.0</ele><time>2026-04-19T08:42:04.868Z</time></trkpt><trkpt lat="43.4562882" lon="10.573255"><ele>276.0</ele><time>2026-04-19T08:46:24.867Z</time></trkpt><trkpt lat="43.4563213" lon="10.5733712"><ele>276.0</ele><time>2026-04-19T08:46:25.875Z</time></trkpt><trkpt lat="43.4563547" lon="10.5734578"><ele>276.0</ele><time>2026-04-19T08:46:26.868Z</time></trkpt><trkpt lat="43.4563834" lon="10.5735372"><ele>276.0</ele><time>2026-04-19T08:46:27.874Z</time></trkpt><trkpt lat="43.4564148" lon="10.5736376"><ele>278.5</ele><time>2026-04-19T08:46:28.862Z</time></trkpt><trkpt lat="43.4564504" lon="10.5737392"><ele>281.0</ele><time>2026-04-19T08:46:29.858Z</time></trkpt><trkpt lat="43.4564976" lon="10.5738187"><ele>283.5</ele><time>2026-04-19T08:46:30.873Z</time></trkpt><trkpt lat="43.4565506" lon="10.5739017"><ele>286.0</ele><time>2026-04-19T08:46:31.87Z</time></trkpt><trkpt lat="43.4566045" lon="10.5739988"><ele>288.5</ele><time>2026-04-19T08:46:33.879Z</time></trkpt><trkpt lat="43.4566585" lon="10.5740729"><ele>291.0</ele><time>2026-04-19T08:46:40.874Z</time></trkpt><trkpt lat="43.4567019" lon="10.574139"><ele>291.0</ele><time>2026-04-19T08:46:42.871Z</time></trkpt><trkpt lat="43.4567538" lon="10.5742096"><ele>291.0</ele><time>2026-04-19T08:46:46.871Z</time></trkpt><trkpt lat="43.4566898" lon="10.5741864"><ele>291.0</ele><time>2026-04-19T08:47:10.876Z</time></trkpt><trkpt lat="43.4567709" lon="10.5741984"><ele>291.0</ele><time>2026-04-19T08:47:58.867Z</time></trkpt><trkpt lat="43.4568604" lon="10.5743106"><ele>291.0</ele><time>2026-04-19T08:48:00.884Z</time></trkpt><trkpt lat="43.4569046" lon="10.5743884"><ele>291.0</ele><time>2026-04-19T08:48:01.878Z</time></trkpt><trkpt lat="43.4569503" lon="10.5745183"><ele>291.0</ele><time>2026-04-19T08:48:03.877Z</time></trkpt><trkpt lat="43.4569697" lon="10.5746639"><ele>291.0</ele><time>2026-04-19T08:48:05.876Z</time></trkpt><trkpt lat="43.4569789" lon="10.574528"><ele>291.0</ele><time>2026-04-19T08:48:13.868Z</time></trkpt><trkpt lat="43.4570215" lon="10.5743571"><ele>291.0</ele><time>2026-04-19T08:48:15.87Z</time></trkpt><trkpt lat="43.4570661" lon="10.5742605"><ele>291.0</ele><time>2026-04-19T08:48:16.88Z</time></trkpt><trkpt lat="43.4571041" lon="10.5741755"><ele>293.75</ele><time>2026-04-19T08:48:17.878Z</time></trkpt><trkpt lat="43.4571706" lon="10.5740522"><ele>296.5</ele><time>2026-04-19T08:48:18.877Z</time></trkpt><trkpt lat="43.4572504" lon="10.5738829"><ele>299.25</ele><time>2026-04-19T08:48:19.859Z</time></trkpt><trkpt lat="43.4573139" lon="10.5737688"><ele>302.0</ele><time>2026-04-19T08:48:20.883Z</time></trkpt><trkpt lat="43.457398" lon="10.573671"><ele>302.0</ele><time>2026-04-19T08:48:21.87Z</time></trkpt><trkpt lat="43.4574965" lon="10.5735845"><ele>302.0</ele><time>2026-04-19T08:48:22.887Z</time></trkpt><trkpt lat="43.4576068" lon="10.5734689"><ele>302.0</ele><time>2026-04-19T08:48:23.881Z</time></trkpt><trkpt lat="43.4577085" lon="10.573354"><ele>302.0</ele><time>2026-04-19T08:48:24.865Z</time></trkpt><trkpt lat="43.4578067" lon="10.5732403"><ele>302.0</ele><time>2026-04-19T08:48:25.873Z</time></trkpt><trkpt lat="43.457898" lon="10.5731322"><ele>302.0</ele><time>2026-04-19T08:48:26.87Z</time></trkpt><trkpt lat="43.4579618" lon="10.5730155"><ele>302.0</ele><time>2026-04-19T08:48:27.877Z</time></trkpt><trkpt lat="43.4580105" lon="10.5729266"><ele>302.0</ele><time>2026-04-19T08:48:28.87Z</time></trkpt><trkpt lat="43.4580674" lon="10.5728321"><ele>302.0</ele><time>2026-04-19T08:48:30.87Z</time></trkpt><trkpt lat="43.4580963" lon="10.5727074"><ele>302.33333333333337</ele><time>2026-04-19T08:48:36.88Z</time></trkpt><trkpt lat="43.4581044" lon="10.5725681"><ele>302.6666666666667</ele><time>2026-04-19T08:49:42.874Z</time></trkpt><trkpt lat="43.4581865" lon="10.5725791"><ele>303.0</ele><time>2026-04-19T08:49:47.875Z</time></trkpt><trkpt lat="43.4582587" lon="10.5726343"><ele>303.3333333333333</ele><time>2026-04-19T08:49:50.877Z</time></trkpt><trkpt lat="43.4583468" lon="10.57265"><ele>303.66666666666663</ele><time>2026-04-19T08:49:53.871Z</time></trkpt><trkpt lat="43.4584217" lon="10.5726459"><ele>304.0</ele><time>2026-04-19T08:49:57.878Z</time></trkpt><trkpt lat="43.458423" lon="10.5727744"><ele>304.0</ele><time>2026-04-19T08:50:02.875Z</time></trkpt><trkpt lat="43.4584866" lon="10.5728085"><ele>304.0</ele><time>2026-04-19T08:50:08.875Z</time></trkpt><trkpt lat="43.4586596" lon="10.5729773"><ele>304.0</ele><time>2026-04-19T08:50:17.87Z</time></trkpt><trkpt lat="43.458638" lon="10.5730609"><ele>304.0</ele><time>2026-04-19T08:50:18.865Z</time></trkpt><trkpt lat="43.4585974" lon="10.5731461"><ele>304.0</ele><time>2026-04-19T08:50:52.881Z</time></trkpt><trkpt lat="43.4585175" lon="10.5731474"><ele>308.2</ele><time>2026-04-19T08:50:57.875Z</time></trkpt><trkpt lat="43.4584421" lon="10.5731863"><ele>312.4</ele><time>2026-04-19T08:50:59.872Z</time></trkpt><trkpt lat="43.4583579" lon="10.5732932"><ele>316.6</ele><time>2026-04-19T08:51:01.884Z</time></trkpt><trkpt lat="43.45829" lon="10.573416"><ele>320.8</ele><time>2026-04-19T08:51:03.865Z</time></trkpt><trkpt lat="43.458266" lon="10.5735145"><ele>325.0</ele><time>2026-04-19T08:51:05.869Z</time></trkpt><trkpt lat="43.4582779" lon="10.5736453"><ele>328.3333333333333</ele><time>2026-04-19T08:51:08.868Z</time></trkpt><trkpt lat="43.4582357" lon="10.5737737"><ele>331.66666666666663</ele><time>2026-04-19T08:51:11.872Z</time></trkpt><trkpt lat="43.4582161" lon="10.5738938"><ele>335.0</ele><time>2026-04-19T08:51:13.872Z</time></trkpt><trkpt lat="43.4582244" lon="10.574029"><ele>338.3333333333333</ele><time>2026-04-19T08:51:15.871Z</time></trkpt><trkpt lat="43.4582425" lon="10.5741428"><ele>341.6666666666667</ele><time>2026-04-19T08:51:17.876Z</time></trkpt><trkpt lat="43.4582282" lon="10.5742421"><ele>345.0</ele><time>2026-04-19T08:51:19.864Z</time></trkpt><trkpt lat="43.458236" lon="10.5743368"><ele>345.0</ele><time>2026-04-19T08:51:21.865Z</time></trkpt><trkpt lat="43.4582497" lon="10.5744772"><ele>345.0</ele><time>2026-04-19T08:51:23.866Z</time></trkpt><trkpt lat="43.4582675" lon="10.5746068"><ele>345.0</ele><time>2026-04-19T08:51:26.867Z</time></trkpt><trkpt lat="43.4583358" lon="10.5746999"><ele>345.0</ele><time>2026-04-19T08:51:28.884Z</time></trkpt><trkpt lat="43.458388" lon="10.5748402"><ele>345.0</ele><time>2026-04-19T08:51:30.877Z</time></trkpt><trkpt lat="43.4583964" lon="10.5749325"><ele>347.0</ele><time>2026-04-19T08:51:31.875Z</time></trkpt><trkpt lat="43.4583912" lon="10.5750837"><ele>349.0</ele><time>2026-04-19T08:51:33.86Z</time></trkpt><trkpt lat="43.4584185" lon="10.5751745"><ele>351.0</ele><time>2026-04-19T08:51:35.873Z</time></trkpt><trkpt lat="43.4584441" lon="10.5752956"><ele>353.0</ele><time>2026-04-19T08:51:37.878Z</time></trkpt><trkpt lat="43.4584595" lon="10.5754528"><ele>355.0</ele><time>2026-04-19T08:51:39.87Z</time></trkpt><trkpt lat="43.4584799" lon="10.5756064"><ele>355.8</ele><time>2026-04-19T08:51:41.866Z</time></trkpt><trkpt lat="43.4584901" lon="10.5757119"><ele>356.6</ele><time>2026-04-19T08:51:43.872Z</time></trkpt><trkpt lat="43.4585209" lon="10.575842"><ele>357.4</ele><time>2026-04-19T08:51:45.874Z</time></trkpt><trkpt lat="43.4585342" lon="10.5760054"><ele>358.2</ele><time>2026-04-19T08:51:47.87Z</time></trkpt><trkpt lat="43.4585307" lon="10.5761206"><ele>359.0</ele><time>2026-04-19T08:51:48.86Z</time></trkpt><trkpt lat="43.4585273" lon="10.5762414"><ele>360.1666666666667</ele><time>2026-04-19T08:51:49.868Z</time></trkpt><trkpt lat="43.4585294" lon="10.5763403"><ele>361.33333333333337</ele><time>2026-04-19T08:51:50.877Z</time></trkpt><trkpt lat="43.458525" lon="10.5764306"><ele>362.5</ele><time>2026-04-19T08:51:51.867Z</time></trkpt><trkpt lat="43.4585086" lon="10.576566"><ele>363.6666666666667</ele><time>2026-04-19T08:51:53.873Z</time></trkpt><trkpt lat="43.4585365" lon="10.5767363"><ele>364.8333333333333</ele><time>2026-04-19T08:51:55.868Z</time></trkpt><trkpt lat="43.4585603" lon="10.5768489"><ele>366.0</ele><time>2026-04-19T08:51:56.866Z</time></trkpt><trkpt lat="43.4585686" lon="10.5769485"><ele>367.1666666666667</ele><time>2026-04-19T08:51:57.875Z</time></trkpt><trkpt lat="43.4585758" lon="10.5770394"><ele>368.3333333333333</ele><time>2026-04-19T08:51:58.87Z</time></trkpt><trkpt lat="43.4585941" lon="10.5771425"><ele>369.5</ele><time>2026-04-19T08:51:59.884Z</time></trkpt><trkpt lat="43.4586103" lon="10.5772642"><ele>370.66666666666663</ele><time>2026-04-19T08:52:00.88Z</time></trkpt><trkpt lat="43.4586091" lon="10.577372"><ele>371.8333333333333</ele><time>2026-04-19T08:52:01.864Z</time></trkpt><trkpt lat="43.4586544" lon="10.5775498"><ele>373.0</ele><time>2026-04-19T08:52:26.866Z</time></trkpt><trkpt lat="43.4586768" lon="10.5776675"><ele>373.0</ele><time>2026-04-19T08:52:46.869Z</time></trkpt><trkpt lat="43.4586886" lon="10.5777641"><ele>373.0</ele><time>2026-04-19T08:53:05.875Z</time></trkpt><trkpt lat="43.4586995" lon="10.5778625"><ele>373.0</ele><time>2026-04-19T08:53:46.885Z</time></trkpt><trkpt lat="43.4587112" lon="10.5779982"><ele>373.0</ele><time>2026-04-19T08:54:08.879Z</time></trkpt><trkpt lat="43.4587263" lon="10.578102"><ele>373.0</ele><time>2026-04-19T08:54:10.874Z</time></trkpt><trkpt lat="43.4587456" lon="10.5782018"><ele>373.0</ele><time>2026-04-19T08:54:12.872Z</time></trkpt><trkpt lat="43.458796" lon="10.5783766"><ele>381.4</ele><time>2026-04-19T08:54:15.874Z</time></trkpt><trkpt lat="43.4588545" lon="10.5784756"><ele>389.79999999999995</ele><time>2026-04-19T08:54:17.878Z</time></trkpt><trkpt lat="43.458882" lon="10.5785613"><ele>398.2</ele><time>2026-04-19T08:54:18.856Z</time></trkpt><trkpt lat="43.4589307" lon="10.5787333"><ele>406.6</ele><time>2026-04-19T08:54:23.882Z</time></trkpt><trkpt lat="43.4589561" lon="10.5788633"><ele>415.0</ele><time>2026-04-19T08:54:27.885Z</time></trkpt><trkpt lat="43.4589335" lon="10.5789639"><ele>415.2857142857143</ele><time>2026-04-19T08:54:39.87Z</time></trkpt><trkpt lat="43.4588936" lon="10.5790423"><ele>415.57142857142856</ele><time>2026-04-19T08:55:01.873Z</time></trkpt><trkpt lat="43.4589294" lon="10.5791252"><ele>415.8571428571429</ele><time>2026-04-19T08:55:04.877Z</time></trkpt><trkpt lat="43.4589804" lon="10.5792469"><ele>416.1428571428571</ele><time>2026-04-19T08:55:06.884Z</time></trkpt><trkpt lat="43.4590165" lon="10.5793258"><ele>416.4285714285714</ele><time>2026-04-19T08:55:07.884Z</time></trkpt><trkpt lat="43.4590604" lon="10.579403"><ele>416.7142857142857</ele><time>2026-04-19T08:55:08.876Z</time></trkpt><trkpt lat="43.4590954" lon="10.5794785"><ele>417.0</ele><time>2026-04-19T08:55:09.874Z</time></trkpt><trkpt lat="43.4591578" lon="10.579587"><ele>415.0</ele><time>2026-04-19T08:55:11.876Z</time></trkpt><trkpt lat="43.4592127" lon="10.5797029"><ele>413.0</ele><time>2026-04-19T08:55:13.87Z</time></trkpt><trkpt lat="43.4592549" lon="10.5797918"><ele>411.0</ele><time>2026-04-19T08:55:15.867Z</time></trkpt><trkpt lat="43.4593012" lon="10.5799145"><ele>409.0</ele><time>2026-04-19T08:55:17.867Z</time></trkpt><trkpt lat="43.4594282" lon="10.5800633"><ele>407.0</ele><time>2026-04-19T08:55:20.863Z</time></trkpt><trkpt lat="43.4595513" lon="10.5802065"><ele>415.66666666666663</ele><time>2026-04-19T08:55:22.862Z</time></trkpt><trkpt lat="43.4598399" lon="10.5804936"><ele>424.33333333333337</ele><time>2026-04-19T08:55:26.866Z</time></trkpt><trkpt lat="43.4598992" lon="10.5805418"><ele>433.0</ele><time>2026-04-19T08:55:27.868Z</time></trkpt><trkpt lat="43.4599507" lon="10.5806085"><ele>433.00000000000006</ele><time>2026-04-19T08:55:28.87Z</time></trkpt><trkpt lat="43.4600223" lon="10.5806755"><ele>433.0</ele><time>2026-04-19T08:55:29.859Z</time></trkpt><trkpt lat="43.4600893" lon="10.5807417"><ele>433.0</ele><time>2026-04-19T08:55:30.874Z</time></trkpt><trkpt lat="43.4601523" lon="10.580837"><ele>433.0</ele><time>2026-04-19T08:55:31.877Z</time></trkpt><trkpt lat="43.4601936" lon="10.5809173"><ele>433.00000000000006</ele><time>2026-04-19T08:55:32.864Z</time></trkpt><trkpt lat="43.4602177" lon="10.5809985"><ele>433.0</ele><time>2026-04-19T08:55:33.865Z</time></trkpt><trkpt lat="43.4602528" lon="10.5810771"><ele>433.0</ele><time>2026-04-19T08:55:34.866Z</time></trkpt><trkpt lat="43.4602981" lon="10.5811407"><ele>432.99999999999994</ele><time>2026-04-19T08:55:35.869Z</time></trkpt><trkpt lat="43.4603545" lon="10.5812161"><ele>432.99999999999994</ele><time>2026-04-19T08:55:36.854Z</time></trkpt><trkpt lat="43.4604145" lon="10.5813289"><ele>433.0</ele><time>2026-04-19T08:55:37.868Z</time></trkpt><trkpt lat="43.4605377" lon="10.5814873"><ele>433.0</ele><time>2026-04-19T08:55:39.867Z</time></trkpt><trkpt lat="43.460613" lon="10.5816036"><ele>433.50000000000006</ele><time>2026-04-19T08:55:41.867Z</time></trkpt><trkpt lat="43.4606625" lon="10.5816708"><ele>434.0</ele><time>2026-04-19T08:55:42.878Z</time></trkpt><trkpt lat="43.4606934" lon="10.5817647"><ele>434.5</ele><time>2026-04-19T08:55:43.879Z</time></trkpt><trkpt lat="43.4607266" lon="10.5818622"><ele>435.0</ele><time>2026-04-19T08:55:44.858Z</time></trkpt><trkpt lat="43.4607828" lon="10.5819729"><ele>435.50000000000006</ele><time>2026-04-19T08:55:45.868Z</time></trkpt><trkpt lat="43.4608401" lon="10.5820875"><ele>436.0</ele><time>2026-04-19T08:55:46.867Z</time></trkpt><trkpt lat="43.4608905" lon="10.5822119"><ele>436.00000000000006</ele><time>2026-04-19T08:55:47.876Z</time></trkpt><trkpt lat="43.4609344" lon="10.5822938"><ele>436.0</ele><time>2026-04-19T08:55:48.871Z</time></trkpt><trkpt lat="43.4610033" lon="10.5824141"><ele>436.0</ele><time>2026-04-19T08:55:50.86Z</time></trkpt><trkpt lat="43.4610457" lon="10.5824906"><ele>436.0</ele><time>2026-04-19T08:55:51.868Z</time></trkpt><trkpt lat="43.4611244" lon="10.5825804"><ele>436.00000000000006</ele><time>2026-04-19T08:55:53.868Z</time></trkpt><trkpt lat="43.4611504" lon="10.5826627"><ele>436.0</ele><time>2026-04-19T08:55:54.861Z</time></trkpt><trkpt lat="43.4611893" lon="10.5827319"><ele>436.00000000000006</ele><time>2026-04-19T08:55:55.874Z</time></trkpt><trkpt lat="43.4612575" lon="10.582853"><ele>436.0</ele><time>2026-04-19T08:55:57.88Z</time></trkpt><trkpt lat="43.4613001" lon="10.5829703"><ele>436.0</ele><time>2026-04-19T08:55:59.869Z</time></trkpt><trkpt lat="43.4613493" lon="10.5830359"><ele>436.0</ele><time>2026-04-19T08:56:00.868Z</time></trkpt><trkpt lat="43.4613731" lon="10.5831231"><ele>436.00000000000006</ele><time>2026-04-19T08:56:01.86Z</time></trkpt><trkpt lat="43.4613976" lon="10.5832167"><ele>436.0</ele><time>2026-04-19T08:56:02.882Z</time></trkpt><trkpt lat="43.4614647" lon="10.5833911"><ele>439.0</ele><time>2026-04-19T08:56:04.879Z</time></trkpt><trkpt lat="43.4615121" lon="10.5834982"><ele>442.0</ele><time>2026-04-19T08:56:06.868Z</time></trkpt><trkpt lat="43.4615954" lon="10.5836372"><ele>445.0</ele><time>2026-04-19T08:56:08.867Z</time></trkpt><trkpt lat="43.4616525" lon="10.5837145"><ele>448.0</ele><time>2026-04-19T08:56:09.866Z</time></trkpt><trkpt lat="43.4617062" lon="10.5838017"><ele>451.0</ele><time>2026-04-19T08:56:10.881Z</time></trkpt><trkpt lat="43.4617625" lon="10.5838675"><ele>451.0</ele><time>2026-04-19T08:56:11.845Z</time></trkpt><trkpt lat="43.4618106" lon="10.5839319"><ele>451.0</ele><time>2026-04-19T08:56:12.855Z</time></trkpt><trkpt lat="43.4618941" lon="10.5840092"><ele>451.0</ele><time>2026-04-19T08:56:14.87Z</time></trkpt><trkpt lat="43.4619451" lon="10.584066"><ele>451.0</ele><time>2026-04-19T08:56:15.868Z</time></trkpt><trkpt lat="43.4620117" lon="10.5841505"><ele>451.0</ele><time>2026-04-19T08:56:17.87Z</time></trkpt><trkpt lat="43.4620871" lon="10.5842981"><ele>453.1666666666667</ele><time>2026-04-19T08:56:19.849Z</time></trkpt><trkpt lat="43.4621483" lon="10.5843854"><ele>455.33333333333337</ele><time>2026-04-19T08:56:21.874Z</time></trkpt><trkpt lat="43.4622403" lon="10.5843747"><ele>457.5</ele><time>2026-04-19T08:56:24.863Z</time></trkpt><trkpt lat="43.4623114" lon="10.5843388"><ele>459.66666666666663</ele><time>2026-04-19T08:56:27.876Z</time></trkpt><trkpt lat="43.4623758" lon="10.5843585"><ele>461.8333333333333</ele><time>2026-04-19T08:56:30.875Z</time></trkpt><trkpt lat="43.4623893" lon="10.5844475"><ele>464.0</ele><time>2026-04-19T08:56:36.863Z</time></trkpt><trkpt lat="43.4624623" lon="10.5845125"><ele>464.0</ele><time>2026-04-19T08:56:42.847Z</time></trkpt><trkpt lat="43.4625189" lon="10.5845997"><ele>464.0</ele><time>2026-04-19T08:57:05.855Z</time></trkpt><trkpt lat="43.4625143" lon="10.584734"><ele>464.0</ele><time>2026-04-19T08:57:07.856Z</time></trkpt><trkpt lat="43.4625224" lon="10.5848505"><ele>464.0</ele><time>2026-04-19T08:57:08.882Z</time></trkpt><trkpt lat="43.4625434" lon="10.5849933"><ele>464.0</ele><time>2026-04-19T08:57:09.845Z</time></trkpt><trkpt lat="43.4625646" lon="10.5851078"><ele>464.0</ele><time>2026-04-19T08:57:10.856Z</time></trkpt><trkpt lat="43.4625863" lon="10.5852308"><ele>464.0</ele><time>2026-04-19T08:57:11.86Z</time></trkpt><trkpt lat="43.4626234" lon="10.5853512"><ele>464.0</ele><time>2026-04-19T08:57:12.866Z</time></trkpt><trkpt lat="43.4626785" lon="10.5854881"><ele>464.0</ele><time>2026-04-19T08:57:13.858Z</time></trkpt><trkpt lat="43.4627412" lon="10.5856342"><ele>464.0</ele><time>2026-04-19T08:57:14.856Z</time></trkpt><trkpt lat="43.4628159" lon="10.5857821"><ele>464.5</ele><time>2026-04-19T08:57:15.849Z</time></trkpt><trkpt lat="43.4628955" lon="10.5859431"><ele>465.0</ele><time>2026-04-19T08:57:16.849Z</time></trkpt><trkpt lat="43.4629828" lon="10.5860938"><ele>465.5</ele><time>2026-04-19T08:57:17.855Z</time></trkpt><trkpt lat="43.4630713" lon="10.5862406"><ele>466.0</ele><time>2026-04-19T08:57:18.856Z</time></trkpt><trkpt lat="43.463165" lon="10.5863876"><ele>468.0</ele><time>2026-04-19T08:57:19.864Z</time></trkpt><trkpt lat="43.4632466" lon="10.5865248"><ele>470.0</ele><time>2026-04-19T08:57:20.864Z</time></trkpt><trkpt lat="43.463317" lon="10.5866473"><ele>472.0</ele><time>2026-04-19T08:57:21.858Z</time></trkpt><trkpt lat="43.4633999" lon="10.5867526"><ele>474.0</ele><time>2026-04-19T08:57:22.868Z</time></trkpt><trkpt lat="43.4634655" lon="10.5868594"><ele>474.0</ele><time>2026-04-19T08:57:23.852Z</time></trkpt><trkpt lat="43.4635154" lon="10.5869354"><ele>474.0</ele><time>2026-04-19T08:57:24.865Z</time></trkpt><trkpt lat="43.4635438" lon="10.5870215"><ele>474.0</ele><time>2026-04-19T08:57:25.865Z</time></trkpt><trkpt lat="43.4635612" lon="10.5871555"><ele>474.0</ele><time>2026-04-19T08:57:27.858Z</time></trkpt><trkpt lat="43.4635787" lon="10.587242"><ele>474.0</ele><time>2026-04-19T08:57:29.866Z</time></trkpt><trkpt lat="43.4636651" lon="10.5872636"><ele>474.0</ele><time>2026-04-19T08:57:47.866Z</time></trkpt><trkpt lat="43.4637377" lon="10.5872711"><ele>472.79999999999995</ele><time>2026-04-19T08:59:08.872Z</time></trkpt><trkpt lat="43.463822" lon="10.5873181"><ele>471.59999999999997</ele><time>2026-04-19T08:59:10.865Z</time></trkpt><trkpt lat="43.4639034" lon="10.587375"><ele>470.4</ele><time>2026-04-19T08:59:11.861Z</time></trkpt><trkpt lat="43.4639972" lon="10.5874437"><ele>469.2</ele><time>2026-04-19T08:59:12.868Z</time></trkpt><trkpt lat="43.4640921" lon="10.5875153"><ele>468.0</ele><time>2026-04-19T08:59:13.869Z</time></trkpt><trkpt lat="43.4641861" lon="10.587567"><ele>468.0</ele><time>2026-04-19T08:59:14.871Z</time></trkpt><trkpt lat="43.4642885" lon="10.5876118"><ele>468.0</ele><time>2026-04-19T08:59:15.871Z</time></trkpt><trkpt lat="43.4643954" lon="10.587638"><ele>468.0</ele><time>2026-04-19T08:59:16.868Z</time></trkpt><trkpt lat="43.4645145" lon="10.5876547"><ele>468.0</ele><time>2026-04-19T08:59:17.875Z</time></trkpt><trkpt lat="43.4646284" lon="10.5876417"><ele>467.0</ele><time>2026-04-19T08:59:18.871Z</time></trkpt><trkpt lat="43.4647577" lon="10.5876087"><ele>466.0</ele><time>2026-04-19T08:59:19.866Z</time></trkpt><trkpt lat="43.4648832" lon="10.587553"><ele>465.0</ele><time>2026-04-19T08:59:20.871Z</time></trkpt><trkpt lat="43.4650121" lon="10.5875064"><ele>464.0</ele><time>2026-04-19T08:59:21.87Z</time></trkpt><trkpt lat="43.465131" lon="10.587471"><ele>464.0</ele><time>2026-04-19T08:59:22.873Z</time></trkpt><trkpt lat="43.4652528" lon="10.5874295"><ele>464.0</ele><time>2026-04-19T08:59:23.87Z</time></trkpt><trkpt lat="43.465607" lon="10.5872465"><ele>463.0</ele><time>2026-04-19T08:59:26.869Z</time></trkpt><trkpt lat="43.4657173" lon="10.5871716"><ele>462.0</ele><time>2026-04-19T08:59:27.873Z</time></trkpt><trkpt lat="43.4658194" lon="10.5871061"><ele>461.0</ele><time>2026-04-19T08:59:28.874Z</time></trkpt><trkpt lat="43.4659139" lon="10.5870438"><ele>460.0</ele><time>2026-04-19T08:59:29.879Z</time></trkpt><trkpt lat="43.4660162" lon="10.586972"><ele>457.8</ele><time>2026-04-19T08:59:30.866Z</time></trkpt><trkpt lat="43.4661193" lon="10.5868863"><ele>455.6</ele><time>2026-04-19T08:59:31.87Z</time></trkpt><trkpt lat="43.4662103" lon="10.586804"><ele>453.4</ele><time>2026-04-19T08:59:32.87Z</time></trkpt><trkpt lat="43.4662791" lon="10.5867544"><ele>451.2</ele><time>2026-04-19T08:59:33.866Z</time></trkpt><trkpt lat="43.466349" lon="10.5867215"><ele>449.0</ele><time>2026-04-19T08:59:34.87Z</time></trkpt><trkpt lat="43.4664269" lon="10.5867089"><ele>447.8333333333333</ele><time>2026-04-19T08:59:35.869Z</time></trkpt><trkpt lat="43.4664957" lon="10.5867161"><ele>446.66666666666663</ele><time>2026-04-19T08:59:36.875Z</time></trkpt><trkpt lat="43.4665605" lon="10.5867426"><ele>445.5</ele><time>2026-04-19T08:59:37.877Z</time></trkpt><trkpt lat="43.4666366" lon="10.5868124"><ele>444.33333333333337</ele><time>2026-04-19T08:59:39.869Z</time></trkpt><trkpt lat="43.4666981" lon="10.5868335"><ele>443.1666666666667</ele><time>2026-04-19T08:59:40.884Z</time></trkpt><trkpt lat="43.4668223" lon="10.5867692"><ele>442.0</ele><time>2026-04-19T08:59:42.865Z</time></trkpt><trkpt lat="43.4669056" lon="10.5866763"><ele>442.0</ele><time>2026-04-19T08:59:43.874Z</time></trkpt><trkpt lat="43.4669771" lon="10.5865499"><ele>442.0</ele><time>2026-04-19T08:59:44.865Z</time></trkpt><trkpt lat="43.4670558" lon="10.5864252"><ele>442.0</ele><time>2026-04-19T08:59:45.871Z</time></trkpt><trkpt lat="43.4671417" lon="10.5863114"><ele>442.0</ele><time>2026-04-19T08:59:46.873Z</time></trkpt><trkpt lat="43.4672274" lon="10.586179"><ele>437.25</ele><time>2026-04-19T08:59:47.874Z</time></trkpt><trkpt lat="43.4672912" lon="10.586041"><ele>432.5</ele><time>2026-04-19T08:59:48.859Z</time></trkpt><trkpt lat="43.4673557" lon="10.5858714"><ele>427.75</ele><time>2026-04-19T08:59:49.869Z</time></trkpt><trkpt lat="43.4674011" lon="10.5857021"><ele>423.0</ele><time>2026-04-19T08:59:50.88Z</time></trkpt><trkpt lat="43.4674537" lon="10.58555"><ele>423.0</ele><time>2026-04-19T08:59:51.865Z</time></trkpt><trkpt lat="43.467514" lon="10.5854109"><ele>423.0</ele><time>2026-04-19T08:59:52.875Z</time></trkpt><trkpt lat="43.4675712" lon="10.5853062"><ele>423.0</ele><time>2026-04-19T08:59:53.862Z</time></trkpt><trkpt lat="43.467687" lon="10.5852315"><ele>423.0</ele><time>2026-04-19T08:59:54.868Z</time></trkpt><trkpt lat="43.4677413" lon="10.5851422"><ele>423.0</ele><time>2026-04-19T08:59:55.866Z</time></trkpt><trkpt lat="43.4678012" lon="10.585079"><ele>422.0</ele><time>2026-04-19T08:59:56.877Z</time></trkpt><trkpt lat="43.4678327" lon="10.5849735"><ele>421.0</ele><time>2026-04-19T08:59:57.881Z</time></trkpt><trkpt lat="43.4679102" lon="10.5848462"><ele>420.0</ele><time>2026-04-19T09:00:17.87Z</time></trkpt><trkpt lat="43.46798" lon="10.5848019"><ele>419.0</ele><time>2026-04-19T09:01:16.879Z</time></trkpt><trkpt lat="43.4679845" lon="10.584693"><ele>418.0</ele><time>2026-04-19T09:05:11.877Z</time></trkpt><trkpt lat="43.4680423" lon="10.584628"><ele>417.0</ele><time>2026-04-19T09:05:15.855Z</time></trkpt><trkpt lat="43.4681322" lon="10.5845892"><ele>416.40000000000003</ele><time>2026-04-19T09:05:19.879Z</time></trkpt><trkpt lat="43.4682114" lon="10.584566"><ele>415.8</ele><time>2026-04-19T09:05:21.876Z</time></trkpt><trkpt lat="43.4683102" lon="10.5845229"><ele>415.2</ele><time>2026-04-19T09:05:23.87Z</time></trkpt><trkpt lat="43.4684391" lon="10.5844664"><ele>414.6</ele><time>2026-04-19T09:05:25.869Z</time></trkpt><trkpt lat="43.468495" lon="10.5844162"><ele>414.0</ele><time>2026-04-19T09:05:26.872Z</time></trkpt><trkpt lat="43.4686617" lon="10.5842663"><ele>388.0</ele><time>2026-04-19T09:05:30.87Z</time></trkpt><trkpt lat="43.469078" lon="10.5838914"><ele>388.00000000000006</ele><time>2026-04-19T09:05:35.868Z</time></trkpt><trkpt lat="43.4691231" lon="10.5837922"><ele>388.0</ele><time>2026-04-19T09:05:36.875Z</time></trkpt><trkpt lat="43.46918" lon="10.5837255"><ele>388.0</ele><time>2026-04-19T09:05:37.877Z</time></trkpt><trkpt lat="43.4692328" lon="10.5836536"><ele>388.0</ele><time>2026-04-19T09:05:38.866Z</time></trkpt><trkpt lat="43.469284" lon="10.5835794"><ele>388.00000000000006</ele><time>2026-04-19T09:05:39.866Z</time></trkpt><trkpt lat="43.4693229" lon="10.5834706"><ele>388.0</ele><time>2026-04-19T09:05:40.871Z</time></trkpt><trkpt lat="43.469353" lon="10.5833589"><ele>390.2</ele><time>2026-04-19T09:05:41.861Z</time></trkpt><trkpt lat="43.4693511" lon="10.583272"><ele>392.4</ele><time>2026-04-19T09:05:42.864Z</time></trkpt><trkpt lat="43.4693191" lon="10.5830677"><ele>394.59999999999997</ele><time>2026-04-19T09:05:43.867Z</time></trkpt><trkpt lat="43.4694086" lon="10.5830023"><ele>396.79999999999995</ele><time>2026-04-19T09:06:19.876Z</time></trkpt><trkpt lat="43.4695164" lon="10.5830035"><ele>399.0</ele><time>2026-04-19T09:07:26.876Z</time></trkpt><trkpt lat="43.4695374" lon="10.5831095"><ele>399.0</ele><time>2026-04-19T09:09:33.859Z</time></trkpt><trkpt lat="43.4695237" lon="10.5832218"><ele>399.0</ele><time>2026-04-19T09:09:36.866Z</time></trkpt><trkpt lat="43.4695039" lon="10.5833222"><ele>399.0</ele><time>2026-04-19T09:09:38.869Z</time></trkpt><trkpt lat="43.4694552" lon="10.5834054"><ele>399.0</ele><time>2026-04-19T09:09:41.866Z</time></trkpt><trkpt lat="43.4694578" lon="10.5836002"><ele>399.0</ele><time>2026-04-19T09:09:45.87Z</time></trkpt><trkpt lat="43.4695078" lon="10.5836836"><ele>387.3333333333333</ele><time>2026-04-19T09:09:47.853Z</time></trkpt><trkpt lat="43.4696989" lon="10.5836598"><ele>375.66666666666663</ele><time>2026-04-19T09:09:51.864Z</time></trkpt><trkpt lat="43.4698775" lon="10.5835053"><ele>364.0</ele><time>2026-04-19T09:09:54.868Z</time></trkpt><trkpt lat="43.4699822" lon="10.5834774"><ele>364.0</ele><time>2026-04-19T09:09:55.866Z</time></trkpt><trkpt lat="43.4700911" lon="10.5833501"><ele>364.0</ele><time>2026-04-19T09:09:57.868Z</time></trkpt><trkpt lat="43.4701573" lon="10.5832765"><ele>364.0</ele><time>2026-04-19T09:09:59.861Z</time></trkpt><trkpt lat="43.4702483" lon="10.5831748"><ele>364.0</ele><time>2026-04-19T09:10:01.865Z</time></trkpt><trkpt lat="43.4702772" lon="10.5830891"><ele>364.0</ele><time>2026-04-19T09:10:02.869Z</time></trkpt><trkpt lat="43.4703051" lon="10.5829977"><ele>364.0</ele><time>2026-04-19T09:10:03.871Z</time></trkpt><trkpt lat="43.4703368" lon="10.5829149"><ele>364.0</ele><time>2026-04-19T09:10:04.862Z</time></trkpt><trkpt lat="43.4703666" lon="10.5828199"><ele>364.0</ele><time>2026-04-19T09:10:05.867Z</time></trkpt><trkpt lat="43.4704016" lon="10.5826974"><ele>364.0</ele><time>2026-04-19T09:10:06.868Z</time></trkpt><trkpt lat="43.4704286" lon="10.5825663"><ele>364.0</ele><time>2026-04-19T09:10:07.877Z</time></trkpt><trkpt lat="43.4704743" lon="10.5824163"><ele>358.6</ele><time>2026-04-19T09:10:08.875Z</time></trkpt><trkpt lat="43.4704964" lon="10.5822894"><ele>353.2</ele><time>2026-04-19T09:10:09.867Z</time></trkpt><trkpt lat="43.4705172" lon="10.5821869"><ele>347.8</ele><time>2026-04-19T09:10:10.881Z</time></trkpt><trkpt lat="43.4705403" lon="10.5820883"><ele>342.40000000000003</ele><time>2026-04-19T09:10:11.877Z</time></trkpt><trkpt lat="43.4705715" lon="10.582007"><ele>337.0</ele><time>2026-04-19T09:10:12.866Z</time></trkpt><trkpt lat="43.4706249" lon="10.5818293"><ele>335.6</ele><time>2026-04-19T09:10:14.873Z</time></trkpt><trkpt lat="43.470679" lon="10.5816524"><ele>334.20000000000005</ele><time>2026-04-19T09:10:16.869Z</time></trkpt><trkpt lat="43.4707153" lon="10.5815163"><ele>332.8</ele><time>2026-04-19T09:10:17.862Z</time></trkpt><trkpt lat="43.4707505" lon="10.5813746"><ele>331.4</ele><time>2026-04-19T09:10:18.863Z</time></trkpt><trkpt lat="43.4707781" lon="10.5812581"><ele>330.0</ele><time>2026-04-19T09:10:19.855Z</time></trkpt><trkpt lat="43.4708195" lon="10.5811297"><ele>328.75</ele><time>2026-04-19T09:10:20.865Z</time></trkpt><trkpt lat="43.4708677" lon="10.5808787"><ele>327.5</ele><time>2026-04-19T09:10:21.862Z</time></trkpt><trkpt lat="43.4708993" lon="10.5807576"><ele>326.25</ele><time>2026-04-19T09:10:22.866Z</time></trkpt><trkpt lat="43.4709232" lon="10.5806641"><ele>325.0</ele><time>2026-04-19T09:10:23.855Z</time></trkpt><trkpt lat="43.4709574" lon="10.5804997"><ele>325.0</ele><time>2026-04-19T09:10:24.875Z</time></trkpt><trkpt lat="43.4709805" lon="10.580406"><ele>325.0</ele><time>2026-04-19T09:10:25.867Z</time></trkpt><trkpt lat="43.4710338" lon="10.5801149"><ele>325.0</ele><time>2026-04-19T09:10:28.868Z</time></trkpt><trkpt lat="43.4710476" lon="10.5798994"><ele>325.0</ele><time>2026-04-19T09:10:29.877Z</time></trkpt><trkpt lat="43.4710085" lon="10.5798251"><ele>324.6</ele><time>2026-04-19T09:13:44.866Z</time></trkpt><trkpt lat="43.4710309" lon="10.5797431"><ele>324.2</ele><time>2026-04-19T09:14:21.873Z</time></trkpt><trkpt lat="43.471106" lon="10.5796493"><ele>323.79999999999995</ele><time>2026-04-19T09:14:23.868Z</time></trkpt><trkpt lat="43.4711768" lon="10.579533"><ele>323.4</ele><time>2026-04-19T09:14:26.883Z</time></trkpt><trkpt lat="43.4712219" lon="10.579398"><ele>323.0</ele><time>2026-04-19T09:14:29.863Z</time></trkpt><trkpt lat="43.4713038" lon="10.5793151"><ele>252.0</ele><time>2026-04-19T09:14:33.866Z</time></trkpt><trkpt lat="43.4719633" lon="10.5743289"><ele>252.0</ele><time>2026-04-19T09:16:01.859Z</time></trkpt><trkpt lat="43.4720143" lon="10.5741038"><ele>252.0</ele><time>2026-04-19T09:16:02.849Z</time></trkpt><trkpt lat="43.4722927" lon="10.5723795"><ele>241.0</ele><time>2026-04-19T09:16:08.858Z</time></trkpt><trkpt lat="43.4723599" lon="10.57193"><ele>230.0</ele><time>2026-04-19T09:16:09.856Z</time></trkpt><trkpt lat="43.4724078" lon="10.5715607"><ele>230.0</ele><time>2026-04-19T09:16:10.849Z</time></trkpt><trkpt lat="43.4724378" lon="10.5712807"><ele>230.0</ele><time>2026-04-19T09:16:11.852Z</time></trkpt><trkpt lat="43.4724622" lon="10.5710604"><ele>230.0</ele><time>2026-04-19T09:16:12.851Z</time></trkpt><trkpt lat="43.4724817" lon="10.5709123"><ele>230.0</ele><time>2026-04-19T09:16:13.853Z</time></trkpt><trkpt lat="43.4724781" lon="10.5704096"><ele>230.0</ele><time>2026-04-19T09:16:14.848Z</time></trkpt><trkpt lat="43.4724796" lon="10.5700886"><ele>229.33333333333334</ele><time>2026-04-19T09:16:15.852Z</time></trkpt><trkpt lat="43.4724897" lon="10.5698402"><ele>228.66666666666669</ele><time>2026-04-19T09:16:16.861Z</time></trkpt><trkpt lat="43.4724956" lon="10.5696605"><ele>228.0</ele><time>2026-04-19T09:16:17.874Z</time></trkpt><trkpt lat="43.4725187" lon="10.569395"><ele>225.25</ele><time>2026-04-19T09:16:18.872Z</time></trkpt><trkpt lat="43.4725372" lon="10.5691272"><ele>222.5</ele><time>2026-04-19T09:16:19.868Z</time></trkpt><trkpt lat="43.4725596" lon="10.5689552"><ele>219.75</ele><time>2026-04-19T09:16:20.874Z</time></trkpt><trkpt lat="43.4725897" lon="10.5688201"><ele>217.0</ele><time>2026-04-19T09:16:21.861Z</time></trkpt><trkpt lat="43.4726213" lon="10.5687127"><ele>216.49999999999997</ele><time>2026-04-19T09:16:22.877Z</time></trkpt><trkpt lat="43.4726639" lon="10.5686396"><ele>216.0</ele><time>2026-04-19T09:16:23.877Z</time></trkpt><trkpt lat="43.4727484" lon="10.5685017"><ele>215.5</ele><time>2026-04-19T09:16:25.872Z</time></trkpt><trkpt lat="43.4727783" lon="10.5683915"><ele>215.0</ele><time>2026-04-19T09:16:26.878Z</time></trkpt><trkpt lat="43.4727744" lon="10.5682841"><ele>214.49999999999997</ele><time>2026-04-19T09:16:27.876Z</time></trkpt><trkpt lat="43.4727636" lon="10.5681809"><ele>214.0</ele><time>2026-04-19T09:16:28.883Z</time></trkpt><trkpt lat="43.472733" lon="10.568077"><ele>214.0</ele><time>2026-04-19T09:16:29.883Z</time></trkpt><trkpt lat="43.4727146" lon="10.56798"><ele>213.99999999999997</ele><time>2026-04-19T09:16:30.886Z</time></trkpt><trkpt lat="43.4726912" lon="10.5678062"><ele>213.99999999999997</ele><time>2026-04-19T09:16:32.882Z</time></trkpt><trkpt lat="43.472678" lon="10.5676517"><ele>214.0</ele><time>2026-04-19T09:16:34.871Z</time></trkpt><trkpt lat="43.4726955" lon="10.5675647"><ele>214.0</ele><time>2026-04-19T09:16:36.876Z</time></trkpt><trkpt lat="43.4727617" lon="10.5675209"><ele>214.39999999999998</ele><time>2026-04-19T09:16:38.882Z</time></trkpt><trkpt lat="43.4727952" lon="10.5674316"><ele>214.79999999999998</ele><time>2026-04-19T09:16:40.885Z</time></trkpt><trkpt lat="43.4728241" lon="10.5673229"><ele>215.20000000000002</ele><time>2026-04-19T09:16:42.88Z</time></trkpt><trkpt lat="43.4728304" lon="10.5672137"><ele>215.60000000000002</ele><time>2026-04-19T09:16:43.878Z</time></trkpt><trkpt lat="43.4728223" lon="10.5670426"><ele>216.0</ele><time>2026-04-19T09:16:45.877Z</time></trkpt><trkpt lat="43.4728854" lon="10.5669129"><ele>216.4</ele><time>2026-04-19T09:16:47.879Z</time></trkpt><trkpt lat="43.4729466" lon="10.5668044"><ele>216.8</ele><time>2026-04-19T09:16:49.877Z</time></trkpt><trkpt lat="43.4730211" lon="10.5667581"><ele>217.20000000000002</ele><time>2026-04-19T09:16:51.869Z</time></trkpt><trkpt lat="43.4731338" lon="10.5667768"><ele>217.60000000000002</ele><time>2026-04-19T09:16:53.878Z</time></trkpt><trkpt lat="43.4732007" lon="10.5667873"><ele>218.0</ele><time>2026-04-19T09:16:54.87Z</time></trkpt><trkpt lat="43.4733088" lon="10.5668317"><ele>218.00000000000003</ele><time>2026-04-19T09:16:56.874Z</time></trkpt><trkpt lat="43.4733756" lon="10.5669433"><ele>218.0</ele><time>2026-04-19T09:16:58.875Z</time></trkpt><trkpt lat="43.4734051" lon="10.5670389"><ele>218.0</ele><time>2026-04-19T09:16:59.877Z</time></trkpt><trkpt lat="43.473433" lon="10.5671387"><ele>218.0</ele><time>2026-04-19T09:17:00.887Z</time></trkpt><trkpt lat="43.4734611" lon="10.5672558"><ele>218.00000000000003</ele><time>2026-04-19T09:17:01.886Z</time></trkpt><trkpt lat="43.4734857" lon="10.5673743"><ele>218.0</ele><time>2026-04-19T09:17:02.88Z</time></trkpt><trkpt lat="43.4735122" lon="10.5674975"><ele>219.60000000000002</ele><time>2026-04-19T09:17:03.88Z</time></trkpt><trkpt lat="43.4735212" lon="10.5676197"><ele>221.20000000000002</ele><time>2026-04-19T09:17:04.884Z</time></trkpt><trkpt lat="43.4735175" lon="10.5677452"><ele>222.8</ele><time>2026-04-19T09:17:05.882Z</time></trkpt><trkpt lat="43.4735006" lon="10.5678702"><ele>224.4</ele><time>2026-04-19T09:17:06.878Z</time></trkpt><trkpt lat="43.4734876" lon="10.5680097"><ele>226.0</ele><time>2026-04-19T09:17:07.865Z</time></trkpt><trkpt lat="43.4735219" lon="10.5681253"><ele>226.0</ele><time>2026-04-19T09:17:08.869Z</time></trkpt><trkpt lat="43.4735735" lon="10.5682385"><ele>226.00000000000003</ele><time>2026-04-19T09:17:09.882Z</time></trkpt><trkpt lat="43.4736317" lon="10.5683515"><ele>226.00000000000003</ele><time>2026-04-19T09:17:10.894Z</time></trkpt><trkpt lat="43.4736912" lon="10.5684696"><ele>226.0</ele><time>2026-04-19T09:17:11.872Z</time></trkpt><trkpt lat="43.473752" lon="10.5685991"><ele>226.0</ele><time>2026-04-19T09:17:12.873Z</time></trkpt><trkpt lat="43.4737925" lon="10.5687374"><ele>226.83333333333331</ele><time>2026-04-19T09:17:13.884Z</time></trkpt><trkpt lat="43.4738169" lon="10.5688576"><ele>227.66666666666666</ele><time>2026-04-19T09:17:14.87Z</time></trkpt><trkpt lat="43.4738362" lon="10.5689536"><ele>228.5</ele><time>2026-04-19T09:17:15.882Z</time></trkpt><trkpt lat="43.4739051" lon="10.5690903"><ele>229.33333333333331</ele><time>2026-04-19T09:17:17.874Z</time></trkpt><trkpt lat="43.473964" lon="10.569139"><ele>230.16666666666666</ele><time>2026-04-19T09:17:18.878Z</time></trkpt><trkpt lat="43.474036" lon="10.5691748"><ele>231.0</ele><time>2026-04-19T09:17:19.878Z</time></trkpt><trkpt lat="43.4741064" lon="10.5692059"><ele>231.0</ele><time>2026-04-19T09:17:20.877Z</time></trkpt><trkpt lat="43.4741781" lon="10.5692308"><ele>231.0</ele><time>2026-04-19T09:17:21.885Z</time></trkpt><trkpt lat="43.4742485" lon="10.5692566"><ele>231.0</ele><time>2026-04-19T09:17:22.879Z</time></trkpt><trkpt lat="43.4743164" lon="10.5692882"><ele>231.0</ele><time>2026-04-19T09:17:23.87Z</time></trkpt><trkpt lat="43.4743819" lon="10.5693127"><ele>231.0</ele><time>2026-04-19T09:17:24.879Z</time></trkpt><trkpt lat="43.4744738" lon="10.5693299"><ele>231.0</ele><time>2026-04-19T09:17:26.879Z</time></trkpt><trkpt lat="43.4745743" lon="10.5693349"><ele>229.66666666666666</ele><time>2026-04-19T09:17:28.879Z</time></trkpt><trkpt lat="43.4746432" lon="10.5693541"><ele>228.33333333333331</ele><time>2026-04-19T09:17:29.879Z</time></trkpt><trkpt lat="43.4747224" lon="10.5693772"><ele>227.0</ele><time>2026-04-19T09:17:30.871Z</time></trkpt><trkpt lat="43.4748076" lon="10.569402"><ele>225.66666666666666</ele><time>2026-04-19T09:17:31.877Z</time></trkpt><trkpt lat="43.4748949" lon="10.5694294"><ele>224.33333333333331</ele><time>2026-04-19T09:17:32.883Z</time></trkpt><trkpt lat="43.4749783" lon="10.5694689"><ele>223.0</ele><time>2026-04-19T09:17:33.875Z</time></trkpt><trkpt lat="43.4750615" lon="10.5695089"><ele>227.8</ele><time>2026-04-19T09:17:34.874Z</time></trkpt><trkpt lat="43.4751492" lon="10.5695604"><ele>232.60000000000002</ele><time>2026-04-19T09:17:35.882Z</time></trkpt><trkpt lat="43.4752505" lon="10.5695914"><ele>237.39999999999998</ele><time>2026-04-19T09:17:36.878Z</time></trkpt><trkpt lat="43.4753537" lon="10.5696041"><ele>242.2</ele><time>2026-04-19T09:17:37.872Z</time></trkpt><trkpt lat="43.4754617" lon="10.5696046"><ele>247.0</ele><time>2026-04-19T09:17:38.868Z</time></trkpt><trkpt lat="43.4755564" lon="10.5696254"><ele>247.0</ele><time>2026-04-19T09:17:39.882Z</time></trkpt><trkpt lat="43.4756419" lon="10.5696766"><ele>247.0</ele><time>2026-04-19T09:17:40.872Z</time></trkpt><trkpt lat="43.4757261" lon="10.5697316"><ele>247.0</ele><time>2026-04-19T09:17:41.87Z</time></trkpt><trkpt lat="43.4758076" lon="10.569783"><ele>247.0</ele><time>2026-04-19T09:17:42.867Z</time></trkpt><trkpt lat="43.475887" lon="10.5698387"><ele>247.0</ele><time>2026-04-19T09:17:43.869Z</time></trkpt><trkpt lat="43.475962" lon="10.5698948"><ele>246.99999999999997</ele><time>2026-04-19T09:17:44.873Z</time></trkpt><trkpt lat="43.4760318" lon="10.5699573"><ele>247.0</ele><time>2026-04-19T09:17:45.874Z</time></trkpt><trkpt lat="43.4760824" lon="10.5700215"><ele>247.0</ele><time>2026-04-19T09:17:46.869Z</time></trkpt><trkpt lat="43.476185" lon="10.570102"><ele>247.0</ele><time>2026-04-19T09:17:48.867Z</time></trkpt><trkpt lat="43.4762356" lon="10.570156"><ele>246.99999999999997</ele><time>2026-04-19T09:17:49.869Z</time></trkpt><trkpt lat="43.4762822" lon="10.5702165"><ele>247.0</ele><time>2026-04-19T09:17:50.864Z</time></trkpt><trkpt lat="43.4763707" lon="10.5703226"><ele>246.83333333333331</ele><time>2026-04-19T09:17:52.862Z</time></trkpt><trkpt lat="43.4764768" lon="10.5703689"><ele>246.66666666666666</ele><time>2026-04-19T09:17:54.873Z</time></trkpt><trkpt lat="43.4765403" lon="10.5703299"><ele>246.5</ele><time>2026-04-19T09:17:55.877Z</time></trkpt><trkpt lat="43.4766114" lon="10.5702687"><ele>246.33333333333331</ele><time>2026-04-19T09:17:56.873Z</time></trkpt><trkpt lat="43.4766645" lon="10.5701745"><ele>246.16666666666666</ele><time>2026-04-19T09:17:57.871Z</time></trkpt><trkpt lat="43.4766872" lon="10.5700785"><ele>246.0</ele><time>2026-04-19T09:17:58.862Z</time></trkpt><trkpt lat="43.4767063" lon="10.56998"><ele>246.0</ele><time>2026-04-19T09:17:59.867Z</time></trkpt><trkpt lat="43.4766752" lon="10.5698807"><ele>246.00000000000003</ele><time>2026-04-19T09:18:00.867Z</time></trkpt><trkpt lat="43.4766256" lon="10.5697691"><ele>246.00000000000003</ele><time>2026-04-19T09:18:01.876Z</time></trkpt><trkpt lat="43.4765713" lon="10.5696555"><ele>246.0</ele><time>2026-04-19T09:18:02.876Z</time></trkpt><trkpt lat="43.4765201" lon="10.5695268"><ele>246.0</ele><time>2026-04-19T09:18:03.866Z</time></trkpt><trkpt lat="43.4764849" lon="10.5694018"><ele>246.0</ele><time>2026-04-19T09:18:04.87Z</time></trkpt><trkpt lat="43.4764733" lon="10.5692738"><ele>246.00000000000003</ele><time>2026-04-19T09:18:05.877Z</time></trkpt><trkpt lat="43.476485" lon="10.5691461"><ele>246.00000000000003</ele><time>2026-04-19T09:18:06.874Z</time></trkpt><trkpt lat="43.4765168" lon="10.5690217"><ele>246.0</ele><time>2026-04-19T09:18:07.876Z</time></trkpt><trkpt lat="43.4765631" lon="10.5689048"><ele>246.0</ele><time>2026-04-19T09:18:08.873Z</time></trkpt><trkpt lat="43.476622" lon="10.5688139"><ele>246.0</ele><time>2026-04-19T09:18:09.875Z</time></trkpt><trkpt lat="43.4766897" lon="10.5687491"><ele>246.0</ele><time>2026-04-19T09:18:10.88Z</time></trkpt><trkpt lat="43.4767666" lon="10.5687047"><ele>246.0</ele><time>2026-04-19T09:18:11.873Z</time></trkpt><trkpt lat="43.476852" lon="10.5686847"><ele>246.0</ele><time>2026-04-19T09:18:12.875Z</time></trkpt><trkpt lat="43.476938" lon="10.5686927"><ele>246.0</ele><time>2026-04-19T09:18:13.874Z</time></trkpt><trkpt lat="43.4770246" lon="10.5687202"><ele>246.0</ele><time>2026-04-19T09:18:14.867Z</time></trkpt><trkpt lat="43.4771139" lon="10.5687693"><ele>248.60000000000002</ele><time>2026-04-19T09:18:15.865Z</time></trkpt><trkpt lat="43.4772047" lon="10.5688184"><ele>251.20000000000002</ele><time>2026-04-19T09:18:16.866Z</time></trkpt><trkpt lat="43.4772929" lon="10.5688728"><ele>253.79999999999998</ele><time>2026-04-19T09:18:17.869Z</time></trkpt><trkpt lat="43.477376" lon="10.568923"><ele>256.4</ele><time>2026-04-19T09:18:18.87Z</time></trkpt><trkpt lat="43.4774638" lon="10.5689681"><ele>259.0</ele><time>2026-04-19T09:18:19.871Z</time></trkpt><trkpt lat="43.4775499" lon="10.5689896"><ele>259.0</ele><time>2026-04-19T09:18:20.871Z</time></trkpt><trkpt lat="43.4776393" lon="10.5689752"><ele>259.0</ele><time>2026-04-19T09:18:21.867Z</time></trkpt><trkpt lat="43.4777346" lon="10.5689665"><ele>259.0</ele><time>2026-04-19T09:18:22.869Z</time></trkpt><trkpt lat="43.4778221" lon="10.5689618"><ele>259.0</ele><time>2026-04-19T09:18:23.885Z</time></trkpt><trkpt lat="43.4779009" lon="10.5689589"><ele>259.0</ele><time>2026-04-19T09:18:24.868Z</time></trkpt><trkpt lat="43.477971" lon="10.568964"><ele>259.0</ele><time>2026-04-19T09:18:25.87Z</time></trkpt><trkpt lat="43.4780475" lon="10.5689704"><ele>260.0</ele><time>2026-04-19T09:18:26.875Z</time></trkpt><trkpt lat="43.4781215" lon="10.5689821"><ele>261.0</ele><time>2026-04-19T09:18:27.875Z</time></trkpt><trkpt lat="43.4781993" lon="10.5689989"><ele>262.0</ele><time>2026-04-19T09:18:28.869Z</time></trkpt><trkpt lat="43.4782656" lon="10.569015"><ele>263.0</ele><time>2026-04-19T09:18:29.874Z</time></trkpt><trkpt lat="43.4783667" lon="10.5690311"><ele>264.0</ele><time>2026-04-19T09:18:31.866Z</time></trkpt><trkpt lat="43.4784762" lon="10.5690373"><ele>265.0</ele><time>2026-04-19T09:18:33.874Z</time></trkpt><trkpt lat="43.4785693" lon="10.5690297"><ele>265.0</ele><time>2026-04-19T09:18:35.87Z</time></trkpt><trkpt lat="43.4786712" lon="10.5690185"><ele>265.0</ele><time>2026-04-19T09:18:37.872Z</time></trkpt><trkpt lat="43.4787916" lon="10.5690132"><ele>265.0</ele><time>2026-04-19T09:18:39.867Z</time></trkpt><trkpt lat="43.4788573" lon="10.5690095"><ele>265.0</ele><time>2026-04-19T09:18:40.883Z</time></trkpt><trkpt lat="43.4789293" lon="10.5690051"><ele>265.0</ele><time>2026-04-19T09:18:41.879Z</time></trkpt><trkpt lat="43.4789978" lon="10.5690106"><ele>265.0</ele><time>2026-04-19T09:18:42.875Z</time></trkpt><trkpt lat="43.4790639" lon="10.5690154"><ele>265.0</ele><time>2026-04-19T09:18:43.872Z</time></trkpt><trkpt lat="43.479135" lon="10.5690291"><ele>265.0</ele><time>2026-04-19T09:18:44.864Z</time></trkpt><trkpt lat="43.4792123" lon="10.5690571"><ele>265.0</ele><time>2026-04-19T09:18:45.877Z</time></trkpt><trkpt lat="43.4792839" lon="10.5690862"><ele>265.0</ele><time>2026-04-19T09:18:46.865Z</time></trkpt><trkpt lat="43.4793498" lon="10.5691317"><ele>265.0</ele><time>2026-04-19T09:18:47.875Z</time></trkpt><trkpt lat="43.4794184" lon="10.5691884"><ele>265.0</ele><time>2026-04-19T09:18:48.866Z</time></trkpt><trkpt lat="43.4795012" lon="10.5692589"><ele>265.0</ele><time>2026-04-19T09:18:49.872Z</time></trkpt><trkpt lat="43.4795956" lon="10.5693368"><ele>265.0</ele><time>2026-04-19T09:18:50.864Z</time></trkpt><trkpt lat="43.4796862" lon="10.5694198"><ele>265.0</ele><time>2026-04-19T09:18:51.872Z</time></trkpt><trkpt lat="43.4797764" lon="10.5694959"><ele>265.0</ele><time>2026-04-19T09:18:52.868Z</time></trkpt><trkpt lat="43.4798671" lon="10.5695712"><ele>265.0</ele><time>2026-04-19T09:18:53.874Z</time></trkpt><trkpt lat="43.4799616" lon="10.5696438"><ele>266.8</ele><time>2026-04-19T09:18:54.883Z</time></trkpt><trkpt lat="43.4800559" lon="10.569714"><ele>268.6</ele><time>2026-04-19T09:18:55.869Z</time></trkpt><trkpt lat="43.480145" lon="10.5697715"><ele>270.4</ele><time>2026-04-19T09:18:56.871Z</time></trkpt><trkpt lat="43.4802142" lon="10.5698227"><ele>272.2</ele><time>2026-04-19T09:18:57.881Z</time></trkpt><trkpt lat="43.4803216" lon="10.5699115"><ele>274.0</ele><time>2026-04-19T09:18:59.865Z</time></trkpt><trkpt lat="43.4804249" lon="10.569997"><ele>274.4</ele><time>2026-04-19T09:19:01.865Z</time></trkpt><trkpt lat="43.480493" lon="10.5700504"><ele>274.79999999999995</ele><time>2026-04-19T09:19:02.867Z</time></trkpt><trkpt lat="43.4805614" lon="10.5701378"><ele>275.20000000000005</ele><time>2026-04-19T09:19:03.863Z</time></trkpt><trkpt lat="43.4806213" lon="10.5702488"><ele>275.6</ele><time>2026-04-19T09:19:04.867Z</time></trkpt><trkpt lat="43.4806806" lon="10.5703624"><ele>276.0</ele><time>2026-04-19T09:19:05.869Z</time></trkpt><trkpt lat="43.4807156" lon="10.5704806"><ele>276.0</ele><time>2026-04-19T09:19:06.874Z</time></trkpt><trkpt lat="43.4807218" lon="10.5706319"><ele>276.0</ele><time>2026-04-19T09:19:07.873Z</time></trkpt><trkpt lat="43.4807521" lon="10.5707132"><ele>276.0</ele><time>2026-04-19T09:19:08.873Z</time></trkpt><trkpt lat="43.480816" lon="10.5707202"><ele>276.0</ele><time>2026-04-19T09:19:11.872Z</time></trkpt><trkpt lat="43.4809617" lon="10.570663"><ele>276.0</ele><time>2026-04-19T09:19:14.876Z</time></trkpt><trkpt lat="43.4810531" lon="10.570634"><ele>276.0</ele><time>2026-04-19T09:19:15.863Z</time></trkpt><trkpt lat="43.4811512" lon="10.5706356"><ele>276.0</ele><time>2026-04-19T09:19:16.87Z</time></trkpt><trkpt lat="43.4812736" lon="10.5706561"><ele>276.0</ele><time>2026-04-19T09:19:17.869Z</time></trkpt><trkpt lat="43.4813835" lon="10.570646"><ele>276.0</ele><time>2026-04-19T09:19:18.882Z</time></trkpt><trkpt lat="43.481492" lon="10.5706328"><ele>276.0</ele><time>2026-04-19T09:19:19.873Z</time></trkpt><trkpt lat="43.4815833" lon="10.5706504"><ele>275.40000000000003</ele><time>2026-04-19T09:19:20.873Z</time></trkpt><trkpt lat="43.4816589" lon="10.5706781"><ele>274.8</ele><time>2026-04-19T09:19:21.877Z</time></trkpt><trkpt lat="43.4817402" lon="10.5706698"><ele>274.20000000000005</ele><time>2026-04-19T09:19:22.878Z</time></trkpt><trkpt lat="43.4818098" lon="10.5706238"><ele>273.6</ele><time>2026-04-19T09:19:23.875Z</time></trkpt><trkpt lat="43.4819141" lon="10.5705433"><ele>273.0</ele><time>2026-04-19T09:19:25.875Z</time></trkpt><trkpt lat="43.4820071" lon="10.5704456"><ele>273.0</ele><time>2026-04-19T09:19:27.867Z</time></trkpt><trkpt lat="43.4820589" lon="10.5703922"><ele>273.0</ele><time>2026-04-19T09:19:28.879Z</time></trkpt><trkpt lat="43.482132" lon="10.5702616"><ele>273.0</ele><time>2026-04-19T09:19:30.878Z</time></trkpt><trkpt lat="43.482176" lon="10.5701224"><ele>273.0</ele><time>2026-04-19T09:19:32.882Z</time></trkpt><trkpt lat="43.4821999" lon="10.5700247"><ele>273.0</ele><time>2026-04-19T09:19:34.884Z</time></trkpt><trkpt lat="43.4822378" lon="10.5699446"><ele>273.0</ele><time>2026-04-19T09:19:36.883Z</time></trkpt><trkpt lat="43.4822789" lon="10.5698421"><ele>272.0</ele><time>2026-04-19T09:19:38.874Z</time></trkpt><trkpt lat="43.4823349" lon="10.5696884"><ele>271.0</ele><time>2026-04-19T09:19:40.872Z</time></trkpt><trkpt lat="43.4823679" lon="10.5695757"><ele>270.0</ele><time>2026-04-19T09:19:41.876Z</time></trkpt><trkpt lat="43.4824118" lon="10.5694427"><ele>269.0</ele><time>2026-04-19T09:19:42.879Z</time></trkpt><trkpt lat="43.4824601" lon="10.5692995"><ele>268.0</ele><time>2026-04-19T09:19:43.878Z</time></trkpt><trkpt lat="43.4825135" lon="10.5691616"><ele>267.75</ele><time>2026-04-19T09:19:44.868Z</time></trkpt><trkpt lat="43.4825577" lon="10.569016"><ele>267.5</ele><time>2026-04-19T09:19:45.883Z</time></trkpt><trkpt lat="43.4825917" lon="10.5688606"><ele>267.25</ele><time>2026-04-19T09:19:46.874Z</time></trkpt><trkpt lat="43.4826195" lon="10.5686998"><ele>267.0</ele><time>2026-04-19T09:19:47.868Z</time></trkpt><trkpt lat="43.4826488" lon="10.5685461"><ele>266.4</ele><time>2026-04-19T09:19:48.866Z</time></trkpt><trkpt lat="43.4826742" lon="10.5683927"><ele>265.79999999999995</ele><time>2026-04-19T09:19:49.861Z</time></trkpt><trkpt lat="43.4826978" lon="10.5682501"><ele>265.2</ele><time>2026-04-19T09:19:50.87Z</time></trkpt><trkpt lat="43.4827188" lon="10.5681028"><ele>264.59999999999997</ele><time>2026-04-19T09:19:51.867Z</time></trkpt><trkpt lat="43.482737" lon="10.5679653"><ele>264.0</ele><time>2026-04-19T09:19:52.87Z</time></trkpt><trkpt lat="43.4827572" lon="10.5678389"><ele>262.2</ele><time>2026-04-19T09:19:53.866Z</time></trkpt><trkpt lat="43.4827836" lon="10.5677222"><ele>260.4</ele><time>2026-04-19T09:19:54.877Z</time></trkpt><trkpt lat="43.4828171" lon="10.5676054"><ele>258.6</ele><time>2026-04-19T09:19:55.877Z</time></trkpt><trkpt lat="43.4828676" lon="10.5674936"><ele>256.8</ele><time>2026-04-19T09:19:56.884Z</time></trkpt><trkpt lat="43.4829354" lon="10.5674041"><ele>255.0</ele><time>2026-04-19T09:19:57.879Z</time></trkpt><trkpt lat="43.4830193" lon="10.5673279"><ele>254.0</ele><time>2026-04-19T09:19:58.862Z</time></trkpt><trkpt lat="43.4831149" lon="10.5672502"><ele>253.0</ele><time>2026-04-19T09:19:59.884Z</time></trkpt><trkpt lat="43.4832103" lon="10.5671739"><ele>252.0</ele><time>2026-04-19T09:20:00.857Z</time></trkpt><trkpt lat="43.4833015" lon="10.5671021"><ele>251.0</ele><time>2026-04-19T09:20:01.863Z</time></trkpt><trkpt lat="43.4833889" lon="10.5670317"><ele>250.0</ele><time>2026-04-19T09:20:02.868Z</time></trkpt><trkpt lat="43.4834676" lon="10.5669681"><ele>247.66666666666666</ele><time>2026-04-19T09:20:03.865Z</time></trkpt><trkpt lat="43.4835294" lon="10.5669177"><ele>245.33333333333331</ele><time>2026-04-19T09:20:04.875Z</time></trkpt><trkpt lat="43.4836318" lon="10.5668496"><ele>243.0</ele><time>2026-04-19T09:20:06.857Z</time></trkpt><trkpt lat="43.4837004" lon="10.5668731"><ele>240.66666666666669</ele><time>2026-04-19T09:20:08.867Z</time></trkpt><trkpt lat="43.4837484" lon="10.5669645"><ele>238.33333333333334</ele><time>2026-04-19T09:20:11.874Z</time></trkpt><trkpt lat="43.4837773" lon="10.5670442"><ele>236.0</ele><time>2026-04-19T09:20:14.876Z</time></trkpt><trkpt lat="43.4838137" lon="10.5671602"><ele>236.00000000000003</ele><time>2026-04-19T09:20:16.866Z</time></trkpt><trkpt lat="43.4838304" lon="10.5672486"><ele>236.0</ele><time>2026-04-19T09:20:17.872Z</time></trkpt><trkpt lat="43.4838482" lon="10.567354"><ele>236.0</ele><time>2026-04-19T09:20:18.869Z</time></trkpt><trkpt lat="43.4838572" lon="10.5674642"><ele>236.0</ele><time>2026-04-19T09:20:19.873Z</time></trkpt><trkpt lat="43.4838607" lon="10.5675599"><ele>236.00000000000003</ele><time>2026-04-19T09:20:20.859Z</time></trkpt><trkpt lat="43.4838557" lon="10.5677086"><ele>236.0</ele><time>2026-04-19T09:20:22.876Z</time></trkpt><trkpt lat="43.4838353" lon="10.5678481"><ele>236.00000000000003</ele><time>2026-04-19T09:20:24.876Z</time></trkpt><trkpt lat="43.4838385" lon="10.5679528"><ele>236.0</ele><time>2026-04-19T09:20:28.863Z</time></trkpt><trkpt lat="43.483833" lon="10.5681137"><ele>236.0</ele><time>2026-04-19T09:20:30.865Z</time></trkpt><trkpt lat="43.4838097" lon="10.568024"><ele>236.0</ele><time>2026-04-19T09:20:58.876Z</time></trkpt><trkpt lat="43.4838228" lon="10.5679266"><ele>236.00000000000003</ele><time>2026-04-19T09:21:14.865Z</time></trkpt><trkpt lat="43.4839076" lon="10.5678667"><ele>236.0</ele><time>2026-04-19T09:21:30.866Z</time></trkpt><trkpt lat="43.4839868" lon="10.5678218"><ele>236.0</ele><time>2026-04-19T09:21:31.88Z</time></trkpt><trkpt lat="43.4840775" lon="10.5677909"><ele>236.00000000000003</ele><time>2026-04-19T09:21:36.878Z</time></trkpt><trkpt lat="43.4841867" lon="10.5677618"><ele>236.00000000000003</ele><time>2026-04-19T09:22:00.87Z</time></trkpt><trkpt lat="43.484244" lon="10.5677033"><ele>236.0</ele><time>2026-04-19T09:22:25.883Z</time></trkpt><trkpt lat="43.4843499" lon="10.5676248"><ele>236.0</ele><time>2026-04-19T09:22:42.884Z</time></trkpt><trkpt lat="43.4844531" lon="10.5675605"><ele>236.00000000000003</ele><time>2026-04-19T09:23:25.859Z</time></trkpt><trkpt lat="43.4845167" lon="10.5675834"><ele>236.0</ele><time>2026-04-19T09:23:54.871Z</time></trkpt><trkpt lat="43.4845895" lon="10.5675246"><ele>236.0</ele><time>2026-04-19T09:23:57.862Z</time></trkpt><trkpt lat="43.4846382" lon="10.5674657"><ele>236.0</ele><time>2026-04-19T09:24:00.867Z</time></trkpt><trkpt lat="43.4847011" lon="10.5674163"><ele>236.00000000000003</ele><time>2026-04-19T09:24:02.882Z</time></trkpt><trkpt lat="43.4847627" lon="10.5673981"><ele>236.0</ele><time>2026-04-19T09:24:04.867Z</time></trkpt><trkpt lat="43.4849887" lon="10.5673748"><ele>236.8</ele><time>2026-04-19T09:24:11.876Z</time></trkpt><trkpt lat="43.4850615" lon="10.5673126"><ele>237.60000000000002</ele><time>2026-04-19T09:24:14.863Z</time></trkpt><trkpt lat="43.4851556" lon="10.5672975"><ele>238.4</ele><time>2026-04-19T09:24:17.867Z</time></trkpt><trkpt lat="43.4852364" lon="10.5673058"><ele>239.2</ele><time>2026-04-19T09:24:20.869Z</time></trkpt><trkpt lat="43.4853206" lon="10.5673994"><ele>240.0</ele><time>2026-04-19T09:24:22.865Z</time></trkpt><trkpt lat="43.4855316" lon="10.5674607"><ele>242.0</ele><time>2026-04-19T09:24:27.865Z</time></trkpt><trkpt lat="43.4857662" lon="10.5674629"><ele>244.0</ele><time>2026-04-19T09:24:34.874Z</time></trkpt><trkpt lat="43.4858805" lon="10.5674798"><ele>246.0</ele><time>2026-04-19T09:24:42.859Z</time></trkpt><trkpt lat="43.4860338" lon="10.5672808"><ele>239.0</ele><time>2026-04-19T09:25:32.865Z</time></trkpt><trkpt lat="43.4862368" lon="10.5669638"><ele>232.0</ele><time>2026-04-19T09:25:42.863Z</time></trkpt><trkpt lat="43.4863028" lon="10.5669238"><ele>225.0</ele><time>2026-04-19T09:25:43.872Z</time></trkpt><trkpt lat="43.4865481" lon="10.5666082"><ele>219.0</ele><time>2026-04-19T09:26:05.871Z</time></trkpt><trkpt lat="43.4867346" lon="10.5662407"><ele>213.0</ele><time>2026-04-19T09:26:34.862Z</time></trkpt><trkpt lat="43.4868245" lon="10.5662237"><ele>207.0</ele><time>2026-04-19T09:26:39.871Z</time></trkpt><trkpt lat="43.487026" lon="10.565926"><ele>205.5</ele><time>2026-04-19T09:27:38.876Z</time></trkpt><trkpt lat="43.4870501" lon="10.5658332"><ele>204.0</ele><time>2026-04-19T09:27:44.876Z</time></trkpt><trkpt lat="43.4870699" lon="10.565674"><ele>202.5</ele><time>2026-04-19T09:27:45.879Z</time></trkpt><trkpt lat="43.4870705" lon="10.5655565"><ele>201.0</ele><time>2026-04-19T09:28:00.861Z</time></trkpt><trkpt lat="43.4870867" lon="10.5654422"><ele>199.5</ele><time>2026-04-19T09:28:02.876Z</time></trkpt><trkpt lat="43.4870743" lon="10.5653323"><ele>198.0</ele><time>2026-04-19T09:28:04.871Z</time></trkpt><trkpt lat="43.4870594" lon="10.5652453"><ele>197.83333333333334</ele><time>2026-04-19T09:28:06.874Z</time></trkpt><trkpt lat="43.4870684" lon="10.5651563"><ele>197.66666666666669</ele><time>2026-04-19T09:28:08.875Z</time></trkpt><trkpt lat="43.4871144" lon="10.5650426"><ele>197.5</ele><time>2026-04-19T09:28:10.882Z</time></trkpt><trkpt lat="43.4871592" lon="10.5648993"><ele>197.33333333333334</ele><time>2026-04-19T09:28:12.875Z</time></trkpt><trkpt lat="43.4871525" lon="10.5647905"><ele>197.16666666666669</ele><time>2026-04-19T09:28:14.866Z</time></trkpt><trkpt lat="43.4871383" lon="10.5646978"><ele>197.0</ele><time>2026-04-19T09:28:17.875Z</time></trkpt><trkpt lat="43.487096" lon="10.5645896"><ele>195.83333333333334</ele><time>2026-04-19T09:28:19.855Z</time></trkpt><trkpt lat="43.4870428" lon="10.5644348"><ele>194.66666666666669</ele><time>2026-04-19T09:28:21.884Z</time></trkpt><trkpt lat="43.4870188" lon="10.5643509"><ele>193.5</ele><time>2026-04-19T09:28:22.858Z</time></trkpt><trkpt lat="43.4869855" lon="10.5642405"><ele>192.33333333333334</ele><time>2026-04-19T09:28:24.862Z</time></trkpt><trkpt lat="43.486966" lon="10.56415"><ele>191.16666666666669</ele><time>2026-04-19T09:28:26.865Z</time></trkpt><trkpt lat="43.4869381" lon="10.564055"><ele>190.0</ele><time>2026-04-19T09:28:28.877Z</time></trkpt><trkpt lat="43.4869151" lon="10.5639272"><ele>190.0</ele><time>2026-04-19T09:28:32.886Z</time></trkpt><trkpt lat="43.4869074" lon="10.5638283"><ele>190.0</ele><time>2026-04-19T09:28:35.872Z</time></trkpt><trkpt lat="43.4868913" lon="10.5637089"><ele>190.0</ele><time>2026-04-19T09:28:38.883Z</time></trkpt><trkpt lat="43.4868615" lon="10.5635698"><ele>190.0</ele><time>2026-04-19T09:28:52.881Z</time></trkpt><trkpt lat="43.4868478" lon="10.5634698"><ele>190.0</ele><time>2026-04-19T09:28:57.883Z</time></trkpt><trkpt lat="43.4869334" lon="10.5634451"><ele>190.0</ele><time>2026-04-19T09:29:03.869Z</time></trkpt><trkpt lat="43.487047" lon="10.5634172"><ele>186.6</ele><time>2026-04-19T09:29:05.868Z</time></trkpt><trkpt lat="43.4871402" lon="10.5633848"><ele>183.2</ele><time>2026-04-19T09:29:07.867Z</time></trkpt><trkpt lat="43.4872343" lon="10.5633463"><ele>179.8</ele><time>2026-04-19T09:29:09.878Z</time></trkpt><trkpt lat="43.4873015" lon="10.5633042"><ele>176.4</ele><time>2026-04-19T09:29:11.879Z</time></trkpt><trkpt lat="43.4873809" lon="10.5632502"><ele>173.0</ele><time>2026-04-19T09:30:27.872Z</time></trkpt><trkpt lat="43.4874523" lon="10.5631322"><ele>173.0</ele><time>2026-04-19T09:30:29.868Z</time></trkpt><trkpt lat="43.4874951" lon="10.5630437"><ele>173.0</ele><time>2026-04-19T09:30:30.878Z</time></trkpt><trkpt lat="43.4875396" lon="10.5629441"><ele>173.0</ele><time>2026-04-19T09:30:31.863Z</time></trkpt><trkpt lat="43.4875932" lon="10.5628358"><ele>173.0</ele><time>2026-04-19T09:30:32.868Z</time></trkpt><trkpt lat="43.4876522" lon="10.5627218"><ele>173.0</ele><time>2026-04-19T09:30:33.873Z</time></trkpt><trkpt lat="43.4877154" lon="10.5626104"><ele>173.60000000000002</ele><time>2026-04-19T09:30:34.864Z</time></trkpt><trkpt lat="43.4877834" lon="10.5625042"><ele>174.20000000000002</ele><time>2026-04-19T09:30:35.874Z</time></trkpt><trkpt lat="43.4878531" lon="10.5623971"><ele>174.8</ele><time>2026-04-19T09:30:36.874Z</time></trkpt><trkpt lat="43.4879302" lon="10.562284"><ele>175.4</ele><time>2026-04-19T09:30:37.86Z</time></trkpt><trkpt lat="43.4880148" lon="10.5621731"><ele>176.0</ele><time>2026-04-19T09:30:38.856Z</time></trkpt><trkpt lat="43.4881072" lon="10.5620676"><ele>175.0</ele><time>2026-04-19T09:30:39.876Z</time></trkpt><trkpt lat="43.4882041" lon="10.5619649"><ele>174.0</ele><time>2026-04-19T09:30:40.87Z</time></trkpt><trkpt lat="43.4883023" lon="10.5618651"><ele>173.0</ele><time>2026-04-19T09:30:41.872Z</time></trkpt><trkpt lat="43.4883998" lon="10.5617731"><ele>172.0</ele><time>2026-04-19T09:30:42.874Z</time></trkpt><trkpt lat="43.4884972" lon="10.5616902"><ele>172.0</ele><time>2026-04-19T09:30:43.869Z</time></trkpt><trkpt lat="43.4885896" lon="10.5616186"><ele>172.0</ele><time>2026-04-19T09:30:44.877Z</time></trkpt><trkpt lat="43.4886767" lon="10.5615606"><ele>172.0</ele><time>2026-04-19T09:30:45.876Z</time></trkpt><trkpt lat="43.4887634" lon="10.5615197"><ele>172.0</ele><time>2026-04-19T09:30:46.856Z</time></trkpt><trkpt lat="43.4888508" lon="10.5615094"><ele>172.0</ele><time>2026-04-19T09:30:47.869Z</time></trkpt><trkpt lat="43.4889363" lon="10.5615364"><ele>172.2</ele><time>2026-04-19T09:30:48.871Z</time></trkpt><trkpt lat="43.4890178" lon="10.5615997"><ele>172.39999999999998</ele><time>2026-04-19T09:30:49.867Z</time></trkpt><trkpt lat="43.4890891" lon="10.5616946"><ele>172.60000000000002</ele><time>2026-04-19T09:30:50.871Z</time></trkpt><trkpt lat="43.4891494" lon="10.5618111"><ele>172.8</ele><time>2026-04-19T09:30:51.858Z</time></trkpt><trkpt lat="43.4892057" lon="10.5619423"><ele>173.0</ele><time>2026-04-19T09:30:52.869Z</time></trkpt><trkpt lat="43.4892691" lon="10.5620744"><ele>174.4</ele><time>2026-04-19T09:30:53.88Z</time></trkpt><trkpt lat="43.4893433" lon="10.5621832"><ele>175.8</ele><time>2026-04-19T09:30:54.873Z</time></trkpt><trkpt lat="43.4894246" lon="10.5622594"><ele>177.2</ele><time>2026-04-19T09:30:55.872Z</time></trkpt><trkpt lat="43.48951" lon="10.5622875"><ele>178.6</ele><time>2026-04-19T09:30:56.87Z</time></trkpt><trkpt lat="43.4895918" lon="10.5622608"><ele>180.0</ele><time>2026-04-19T09:30:57.882Z</time></trkpt><trkpt lat="43.4896691" lon="10.562185"><ele>178.25</ele><time>2026-04-19T09:30:58.868Z</time></trkpt><trkpt lat="43.4897419" lon="10.5620704"><ele>176.5</ele><time>2026-04-19T09:30:59.872Z</time></trkpt><trkpt lat="43.4898159" lon="10.5619541"><ele>174.75</ele><time>2026-04-19T09:31:00.871Z</time></trkpt><trkpt lat="43.4898983" lon="10.5618224"><ele>173.0</ele><time>2026-04-19T09:31:01.874Z</time></trkpt><trkpt lat="43.4899941" lon="10.5617091"><ele>173.0</ele><time>2026-04-19T09:31:02.887Z</time></trkpt><trkpt lat="43.4900978" lon="10.5616299"><ele>173.0</ele><time>2026-04-19T09:31:03.87Z</time></trkpt><trkpt lat="43.4902073" lon="10.5615772"><ele>173.0</ele><time>2026-04-19T09:31:04.876Z</time></trkpt><trkpt lat="43.4903226" lon="10.5615519"><ele>173.0</ele><time>2026-04-19T09:31:05.863Z</time></trkpt><trkpt lat="43.4904387" lon="10.5615265"><ele>174.75</ele><time>2026-04-19T09:31:06.871Z</time></trkpt><trkpt lat="43.4905599" lon="10.5614877"><ele>176.5</ele><time>2026-04-19T09:31:07.867Z</time></trkpt><trkpt lat="43.4906757" lon="10.5614241"><ele>178.25</ele><time>2026-04-19T09:31:08.865Z</time></trkpt><trkpt lat="43.4907894" lon="10.56136"><ele>180.0</ele><time>2026-04-19T09:31:09.865Z</time></trkpt><trkpt lat="43.4908734" lon="10.5612507"><ele>175.5</ele><time>2026-04-19T09:31:10.868Z</time></trkpt><trkpt lat="43.490938" lon="10.5611096"><ele>171.0</ele><time>2026-04-19T09:31:11.869Z</time></trkpt><trkpt lat="43.4910141" lon="10.5609505"><ele>166.5</ele><time>2026-04-19T09:31:12.873Z</time></trkpt><trkpt lat="43.491092" lon="10.5607927"><ele>162.0</ele><time>2026-04-19T09:31:13.875Z</time></trkpt><trkpt lat="43.4911714" lon="10.5606382"><ele>161.25</ele><time>2026-04-19T09:31:14.865Z</time></trkpt><trkpt lat="43.4912676" lon="10.5605192"><ele>160.5</ele><time>2026-04-19T09:31:15.87Z</time></trkpt><trkpt lat="43.4913944" lon="10.5604421"><ele>159.75</ele><time>2026-04-19T09:31:16.873Z</time></trkpt><trkpt lat="43.4915273" lon="10.5603648"><ele>159.0</ele><time>2026-04-19T09:31:17.873Z</time></trkpt><trkpt lat="43.4916613" lon="10.5602869"><ele>159.0</ele><time>2026-04-19T09:31:18.866Z</time></trkpt><trkpt lat="43.4917869" lon="10.5602047"><ele>159.0</ele><time>2026-04-19T09:31:19.869Z</time></trkpt><trkpt lat="43.4918974" lon="10.5600957"><ele>159.0</ele><time>2026-04-19T09:31:20.856Z</time></trkpt><trkpt lat="43.4919931" lon="10.5599593"><ele>159.0</ele><time>2026-04-19T09:31:21.869Z</time></trkpt><trkpt lat="43.4920814" lon="10.5598119"><ele>159.0</ele><time>2026-04-19T09:31:22.872Z</time></trkpt><trkpt lat="43.4921653" lon="10.5596626"><ele>159.0</ele><time>2026-04-19T09:31:23.875Z</time></trkpt><trkpt lat="43.4922468" lon="10.5595177"><ele>159.0</ele><time>2026-04-19T09:31:24.865Z</time></trkpt><trkpt lat="43.4923269" lon="10.5593712"><ele>159.0</ele><time>2026-04-19T09:31:25.878Z</time></trkpt><trkpt lat="43.4924089" lon="10.5592332"><ele>159.0</ele><time>2026-04-19T09:31:26.882Z</time></trkpt><trkpt lat="43.4924882" lon="10.5591028"><ele>159.0</ele><time>2026-04-19T09:31:27.871Z</time></trkpt><trkpt lat="43.4925784" lon="10.5590105"><ele>159.0</ele><time>2026-04-19T09:31:28.867Z</time></trkpt><trkpt lat="43.4926899" lon="10.5589608"><ele>159.0</ele><time>2026-04-19T09:31:29.874Z</time></trkpt><trkpt lat="43.4928138" lon="10.5589428"><ele>159.25</ele><time>2026-04-19T09:31:30.878Z</time></trkpt><trkpt lat="43.4929462" lon="10.5589526"><ele>159.5</ele><time>2026-04-19T09:31:31.876Z</time></trkpt><trkpt lat="43.4930835" lon="10.5589611"><ele>159.75</ele><time>2026-04-19T09:31:32.875Z</time></trkpt><trkpt lat="43.4932222" lon="10.55896"><ele>160.0</ele><time>2026-04-19T09:31:33.871Z</time></trkpt><trkpt lat="43.4933591" lon="10.5589452"><ele>160.0</ele><time>2026-04-19T09:31:34.874Z</time></trkpt><trkpt lat="43.4935025" lon="10.5589311"><ele>160.0</ele><time>2026-04-19T09:31:35.876Z</time></trkpt><trkpt lat="43.4936471" lon="10.5589459"><ele>160.0</ele><time>2026-04-19T09:31:36.868Z</time></trkpt><trkpt lat="43.4937873" lon="10.5589919"><ele>160.0</ele><time>2026-04-19T09:31:37.873Z</time></trkpt><trkpt lat="43.4939276" lon="10.5590546"><ele>159.5</ele><time>2026-04-19T09:31:38.869Z</time></trkpt><trkpt lat="43.4940609" lon="10.5591199"><ele>159.0</ele><time>2026-04-19T09:31:39.881Z</time></trkpt><trkpt lat="43.4941932" lon="10.5591686"><ele>158.5</ele><time>2026-04-19T09:31:40.871Z</time></trkpt><trkpt lat="43.4943307" lon="10.5591862"><ele>158.0</ele><time>2026-04-19T09:31:41.871Z</time></trkpt><trkpt lat="43.4944698" lon="10.5591739"><ele>157.75</ele><time>2026-04-19T09:31:42.865Z</time></trkpt><trkpt lat="43.4946076" lon="10.559135"><ele>157.5</ele><time>2026-04-19T09:31:43.867Z</time></trkpt><trkpt lat="43.4947448" lon="10.5590816"><ele>157.25</ele><time>2026-04-19T09:31:44.885Z</time></trkpt><trkpt lat="43.4948813" lon="10.5590309"><ele>157.0</ele><time>2026-04-19T09:31:45.875Z</time></trkpt><trkpt lat="43.495015" lon="10.5589823"><ele>157.0</ele><time>2026-04-19T09:31:46.87Z</time></trkpt><trkpt lat="43.495146" lon="10.5589767"><ele>157.0</ele><time>2026-04-19T09:31:47.876Z</time></trkpt><trkpt lat="43.495277" lon="10.5590015"><ele>157.0</ele><time>2026-04-19T09:31:48.875Z</time></trkpt><trkpt lat="43.4954058" lon="10.5590347"><ele>157.0</ele><time>2026-04-19T09:31:49.872Z</time></trkpt><trkpt lat="43.4955319" lon="10.5590511"><ele>157.5</ele><time>2026-04-19T09:31:50.879Z</time></trkpt><trkpt lat="43.495663" lon="10.5590648"><ele>158.0</ele><time>2026-04-19T09:31:51.88Z</time></trkpt><trkpt lat="43.495802" lon="10.5590289"><ele>158.5</ele><time>2026-04-19T09:31:52.877Z</time></trkpt><trkpt lat="43.4959391" lon="10.5589625"><ele>159.0</ele><time>2026-04-19T09:31:53.869Z</time></trkpt><trkpt lat="43.4960453" lon="10.5588558"><ele>159.0</ele><time>2026-04-19T09:31:54.86Z</time></trkpt><trkpt lat="43.4961449" lon="10.5587157"><ele>159.0</ele><time>2026-04-19T09:31:55.858Z</time></trkpt><trkpt lat="43.4962457" lon="10.5585807"><ele>159.0</ele><time>2026-04-19T09:31:56.872Z</time></trkpt><trkpt lat="43.4963469" lon="10.5584588"><ele>159.0</ele><time>2026-04-19T09:31:57.855Z</time></trkpt><trkpt lat="43.4964554" lon="10.5583503"><ele>156.25</ele><time>2026-04-19T09:31:58.852Z</time></trkpt><trkpt lat="43.4965757" lon="10.5582743"><ele>153.5</ele><time>2026-04-19T09:31:59.856Z</time></trkpt><trkpt lat="43.4967039" lon="10.5582145"><ele>150.75</ele><time>2026-04-19T09:32:00.876Z</time></trkpt><trkpt lat="43.496835" lon="10.5581918"><ele>148.0</ele><time>2026-04-19T09:32:01.876Z</time></trkpt><trkpt lat="43.496975" lon="10.5581599"><ele>149.0</ele><time>2026-04-19T09:32:02.874Z</time></trkpt><trkpt lat="43.4971148" lon="10.5581254"><ele>150.0</ele><time>2026-04-19T09:32:03.882Z</time></trkpt><trkpt lat="43.4972474" lon="10.5580563"><ele>151.0</ele><time>2026-04-19T09:32:04.87Z</time></trkpt><trkpt lat="43.4973765" lon="10.5579861"><ele>152.0</ele><time>2026-04-19T09:32:05.869Z</time></trkpt><trkpt lat="43.4975047" lon="10.5579303"><ele>152.0</ele><time>2026-04-19T09:32:06.866Z</time></trkpt><trkpt lat="43.4976376" lon="10.5578929"><ele>152.0</ele><time>2026-04-19T09:32:07.871Z</time></trkpt><trkpt lat="43.49777" lon="10.557857"><ele>152.0</ele><time>2026-04-19T09:32:08.875Z</time></trkpt><trkpt lat="43.4979055" lon="10.5578481"><ele>152.0</ele><time>2026-04-19T09:32:09.862Z</time></trkpt><trkpt lat="43.4980342" lon="10.5578403"><ele>151.75</ele><time>2026-04-19T09:32:10.874Z</time></trkpt><trkpt lat="43.4981671" lon="10.5578419"><ele>151.5</ele><time>2026-04-19T09:32:11.867Z</time></trkpt><trkpt lat="43.498287" lon="10.5578534"><ele>151.25</ele><time>2026-04-19T09:32:12.861Z</time></trkpt><trkpt lat="43.4984018" lon="10.557893"><ele>151.0</ele><time>2026-04-19T09:32:13.868Z</time></trkpt><trkpt lat="43.4985178" lon="10.5579546"><ele>151.0</ele><time>2026-04-19T09:32:14.869Z</time></trkpt><trkpt lat="43.4986413" lon="10.558045"><ele>151.0</ele><time>2026-04-19T09:32:15.878Z</time></trkpt><trkpt lat="43.4987648" lon="10.5581327"><ele>151.0</ele><time>2026-04-19T09:32:16.869Z</time></trkpt><trkpt lat="43.4989012" lon="10.5581878"><ele>151.0</ele><time>2026-04-19T09:32:17.861Z</time></trkpt><trkpt lat="43.4990378" lon="10.5582196"><ele>149.5</ele><time>2026-04-19T09:32:18.867Z</time></trkpt><trkpt lat="43.499185" lon="10.5581982"><ele>148.0</ele><time>2026-04-19T09:32:19.871Z</time></trkpt><trkpt lat="43.4993319" lon="10.5581835"><ele>146.5</ele><time>2026-04-19T09:32:20.865Z</time></trkpt><trkpt lat="43.4994771" lon="10.558178"><ele>145.0</ele><time>2026-04-19T09:32:21.875Z</time></trkpt><trkpt lat="43.4996097" lon="10.5581867"><ele>143.25</ele><time>2026-04-19T09:32:22.867Z</time></trkpt><trkpt lat="43.4997345" lon="10.5582173"><ele>141.5</ele><time>2026-04-19T09:32:23.882Z</time></trkpt><trkpt lat="43.4998563" lon="10.5582591"><ele>139.75</ele><time>2026-04-19T09:32:24.878Z</time></trkpt><trkpt lat="43.4999702" lon="10.5583154"><ele>138.0</ele><time>2026-04-19T09:32:25.871Z</time></trkpt><trkpt lat="43.5000942" lon="10.5583848"><ele>138.0</ele><time>2026-04-19T09:32:26.868Z</time></trkpt><trkpt lat="43.5002271" lon="10.5584379"><ele>138.0</ele><time>2026-04-19T09:32:27.872Z</time></trkpt><trkpt lat="43.5003584" lon="10.558478"><ele>138.0</ele><time>2026-04-19T09:32:28.866Z</time></trkpt><trkpt lat="43.5004829" lon="10.5585061"><ele>138.0</ele><time>2026-04-19T09:32:29.875Z</time></trkpt><trkpt lat="43.5005906" lon="10.5585267"><ele>138.66666666666666</ele><time>2026-04-19T09:32:30.87Z</time></trkpt><trkpt lat="43.5006961" lon="10.5585476"><ele>139.33333333333334</ele><time>2026-04-19T09:32:31.873Z</time></trkpt><trkpt lat="43.5007771" lon="10.5585642"><ele>140.0</ele><time>2026-04-19T09:32:32.879Z</time></trkpt><trkpt lat="43.5008476" lon="10.558599"><ele>140.66666666666669</ele><time>2026-04-19T09:32:33.873Z</time></trkpt><trkpt lat="43.5009074" lon="10.5586489"><ele>141.33333333333334</ele><time>2026-04-19T09:32:34.875Z</time></trkpt><trkpt lat="43.5009635" lon="10.5586965"><ele>142.0</ele><time>2026-04-19T09:32:35.871Z</time></trkpt><trkpt lat="43.5010052" lon="10.5588362"><ele>142.0</ele><time>2026-04-19T09:32:37.884Z</time></trkpt><trkpt lat="43.5010075" lon="10.5589287"><ele>142.0</ele><time>2026-04-19T09:32:38.879Z</time></trkpt><trkpt lat="43.5009976" lon="10.5590227"><ele>142.0</ele><time>2026-04-19T09:32:39.879Z</time></trkpt><trkpt lat="43.5009874" lon="10.5591185"><ele>142.0</ele><time>2026-04-19T09:32:40.873Z</time></trkpt><trkpt lat="43.5009812" lon="10.5592216"><ele>142.0</ele><time>2026-04-19T09:32:41.872Z</time></trkpt><trkpt lat="43.5009687" lon="10.559328"><ele>142.0</ele><time>2026-04-19T09:32:42.881Z</time></trkpt><trkpt lat="43.5009561" lon="10.5594384"><ele>142.0</ele><time>2026-04-19T09:32:43.874Z</time></trkpt><trkpt lat="43.5009459" lon="10.5595517"><ele>143.83333333333334</ele><time>2026-04-19T09:32:44.873Z</time></trkpt><trkpt lat="43.5009314" lon="10.5596722"><ele>145.66666666666669</ele><time>2026-04-19T09:32:45.88Z</time></trkpt><trkpt lat="43.5009198" lon="10.5597895"><ele>147.5</ele><time>2026-04-19T09:32:46.869Z</time></trkpt><trkpt lat="43.5009082" lon="10.5598813"><ele>149.33333333333334</ele><time>2026-04-19T09:32:47.882Z</time></trkpt><trkpt lat="43.5008845" lon="10.559996"><ele>151.16666666666666</ele><time>2026-04-19T09:32:49.876Z</time></trkpt><trkpt lat="43.5008167" lon="10.5600562"><ele>153.0</ele><time>2026-04-19T09:32:52.878Z</time></trkpt><trkpt lat="43.5007342" lon="10.5600307"><ele>153.0</ele><time>2026-04-19T09:32:55.867Z</time></trkpt><trkpt lat="43.5006123" lon="10.5599597"><ele>153.0</ele><time>2026-04-19T09:32:57.883Z</time></trkpt><trkpt lat="43.5005298" lon="10.5599159"><ele>153.0</ele><time>2026-04-19T09:32:58.874Z</time></trkpt><trkpt lat="43.5004274" lon="10.5598782"><ele>153.0</ele><time>2026-04-19T09:32:59.873Z</time></trkpt><trkpt lat="43.5003015" lon="10.5598603"><ele>155.75</ele><time>2026-04-19T09:33:00.872Z</time></trkpt><trkpt lat="43.5001636" lon="10.5598659"><ele>158.5</ele><time>2026-04-19T09:33:01.882Z</time></trkpt><trkpt lat="43.5000267" lon="10.5598611"><ele>161.25</ele><time>2026-04-19T09:33:02.88Z</time></trkpt><trkpt lat="43.4998968" lon="10.5598573"><ele>164.0</ele><time>2026-04-19T09:33:03.875Z</time></trkpt><trkpt lat="43.4997722" lon="10.5598706"><ele>164.0</ele><time>2026-04-19T09:33:04.874Z</time></trkpt><trkpt lat="43.4996446" lon="10.5598886"><ele>164.0</ele><time>2026-04-19T09:33:05.889Z</time></trkpt><trkpt lat="43.4995208" lon="10.5598953"><ele>164.0</ele><time>2026-04-19T09:33:06.88Z</time></trkpt><trkpt lat="43.4994129" lon="10.5599032"><ele>164.0</ele><time>2026-04-19T09:33:07.878Z</time></trkpt><trkpt lat="43.4993358" lon="10.5599212"><ele>164.0</ele><time>2026-04-19T09:33:08.87Z</time></trkpt><trkpt lat="43.4992475" lon="10.5599308"><ele>165.66666666666666</ele><time>2026-04-19T09:33:09.864Z</time></trkpt><trkpt lat="43.4991542" lon="10.5599386"><ele>167.33333333333331</ele><time>2026-04-19T09:33:10.865Z</time></trkpt><trkpt lat="43.4990675" lon="10.5599197"><ele>169.0</ele><time>2026-04-19T09:33:11.864Z</time></trkpt><trkpt lat="43.4989741" lon="10.5599079"><ele>170.66666666666666</ele><time>2026-04-19T09:33:12.862Z</time></trkpt><trkpt lat="43.4988972" lon="10.5599135"><ele>172.33333333333334</ele><time>2026-04-19T09:33:13.877Z</time></trkpt><trkpt lat="43.4988259" lon="10.5599116"><ele>174.0</ele><time>2026-04-19T09:33:14.86Z</time></trkpt><trkpt lat="43.4987226" lon="10.5598354"><ele>173.33333333333334</ele><time>2026-04-19T09:33:16.863Z</time></trkpt><trkpt lat="43.4986731" lon="10.5597609"><ele>172.66666666666666</ele><time>2026-04-19T09:33:17.865Z</time></trkpt><trkpt lat="43.4986416" lon="10.5596727"><ele>172.0</ele><time>2026-04-19T09:33:18.87Z</time></trkpt><trkpt lat="43.4986103" lon="10.5595786"><ele>171.33333333333331</ele><time>2026-04-19T09:33:19.873Z</time></trkpt><trkpt lat="43.4985659" lon="10.5595056"><ele>170.66666666666666</ele><time>2026-04-19T09:33:20.856Z</time></trkpt><trkpt lat="43.4984752" lon="10.5594387"><ele>170.0</ele><time>2026-04-19T09:33:22.867Z</time></trkpt><trkpt lat="43.4984037" lon="10.5594443"><ele>170.0</ele><time>2026-04-19T09:33:24.872Z</time></trkpt><trkpt lat="43.4983059" lon="10.559429"><ele>170.0</ele><time>2026-04-19T09:33:26.861Z</time></trkpt><trkpt lat="43.4982388" lon="10.5593522"><ele>170.0</ele><time>2026-04-19T09:33:27.862Z</time></trkpt><trkpt lat="43.4981713" lon="10.559252"><ele>170.0</ele><time>2026-04-19T09:33:28.87Z</time></trkpt><trkpt lat="43.4981032" lon="10.5591844"><ele>170.0</ele><time>2026-04-19T09:33:29.862Z</time></trkpt><trkpt lat="43.4980137" lon="10.5591624"><ele>170.6</ele><time>2026-04-19T09:33:30.876Z</time></trkpt><trkpt lat="43.4979106" lon="10.5591765"><ele>171.2</ele><time>2026-04-19T09:33:31.881Z</time></trkpt><trkpt lat="43.4978149" lon="10.5592"><ele>171.8</ele><time>2026-04-19T09:33:32.865Z</time></trkpt><trkpt lat="43.4977148" lon="10.5592369"><ele>172.4</ele><time>2026-04-19T09:33:33.867Z</time></trkpt><trkpt lat="43.4976391" lon="10.5592656"><ele>173.0</ele><time>2026-04-19T09:33:34.878Z</time></trkpt><trkpt lat="43.4975787" lon="10.5593091"><ele>173.0</ele><time>2026-04-19T09:33:35.883Z</time></trkpt><trkpt lat="43.4975453" lon="10.5593936"><ele>173.0</ele><time>2026-04-19T09:33:36.874Z</time></trkpt><trkpt lat="43.4975043" lon="10.559466"><ele>173.0</ele><time>2026-04-19T09:33:37.879Z</time></trkpt><trkpt lat="43.4973925" lon="10.5594921"><ele>173.0</ele><time>2026-04-19T09:33:39.876Z</time></trkpt><trkpt lat="43.4972643" lon="10.5595329"><ele>173.0</ele><time>2026-04-19T09:33:41.868Z</time></trkpt><trkpt lat="43.4972029" lon="10.5595523"><ele>173.0</ele><time>2026-04-19T09:33:42.875Z</time></trkpt><trkpt lat="43.4971222" lon="10.5595473"><ele>175.5</ele><time>2026-04-19T09:33:43.873Z</time></trkpt><trkpt lat="43.4970558" lon="10.5595597"><ele>178.0</ele><time>2026-04-19T09:33:44.864Z</time></trkpt><trkpt lat="43.4969522" lon="10.5596167"><ele>180.5</ele><time>2026-04-19T09:33:46.856Z</time></trkpt><trkpt lat="43.4968953" lon="10.5596621"><ele>183.0</ele><time>2026-04-19T09:33:47.864Z</time></trkpt><trkpt lat="43.4968323" lon="10.5597094"><ele>185.5</ele><time>2026-04-19T09:33:48.869Z</time></trkpt><trkpt lat="43.496776" lon="10.5597583"><ele>188.0</ele><time>2026-04-19T09:33:49.879Z</time></trkpt><trkpt lat="43.4967153" lon="10.5598084"><ele>188.0</ele><time>2026-04-19T09:33:50.868Z</time></trkpt><trkpt lat="43.4966527" lon="10.5598677"><ele>188.0</ele><time>2026-04-19T09:33:51.87Z</time></trkpt><trkpt lat="43.4966054" lon="10.5599284"><ele>188.0</ele><time>2026-04-19T09:33:52.867Z</time></trkpt><trkpt lat="43.4965529" lon="10.56005"><ele>188.0</ele><time>2026-04-19T09:33:54.877Z</time></trkpt><trkpt lat="43.4965537" lon="10.5601447"><ele>188.0</ele><time>2026-04-19T09:33:55.882Z</time></trkpt><trkpt lat="43.4965401" lon="10.5602403"><ele>188.0</ele><time>2026-04-19T09:33:56.87Z</time></trkpt><trkpt lat="43.4965142" lon="10.5603232"><ele>188.0</ele><time>2026-04-19T09:33:57.873Z</time></trkpt><trkpt lat="43.4964554" lon="10.5603794"><ele>189.60000000000002</ele><time>2026-04-19T09:33:58.873Z</time></trkpt><trkpt lat="43.4963662" lon="10.5603958"><ele>191.20000000000002</ele><time>2026-04-19T09:33:59.864Z</time></trkpt><trkpt lat="43.4962656" lon="10.5604007"><ele>192.8</ele><time>2026-04-19T09:34:00.875Z</time></trkpt><trkpt lat="43.4961701" lon="10.5603868"><ele>194.4</ele><time>2026-04-19T09:34:01.869Z</time></trkpt><trkpt lat="43.4960691" lon="10.5603922"><ele>196.0</ele><time>2026-04-19T09:34:03.878Z</time></trkpt><trkpt lat="43.4960123" lon="10.5604917"><ele>195.99999999999997</ele><time>2026-04-19T09:34:05.87Z</time></trkpt><trkpt lat="43.4959416" lon="10.5605904"><ele>196.0</ele><time>2026-04-19T09:34:07.874Z</time></trkpt><trkpt lat="43.4958877" lon="10.5606372"><ele>196.0</ele><time>2026-04-19T09:34:09.877Z</time></trkpt><trkpt lat="43.4958489" lon="10.5607092"><ele>196.0</ele><time>2026-04-19T09:34:11.869Z</time></trkpt><trkpt lat="43.4958061" lon="10.5607753"><ele>195.99999999999997</ele><time>2026-04-19T09:34:13.874Z</time></trkpt><trkpt lat="43.4957413" lon="10.5607684"><ele>196.0</ele><time>2026-04-19T09:34:15.872Z</time></trkpt><trkpt lat="43.4956493" lon="10.5607196"><ele>196.0</ele><time>2026-04-19T09:34:17.876Z</time></trkpt><trkpt lat="43.4955653" lon="10.5607368"><ele>196.0</ele><time>2026-04-19T09:34:18.876Z</time></trkpt><trkpt lat="43.4954885" lon="10.5606018"><ele>196.0</ele><time>2026-04-19T09:34:20.865Z</time></trkpt><trkpt lat="43.4954275" lon="10.5604985"><ele>196.0</ele><time>2026-04-19T09:34:21.866Z</time></trkpt><trkpt lat="43.4953588" lon="10.5604293"><ele>196.0</ele><time>2026-04-19T09:34:22.871Z</time></trkpt><trkpt lat="43.4952871" lon="10.5603878"><ele>196.66666666666666</ele><time>2026-04-19T09:34:23.87Z</time></trkpt><trkpt lat="43.4952131" lon="10.5603737"><ele>197.33333333333331</ele><time>2026-04-19T09:34:24.87Z</time></trkpt><trkpt lat="43.4951479" lon="10.560419"><ele>198.0</ele><time>2026-04-19T09:34:25.866Z</time></trkpt><trkpt lat="43.4950664" lon="10.5604693"><ele>198.66666666666669</ele><time>2026-04-19T09:34:26.878Z</time></trkpt><trkpt lat="43.4949868" lon="10.5605033"><ele>199.33333333333334</ele><time>2026-04-19T09:34:27.886Z</time></trkpt><trkpt lat="43.4948941" lon="10.5605208"><ele>200.0</ele><time>2026-04-19T09:34:28.873Z</time></trkpt><trkpt lat="43.4948219" lon="10.5605386"><ele>200.00000000000003</ele><time>2026-04-19T09:34:29.876Z</time></trkpt><trkpt lat="43.4947536" lon="10.5605487"><ele>200.0</ele><time>2026-04-19T09:34:30.878Z</time></trkpt><trkpt lat="43.4946848" lon="10.5605214"><ele>200.0</ele><time>2026-04-19T09:34:31.862Z</time></trkpt><trkpt lat="43.4946096" lon="10.5604864"><ele>200.0</ele><time>2026-04-19T09:34:32.871Z</time></trkpt><trkpt lat="43.4945121" lon="10.5604522"><ele>200.00000000000003</ele><time>2026-04-19T09:34:33.879Z</time></trkpt><trkpt lat="43.4944179" lon="10.5604466"><ele>200.0</ele><time>2026-04-19T09:34:34.859Z</time></trkpt><trkpt lat="43.4943445" lon="10.5604482"><ele>199.6</ele><time>2026-04-19T09:34:35.869Z</time></trkpt><trkpt lat="43.4942365" lon="10.5604694"><ele>199.2</ele><time>2026-04-19T09:34:37.862Z</time></trkpt><trkpt lat="43.4941069" lon="10.5604598"><ele>198.8</ele><time>2026-04-19T09:34:39.87Z</time></trkpt><trkpt lat="43.4940364" lon="10.5604334"><ele>198.4</ele><time>2026-04-19T09:34:40.873Z</time></trkpt><trkpt lat="43.4939621" lon="10.5604198"><ele>198.0</ele><time>2026-04-19T09:34:41.874Z</time></trkpt><trkpt lat="43.4938533" lon="10.5604376"><ele>198.0</ele><time>2026-04-19T09:34:43.871Z</time></trkpt><trkpt lat="43.4937769" lon="10.5604814"><ele>198.0</ele><time>2026-04-19T09:34:45.875Z</time></trkpt><trkpt lat="43.4936931" lon="10.560393"><ele>198.0</ele><time>2026-04-19T09:34:48.868Z</time></trkpt><trkpt lat="43.4936582" lon="10.5602556"><ele>198.0</ele><time>2026-04-19T09:34:50.864Z</time></trkpt><trkpt lat="43.4935897" lon="10.5602155"><ele>198.0</ele><time>2026-04-19T09:34:53.862Z</time></trkpt><trkpt lat="43.493507" lon="10.5602064"><ele>193.4</ele><time>2026-04-19T09:35:12.87Z</time></trkpt><trkpt lat="43.4933811" lon="10.560124"><ele>188.8</ele><time>2026-04-19T09:35:35.866Z</time></trkpt><trkpt lat="43.493303" lon="10.5600977"><ele>184.2</ele><time>2026-04-19T09:37:23.875Z</time></trkpt><trkpt lat="43.4932284" lon="10.5600945"><ele>179.6</ele><time>2026-04-19T09:37:25.872Z</time></trkpt><trkpt lat="43.4931336" lon="10.5601452"><ele>175.0</ele><time>2026-04-19T09:37:27.871Z</time></trkpt><trkpt lat="43.4930547" lon="10.5601815"><ele>175.0</ele><time>2026-04-19T09:37:29.875Z</time></trkpt><trkpt lat="43.4929933" lon="10.560223"><ele>175.0</ele><time>2026-04-19T09:37:31.866Z</time></trkpt><trkpt lat="43.4928924" lon="10.5603234"><ele>175.0</ele><time>2026-04-19T09:37:33.872Z</time></trkpt><trkpt lat="43.4928173" lon="10.5603819"><ele>175.0</ele><time>2026-04-19T09:37:34.87Z</time></trkpt><trkpt lat="43.4927452" lon="10.5604489"><ele>175.0</ele><time>2026-04-19T09:37:35.872Z</time></trkpt><trkpt lat="43.4926715" lon="10.5605144"><ele>177.5</ele><time>2026-04-19T09:37:36.872Z</time></trkpt><trkpt lat="43.492595" lon="10.560594"><ele>180.0</ele><time>2026-04-19T09:37:37.879Z</time></trkpt><trkpt lat="43.4925296" lon="10.5606681"><ele>182.5</ele><time>2026-04-19T09:37:38.875Z</time></trkpt><trkpt lat="43.4924494" lon="10.5607191"><ele>185.0</ele><time>2026-04-19T09:37:39.874Z</time></trkpt><trkpt lat="43.4923755" lon="10.5607677"><ele>187.5</ele><time>2026-04-19T09:37:40.882Z</time></trkpt><trkpt lat="43.4923064" lon="10.5608081"><ele>190.0</ele><time>2026-04-19T09:37:41.869Z</time></trkpt><trkpt lat="43.4922479" lon="10.5608423"><ele>190.0</ele><time>2026-04-19T09:37:42.87Z</time></trkpt><trkpt lat="43.4921859" lon="10.560864"><ele>190.0</ele><time>2026-04-19T09:37:43.873Z</time></trkpt><trkpt lat="43.4921169" lon="10.5608844"><ele>190.0</ele><time>2026-04-19T09:37:44.874Z</time></trkpt><trkpt lat="43.4920552" lon="10.5609033"><ele>190.0</ele><time>2026-04-19T09:37:45.875Z</time></trkpt><trkpt lat="43.4919866" lon="10.5609715"><ele>190.0</ele><time>2026-04-19T09:37:47.868Z</time></trkpt><trkpt lat="43.4919768" lon="10.5610887"><ele>190.0</ele><time>2026-04-19T09:37:49.871Z</time></trkpt><trkpt lat="43.4919878" lon="10.561205"><ele>191.5</ele><time>2026-04-19T09:37:51.872Z</time></trkpt><trkpt lat="43.4919824" lon="10.5613321"><ele>193.0</ele><time>2026-04-19T09:37:53.865Z</time></trkpt><trkpt lat="43.4919343" lon="10.5614661"><ele>194.5</ele><time>2026-04-19T09:37:55.861Z</time></trkpt><trkpt lat="43.4919022" lon="10.5615449"><ele>196.0</ele><time>2026-04-19T09:37:56.887Z</time></trkpt><trkpt lat="43.4918152" lon="10.5616565"><ele>197.49999999999997</ele><time>2026-04-19T09:37:58.871Z</time></trkpt><trkpt lat="43.4917613" lon="10.5617042"><ele>199.0</ele><time>2026-04-19T09:37:59.869Z</time></trkpt><trkpt lat="43.4917083" lon="10.5617545"><ele>199.0</ele><time>2026-04-19T09:38:00.858Z</time></trkpt><trkpt lat="43.4916472" lon="10.5617917"><ele>199.0</ele><time>2026-04-19T09:38:01.882Z</time></trkpt><trkpt lat="43.4915378" lon="10.5618631"><ele>199.0</ele><time>2026-04-19T09:38:03.872Z</time></trkpt><trkpt lat="43.4914808" lon="10.5619004"><ele>199.0</ele><time>2026-04-19T09:38:04.86Z</time></trkpt><trkpt lat="43.4913821" lon="10.5619899"><ele>199.0</ele><time>2026-04-19T09:38:06.886Z</time></trkpt><trkpt lat="43.4913266" lon="10.562088"><ele>202.2</ele><time>2026-04-19T09:38:08.877Z</time></trkpt><trkpt lat="43.4913343" lon="10.5622548"><ele>205.39999999999998</ele><time>2026-04-19T09:38:10.863Z</time></trkpt><trkpt lat="43.4913539" lon="10.5624593"><ele>208.6</ele><time>2026-04-19T09:38:20.873Z</time></trkpt><trkpt lat="43.4913664" lon="10.5625666"><ele>211.8</ele><time>2026-04-19T09:38:22.876Z</time></trkpt><trkpt lat="43.4913863" lon="10.5626547"><ele>215.0</ele><time>2026-04-19T09:38:23.864Z</time></trkpt><trkpt lat="43.4914313" lon="10.5627179"><ele>215.00000000000003</ele><time>2026-04-19T09:38:24.883Z</time></trkpt><trkpt lat="43.4914879" lon="10.5627922"><ele>215.0</ele><time>2026-04-19T09:38:25.88Z</time></trkpt><trkpt lat="43.4915475" lon="10.5628838"><ele>215.0</ele><time>2026-04-19T09:38:26.878Z</time></trkpt><trkpt lat="43.491624" lon="10.5629802"><ele>215.0</ele><time>2026-04-19T09:38:28.866Z</time></trkpt><trkpt lat="43.491681" lon="10.5630495"><ele>215.00000000000003</ele><time>2026-04-19T09:38:30.88Z</time></trkpt><trkpt lat="43.4917013" lon="10.5631353"><ele>215.0</ele><time>2026-04-19T09:38:33.867Z</time></trkpt><trkpt lat="43.4916846" lon="10.5633207"><ele>215.6</ele><time>2026-04-19T09:38:35.863Z</time></trkpt><trkpt lat="43.4916962" lon="10.5634129"><ele>216.2</ele><time>2026-04-19T09:38:36.884Z</time></trkpt><trkpt lat="43.4917152" lon="10.5635338"><ele>216.8</ele><time>2026-04-19T09:38:38.859Z</time></trkpt><trkpt lat="43.4915464" lon="10.5636652"><ele>217.4</ele><time>2026-04-19T09:38:47.876Z</time></trkpt><trkpt lat="43.4914798" lon="10.5636347"><ele>218.0</ele><time>2026-04-19T09:38:48.874Z</time></trkpt><trkpt lat="43.4913991" lon="10.5635706"><ele>218.00000000000003</ele><time>2026-04-19T09:38:49.875Z</time></trkpt><trkpt lat="43.4913212" lon="10.5635075"><ele>218.0</ele><time>2026-04-19T09:38:50.87Z</time></trkpt><trkpt lat="43.491252" lon="10.5634667"><ele>218.0</ele><time>2026-04-19T09:38:51.856Z</time></trkpt><trkpt lat="43.4911971" lon="10.5634163"><ele>218.0</ele><time>2026-04-19T09:38:52.883Z</time></trkpt><trkpt lat="43.4910925" lon="10.563339"><ele>218.00000000000003</ele><time>2026-04-19T09:38:54.87Z</time></trkpt><trkpt lat="43.4910229" lon="10.5633123"><ele>218.0</ele><time>2026-04-19T09:38:56.862Z</time></trkpt><trkpt lat="43.4909492" lon="10.5632536"><ele>217.83333333333334</ele><time>2026-04-19T09:38:59.872Z</time></trkpt><trkpt lat="43.4908817" lon="10.5632133"><ele>217.66666666666669</ele><time>2026-04-19T09:39:00.872Z</time></trkpt><trkpt lat="43.4908104" lon="10.5631575"><ele>217.5</ele><time>2026-04-19T09:39:01.874Z</time></trkpt><trkpt lat="43.4907387" lon="10.5630923"><ele>217.33333333333331</ele><time>2026-04-19T09:39:02.879Z</time></trkpt><trkpt lat="43.4906443" lon="10.5630451"><ele>217.16666666666666</ele><time>2026-04-19T09:39:03.866Z</time></trkpt><trkpt lat="43.4905849" lon="10.5629826"><ele>217.0</ele><time>2026-04-19T09:39:04.877Z</time></trkpt><trkpt lat="43.4904829" lon="10.5629749"><ele>214.0</ele><time>2026-04-19T09:39:06.867Z</time></trkpt><trkpt lat="43.490399" lon="10.5628944"><ele>211.0</ele><time>2026-04-19T09:39:09.881Z</time></trkpt><trkpt lat="43.4903232" lon="10.5628509"><ele>208.0</ele><time>2026-04-19T09:39:10.875Z</time></trkpt><trkpt lat="43.4902436" lon="10.562768"><ele>205.0</ele><time>2026-04-19T09:39:40.87Z</time></trkpt><trkpt lat="43.4903389" lon="10.5630935"><ele>205.0</ele><time>2026-04-19T09:53:16.88Z</time></trkpt><trkpt lat="43.4904049" lon="10.5632081"><ele>205.0</ele><time>2026-04-19T09:53:17.873Z</time></trkpt><trkpt lat="43.4904584" lon="10.5632966"><ele>205.0</ele><time>2026-04-19T09:53:18.882Z</time></trkpt><trkpt lat="43.4905039" lon="10.5633655"><ele>205.0</ele><time>2026-04-19T09:53:19.872Z</time></trkpt><trkpt lat="43.4905851" lon="10.5634835"><ele>205.0</ele><time>2026-04-19T09:53:21.874Z</time></trkpt><trkpt lat="43.490672" lon="10.563545"><ele>206.99999999999997</ele><time>2026-04-19T09:53:23.876Z</time></trkpt><trkpt lat="43.4907359" lon="10.5635249"><ele>209.0</ele><time>2026-04-19T09:53:25.879Z</time></trkpt><trkpt lat="43.4907859" lon="10.5634669"><ele>211.0</ele><time>2026-04-19T09:53:26.87Z</time></trkpt><trkpt lat="43.4908919" lon="10.5634838"><ele>213.0</ele><time>2026-04-19T09:53:28.874Z</time></trkpt><trkpt lat="43.4909489" lon="10.5635218"><ele>214.99999999999997</ele><time>2026-04-19T09:53:29.869Z</time></trkpt><trkpt lat="43.4910002" lon="10.5636005"><ele>217.0</ele><time>2026-04-19T09:53:30.876Z</time></trkpt><trkpt lat="43.4910338" lon="10.5636956"><ele>219.66666666666666</ele><time>2026-04-19T09:53:31.871Z</time></trkpt><trkpt lat="43.4910406" lon="10.5638044"><ele>222.33333333333331</ele><time>2026-04-19T09:53:32.871Z</time></trkpt><trkpt lat="43.4910489" lon="10.5639402"><ele>225.0</ele><time>2026-04-19T09:53:33.875Z</time></trkpt><trkpt lat="43.4910452" lon="10.5640665"><ele>227.66666666666669</ele><time>2026-04-19T09:53:34.865Z</time></trkpt><trkpt lat="43.4910654" lon="10.5641823"><ele>230.33333333333334</ele><time>2026-04-19T09:53:36.881Z</time></trkpt><trkpt lat="43.4911154" lon="10.5642708"><ele>233.0</ele><time>2026-04-19T09:53:38.867Z</time></trkpt><trkpt lat="43.4911473" lon="10.5643464"><ele>233.0</ele><time>2026-04-19T09:53:39.876Z</time></trkpt><trkpt lat="43.4911781" lon="10.564426"><ele>233.0</ele><time>2026-04-19T09:53:40.863Z</time></trkpt><trkpt lat="43.4912107" lon="10.5645248"><ele>233.0</ele><time>2026-04-19T09:53:41.876Z</time></trkpt><trkpt lat="43.4912247" lon="10.5646142"><ele>233.0</ele><time>2026-04-19T09:53:42.877Z</time></trkpt><trkpt lat="43.4912369" lon="10.5647061"><ele>233.0</ele><time>2026-04-19T09:53:43.874Z</time></trkpt><trkpt lat="43.4912514" lon="10.5647984"><ele>233.0</ele><time>2026-04-19T09:53:44.873Z</time></trkpt><trkpt lat="43.4912834" lon="10.5648994"><ele>233.0</ele><time>2026-04-19T09:53:45.877Z</time></trkpt><trkpt lat="43.4913546" lon="10.5650016"><ele>235.33333333333334</ele><time>2026-04-19T09:53:46.875Z</time></trkpt><trkpt lat="43.4914272" lon="10.5650957"><ele>237.66666666666669</ele><time>2026-04-19T09:53:47.88Z</time></trkpt><trkpt lat="43.4914715" lon="10.5651867"><ele>240.0</ele><time>2026-04-19T09:53:48.87Z</time></trkpt><trkpt lat="43.4915077" lon="10.5652597"><ele>242.33333333333331</ele><time>2026-04-19T09:53:49.882Z</time></trkpt><trkpt lat="43.4915369" lon="10.5653447"><ele>244.66666666666666</ele><time>2026-04-19T09:53:50.871Z</time></trkpt><trkpt lat="43.4915676" lon="10.5654809"><ele>247.0</ele><time>2026-04-19T09:53:51.866Z</time></trkpt><trkpt lat="43.4916003" lon="10.5656343"><ele>250.6</ele><time>2026-04-19T09:53:52.873Z</time></trkpt><trkpt lat="43.4916265" lon="10.5657992"><ele>254.2</ele><time>2026-04-19T09:53:53.882Z</time></trkpt><trkpt lat="43.4916329" lon="10.5659332"><ele>257.8</ele><time>2026-04-19T09:53:54.875Z</time></trkpt><trkpt lat="43.4916335" lon="10.5660201"><ele>261.4</ele><time>2026-04-19T09:53:55.88Z</time></trkpt><trkpt lat="43.4916079" lon="10.566209"><ele>265.0</ele><time>2026-04-19T09:53:57.872Z</time></trkpt><trkpt lat="43.4916044" lon="10.5663296"><ele>267.3333333333333</ele><time>2026-04-19T09:53:58.867Z</time></trkpt><trkpt lat="43.4915941" lon="10.5664374"><ele>269.66666666666663</ele><time>2026-04-19T09:53:59.871Z</time></trkpt><trkpt lat="43.4915839" lon="10.5665255"><ele>272.0</ele><time>2026-04-19T09:54:00.869Z</time></trkpt><trkpt lat="43.4915896" lon="10.5666138"><ele>274.3333333333333</ele><time>2026-04-19T09:54:01.87Z</time></trkpt><trkpt lat="43.4916632" lon="10.5667626"><ele>276.6666666666667</ele><time>2026-04-19T09:54:03.869Z</time></trkpt><trkpt lat="43.4917284" lon="10.5668585"><ele>279.0</ele><time>2026-04-19T09:54:04.884Z</time></trkpt><trkpt lat="43.4917958" lon="10.5669701"><ele>280.59999999999997</ele><time>2026-04-19T09:54:05.864Z</time></trkpt><trkpt lat="43.4918644" lon="10.567086"><ele>282.2</ele><time>2026-04-19T09:54:06.875Z</time></trkpt><trkpt lat="43.4919165" lon="10.5671679"><ele>283.79999999999995</ele><time>2026-04-19T09:54:07.871Z</time></trkpt><trkpt lat="43.4919742" lon="10.5672573"><ele>285.4</ele><time>2026-04-19T09:54:08.872Z</time></trkpt><trkpt lat="43.4920414" lon="10.567373"><ele>287.0</ele><time>2026-04-19T09:54:09.867Z</time></trkpt><trkpt lat="43.4920827" lon="10.5674625"><ele>287.2</ele><time>2026-04-19T09:54:10.864Z</time></trkpt><trkpt lat="43.4921191" lon="10.5675423"><ele>287.4</ele><time>2026-04-19T09:54:11.874Z</time></trkpt><trkpt lat="43.4921388" lon="10.5676448"><ele>287.6</ele><time>2026-04-19T09:54:12.869Z</time></trkpt><trkpt lat="43.4921635" lon="10.5677544"><ele>287.8</ele><time>2026-04-19T09:54:13.865Z</time></trkpt><trkpt lat="43.4921955" lon="10.5678852"><ele>288.0</ele><time>2026-04-19T09:54:14.871Z</time></trkpt><trkpt lat="43.492285" lon="10.5680099"><ele>290.25</ele><time>2026-04-19T09:54:15.874Z</time></trkpt><trkpt lat="43.4923726" lon="10.5681569"><ele>292.5</ele><time>2026-04-19T09:54:16.865Z</time></trkpt><trkpt lat="43.4924611" lon="10.5683203"><ele>294.75</ele><time>2026-04-19T09:54:17.869Z</time></trkpt><trkpt lat="43.4925363" lon="10.5684667"><ele>297.0</ele><time>2026-04-19T09:54:18.879Z</time></trkpt><trkpt lat="43.4926134" lon="10.5685954"><ele>297.3333333333333</ele><time>2026-04-19T09:54:19.87Z</time></trkpt><trkpt lat="43.4926726" lon="10.568701"><ele>297.6666666666667</ele><time>2026-04-19T09:54:20.876Z</time></trkpt><trkpt lat="43.4927335" lon="10.5687703"><ele>298.0</ele><time>2026-04-19T09:54:21.87Z</time></trkpt><trkpt lat="43.4928038" lon="10.5688094"><ele>298.33333333333337</ele><time>2026-04-19T09:54:22.876Z</time></trkpt><trkpt lat="43.4928939" lon="10.5688531"><ele>298.6666666666667</ele><time>2026-04-19T09:54:23.866Z</time></trkpt><trkpt lat="43.4929902" lon="10.5688861"><ele>299.0</ele><time>2026-04-19T09:54:24.864Z</time></trkpt><trkpt lat="43.4930837" lon="10.5689112"><ele>299.0</ele><time>2026-04-19T09:54:25.874Z</time></trkpt><trkpt lat="43.4931586" lon="10.5689296"><ele>299.0</ele><time>2026-04-19T09:54:26.864Z</time></trkpt><trkpt lat="43.4932542" lon="10.5689357"><ele>299.0</ele><time>2026-04-19T09:54:28.879Z</time></trkpt><trkpt lat="43.4933135" lon="10.5689007"><ele>299.0</ele><time>2026-04-19T09:54:33.88Z</time></trkpt><trkpt lat="43.4933857" lon="10.5688244"><ele>299.0</ele><time>2026-04-19T09:55:04.89Z</time></trkpt><trkpt lat="43.4934023" lon="10.5689373"><ele>299.0</ele><time>2026-04-19T09:55:08.863Z</time></trkpt><trkpt lat="43.4933968" lon="10.5690338"><ele>299.0</ele><time>2026-04-19T09:55:09.868Z</time></trkpt><trkpt lat="43.4933557" lon="10.5691096"><ele>299.0</ele><time>2026-04-19T09:55:10.861Z</time></trkpt><trkpt lat="43.4932931" lon="10.5691827"><ele>299.0</ele><time>2026-04-19T09:55:11.871Z</time></trkpt><trkpt lat="43.4932061" lon="10.5692631"><ele>299.0</ele><time>2026-04-19T09:55:12.863Z</time></trkpt><trkpt lat="43.4931333" lon="10.5693146"><ele>299.0</ele><time>2026-04-19T09:55:13.877Z</time></trkpt><trkpt lat="43.492987" lon="10.5693459"><ele>300.0</ele><time>2026-04-19T09:55:15.872Z</time></trkpt><trkpt lat="43.4928825" lon="10.5693747"><ele>301.0</ele><time>2026-04-19T09:55:16.874Z</time></trkpt><trkpt lat="43.4927769" lon="10.569413"><ele>302.0</ele><time>2026-04-19T09:55:17.872Z</time></trkpt><trkpt lat="43.4926755" lon="10.5694518"><ele>303.0</ele><time>2026-04-19T09:55:18.872Z</time></trkpt><trkpt lat="43.4925884" lon="10.569504"><ele>304.0</ele><time>2026-04-19T09:55:19.875Z</time></trkpt><trkpt lat="43.4925118" lon="10.5695656"><ele>304.0</ele><time>2026-04-19T09:55:20.867Z</time></trkpt><trkpt lat="43.4924386" lon="10.5696776"><ele>304.0</ele><time>2026-04-19T09:55:21.865Z</time></trkpt><trkpt lat="43.4923712" lon="10.569804"><ele>304.0</ele><time>2026-04-19T09:55:22.865Z</time></trkpt><trkpt lat="43.492323" lon="10.5699278"><ele>304.0</ele><time>2026-04-19T09:55:23.883Z</time></trkpt><trkpt lat="43.4922885" lon="10.5700479"><ele>304.0</ele><time>2026-04-19T09:55:24.869Z</time></trkpt><trkpt lat="43.4922637" lon="10.5701887"><ele>304.0</ele><time>2026-04-19T09:55:25.875Z</time></trkpt><trkpt lat="43.4922428" lon="10.5703607"><ele>304.0</ele><time>2026-04-19T09:55:26.873Z</time></trkpt><trkpt lat="43.4922135" lon="10.5705334"><ele>304.0</ele><time>2026-04-19T09:55:27.869Z</time></trkpt><trkpt lat="43.4921828" lon="10.5706992"><ele>304.0</ele><time>2026-04-19T09:55:28.877Z</time></trkpt><trkpt lat="43.4921563" lon="10.570832"><ele>304.0</ele><time>2026-04-19T09:55:29.861Z</time></trkpt><trkpt lat="43.4921272" lon="10.5709856"><ele>304.0</ele><time>2026-04-19T09:55:30.87Z</time></trkpt><trkpt lat="43.4921234" lon="10.5711486"><ele>304.0</ele><time>2026-04-19T09:55:31.878Z</time></trkpt><trkpt lat="43.4921558" lon="10.5713167"><ele>304.0</ele><time>2026-04-19T09:55:32.865Z</time></trkpt><trkpt lat="43.4921735" lon="10.571465"><ele>306.2</ele><time>2026-04-19T09:55:33.859Z</time></trkpt><trkpt lat="43.4921962" lon="10.5715912"><ele>308.4</ele><time>2026-04-19T09:55:34.862Z</time></trkpt><trkpt lat="43.4922186" lon="10.571692"><ele>310.6</ele><time>2026-04-19T09:55:35.859Z</time></trkpt><trkpt lat="43.4922181" lon="10.5718156"><ele>312.8</ele><time>2026-04-19T09:55:36.873Z</time></trkpt><trkpt lat="43.4922156" lon="10.5719476"><ele>315.0</ele><time>2026-04-19T09:55:37.861Z</time></trkpt><trkpt lat="43.4922138" lon="10.5720889"><ele>317.0</ele><time>2026-04-19T09:55:38.873Z</time></trkpt><trkpt lat="43.4922063" lon="10.5722074"><ele>319.0</ele><time>2026-04-19T09:55:39.875Z</time></trkpt><trkpt lat="43.4921917" lon="10.572322"><ele>321.0</ele><time>2026-04-19T09:55:40.875Z</time></trkpt><trkpt lat="43.4921705" lon="10.5724262"><ele>323.0</ele><time>2026-04-19T09:55:41.874Z</time></trkpt><trkpt lat="43.4921008" lon="10.5725262"><ele>325.0</ele><time>2026-04-19T09:55:43.869Z</time></trkpt><trkpt lat="43.4920239" lon="10.572558"><ele>327.0</ele><time>2026-04-19T09:55:44.86Z</time></trkpt><trkpt lat="43.4919367" lon="10.5726176"><ele>328.20000000000005</ele><time>2026-04-19T09:55:45.878Z</time></trkpt><trkpt lat="43.4918505" lon="10.5726655"><ele>329.4</ele><time>2026-04-19T09:55:46.87Z</time></trkpt><trkpt lat="43.4917755" lon="10.5727175"><ele>330.6</ele><time>2026-04-19T09:55:47.87Z</time></trkpt><trkpt lat="43.4917279" lon="10.572794"><ele>331.79999999999995</ele><time>2026-04-19T09:55:48.879Z</time></trkpt><trkpt lat="43.4916897" lon="10.5728891"><ele>333.0</ele><time>2026-04-19T09:55:49.877Z</time></trkpt><trkpt lat="43.4916258" lon="10.5730315"><ele>333.75</ele><time>2026-04-19T09:55:50.886Z</time></trkpt><trkpt lat="43.4915453" lon="10.5731864"><ele>334.5</ele><time>2026-04-19T09:55:51.87Z</time></trkpt><trkpt lat="43.4914476" lon="10.5733284"><ele>335.25</ele><time>2026-04-19T09:55:52.875Z</time></trkpt><trkpt lat="43.49134" lon="10.5734655"><ele>336.0</ele><time>2026-04-19T09:55:53.876Z</time></trkpt><trkpt lat="43.4912296" lon="10.5736044"><ele>336.8</ele><time>2026-04-19T09:55:54.866Z</time></trkpt><trkpt lat="43.49113" lon="10.5737324"><ele>337.6</ele><time>2026-04-19T09:55:55.87Z</time></trkpt><trkpt lat="43.4910529" lon="10.5738318"><ele>338.4</ele><time>2026-04-19T09:55:56.864Z</time></trkpt><trkpt lat="43.4909826" lon="10.5739262"><ele>339.2</ele><time>2026-04-19T09:55:57.864Z</time></trkpt><trkpt lat="43.4909218" lon="10.5740141"><ele>340.0</ele><time>2026-04-19T09:55:58.872Z</time></trkpt><trkpt lat="43.490788" lon="10.5741382"><ele>340.0</ele><time>2026-04-19T09:56:00.871Z</time></trkpt><trkpt lat="43.4907061" lon="10.574211"><ele>340.0</ele><time>2026-04-19T09:56:01.865Z</time></trkpt><trkpt lat="43.4906385" lon="10.5742832"><ele>340.0</ele><time>2026-04-19T09:56:02.872Z</time></trkpt><trkpt lat="43.4905647" lon="10.5743468"><ele>340.0</ele><time>2026-04-19T09:56:03.875Z</time></trkpt><trkpt lat="43.4904846" lon="10.5744089"><ele>340.0</ele><time>2026-04-19T09:56:04.867Z</time></trkpt><trkpt lat="43.4904066" lon="10.5744874"><ele>338.3333333333333</ele><time>2026-04-19T09:56:05.872Z</time></trkpt><trkpt lat="43.4903446" lon="10.5745742"><ele>336.66666666666663</ele><time>2026-04-19T09:56:06.88Z</time></trkpt><trkpt lat="43.490292" lon="10.5746741"><ele>335.0</ele><time>2026-04-19T09:56:07.86Z</time></trkpt><trkpt lat="43.490242" lon="10.574783"><ele>333.3333333333333</ele><time>2026-04-19T09:56:08.873Z</time></trkpt><trkpt lat="43.4902034" lon="10.5748837"><ele>331.6666666666667</ele><time>2026-04-19T09:56:09.867Z</time></trkpt><trkpt lat="43.4901732" lon="10.5749835"><ele>330.0</ele><time>2026-04-19T09:56:10.869Z</time></trkpt><trkpt lat="43.4901543" lon="10.5751015"><ele>330.0</ele><time>2026-04-19T09:56:11.876Z</time></trkpt><trkpt lat="43.4901319" lon="10.5752378"><ele>330.0</ele><time>2026-04-19T09:56:12.863Z</time></trkpt><trkpt lat="43.4900939" lon="10.575366"><ele>330.0</ele><time>2026-04-19T09:56:13.874Z</time></trkpt><trkpt lat="43.4900487" lon="10.5754791"><ele>330.0</ele><time>2026-04-19T09:56:14.866Z</time></trkpt><trkpt lat="43.4900057" lon="10.575565"><ele>330.0</ele><time>2026-04-19T09:56:15.87Z</time></trkpt><trkpt lat="43.4899452" lon="10.5756361"><ele>329.1666666666667</ele><time>2026-04-19T09:56:16.882Z</time></trkpt><trkpt lat="43.4898801" lon="10.5757026"><ele>328.3333333333333</ele><time>2026-04-19T09:56:17.881Z</time></trkpt><trkpt lat="43.4898197" lon="10.5758198"><ele>327.5</ele><time>2026-04-19T09:56:18.875Z</time></trkpt><trkpt lat="43.4897606" lon="10.5759401"><ele>326.66666666666663</ele><time>2026-04-19T09:56:19.871Z</time></trkpt><trkpt lat="43.4897202" lon="10.5760337"><ele>325.8333333333333</ele><time>2026-04-19T09:56:20.877Z</time></trkpt><trkpt lat="43.4896832" lon="10.5761074"><ele>325.0</ele><time>2026-04-19T09:56:21.878Z</time></trkpt><trkpt lat="43.4896464" lon="10.5762074"><ele>325.5</ele><time>2026-04-19T09:56:24.877Z</time></trkpt><trkpt lat="43.4896465" lon="10.5763278"><ele>326.0</ele><time>2026-04-19T09:56:29.866Z</time></trkpt><trkpt lat="43.4896281" lon="10.5764998"><ele>326.5</ele><time>2026-04-19T09:56:31.882Z</time></trkpt><trkpt lat="43.4895978" lon="10.5765899"><ele>327.0</ele><time>2026-04-19T09:56:32.869Z</time></trkpt><trkpt lat="43.4895626" lon="10.5766627"><ele>327.5</ele><time>2026-04-19T09:56:33.863Z</time></trkpt><trkpt lat="43.4895243" lon="10.5767482"><ele>328.0</ele><time>2026-04-19T09:56:34.869Z</time></trkpt><trkpt lat="43.4895014" lon="10.5768441"><ele>328.59999999999997</ele><time>2026-04-19T09:56:35.863Z</time></trkpt><trkpt lat="43.4894421" lon="10.5770342"><ele>329.2</ele><time>2026-04-19T09:56:37.872Z</time></trkpt><trkpt lat="43.4894195" lon="10.5771179"><ele>329.8</ele><time>2026-04-19T09:56:38.87Z</time></trkpt><trkpt lat="43.489391" lon="10.5772395"><ele>330.4</ele><time>2026-04-19T09:56:39.878Z</time></trkpt><trkpt lat="43.489363" lon="10.5773185"><ele>331.0</ele><time>2026-04-19T09:56:40.88Z</time></trkpt><trkpt lat="43.489306" lon="10.5775531"><ele>331.0</ele><time>2026-04-19T09:56:43.873Z</time></trkpt><trkpt lat="43.4893008" lon="10.5776476"><ele>331.0</ele><time>2026-04-19T09:56:44.859Z</time></trkpt><trkpt lat="43.4892773" lon="10.5778654"><ele>331.0</ele><time>2026-04-19T09:56:47.875Z</time></trkpt><trkpt lat="43.4892692" lon="10.5779979"><ele>331.0</ele><time>2026-04-19T09:56:48.869Z</time></trkpt><trkpt lat="43.4892787" lon="10.5781145"><ele>331.0</ele><time>2026-04-19T09:56:49.878Z</time></trkpt><trkpt lat="43.4892794" lon="10.5782531"><ele>331.0</ele><time>2026-04-19T09:56:51.878Z</time></trkpt><trkpt lat="43.4893122" lon="10.5781694"><ele>331.0</ele><time>2026-04-19T09:56:56.884Z</time></trkpt><trkpt lat="43.4893501" lon="10.5780778"><ele>331.0</ele><time>2026-04-19T09:56:57.882Z</time></trkpt><trkpt lat="43.4893884" lon="10.578"><ele>331.0</ele><time>2026-04-19T09:56:58.872Z</time></trkpt><trkpt lat="43.4894141" lon="10.5779189"><ele>331.0</ele><time>2026-04-19T09:56:59.864Z</time></trkpt><trkpt lat="43.4894405" lon="10.5777951"><ele>331.0</ele><time>2026-04-19T09:57:01.866Z</time></trkpt><trkpt lat="43.4892949" lon="10.5780394"><ele>328.8571428571429</ele><time>2026-04-19T09:57:09.879Z</time></trkpt><trkpt lat="43.4892619" lon="10.5781342"><ele>326.7142857142857</ele><time>2026-04-19T09:57:10.869Z</time></trkpt><trkpt lat="43.489228" lon="10.5782299"><ele>324.57142857142856</ele><time>2026-04-19T09:57:11.869Z</time></trkpt><trkpt lat="43.4891864" lon="10.5783237"><ele>322.42857142857144</ele><time>2026-04-19T09:57:12.886Z</time></trkpt><trkpt lat="43.4891485" lon="10.5784147"><ele>320.2857142857143</ele><time>2026-04-19T09:57:13.879Z</time></trkpt><trkpt lat="43.4891217" lon="10.5785058"><ele>318.14285714285717</ele><time>2026-04-19T09:57:14.883Z</time></trkpt><trkpt lat="43.4890827" lon="10.5785829"><ele>316.0</ele><time>2026-04-19T09:57:15.879Z</time></trkpt><trkpt lat="43.4890552" lon="10.5786891"><ele>314.5</ele><time>2026-04-19T09:57:18.875Z</time></trkpt><trkpt lat="43.4891617" lon="10.5787667"><ele>313.0</ele><time>2026-04-19T09:57:21.86Z</time></trkpt><trkpt lat="43.489142" lon="10.5788526"><ele>311.5</ele><time>2026-04-19T09:57:22.867Z</time></trkpt><trkpt lat="43.4891132" lon="10.5789429"><ele>310.0</ele><time>2026-04-19T09:57:23.86Z</time></trkpt><trkpt lat="43.4890282" lon="10.5790319"><ele>308.5</ele><time>2026-04-19T09:57:25.872Z</time></trkpt><trkpt lat="43.488994" lon="10.5791339"><ele>307.0</ele><time>2026-04-19T09:57:27.871Z</time></trkpt><trkpt lat="43.4890015" lon="10.5792418"><ele>307.0</ele><time>2026-04-19T09:57:30.871Z</time></trkpt><trkpt lat="43.4890764" lon="10.5792459"><ele>307.0</ele><time>2026-04-19T09:57:32.857Z</time></trkpt><trkpt lat="43.4891726" lon="10.5793008"><ele>307.0</ele><time>2026-04-19T09:57:34.873Z</time></trkpt><trkpt lat="43.4892294" lon="10.5793617"><ele>307.0</ele><time>2026-04-19T09:57:36.865Z</time></trkpt><trkpt lat="43.4893122" lon="10.5793848"><ele>307.0</ele><time>2026-04-19T09:57:39.873Z</time></trkpt><trkpt lat="43.4893909" lon="10.5794524"><ele>307.0</ele><time>2026-04-19T09:57:41.877Z</time></trkpt><trkpt lat="43.489474" lon="10.5795498"><ele>307.5</ele><time>2026-04-19T09:57:43.868Z</time></trkpt><trkpt lat="43.4895193" lon="10.5796327"><ele>308.0</ele><time>2026-04-19T09:57:44.872Z</time></trkpt><trkpt lat="43.4895378" lon="10.5797232"><ele>308.5</ele><time>2026-04-19T09:57:45.873Z</time></trkpt><trkpt lat="43.4895718" lon="10.5798112"><ele>309.0</ele><time>2026-04-19T09:57:46.867Z</time></trkpt><trkpt lat="43.4896142" lon="10.5799209"><ele>309.5</ele><time>2026-04-19T09:57:47.862Z</time></trkpt><trkpt lat="43.4896461" lon="10.5800413"><ele>310.0</ele><time>2026-04-19T09:57:48.869Z</time></trkpt><trkpt lat="43.4896453" lon="10.580136"><ele>310.0</ele><time>2026-04-19T09:57:49.866Z</time></trkpt><trkpt lat="43.4896294" lon="10.5802277"><ele>310.0</ele><time>2026-04-19T09:57:50.871Z</time></trkpt><trkpt lat="43.4896085" lon="10.5803267"><ele>310.0</ele><time>2026-04-19T09:57:51.876Z</time></trkpt><trkpt lat="43.4895853" lon="10.5804455"><ele>310.0</ele><time>2026-04-19T09:57:52.872Z</time></trkpt><trkpt lat="43.4895755" lon="10.5805361"><ele>310.0</ele><time>2026-04-19T09:57:53.874Z</time></trkpt><trkpt lat="43.4895473" lon="10.580646"><ele>310.0</ele><time>2026-04-19T09:57:55.866Z</time></trkpt><trkpt lat="43.4895547" lon="10.5807879"><ele>312.6</ele><time>2026-04-19T09:57:57.86Z</time></trkpt><trkpt lat="43.4895902" lon="10.5808722"><ele>315.2</ele><time>2026-04-19T09:57:59.87Z</time></trkpt><trkpt lat="43.4897284" lon="10.5808986"><ele>317.79999999999995</ele><time>2026-04-19T09:58:04.869Z</time></trkpt><trkpt lat="43.489797" lon="10.5809257"><ele>320.4</ele><time>2026-04-19T09:58:05.866Z</time></trkpt><trkpt lat="43.489876" lon="10.5810149"><ele>323.0</ele><time>2026-04-19T09:58:07.87Z</time></trkpt><trkpt lat="43.4899447" lon="10.5810701"><ele>323.0</ele><time>2026-04-19T09:58:09.876Z</time></trkpt><trkpt lat="43.4900559" lon="10.5811556"><ele>323.0</ele><time>2026-04-19T09:58:11.866Z</time></trkpt><trkpt lat="43.4901695" lon="10.5812593"><ele>323.0</ele><time>2026-04-19T09:58:13.872Z</time></trkpt><trkpt lat="43.4902425" lon="10.5813199"><ele>323.0</ele><time>2026-04-19T09:58:14.875Z</time></trkpt><trkpt lat="43.490304" lon="10.5813753"><ele>323.0</ele><time>2026-04-19T09:58:15.872Z</time></trkpt><trkpt lat="43.4903685" lon="10.5814168"><ele>323.79999999999995</ele><time>2026-04-19T09:58:16.861Z</time></trkpt><trkpt lat="43.4904369" lon="10.5814574"><ele>324.6</ele><time>2026-04-19T09:58:17.872Z</time></trkpt><trkpt lat="43.4905378" lon="10.5815137"><ele>325.4</ele><time>2026-04-19T09:58:19.877Z</time></trkpt><trkpt lat="43.4906138" lon="10.5815713"><ele>326.20000000000005</ele><time>2026-04-19T09:58:21.868Z</time></trkpt><trkpt lat="43.4906762" lon="10.581617"><ele>327.0</ele><time>2026-04-19T09:58:22.872Z</time></trkpt><trkpt lat="43.4907717" lon="10.5817108"><ele>327.0</ele><time>2026-04-19T09:58:24.874Z</time></trkpt><trkpt lat="43.4908517" lon="10.5817657"><ele>327.0</ele><time>2026-04-19T09:58:25.87Z</time></trkpt><trkpt lat="43.4909191" lon="10.5818009"><ele>327.0</ele><time>2026-04-19T09:58:26.869Z</time></trkpt><trkpt lat="43.4909838" lon="10.5818667"><ele>327.0</ele><time>2026-04-19T09:58:31.871Z</time></trkpt><trkpt lat="43.4910143" lon="10.5819586"><ele>327.0</ele><time>2026-04-19T09:58:35.877Z</time></trkpt><trkpt lat="43.4910897" lon="10.5820365"><ele>327.0</ele><time>2026-04-19T09:58:38.87Z</time></trkpt><trkpt lat="43.4911338" lon="10.5821168"><ele>327.40000000000003</ele><time>2026-04-19T09:58:40.876Z</time></trkpt><trkpt lat="43.4912211" lon="10.5822002"><ele>327.8</ele><time>2026-04-19T09:58:42.867Z</time></trkpt><trkpt lat="43.4912664" lon="10.5822706"><ele>328.2</ele><time>2026-04-19T09:58:43.868Z</time></trkpt><trkpt lat="43.4913438" lon="10.5824711"><ele>328.6</ele><time>2026-04-19T09:58:46.87Z</time></trkpt><trkpt lat="43.4913937" lon="10.5825533"><ele>329.0</ele><time>2026-04-19T09:58:47.872Z</time></trkpt><trkpt lat="43.4914796" lon="10.5826421"><ele>331.79999999999995</ele><time>2026-04-19T09:58:48.869Z</time></trkpt><trkpt lat="43.4915699" lon="10.5827675"><ele>334.59999999999997</ele><time>2026-04-19T09:58:50.864Z</time></trkpt><trkpt lat="43.4916211" lon="10.582837"><ele>337.4</ele><time>2026-04-19T09:58:51.873Z</time></trkpt><trkpt lat="43.4916413" lon="10.5829395"><ele>340.2</ele><time>2026-04-19T09:58:52.881Z</time></trkpt><trkpt lat="43.4916605" lon="10.5830506"><ele>343.0</ele><time>2026-04-19T09:58:53.864Z</time></trkpt><trkpt lat="43.4916719" lon="10.5832208"><ele>343.0</ele><time>2026-04-19T09:58:54.862Z</time></trkpt><trkpt lat="43.4916802" lon="10.5833675"><ele>343.0</ele><time>2026-04-19T09:58:55.866Z</time></trkpt><trkpt lat="43.4916938" lon="10.5834811"><ele>343.0</ele><time>2026-04-19T09:58:56.868Z</time></trkpt><trkpt lat="43.4917149" lon="10.583593"><ele>343.0</ele><time>2026-04-19T09:58:57.866Z</time></trkpt><trkpt lat="43.4917321" lon="10.5836776"><ele>343.0</ele><time>2026-04-19T09:58:58.874Z</time></trkpt><trkpt lat="43.4917828" lon="10.5837991"><ele>343.0</ele><time>2026-04-19T09:59:00.878Z</time></trkpt><trkpt lat="43.4917876" lon="10.5839061"><ele>343.59999999999997</ele><time>2026-04-19T09:59:01.868Z</time></trkpt><trkpt lat="43.4917678" lon="10.5840635"><ele>344.2</ele><time>2026-04-19T09:59:03.864Z</time></trkpt><trkpt lat="43.4917596" lon="10.5841584"><ele>344.8</ele><time>2026-04-19T09:59:04.874Z</time></trkpt><trkpt lat="43.4917459" lon="10.5843447"><ele>345.4</ele><time>2026-04-19T09:59:06.876Z</time></trkpt><trkpt lat="43.4917256" lon="10.5844615"><ele>346.0</ele><time>2026-04-19T09:59:08.867Z</time></trkpt><trkpt lat="43.491716" lon="10.5845628"><ele>346.3333333333333</ele><time>2026-04-19T09:59:09.862Z</time></trkpt><trkpt lat="43.4917175" lon="10.5846629"><ele>346.66666666666663</ele><time>2026-04-19T09:59:10.858Z</time></trkpt><trkpt lat="43.4917064" lon="10.5847743"><ele>347.0</ele><time>2026-04-19T09:59:11.865Z</time></trkpt><trkpt lat="43.4917138" lon="10.5848774"><ele>347.3333333333333</ele><time>2026-04-19T09:59:12.869Z</time></trkpt><trkpt lat="43.4917191" lon="10.584998"><ele>347.6666666666667</ele><time>2026-04-19T09:59:13.875Z</time></trkpt><trkpt lat="43.491701" lon="10.5851566"><ele>348.0</ele><time>2026-04-19T09:59:15.866Z</time></trkpt><trkpt lat="43.4916603" lon="10.585315"><ele>349.3333333333333</ele><time>2026-04-19T09:59:17.874Z</time></trkpt><trkpt lat="43.4916427" lon="10.5854212"><ele>350.6666666666667</ele><time>2026-04-19T09:59:18.875Z</time></trkpt><trkpt lat="43.4916129" lon="10.5855019"><ele>352.0</ele><time>2026-04-19T09:59:19.871Z</time></trkpt><trkpt lat="43.4915679" lon="10.5856309"><ele>353.33333333333337</ele><time>2026-04-19T09:59:21.864Z</time></trkpt><trkpt lat="43.491526" lon="10.585711"><ele>354.6666666666667</ele><time>2026-04-19T09:59:24.867Z</time></trkpt><trkpt lat="43.4914597" lon="10.585824"><ele>356.0</ele><time>2026-04-19T09:59:26.862Z</time></trkpt><trkpt lat="43.4913897" lon="10.5859462"><ele>355.99999999999994</ele><time>2026-04-19T09:59:28.873Z</time></trkpt><trkpt lat="43.4914022" lon="10.5860419"><ele>356.0</ele><time>2026-04-19T09:59:29.863Z</time></trkpt><trkpt lat="43.4914006" lon="10.5861385"><ele>356.0</ele><time>2026-04-19T09:59:30.866Z</time></trkpt><trkpt lat="43.4913776" lon="10.58625"><ele>356.0</ele><time>2026-04-19T09:59:31.87Z</time></trkpt><trkpt lat="43.4913501" lon="10.5863317"><ele>356.0</ele><time>2026-04-19T09:59:32.87Z</time></trkpt><trkpt lat="43.4913253" lon="10.5864291"><ele>355.99999999999994</ele><time>2026-04-19T09:59:33.87Z</time></trkpt><trkpt lat="43.4913085" lon="10.5865235"><ele>356.0</ele><time>2026-04-19T09:59:34.879Z</time></trkpt><trkpt lat="43.491287" lon="10.586666"><ele>357.83333333333337</ele><time>2026-04-19T09:59:36.866Z</time></trkpt><trkpt lat="43.4912561" lon="10.5867768"><ele>359.6666666666667</ele><time>2026-04-19T09:59:38.869Z</time></trkpt><trkpt lat="43.4912242" lon="10.5868737"><ele>361.5</ele><time>2026-04-19T09:59:40.862Z</time></trkpt><trkpt lat="43.4911966" lon="10.5870125"><ele>363.3333333333333</ele><time>2026-04-19T09:59:42.87Z</time></trkpt><trkpt lat="43.491182" lon="10.5871116"><ele>365.16666666666663</ele><time>2026-04-19T09:59:43.867Z</time></trkpt><trkpt lat="43.4911628" lon="10.5872452"><ele>367.0</ele><time>2026-04-19T09:59:45.87Z</time></trkpt><trkpt lat="43.4911196" lon="10.5873629"><ele>368.8</ele><time>2026-04-19T09:59:47.872Z</time></trkpt><trkpt lat="43.4910929" lon="10.5874972"><ele>370.6</ele><time>2026-04-19T09:59:51.863Z</time></trkpt><trkpt lat="43.4910825" lon="10.5876091"><ele>372.40000000000003</ele><time>2026-04-19T09:59:52.87Z</time></trkpt><trkpt lat="43.491061" lon="10.5877403"><ele>374.20000000000005</ele><time>2026-04-19T09:59:53.875Z</time></trkpt><trkpt lat="43.4910359" lon="10.5878767"><ele>376.0</ele><time>2026-04-19T09:59:54.874Z</time></trkpt><trkpt lat="43.4910086" lon="10.5880025"><ele>377.3333333333333</ele><time>2026-04-19T09:59:55.868Z</time></trkpt><trkpt lat="43.4909857" lon="10.588102"><ele>378.66666666666663</ele><time>2026-04-19T09:59:56.877Z</time></trkpt><trkpt lat="43.4909572" lon="10.5881922"><ele>380.0</ele><time>2026-04-19T09:59:57.873Z</time></trkpt><trkpt lat="43.4909052" lon="10.5883432"><ele>381.3333333333333</ele><time>2026-04-19T09:59:59.871Z</time></trkpt><trkpt lat="43.4909079" lon="10.5884384"><ele>382.6666666666667</ele><time>2026-04-19T10:00:00.874Z</time></trkpt><trkpt lat="43.4908917" lon="10.5885406"><ele>384.0</ele><time>2026-04-19T10:00:01.864Z</time></trkpt><trkpt lat="43.490893" lon="10.588678"><ele>384.0</ele><time>2026-04-19T10:00:07.867Z</time></trkpt><trkpt lat="43.4909543" lon="10.5886511"><ele>384.0</ele><time>2026-04-19T10:00:09.867Z</time></trkpt><trkpt lat="43.4910276" lon="10.5886288"><ele>384.0</ele><time>2026-04-19T10:00:11.867Z</time></trkpt><trkpt lat="43.4911296" lon="10.5885949"><ele>384.0</ele><time>2026-04-19T10:00:13.877Z</time></trkpt><trkpt lat="43.4912242" lon="10.5886101"><ele>384.0</ele><time>2026-04-19T10:00:15.862Z</time></trkpt><trkpt lat="43.4912876" lon="10.5885954"><ele>384.0</ele><time>2026-04-19T10:00:16.871Z</time></trkpt><trkpt lat="43.4913504" lon="10.5885635"><ele>387.0</ele><time>2026-04-19T10:00:17.871Z</time></trkpt><trkpt lat="43.4914561" lon="10.5885029"><ele>390.0</ele><time>2026-04-19T10:00:19.873Z</time></trkpt><trkpt lat="43.4915265" lon="10.5885958"><ele>393.0</ele><time>2026-04-19T10:00:22.875Z</time></trkpt><trkpt lat="43.491569" lon="10.5886668"><ele>396.0</ele><time>2026-04-19T10:00:25.876Z</time></trkpt><trkpt lat="43.4915998" lon="10.5887812"><ele>399.0</ele><time>2026-04-19T10:00:29.866Z</time></trkpt><trkpt lat="43.491612" lon="10.5888696"><ele>402.0</ele><time>2026-04-19T10:00:31.871Z</time></trkpt><trkpt lat="43.4916405" lon="10.5889828"><ele>404.0</ele><time>2026-04-19T10:00:35.883Z</time></trkpt><trkpt lat="43.4916406" lon="10.5890839"><ele>406.0</ele><time>2026-04-19T10:00:37.875Z</time></trkpt><trkpt lat="43.4916591" lon="10.5891984"><ele>408.0</ele><time>2026-04-19T10:00:40.866Z</time></trkpt><trkpt lat="43.4916956" lon="10.5893207"><ele>410.0</ele><time>2026-04-19T10:00:43.875Z</time></trkpt><trkpt lat="43.491707" lon="10.5894317"><ele>412.0</ele><time>2026-04-19T10:00:45.874Z</time></trkpt><trkpt lat="43.4917198" lon="10.5895548"><ele>414.0</ele><time>2026-04-19T10:00:47.881Z</time></trkpt><trkpt lat="43.4917474" lon="10.5896591"><ele>416.4</ele><time>2026-04-19T10:00:49.874Z</time></trkpt><trkpt lat="43.4917721" lon="10.5897851"><ele>418.79999999999995</ele><time>2026-04-19T10:00:51.876Z</time></trkpt><trkpt lat="43.4918103" lon="10.5899062"><ele>421.20000000000005</ele><time>2026-04-19T10:00:53.865Z</time></trkpt><trkpt lat="43.4918386" lon="10.5900083"><ele>423.6</ele><time>2026-04-19T10:00:55.865Z</time></trkpt><trkpt lat="43.4918733" lon="10.5901575"><ele>426.0</ele><time>2026-04-19T10:00:57.877Z</time></trkpt><trkpt lat="43.4918865" lon="10.5902705"><ele>427.0</ele><time>2026-04-19T10:00:58.877Z</time></trkpt><trkpt lat="43.4918998" lon="10.590366"><ele>428.0</ele><time>2026-04-19T10:00:59.888Z</time></trkpt><trkpt lat="43.4919133" lon="10.5904837"><ele>429.0</ele><time>2026-04-19T10:01:01.873Z</time></trkpt><trkpt lat="43.4919541" lon="10.5906326"><ele>430.0</ele><time>2026-04-19T10:06:12.878Z</time></trkpt><trkpt lat="43.4919852" lon="10.5907472"><ele>431.0</ele><time>2026-04-19T10:06:15.87Z</time></trkpt><trkpt lat="43.492011" lon="10.5908342"><ele>432.0</ele><time>2026-04-19T10:06:16.881Z</time></trkpt><trkpt lat="43.4920338" lon="10.5909232"><ele>432.0</ele><time>2026-04-19T10:06:17.876Z</time></trkpt><trkpt lat="43.4920585" lon="10.5910068"><ele>432.0</ele><time>2026-04-19T10:06:18.891Z</time></trkpt><trkpt lat="43.4920822" lon="10.5910906"><ele>432.0</ele><time>2026-04-19T10:06:19.866Z</time></trkpt><trkpt lat="43.4921045" lon="10.5911916"><ele>432.0</ele><time>2026-04-19T10:06:20.882Z</time></trkpt><trkpt lat="43.4921315" lon="10.591287"><ele>432.0</ele><time>2026-04-19T10:06:21.874Z</time></trkpt><trkpt lat="43.4921874" lon="10.5913992"><ele>432.0</ele><time>2026-04-19T10:06:23.876Z</time></trkpt><trkpt lat="43.4922597" lon="10.591471"><ele>432.0</ele><time>2026-04-19T10:06:25.878Z</time></trkpt><trkpt lat="43.4923218" lon="10.5915241"><ele>432.0</ele><time>2026-04-19T10:06:27.873Z</time></trkpt><trkpt lat="43.4924199" lon="10.5916216"><ele>432.0</ele><time>2026-04-19T10:06:29.867Z</time></trkpt><trkpt lat="43.4924778" lon="10.59167"><ele>432.0</ele><time>2026-04-19T10:06:30.865Z</time></trkpt><trkpt lat="43.4925365" lon="10.5917423"><ele>432.0</ele><time>2026-04-19T10:06:32.868Z</time></trkpt><trkpt lat="43.4925843" lon="10.5918032"><ele>432.0</ele><time>2026-04-19T10:06:34.861Z</time></trkpt><trkpt lat="43.492629" lon="10.5919037"><ele>432.0</ele><time>2026-04-19T10:06:36.9Z</time></trkpt><trkpt lat="43.4926906" lon="10.5920057"><ele>432.0</ele><time>2026-04-19T10:06:41.869Z</time></trkpt><trkpt lat="43.4927431" lon="10.592058"><ele>432.0</ele><time>2026-04-19T10:06:44.868Z</time></trkpt><trkpt lat="43.4927904" lon="10.5921419"><ele>432.0</ele><time>2026-04-19T10:06:47.865Z</time></trkpt><trkpt lat="43.4945396" lon="10.5913918"><ele>432.0</ele><time>2026-04-19T10:07:30.837Z</time></trkpt><trkpt lat="43.4946502" lon="10.5912483"><ele>432.0</ele><time>2026-04-19T10:07:34.857Z</time></trkpt><trkpt lat="43.4947725" lon="10.5912179"><ele>432.0</ele><time>2026-04-19T10:07:35.856Z</time></trkpt><trkpt lat="43.4949031" lon="10.591162"><ele>432.0</ele><time>2026-04-19T10:07:37.86Z</time></trkpt><trkpt lat="43.49498" lon="10.591084"><ele>429.0</ele><time>2026-04-19T10:07:58.854Z</time></trkpt><trkpt lat="43.4950482" lon="10.5909923"><ele>426.00000000000006</ele><time>2026-04-19T10:08:01.854Z</time></trkpt><trkpt lat="43.4951039" lon="10.5909229"><ele>423.0</ele><time>2026-04-19T10:08:03.855Z</time></trkpt><trkpt lat="43.4951733" lon="10.590894"><ele>420.0</ele><time>2026-04-19T10:08:04.854Z</time></trkpt><trkpt lat="43.4952496" lon="10.5907695"><ele>417.0</ele><time>2026-04-19T10:08:05.849Z</time></trkpt><trkpt lat="43.4953414" lon="10.590583"><ele>417.25</ele><time>2026-04-19T10:08:06.859Z</time></trkpt><trkpt lat="43.4954278" lon="10.5905006"><ele>417.5</ele><time>2026-04-19T10:08:07.853Z</time></trkpt><trkpt lat="43.4955362" lon="10.5904388"><ele>417.75</ele><time>2026-04-19T10:08:08.845Z</time></trkpt><trkpt lat="43.4956486" lon="10.5903781"><ele>418.0</ele><time>2026-04-19T10:08:09.848Z</time></trkpt><trkpt lat="43.4958179" lon="10.5902669"><ele>418.59999999999997</ele><time>2026-04-19T10:08:10.867Z</time></trkpt><trkpt lat="43.4959221" lon="10.5901742"><ele>419.2</ele><time>2026-04-19T10:08:11.869Z</time></trkpt><trkpt lat="43.4960066" lon="10.5900966"><ele>419.8</ele><time>2026-04-19T10:08:12.867Z</time></trkpt><trkpt lat="43.496118" lon="10.5900024"><ele>420.4</ele><time>2026-04-19T10:08:13.875Z</time></trkpt><trkpt lat="43.4961991" lon="10.589953"><ele>421.0</ele><time>2026-04-19T10:08:14.874Z</time></trkpt><trkpt lat="43.4963039" lon="10.589835"><ele>418.50000000000006</ele><time>2026-04-19T10:08:16.876Z</time></trkpt><trkpt lat="43.4963528" lon="10.5897777"><ele>416.0</ele><time>2026-04-19T10:08:17.882Z</time></trkpt><trkpt lat="43.4963979" lon="10.5897157"><ele>413.5</ele><time>2026-04-19T10:08:18.88Z</time></trkpt><trkpt lat="43.4964446" lon="10.5896501"><ele>411.0</ele><time>2026-04-19T10:08:19.873Z</time></trkpt><trkpt lat="43.4965149" lon="10.5895249"><ele>408.50000000000006</ele><time>2026-04-19T10:08:21.876Z</time></trkpt><trkpt lat="43.4965305" lon="10.5893946"><ele>406.0</ele><time>2026-04-19T10:08:23.881Z</time></trkpt><trkpt lat="43.4965422" lon="10.5892431"><ele>406.00000000000006</ele><time>2026-04-19T10:08:25.875Z</time></trkpt><trkpt lat="43.4965309" lon="10.5891414"><ele>406.0</ele><time>2026-04-19T10:08:27.873Z</time></trkpt><trkpt lat="43.4965386" lon="10.5890228"><ele>406.0</ele><time>2026-04-19T10:08:30.879Z</time></trkpt><trkpt lat="43.4965495" lon="10.58891"><ele>406.0</ele><time>2026-04-19T10:08:32.877Z</time></trkpt><trkpt lat="43.4965244" lon="10.5888218"><ele>406.00000000000006</ele><time>2026-04-19T10:08:34.876Z</time></trkpt><trkpt lat="43.4964731" lon="10.5887224"><ele>406.0</ele><time>2026-04-19T10:08:36.876Z</time></trkpt><trkpt lat="43.4963874" lon="10.5886652"><ele>404.83333333333337</ele><time>2026-04-19T10:08:38.872Z</time></trkpt><trkpt lat="43.4963583" lon="10.5885882"><ele>403.6666666666667</ele><time>2026-04-19T10:08:41.869Z</time></trkpt><trkpt lat="43.4963121" lon="10.5884508"><ele>402.5</ele><time>2026-04-19T10:08:43.862Z</time></trkpt><trkpt lat="43.4962847" lon="10.5883192"><ele>401.33333333333337</ele><time>2026-04-19T10:08:45.878Z</time></trkpt><trkpt lat="43.4963003" lon="10.5882243"><ele>400.1666666666667</ele><time>2026-04-19T10:08:47.875Z</time></trkpt><trkpt lat="43.4963477" lon="10.5881298"><ele>399.0</ele><time>2026-04-19T10:08:50.879Z</time></trkpt><trkpt lat="43.4963271" lon="10.5880195"><ele>399.0</ele><time>2026-04-19T10:08:52.858Z</time></trkpt><trkpt lat="43.4963336" lon="10.5879089"><ele>399.0</ele><time>2026-04-19T10:08:54.872Z</time></trkpt><trkpt lat="43.4963318" lon="10.587795"><ele>399.0</ele><time>2026-04-19T10:08:56.883Z</time></trkpt><trkpt lat="43.496353" lon="10.5876915"><ele>399.0</ele><time>2026-04-19T10:08:58.877Z</time></trkpt><trkpt lat="43.4963447" lon="10.5875966"><ele>399.0</ele><time>2026-04-19T10:09:00.877Z</time></trkpt><trkpt lat="43.4963585" lon="10.5875116"><ele>399.0</ele><time>2026-04-19T10:09:02.876Z</time></trkpt><trkpt lat="43.4963708" lon="10.5873912"><ele>397.6</ele><time>2026-04-19T10:09:03.878Z</time></trkpt><trkpt lat="43.4963754" lon="10.5872168"><ele>396.2</ele><time>2026-04-19T10:09:05.887Z</time></trkpt><trkpt lat="43.4963763" lon="10.5870889"><ele>394.8</ele><time>2026-04-19T10:09:06.866Z</time></trkpt><trkpt lat="43.4963662" lon="10.586932"><ele>393.40000000000003</ele><time>2026-04-19T10:09:07.889Z</time></trkpt><trkpt lat="43.4963722" lon="10.5867828"><ele>392.0</ele><time>2026-04-19T10:09:08.877Z</time></trkpt><trkpt lat="43.496397" lon="10.5866511"><ele>390.66666666666663</ele><time>2026-04-19T10:09:09.879Z</time></trkpt><trkpt lat="43.4964152" lon="10.5865174"><ele>389.3333333333333</ele><time>2026-04-19T10:09:10.876Z</time></trkpt><trkpt lat="43.4964298" lon="10.5864096"><ele>388.0</ele><time>2026-04-19T10:09:11.884Z</time></trkpt><trkpt lat="43.4964362" lon="10.5863015"><ele>386.66666666666663</ele><time>2026-04-19T10:09:12.886Z</time></trkpt><trkpt lat="43.4964221" lon="10.5862063"><ele>385.3333333333333</ele><time>2026-04-19T10:09:13.885Z</time></trkpt><trkpt lat="43.4964012" lon="10.5861072"><ele>384.0</ele><time>2026-04-19T10:09:14.873Z</time></trkpt><trkpt lat="43.4963645" lon="10.5859728"><ele>383.5</ele><time>2026-04-19T10:09:15.876Z</time></trkpt><trkpt lat="43.4963361" lon="10.5858392"><ele>383.0</ele><time>2026-04-19T10:09:16.872Z</time></trkpt><trkpt lat="43.4963303" lon="10.5857306"><ele>382.5</ele><time>2026-04-19T10:09:17.884Z</time></trkpt><trkpt lat="43.4963329" lon="10.5856224"><ele>382.0</ele><time>2026-04-19T10:09:18.873Z</time></trkpt><trkpt lat="43.4963402" lon="10.5855143"><ele>381.5</ele><time>2026-04-19T10:09:19.873Z</time></trkpt><trkpt lat="43.4963393" lon="10.5854201"><ele>381.0</ele><time>2026-04-19T10:09:20.878Z</time></trkpt><trkpt lat="43.4963404" lon="10.5853174"><ele>380.1666666666667</ele><time>2026-04-19T10:09:21.871Z</time></trkpt><trkpt lat="43.496332" lon="10.5852127"><ele>379.3333333333333</ele><time>2026-04-19T10:09:22.864Z</time></trkpt><trkpt lat="43.4963106" lon="10.5851012"><ele>378.5</ele><time>2026-04-19T10:09:23.883Z</time></trkpt><trkpt lat="43.4963103" lon="10.5850008"><ele>377.66666666666663</ele><time>2026-04-19T10:09:24.889Z</time></trkpt><trkpt lat="43.49633" lon="10.5849079"><ele>376.8333333333333</ele><time>2026-04-19T10:09:25.869Z</time></trkpt><trkpt lat="43.4963506" lon="10.5847999"><ele>376.0</ele><time>2026-04-19T10:09:26.885Z</time></trkpt><trkpt lat="43.4963679" lon="10.5847086"><ele>376.0</ele><time>2026-04-19T10:09:27.878Z</time></trkpt><trkpt lat="43.4963907" lon="10.584555"><ele>376.0</ele><time>2026-04-19T10:09:29.887Z</time></trkpt><trkpt lat="43.4964239" lon="10.5844337"><ele>376.0</ele><time>2026-04-19T10:09:31.883Z</time></trkpt><trkpt lat="43.4965085" lon="10.5843132"><ele>376.0</ele><time>2026-04-19T10:09:33.88Z</time></trkpt><trkpt lat="43.4965523" lon="10.5842198"><ele>376.0</ele><time>2026-04-19T10:09:34.885Z</time></trkpt><trkpt lat="43.4966134" lon="10.5841276"><ele>374.20000000000005</ele><time>2026-04-19T10:09:35.874Z</time></trkpt><trkpt lat="43.4966702" lon="10.5840297"><ele>372.40000000000003</ele><time>2026-04-19T10:09:36.877Z</time></trkpt><trkpt lat="43.4967328" lon="10.5839148"><ele>370.6</ele><time>2026-04-19T10:09:37.877Z</time></trkpt><trkpt lat="43.4967942" lon="10.5838236"><ele>368.8</ele><time>2026-04-19T10:09:38.877Z</time></trkpt><trkpt lat="43.496854" lon="10.5836821"><ele>367.0</ele><time>2026-04-19T10:09:39.877Z</time></trkpt><trkpt lat="43.4969102" lon="10.5834101"><ele>365.75</ele><time>2026-04-19T10:09:41.886Z</time></trkpt><trkpt lat="43.4969619" lon="10.5832259"><ele>364.5</ele><time>2026-04-19T10:09:43.878Z</time></trkpt><trkpt lat="43.4969831" lon="10.5831146"><ele>363.25</ele><time>2026-04-19T10:09:44.871Z</time></trkpt><trkpt lat="43.4970158" lon="10.5829938"><ele>362.0</ele><time>2026-04-19T10:09:45.877Z</time></trkpt><trkpt lat="43.4971211" lon="10.5825871"><ele>362.0</ele><time>2026-04-19T10:09:48.874Z</time></trkpt><trkpt lat="43.4971656" lon="10.5824386"><ele>362.0</ele><time>2026-04-19T10:09:49.88Z</time></trkpt><trkpt lat="43.4972487" lon="10.5822691"><ele>362.0</ele><time>2026-04-19T10:09:50.884Z</time></trkpt><trkpt lat="43.497292" lon="10.5821007"><ele>362.0</ele><time>2026-04-19T10:09:51.879Z</time></trkpt><trkpt lat="43.4973354" lon="10.5819703"><ele>360.75</ele><time>2026-04-19T10:09:52.884Z</time></trkpt><trkpt lat="43.4973762" lon="10.5818452"><ele>359.5</ele><time>2026-04-19T10:09:53.878Z</time></trkpt><trkpt lat="43.4974216" lon="10.5816561"><ele>358.25</ele><time>2026-04-19T10:09:54.878Z</time></trkpt><trkpt lat="43.4974788" lon="10.5814924"><ele>357.0</ele><time>2026-04-19T10:09:55.88Z</time></trkpt><trkpt lat="43.4975094" lon="10.5813534"><ele>357.0</ele><time>2026-04-19T10:09:56.879Z</time></trkpt><trkpt lat="43.4975285" lon="10.5812569"><ele>357.0</ele><time>2026-04-19T10:09:57.879Z</time></trkpt><trkpt lat="43.4975774" lon="10.581157"><ele>357.0</ele><time>2026-04-19T10:09:59.882Z</time></trkpt><trkpt lat="43.4976557" lon="10.5810215"><ele>357.0</ele><time>2026-04-19T10:10:12.876Z</time></trkpt><trkpt lat="43.4976893" lon="10.5808984"><ele>357.0</ele><time>2026-04-19T10:10:13.882Z</time></trkpt><trkpt lat="43.4977093" lon="10.5808023"><ele>356.1666666666667</ele><time>2026-04-19T10:11:37.896Z</time></trkpt><trkpt lat="43.4977432" lon="10.5807206"><ele>355.3333333333333</ele><time>2026-04-19T10:11:38.888Z</time></trkpt><trkpt lat="43.4977794" lon="10.5806051"><ele>354.5</ele><time>2026-04-19T10:12:44.882Z</time></trkpt><trkpt lat="43.4978118" lon="10.5805154"><ele>353.66666666666663</ele><time>2026-04-19T10:12:45.877Z</time></trkpt><trkpt lat="43.4978673" lon="10.5804508"><ele>352.8333333333333</ele><time>2026-04-19T10:12:46.879Z</time></trkpt><trkpt lat="43.4979135" lon="10.5803849"><ele>352.0</ele><time>2026-04-19T10:12:47.899Z</time></trkpt><trkpt lat="43.4979743" lon="10.5802991"><ele>351.5</ele><time>2026-04-19T10:12:48.878Z</time></trkpt><trkpt lat="43.4980257" lon="10.5802102"><ele>351.0</ele><time>2026-04-19T10:12:49.892Z</time></trkpt><trkpt lat="43.4980837" lon="10.5801384"><ele>350.5</ele><time>2026-04-19T10:12:50.872Z</time></trkpt><trkpt lat="43.4981512" lon="10.5800881"><ele>350.0</ele><time>2026-04-19T10:12:51.882Z</time></trkpt><trkpt lat="43.4982053" lon="10.5800358"><ele>349.5</ele><time>2026-04-19T10:12:52.878Z</time></trkpt><trkpt lat="43.4983307" lon="10.5799556"><ele>349.0</ele><time>2026-04-19T10:12:54.882Z</time></trkpt><trkpt lat="43.4983958" lon="10.5799212"><ele>349.0</ele><time>2026-04-19T10:12:55.874Z</time></trkpt><trkpt lat="43.4984584" lon="10.5798898"><ele>349.0</ele><time>2026-04-19T10:12:56.873Z</time></trkpt><trkpt lat="43.4985631" lon="10.579851"><ele>349.0</ele><time>2026-04-19T10:12:58.885Z</time></trkpt><trkpt lat="43.4986784" lon="10.5797778"><ele>349.0</ele><time>2026-04-19T10:13:00.886Z</time></trkpt><trkpt lat="43.4987314" lon="10.5797045"><ele>349.0</ele><time>2026-04-19T10:13:01.878Z</time></trkpt><trkpt lat="43.4988104" lon="10.5795969"><ele>345.6</ele><time>2026-04-19T10:13:03.878Z</time></trkpt><trkpt lat="43.4988761" lon="10.5795738"><ele>342.2</ele><time>2026-04-19T10:13:06.893Z</time></trkpt><trkpt lat="43.49893" lon="10.5796513"><ele>338.8</ele><time>2026-04-19T10:13:08.877Z</time></trkpt><trkpt lat="43.4989817" lon="10.579801"><ele>335.40000000000003</ele><time>2026-04-19T10:13:11.871Z</time></trkpt><trkpt lat="43.4988389" lon="10.5797665"><ele>332.0</ele><time>2026-04-19T10:13:18.885Z</time></trkpt><trkpt lat="43.4988114" lon="10.5798489"><ele>332.0</ele><time>2026-04-19T10:13:19.871Z</time></trkpt><trkpt lat="43.4987603" lon="10.5799161"><ele>332.0</ele><time>2026-04-19T10:13:20.882Z</time></trkpt><trkpt lat="43.4987153" lon="10.5799914"><ele>332.0</ele><time>2026-04-19T10:13:21.876Z</time></trkpt><trkpt lat="43.4986451" lon="10.5801011"><ele>332.0</ele><time>2026-04-19T10:13:23.877Z</time></trkpt><trkpt lat="43.4986056" lon="10.5802176"><ele>332.0</ele><time>2026-04-19T10:13:26.877Z</time></trkpt><trkpt lat="43.4985857" lon="10.5803171"><ele>332.0</ele><time>2026-04-19T10:13:29.877Z</time></trkpt><trkpt lat="43.4985067" lon="10.5806688"><ele>337.5</ele><time>2026-04-19T10:13:35.877Z</time></trkpt><trkpt lat="43.4984341" lon="10.5808811"><ele>343.0</ele><time>2026-04-19T10:13:36.864Z</time></trkpt><trkpt lat="43.4983553" lon="10.5814162"><ele>344.5</ele><time>2026-04-19T10:13:37.892Z</time></trkpt><trkpt lat="43.4983933" lon="10.5815109"><ele>346.0</ele><time>2026-04-19T10:13:39.885Z</time></trkpt><trkpt lat="43.4984799" lon="10.5815753"><ele>347.5</ele><time>2026-04-19T10:13:42.865Z</time></trkpt><trkpt lat="43.4984719" lon="10.5816753"><ele>349.0</ele><time>2026-04-19T10:13:44.883Z</time></trkpt><trkpt lat="43.4983904" lon="10.5819844"><ele>350.0</ele><time>2026-04-19T10:13:48.878Z</time></trkpt><trkpt lat="43.4983352" lon="10.5820796"><ele>351.0</ele><time>2026-04-19T10:13:51.872Z</time></trkpt><trkpt lat="43.4982214" lon="10.5821748"><ele>352.0</ele><time>2026-04-19T10:13:57.869Z</time></trkpt><trkpt lat="43.4982658" lon="10.5822794"><ele>353.0</ele><time>2026-04-19T10:14:03.883Z</time></trkpt><trkpt lat="43.4983728" lon="10.5824366"><ele>353.0</ele><time>2026-04-19T10:14:07.853Z</time></trkpt><trkpt lat="43.498405" lon="10.5825832"><ele>353.0</ele><time>2026-04-19T10:14:10.88Z</time></trkpt><trkpt lat="43.4983854" lon="10.5826973"><ele>353.0</ele><time>2026-04-19T10:14:11.869Z</time></trkpt><trkpt lat="43.4984223" lon="10.5827897"><ele>353.0</ele><time>2026-04-19T10:14:13.872Z</time></trkpt><trkpt lat="43.498438" lon="10.5829159"><ele>353.0</ele><time>2026-04-19T10:14:15.868Z</time></trkpt><trkpt lat="43.4984888" lon="10.5830403"><ele>351.59999999999997</ele><time>2026-04-19T10:14:17.888Z</time></trkpt><trkpt lat="43.4985648" lon="10.5831172"><ele>350.2</ele><time>2026-04-19T10:14:22.865Z</time></trkpt><trkpt lat="43.498662" lon="10.5831269"><ele>348.8</ele><time>2026-04-19T10:14:28.869Z</time></trkpt><trkpt lat="43.4987712" lon="10.583116"><ele>347.4</ele><time>2026-04-19T10:14:33.883Z</time></trkpt><trkpt lat="43.4988672" lon="10.5831141"><ele>346.0</ele><time>2026-04-19T10:14:44.89Z</time></trkpt><trkpt lat="43.4989741" lon="10.5830858"><ele>344.0</ele><time>2026-04-19T10:14:45.881Z</time></trkpt><trkpt lat="43.4990775" lon="10.5831115"><ele>342.0</ele><time>2026-04-19T10:15:29.884Z</time></trkpt><trkpt lat="43.4990986" lon="10.5832002"><ele>340.0</ele><time>2026-04-19T10:15:31.88Z</time></trkpt><trkpt lat="43.4991463" lon="10.5832706"><ele>338.0</ele><time>2026-04-19T10:15:33.881Z</time></trkpt><trkpt lat="43.499223" lon="10.5833211"><ele>336.0</ele><time>2026-04-19T10:15:35.893Z</time></trkpt><trkpt lat="43.4992872" lon="10.5833436"><ele>334.0</ele><time>2026-04-19T10:15:37.881Z</time></trkpt><trkpt lat="43.499365" lon="10.5833726"><ele>334.0</ele><time>2026-04-19T10:15:39.869Z</time></trkpt><trkpt lat="43.499439" lon="10.5834451"><ele>334.0</ele><time>2026-04-19T10:15:41.877Z</time></trkpt><trkpt lat="43.4994936" lon="10.5834938"><ele>334.0</ele><time>2026-04-19T10:15:43.879Z</time></trkpt><trkpt lat="43.4995839" lon="10.583548"><ele>334.0</ele><time>2026-04-19T10:15:52.875Z</time></trkpt><trkpt lat="43.4995213" lon="10.5835058"><ele>334.0</ele><time>2026-04-19T10:15:56.885Z</time></trkpt><trkpt lat="43.4994426" lon="10.583455"><ele>334.0</ele><time>2026-04-19T10:15:58.88Z</time></trkpt><trkpt lat="43.499385" lon="10.583413"><ele>334.0</ele><time>2026-04-19T10:16:03.889Z</time></trkpt><trkpt lat="43.4993946" lon="10.5832932"><ele>334.0</ele><time>2026-04-19T10:16:08.88Z</time></trkpt><trkpt lat="43.4993663" lon="10.5831918"><ele>334.0</ele><time>2026-04-19T10:16:10.882Z</time></trkpt><trkpt lat="43.4993788" lon="10.5830678"><ele>334.0</ele><time>2026-04-19T10:16:12.882Z</time></trkpt><trkpt lat="43.4994191" lon="10.5829518"><ele>334.0</ele><time>2026-04-19T10:16:14.883Z</time></trkpt><trkpt lat="43.4994732" lon="10.5829036"><ele>334.0</ele><time>2026-04-19T10:16:16.877Z</time></trkpt><trkpt lat="43.499654" lon="10.5828396"><ele>334.0</ele><time>2026-04-19T10:16:53.871Z</time></trkpt><trkpt lat="43.4995844" lon="10.5828355"><ele>334.0</ele><time>2026-04-19T10:17:00.88Z</time></trkpt><trkpt lat="43.4994251" lon="10.5828507"><ele>334.0</ele><time>2026-04-19T10:17:17.882Z</time></trkpt><trkpt lat="43.499356" lon="10.5826495"><ele>334.0</ele><time>2026-04-19T10:17:51.878Z</time></trkpt><trkpt lat="43.4992453" lon="10.5827008"><ele>334.0</ele><time>2026-04-19T10:18:03.882Z</time></trkpt><trkpt lat="43.499185" lon="10.5827711"><ele>334.0</ele><time>2026-04-19T10:18:04.892Z</time></trkpt><trkpt lat="43.4991119" lon="10.5828199"><ele>334.0</ele><time>2026-04-19T10:18:22.882Z</time></trkpt><trkpt lat="43.4991099" lon="10.5829137"><ele>334.0</ele><time>2026-04-19T10:19:08.876Z</time></trkpt><trkpt lat="43.4990985" lon="10.5830224"><ele>334.0</ele><time>2026-04-19T10:19:11.885Z</time></trkpt><trkpt lat="43.4991033" lon="10.5831773"><ele>334.0</ele><time>2026-04-19T10:19:17.886Z</time></trkpt><trkpt lat="43.4991627" lon="10.5832841"><ele>334.0</ele><time>2026-04-19T10:19:19.876Z</time></trkpt><trkpt lat="43.4992408" lon="10.5833767"><ele>334.0</ele><time>2026-04-19T10:19:21.886Z</time></trkpt><trkpt lat="43.4992888" lon="10.5834767"><ele>334.0</ele><time>2026-04-19T10:19:23.879Z</time></trkpt><trkpt lat="43.49931" lon="10.5835654"><ele>334.0</ele><time>2026-04-19T10:19:25.87Z</time></trkpt><trkpt lat="43.499317" lon="10.5837069"><ele>334.0</ele><time>2026-04-19T10:19:29.885Z</time></trkpt><trkpt lat="43.4992972" lon="10.5838713"><ele>336.0</ele><time>2026-04-19T10:19:31.879Z</time></trkpt><trkpt lat="43.4992718" lon="10.5839633"><ele>338.0</ele><time>2026-04-19T10:19:33.872Z</time></trkpt><trkpt lat="43.4992385" lon="10.5840447"><ele>340.0</ele><time>2026-04-19T10:19:36.88Z</time></trkpt><trkpt lat="43.4991745" lon="10.5843214"><ele>342.0</ele><time>2026-04-19T10:19:39.868Z</time></trkpt><trkpt lat="43.4991479" lon="10.584422"><ele>344.0</ele><time>2026-04-19T10:19:40.862Z</time></trkpt><trkpt lat="43.4991275" lon="10.5845255"><ele>344.0</ele><time>2026-04-19T10:19:42.881Z</time></trkpt><trkpt lat="43.4991217" lon="10.5846165"><ele>344.0</ele><time>2026-04-19T10:19:44.881Z</time></trkpt><trkpt lat="43.4990937" lon="10.5848604"><ele>344.0</ele><time>2026-04-19T10:19:47.872Z</time></trkpt><trkpt lat="43.4994165" lon="10.5852655"><ele>341.75</ele><time>2026-04-19T10:19:55.865Z</time></trkpt><trkpt lat="43.4995047" lon="10.5855979"><ele>339.5</ele><time>2026-04-19T10:20:01.884Z</time></trkpt><trkpt lat="43.4995228" lon="10.5857238"><ele>337.25</ele><time>2026-04-19T10:20:10.87Z</time></trkpt><trkpt lat="43.4995201" lon="10.5858485"><ele>335.0</ele><time>2026-04-19T10:20:16.875Z</time></trkpt><trkpt lat="43.4995423" lon="10.5859814"><ele>331.2</ele><time>2026-04-19T10:20:22.875Z</time></trkpt><trkpt lat="43.4996534" lon="10.586145"><ele>327.4</ele><time>2026-04-19T10:20:30.885Z</time></trkpt><trkpt lat="43.4997283" lon="10.5862332"><ele>323.6</ele><time>2026-04-19T10:20:37.879Z</time></trkpt><trkpt lat="43.4997638" lon="10.5863242"><ele>319.8</ele><time>2026-04-19T10:20:58.873Z</time></trkpt><trkpt lat="43.4998585" lon="10.5863398"><ele>316.0</ele><time>2026-04-19T10:23:47.878Z</time></trkpt><trkpt lat="43.4998861" lon="10.5862562"><ele>314.8</ele><time>2026-04-19T10:23:50.882Z</time></trkpt><trkpt lat="43.4999431" lon="10.5861173"><ele>313.6</ele><time>2026-04-19T10:24:01.869Z</time></trkpt><trkpt lat="43.499982" lon="10.5860488"><ele>312.4</ele><time>2026-04-19T10:24:07.88Z</time></trkpt><trkpt lat="43.5000001" lon="10.5859651"><ele>311.2</ele><time>2026-04-19T10:24:18.886Z</time></trkpt><trkpt lat="43.5000209" lon="10.5857993"><ele>310.0</ele><time>2026-04-19T10:24:21.878Z</time></trkpt><trkpt lat="43.5000507" lon="10.5856787"><ele>310.0</ele><time>2026-04-19T10:24:47.88Z</time></trkpt><trkpt lat="43.5001213" lon="10.5856912"><ele>310.0</ele><time>2026-04-19T10:26:29.86Z</time></trkpt><trkpt lat="43.5001437" lon="10.5855501"><ele>310.0</ele><time>2026-04-19T10:27:58.888Z</time></trkpt><trkpt lat="43.5002013" lon="10.585403"><ele>310.0</ele><time>2026-04-19T10:28:00.872Z</time></trkpt><trkpt lat="43.5002395" lon="10.5853223"><ele>310.0</ele><time>2026-04-19T10:28:01.877Z</time></trkpt><trkpt lat="43.5002699" lon="10.585214"><ele>309.66666666666663</ele><time>2026-04-19T10:28:02.862Z</time></trkpt><trkpt lat="43.5002914" lon="10.5850806"><ele>309.3333333333333</ele><time>2026-04-19T10:28:03.883Z</time></trkpt><trkpt lat="43.5003089" lon="10.5849566"><ele>309.0</ele><time>2026-04-19T10:28:04.883Z</time></trkpt><trkpt lat="43.5003302" lon="10.5848539"><ele>308.6666666666667</ele><time>2026-04-19T10:28:05.887Z</time></trkpt><trkpt lat="43.5003527" lon="10.5847588"><ele>308.33333333333337</ele><time>2026-04-19T10:28:06.885Z</time></trkpt><trkpt lat="43.5003726" lon="10.5846604"><ele>308.0</ele><time>2026-04-19T10:28:07.881Z</time></trkpt><trkpt lat="43.500394" lon="10.5845365"><ele>305.6</ele><time>2026-04-19T10:28:08.876Z</time></trkpt><trkpt lat="43.5004322" lon="10.5843848"><ele>303.20000000000005</ele><time>2026-04-19T10:28:10.873Z</time></trkpt><trkpt lat="43.5004594" lon="10.5843057"><ele>300.8</ele><time>2026-04-19T10:28:11.877Z</time></trkpt><trkpt lat="43.5004924" lon="10.5841864"><ele>298.40000000000003</ele><time>2026-04-19T10:28:12.881Z</time></trkpt><trkpt lat="43.5005204" lon="10.5840287"><ele>296.0</ele><time>2026-04-19T10:28:13.871Z</time></trkpt><trkpt lat="43.5005386" lon="10.5838738"><ele>296.0</ele><time>2026-04-19T10:28:14.865Z</time></trkpt><trkpt lat="43.5005764" lon="10.5837226"><ele>296.0</ele><time>2026-04-19T10:28:15.877Z</time></trkpt><trkpt lat="43.5006157" lon="10.5835945"><ele>296.0</ele><time>2026-04-19T10:28:16.887Z</time></trkpt><trkpt lat="43.5006585" lon="10.5834861"><ele>296.0</ele><time>2026-04-19T10:28:17.88Z</time></trkpt><trkpt lat="43.5007074" lon="10.5833141"><ele>296.0</ele><time>2026-04-19T10:28:19.878Z</time></trkpt><trkpt lat="43.5007306" lon="10.5831977"><ele>293.5</ele><time>2026-04-19T10:28:21.871Z</time></trkpt><trkpt lat="43.5006962" lon="10.5829884"><ele>291.0</ele><time>2026-04-19T10:28:30.872Z</time></trkpt><trkpt lat="43.5006333" lon="10.5829155"><ele>288.5</ele><time>2026-04-19T10:28:31.867Z</time></trkpt><trkpt lat="43.5005448" lon="10.5827684"><ele>286.0</ele><time>2026-04-19T10:28:43.862Z</time></trkpt><trkpt lat="43.5005776" lon="10.5826687"><ele>283.8333333333333</ele><time>2026-04-19T10:28:47.879Z</time></trkpt><trkpt lat="43.5005986" lon="10.5825865"><ele>281.66666666666663</ele><time>2026-04-19T10:28:49.875Z</time></trkpt><trkpt lat="43.5006058" lon="10.5824711"><ele>279.5</ele><time>2026-04-19T10:28:51.873Z</time></trkpt><trkpt lat="43.5006054" lon="10.5823753"><ele>277.3333333333333</ele><time>2026-04-19T10:28:52.874Z</time></trkpt><trkpt lat="43.5006096" lon="10.5822242"><ele>275.1666666666667</ele><time>2026-04-19T10:28:53.871Z</time></trkpt><trkpt lat="43.5006147" lon="10.5820909"><ele>273.0</ele><time>2026-04-19T10:28:54.876Z</time></trkpt><trkpt lat="43.5006115" lon="10.5819285"><ele>272.2</ele><time>2026-04-19T10:28:55.881Z</time></trkpt><trkpt lat="43.5006076" lon="10.5817528"><ele>271.4</ele><time>2026-04-19T10:28:56.876Z</time></trkpt><trkpt lat="43.5006139" lon="10.5816268"><ele>270.59999999999997</ele><time>2026-04-19T10:28:57.869Z</time></trkpt><trkpt lat="43.5006231" lon="10.5815215"><ele>269.8</ele><time>2026-04-19T10:28:58.872Z</time></trkpt><trkpt lat="43.5006531" lon="10.5814072"><ele>269.0</ele><time>2026-04-19T10:28:59.866Z</time></trkpt><trkpt lat="43.500688" lon="10.581312"><ele>269.0</ele><time>2026-04-19T10:29:00.887Z</time></trkpt><trkpt lat="43.5006851" lon="10.581209"><ele>269.0</ele><time>2026-04-19T10:29:01.872Z</time></trkpt><trkpt lat="43.5006322" lon="10.5810773"><ele>269.0</ele><time>2026-04-19T10:29:03.877Z</time></trkpt><trkpt lat="43.500566" lon="10.5809346"><ele>269.0</ele><time>2026-04-19T10:29:05.87Z</time></trkpt><trkpt lat="43.5005486" lon="10.5808471"><ele>269.0</ele><time>2026-04-19T10:29:06.879Z</time></trkpt><trkpt lat="43.5005628" lon="10.5806958"><ele>268.5</ele><time>2026-04-19T10:29:08.887Z</time></trkpt><trkpt lat="43.5006162" lon="10.5806476"><ele>268.0</ele><time>2026-04-19T10:29:09.884Z</time></trkpt><trkpt lat="43.5006712" lon="10.5805618"><ele>267.5</ele><time>2026-04-19T10:29:10.87Z</time></trkpt><trkpt lat="43.5007818" lon="10.5804761"><ele>267.0</ele><time>2026-04-19T10:29:12.886Z</time></trkpt><trkpt lat="43.5009082" lon="10.5802407"><ele>269.0</ele><time>2026-04-19T10:29:14.875Z</time></trkpt><trkpt lat="43.5009572" lon="10.5800735"><ele>271.0</ele><time>2026-04-19T10:29:15.865Z</time></trkpt><trkpt lat="43.5010122" lon="10.5798933"><ele>273.0</ele><time>2026-04-19T10:29:16.86Z</time></trkpt><trkpt lat="43.5010685" lon="10.5796993"><ele>275.0</ele><time>2026-04-19T10:29:17.862Z</time></trkpt><trkpt lat="43.5011262" lon="10.5795125"><ele>279.75</ele><time>2026-04-19T10:29:18.88Z</time></trkpt><trkpt lat="43.5011877" lon="10.579334"><ele>284.5</ele><time>2026-04-19T10:29:19.88Z</time></trkpt><trkpt lat="43.5012457" lon="10.5791571"><ele>289.25</ele><time>2026-04-19T10:29:20.887Z</time></trkpt><trkpt lat="43.5013162" lon="10.5789846"><ele>294.0</ele><time>2026-04-19T10:29:21.88Z</time></trkpt><trkpt lat="43.5013937" lon="10.578707"><ele>282.6666666666667</ele><time>2026-04-19T10:29:22.871Z</time></trkpt><trkpt lat="43.5014516" lon="10.5785117"><ele>271.33333333333337</ele><time>2026-04-19T10:29:23.872Z</time></trkpt><trkpt lat="43.5015105" lon="10.578326"><ele>260.0</ele><time>2026-04-19T10:29:24.872Z</time></trkpt><trkpt lat="43.5015728" lon="10.5781246"><ele>260.0</ele><time>2026-04-19T10:29:25.873Z</time></trkpt><trkpt lat="43.5016379" lon="10.5779524"><ele>260.0</ele><time>2026-04-19T10:29:26.879Z</time></trkpt><trkpt lat="43.501687" lon="10.5777811"><ele>260.0</ele><time>2026-04-19T10:29:27.871Z</time></trkpt><trkpt lat="43.5017243" lon="10.5776084"><ele>260.0</ele><time>2026-04-19T10:29:28.87Z</time></trkpt><trkpt lat="43.5017473" lon="10.5774238"><ele>264.33333333333337</ele><time>2026-04-19T10:29:29.88Z</time></trkpt><trkpt lat="43.5017821" lon="10.576984"><ele>268.6666666666667</ele><time>2026-04-19T10:29:31.873Z</time></trkpt><trkpt lat="43.5018025" lon="10.5768449"><ele>273.0</ele><time>2026-04-19T10:29:32.874Z</time></trkpt><trkpt lat="43.501808" lon="10.5767379"><ele>273.0</ele><time>2026-04-19T10:29:33.885Z</time></trkpt><trkpt lat="43.5017791" lon="10.5766335"><ele>273.0</ele><time>2026-04-19T10:29:34.869Z</time></trkpt><trkpt lat="43.5017488" lon="10.5765296"><ele>273.0</ele><time>2026-04-19T10:29:35.877Z</time></trkpt><trkpt lat="43.5016864" lon="10.5764321"><ele>273.0</ele><time>2026-04-19T10:29:37.883Z</time></trkpt><trkpt lat="43.5016378" lon="10.576294"><ele>273.0</ele><time>2026-04-19T10:29:39.871Z</time></trkpt><trkpt lat="43.5016115" lon="10.5762079"><ele>273.0</ele><time>2026-04-19T10:29:40.883Z</time></trkpt><trkpt lat="43.5015769" lon="10.5761351"><ele>273.0</ele><time>2026-04-19T10:29:41.876Z</time></trkpt><trkpt lat="43.5015352" lon="10.5760487"><ele>273.0</ele><time>2026-04-19T10:29:42.881Z</time></trkpt><trkpt lat="43.5014621" lon="10.5760619"><ele>273.0</ele><time>2026-04-19T10:31:42.885Z</time></trkpt><trkpt lat="43.5013999" lon="10.5760237"><ele>273.0</ele><time>2026-04-19T10:31:46.874Z</time></trkpt><trkpt lat="43.5013016" lon="10.5759984"><ele>273.0</ele><time>2026-04-19T10:31:48.872Z</time></trkpt><trkpt lat="43.5012373" lon="10.5759774"><ele>273.0</ele><time>2026-04-19T10:31:49.864Z</time></trkpt><trkpt lat="43.5011112" lon="10.5759286"><ele>273.0</ele><time>2026-04-19T10:31:51.866Z</time></trkpt><trkpt lat="43.501001" lon="10.575861"><ele>273.0</ele><time>2026-04-19T10:31:53.871Z</time></trkpt><trkpt lat="43.5009046" lon="10.5757946"><ele>273.0</ele><time>2026-04-19T10:31:55.882Z</time></trkpt><trkpt lat="43.5008047" lon="10.5757838"><ele>273.0</ele><time>2026-04-19T10:31:58.873Z</time></trkpt><trkpt lat="43.5007428" lon="10.5758551"><ele>273.0</ele><time>2026-04-19T10:32:00.88Z</time></trkpt><trkpt lat="43.50065" lon="10.5758652"><ele>273.0</ele><time>2026-04-19T10:32:02.876Z</time></trkpt><trkpt lat="43.5004406" lon="10.5757649"><ele>273.0</ele><time>2026-04-19T10:32:03.884Z</time></trkpt><trkpt lat="43.5004091" lon="10.5756722"><ele>273.0</ele><time>2026-04-19T10:32:05.887Z</time></trkpt><trkpt lat="43.5004419" lon="10.5755456"><ele>273.0</ele><time>2026-04-19T10:32:07.867Z</time></trkpt><trkpt lat="43.5004469" lon="10.5754503"><ele>273.0</ele><time>2026-04-19T10:32:08.877Z</time></trkpt><trkpt lat="43.5004526" lon="10.5753558"><ele>273.0</ele><time>2026-04-19T10:32:09.871Z</time></trkpt><trkpt lat="43.5004612" lon="10.5752214"><ele>273.0</ele><time>2026-04-19T10:32:10.875Z</time></trkpt><trkpt lat="43.5004737" lon="10.5750638"><ele>273.0</ele><time>2026-04-19T10:32:11.871Z</time></trkpt><trkpt lat="43.5004798" lon="10.5749152"><ele>273.0</ele><time>2026-04-19T10:32:12.87Z</time></trkpt><trkpt lat="43.5004973" lon="10.5748144"><ele>272.8</ele><time>2026-04-19T10:32:13.889Z</time></trkpt><trkpt lat="43.5004926" lon="10.5747203"><ele>272.6</ele><time>2026-04-19T10:32:14.872Z</time></trkpt><trkpt lat="43.5004551" lon="10.5746197"><ele>272.4</ele><time>2026-04-19T10:32:16.876Z</time></trkpt><trkpt lat="43.5004021" lon="10.5744864"><ele>272.2</ele><time>2026-04-19T10:32:27.875Z</time></trkpt><trkpt lat="43.5003636" lon="10.5743625"><ele>272.0</ele><time>2026-04-19T10:32:28.872Z</time></trkpt><trkpt lat="43.5003243" lon="10.5742378"><ele>272.0</ele><time>2026-04-19T10:32:38.875Z</time></trkpt><trkpt lat="43.5003104" lon="10.5741481"><ele>272.0</ele><time>2026-04-19T10:33:01.865Z</time></trkpt><trkpt lat="43.5002336" lon="10.5740387"><ele>272.0</ele><time>2026-04-19T10:37:05.982Z</time></trkpt><trkpt lat="43.5002531" lon="10.5739492"><ele>272.0</ele><time>2026-04-19T10:37:08.986Z</time></trkpt><trkpt lat="43.5002843" lon="10.5738328"><ele>272.0</ele><time>2026-04-19T10:37:10.978Z</time></trkpt><trkpt lat="43.5003536" lon="10.5737266"><ele>272.0</ele><time>2026-04-19T10:37:12.975Z</time></trkpt><trkpt lat="43.5004058" lon="10.5736273"><ele>268.85714285714283</ele><time>2026-04-19T10:37:14.978Z</time></trkpt><trkpt lat="43.5004532" lon="10.5735065"><ele>265.7142857142857</ele><time>2026-04-19T10:37:16.974Z</time></trkpt><trkpt lat="43.5004813" lon="10.5734229"><ele>262.57142857142856</ele><time>2026-04-19T10:37:17.978Z</time></trkpt><trkpt lat="43.5004931" lon="10.5733374"><ele>259.42857142857144</ele><time>2026-04-19T10:37:18.985Z</time></trkpt><trkpt lat="43.5005054" lon="10.5732481"><ele>256.2857142857143</ele><time>2026-04-19T10:37:19.974Z</time></trkpt><trkpt lat="43.5005255" lon="10.5731486"><ele>253.14285714285714</ele><time>2026-04-19T10:37:20.981Z</time></trkpt><trkpt lat="43.5005417" lon="10.5730642"><ele>250.0</ele><time>2026-04-19T10:37:21.972Z</time></trkpt><trkpt lat="43.5005589" lon="10.5729035"><ele>249.0</ele><time>2026-04-19T10:37:23.976Z</time></trkpt><trkpt lat="43.5005393" lon="10.5727961"><ele>248.0</ele><time>2026-04-19T10:37:26.981Z</time></trkpt><trkpt lat="43.500542" lon="10.5727021"><ele>247.0</ele><time>2026-04-19T10:37:29.98Z</time></trkpt><trkpt lat="43.5005432" lon="10.5725628"><ele>246.0</ele><time>2026-04-19T10:37:31.974Z</time></trkpt><trkpt lat="43.5005563" lon="10.5723997"><ele>245.0</ele><time>2026-04-19T10:37:33.975Z</time></trkpt><trkpt lat="43.5005766" lon="10.572231"><ele>245.0</ele><time>2026-04-19T10:37:35.979Z</time></trkpt><trkpt lat="43.5005803" lon="10.5721262"><ele>245.0</ele><time>2026-04-19T10:37:36.976Z</time></trkpt><trkpt lat="43.5005728" lon="10.5719699"><ele>245.0</ele><time>2026-04-19T10:37:38.973Z</time></trkpt><trkpt lat="43.5005686" lon="10.5718515"><ele>245.0</ele><time>2026-04-19T10:37:40.975Z</time></trkpt><trkpt lat="43.5005832" lon="10.5716614"><ele>245.0</ele><time>2026-04-19T10:37:42.984Z</time></trkpt><trkpt lat="43.5005977" lon="10.5715665"><ele>244.50000000000003</ele><time>2026-04-19T10:37:43.984Z</time></trkpt><trkpt lat="43.5006" lon="10.5714633"><ele>244.0</ele><time>2026-04-19T10:37:44.977Z</time></trkpt><trkpt lat="43.5005871" lon="10.5713777"><ele>243.5</ele><time>2026-04-19T10:37:45.98Z</time></trkpt><trkpt lat="43.5005692" lon="10.5712804"><ele>243.0</ele><time>2026-04-19T10:37:46.969Z</time></trkpt><trkpt lat="43.5005583" lon="10.5711784"><ele>242.50000000000003</ele><time>2026-04-19T10:37:47.967Z</time></trkpt><trkpt lat="43.5005236" lon="10.5710059"><ele>242.0</ele><time>2026-04-19T10:37:49.983Z</time></trkpt><trkpt lat="43.500504" lon="10.570866"><ele>240.50000000000003</ele><time>2026-04-19T10:37:50.973Z</time></trkpt><trkpt lat="43.5004863" lon="10.5707579"><ele>239.0</ele><time>2026-04-19T10:37:51.975Z</time></trkpt><trkpt lat="43.5004829" lon="10.5706323"><ele>237.5</ele><time>2026-04-19T10:37:52.975Z</time></trkpt><trkpt lat="43.5004831" lon="10.5705426"><ele>236.0</ele><time>2026-04-19T10:37:53.972Z</time></trkpt><trkpt lat="43.5004572" lon="10.5703584"><ele>234.50000000000003</ele><time>2026-04-19T10:37:55.976Z</time></trkpt><trkpt lat="43.5004398" lon="10.5702621"><ele>233.0</ele><time>2026-04-19T10:37:56.975Z</time></trkpt><trkpt lat="43.5004306" lon="10.5701648"><ele>231.83333333333334</ele><time>2026-04-19T10:37:57.98Z</time></trkpt><trkpt lat="43.5004086" lon="10.5700668"><ele>230.66666666666669</ele><time>2026-04-19T10:37:59.977Z</time></trkpt><trkpt lat="43.5003806" lon="10.5699724"><ele>229.5</ele><time>2026-04-19T10:38:01.988Z</time></trkpt><trkpt lat="43.5003638" lon="10.5698337"><ele>228.33333333333331</ele><time>2026-04-19T10:38:03.978Z</time></trkpt><trkpt lat="43.5003515" lon="10.5697205"><ele>227.16666666666666</ele><time>2026-04-19T10:38:05.973Z</time></trkpt><trkpt lat="43.5003385" lon="10.5696308"><ele>226.0</ele><time>2026-04-19T10:38:06.978Z</time></trkpt><trkpt lat="43.5003356" lon="10.569502"><ele>226.0</ele><time>2026-04-19T10:38:08.965Z</time></trkpt><trkpt lat="43.5003429" lon="10.569312"><ele>226.0</ele><time>2026-04-19T10:38:10.97Z</time></trkpt><trkpt lat="43.5003348" lon="10.5690997"><ele>226.0</ele><time>2026-04-19T10:38:11.975Z</time></trkpt><trkpt lat="43.500334" lon="10.5689291"><ele>226.0</ele><time>2026-04-19T10:38:12.979Z</time></trkpt><trkpt lat="43.500341" lon="10.5686774"><ele>222.8</ele><time>2026-04-19T10:38:14.969Z</time></trkpt><trkpt lat="43.5003552" lon="10.5684966"><ele>219.60000000000002</ele><time>2026-04-19T10:38:15.96Z</time></trkpt><trkpt lat="43.5003832" lon="10.568348"><ele>216.4</ele><time>2026-04-19T10:38:16.967Z</time></trkpt><trkpt lat="43.5004334" lon="10.5682244"><ele>213.2</ele><time>2026-04-19T10:38:18.954Z</time></trkpt><trkpt lat="43.5004519" lon="10.5681323"><ele>210.0</ele><time>2026-04-19T10:38:19.943Z</time></trkpt><trkpt lat="43.5004945" lon="10.5680339"><ele>209.6</ele><time>2026-04-19T10:38:22.953Z</time></trkpt><trkpt lat="43.5005388" lon="10.5678675"><ele>209.2</ele><time>2026-04-19T10:38:25.966Z</time></trkpt><trkpt lat="43.500566" lon="10.567785"><ele>208.8</ele><time>2026-04-19T10:38:27.963Z</time></trkpt><trkpt lat="43.5006007" lon="10.5676671"><ele>208.4</ele><time>2026-04-19T10:38:29.965Z</time></trkpt><trkpt lat="43.5006664" lon="10.5675307"><ele>208.0</ele><time>2026-04-19T10:38:31.954Z</time></trkpt><trkpt lat="43.5007077" lon="10.5674611"><ele>205.16666666666666</ele><time>2026-04-19T10:38:32.96Z</time></trkpt><trkpt lat="43.5007417" lon="10.5673544"><ele>202.33333333333331</ele><time>2026-04-19T10:38:33.96Z</time></trkpt><trkpt lat="43.5008019" lon="10.5672999"><ele>199.5</ele><time>2026-04-19T10:38:34.96Z</time></trkpt><trkpt lat="43.5008603" lon="10.5672458"><ele>196.66666666666666</ele><time>2026-04-19T10:38:36.982Z</time></trkpt><trkpt lat="43.5008797" lon="10.5671532"><ele>193.83333333333331</ele><time>2026-04-19T10:38:38.96Z</time></trkpt><trkpt lat="43.5008787" lon="10.5670187"><ele>191.0</ele><time>2026-04-19T10:38:40.954Z</time></trkpt><trkpt lat="43.5009033" lon="10.5668799"><ele>188.25</ele><time>2026-04-19T10:38:42.967Z</time></trkpt><trkpt lat="43.5008699" lon="10.5667824"><ele>185.5</ele><time>2026-04-19T10:38:44.957Z</time></trkpt><trkpt lat="43.5008412" lon="10.5666593"><ele>182.75</ele><time>2026-04-19T10:38:46.973Z</time></trkpt><trkpt lat="43.5008121" lon="10.5664456"><ele>180.0</ele><time>2026-04-19T10:38:48.942Z</time></trkpt><trkpt lat="43.5007766" lon="10.5661728"><ele>178.4</ele><time>2026-04-19T10:38:50.953Z</time></trkpt><trkpt lat="43.5006913" lon="10.5661116"><ele>176.8</ele><time>2026-04-19T10:38:51.977Z</time></trkpt><trkpt lat="43.500615" lon="10.5660826"><ele>175.2</ele><time>2026-04-19T10:38:52.964Z</time></trkpt><trkpt lat="43.5005131" lon="10.5660378"><ele>173.6</ele><time>2026-04-19T10:38:53.97Z</time></trkpt><trkpt lat="43.5004192" lon="10.565937"><ele>172.0</ele><time>2026-04-19T10:38:54.986Z</time></trkpt><trkpt lat="43.5003097" lon="10.5657626"><ele>172.0</ele><time>2026-04-19T10:38:55.974Z</time></trkpt><trkpt lat="43.5002887" lon="10.5656229"><ele>172.0</ele><time>2026-04-19T10:38:56.986Z</time></trkpt><trkpt lat="43.500331" lon="10.5655138"><ele>172.0</ele><time>2026-04-19T10:38:57.985Z</time></trkpt><trkpt lat="43.5003565" lon="10.5654011"><ele>172.0</ele><time>2026-04-19T10:38:58.982Z</time></trkpt><trkpt lat="43.5003832" lon="10.5652863"><ele>172.0</ele><time>2026-04-19T10:38:59.985Z</time></trkpt><trkpt lat="43.5004398" lon="10.565197"><ele>172.0</ele><time>2026-04-19T10:39:00.975Z</time></trkpt><trkpt lat="43.5004602" lon="10.5650437"><ele>172.0</ele><time>2026-04-19T10:39:01.992Z</time></trkpt><trkpt lat="43.5004614" lon="10.5649543"><ele>172.0</ele><time>2026-04-19T10:39:02.996Z</time></trkpt><trkpt lat="43.5004141" lon="10.5648738"><ele>172.0</ele><time>2026-04-19T10:39:03.983Z</time></trkpt><trkpt lat="43.500341" lon="10.5648317"><ele>172.0</ele><time>2026-04-19T10:39:04.982Z</time></trkpt><trkpt lat="43.5002708" lon="10.5648005"><ele>172.0</ele><time>2026-04-19T10:39:05.968Z</time></trkpt><trkpt lat="43.5001952" lon="10.5647694"><ele>172.0</ele><time>2026-04-19T10:39:06.982Z</time></trkpt><trkpt lat="43.5000974" lon="10.5647172"><ele>172.0</ele><time>2026-04-19T10:39:07.982Z</time></trkpt><trkpt lat="43.4999932" lon="10.5646514"><ele>172.0</ele><time>2026-04-19T10:39:08.976Z</time></trkpt><trkpt lat="43.4998878" lon="10.564576"><ele>172.0</ele><time>2026-04-19T10:39:09.987Z</time></trkpt><trkpt lat="43.4997805" lon="10.5644957"><ele>172.39999999999998</ele><time>2026-04-19T10:39:10.986Z</time></trkpt><trkpt lat="43.4996922" lon="10.5643984"><ele>172.79999999999998</ele><time>2026-04-19T10:39:11.98Z</time></trkpt><trkpt lat="43.4996373" lon="10.5643211"><ele>173.2</ele><time>2026-04-19T10:39:12.985Z</time></trkpt><trkpt lat="43.4996294" lon="10.5641921"><ele>173.6</ele><time>2026-04-19T10:39:14.98Z</time></trkpt><trkpt lat="43.4997247" lon="10.5641444"><ele>174.0</ele><time>2026-04-19T10:39:16.983Z</time></trkpt><trkpt lat="43.4998277" lon="10.5641258"><ele>174.0</ele><time>2026-04-19T10:39:18.98Z</time></trkpt><trkpt lat="43.4998734" lon="10.5640528"><ele>174.0</ele><time>2026-04-19T10:39:19.983Z</time></trkpt><trkpt lat="43.4998902" lon="10.563939"><ele>174.0</ele><time>2026-04-19T10:39:20.976Z</time></trkpt><trkpt lat="43.4999221" lon="10.5637933"><ele>174.0</ele><time>2026-04-19T10:39:21.975Z</time></trkpt><trkpt lat="43.4999519" lon="10.5636362"><ele>174.0</ele><time>2026-04-19T10:39:22.991Z</time></trkpt><trkpt lat="43.4999881" lon="10.5635093"><ele>174.6</ele><time>2026-04-19T10:39:23.98Z</time></trkpt><trkpt lat="43.50003" lon="10.5633468"><ele>175.2</ele><time>2026-04-19T10:39:24.98Z</time></trkpt><trkpt lat="43.5000582" lon="10.5631961"><ele>175.79999999999998</ele><time>2026-04-19T10:39:25.974Z</time></trkpt><trkpt lat="43.5000694" lon="10.5630741"><ele>176.39999999999998</ele><time>2026-04-19T10:39:26.99Z</time></trkpt><trkpt lat="43.5000856" lon="10.5629614"><ele>177.0</ele><time>2026-04-19T10:39:27.99Z</time></trkpt><trkpt lat="43.5001128" lon="10.5628496"><ele>178.0</ele><time>2026-04-19T10:39:28.972Z</time></trkpt><trkpt lat="43.5001563" lon="10.5627462"><ele>179.0</ele><time>2026-04-19T10:39:29.982Z</time></trkpt><trkpt lat="43.5002178" lon="10.5626246"><ele>180.0</ele><time>2026-04-19T10:39:30.968Z</time></trkpt><trkpt lat="43.5002875" lon="10.5625116"><ele>181.0</ele><time>2026-04-19T10:39:31.972Z</time></trkpt><trkpt lat="43.5004475" lon="10.5623803"><ele>175.75</ele><time>2026-04-19T10:39:33.971Z</time></trkpt><trkpt lat="43.5005051" lon="10.5622436"><ele>170.5</ele><time>2026-04-19T10:39:34.974Z</time></trkpt><trkpt lat="43.5005451" lon="10.5621344"><ele>165.25</ele><time>2026-04-19T10:39:35.986Z</time></trkpt><trkpt lat="43.5005688" lon="10.5619352"><ele>160.0</ele><time>2026-04-19T10:39:36.981Z</time></trkpt><trkpt lat="43.5005922" lon="10.5617214"><ele>159.33333333333334</ele><time>2026-04-19T10:39:37.973Z</time></trkpt><trkpt lat="43.5006137" lon="10.5614588"><ele>158.66666666666666</ele><time>2026-04-19T10:39:38.973Z</time></trkpt><trkpt lat="43.5006438" lon="10.5611829"><ele>158.0</ele><time>2026-04-19T10:39:39.974Z</time></trkpt><trkpt lat="43.500643" lon="10.5609616"><ele>157.0</ele><time>2026-04-19T10:39:40.986Z</time></trkpt><trkpt lat="43.5006549" lon="10.5607618"><ele>156.0</ele><time>2026-04-19T10:39:41.979Z</time></trkpt><trkpt lat="43.5006791" lon="10.5606018"><ele>155.0</ele><time>2026-04-19T10:39:42.98Z</time></trkpt><trkpt lat="43.500714" lon="10.5604548"><ele>154.0</ele><time>2026-04-19T10:39:43.969Z</time></trkpt><trkpt lat="43.5007595" lon="10.5602972"><ele>153.75</ele><time>2026-04-19T10:39:44.975Z</time></trkpt><trkpt lat="43.5007881" lon="10.5601193"><ele>153.5</ele><time>2026-04-19T10:39:45.978Z</time></trkpt><trkpt lat="43.5008266" lon="10.5599632"><ele>153.25</ele><time>2026-04-19T10:39:46.994Z</time></trkpt><trkpt lat="43.5008572" lon="10.5598124"><ele>153.0</ele><time>2026-04-19T10:39:47.985Z</time></trkpt><trkpt lat="43.5008887" lon="10.559673"><ele>150.8</ele><time>2026-04-19T10:39:49.004Z</time></trkpt><trkpt lat="43.5009168" lon="10.559533"><ele>148.60000000000002</ele><time>2026-04-19T10:39:49.97Z</time></trkpt><trkpt lat="43.500935" lon="10.5593819"><ele>146.39999999999998</ele><time>2026-04-19T10:39:50.988Z</time></trkpt><trkpt lat="43.5009477" lon="10.5592328"><ele>144.2</ele><time>2026-04-19T10:39:51.986Z</time></trkpt><trkpt lat="43.5009616" lon="10.5590961"><ele>142.0</ele><time>2026-04-19T10:39:52.988Z</time></trkpt><trkpt lat="43.5009727" lon="10.5589726"><ele>142.0</ele><time>2026-04-19T10:39:53.979Z</time></trkpt><trkpt lat="43.5009711" lon="10.5588338"><ele>142.0</ele><time>2026-04-19T10:39:55.976Z</time></trkpt><trkpt lat="43.5009654" lon="10.5587412"><ele>142.0</ele><time>2026-04-19T10:39:57.974Z</time></trkpt><trkpt lat="43.5009355" lon="10.5586495"><ele>142.0</ele><time>2026-04-19T10:39:59.985Z</time></trkpt><trkpt lat="43.500904" lon="10.5585481"><ele>142.0</ele><time>2026-04-19T10:40:01.983Z</time></trkpt><trkpt lat="43.500968" lon="10.5584668"><ele>142.0</ele><time>2026-04-19T10:40:03.991Z</time></trkpt><trkpt lat="43.5010334" lon="10.5584327"><ele>139.75</ele><time>2026-04-19T10:40:04.982Z</time></trkpt><trkpt lat="43.5011057" lon="10.5583956"><ele>137.5</ele><time>2026-04-19T10:40:05.987Z</time></trkpt><trkpt lat="43.5012161" lon="10.5583536"><ele>135.25</ele><time>2026-04-19T10:40:06.982Z</time></trkpt><trkpt lat="43.5013344" lon="10.5583053"><ele>133.0</ele><time>2026-04-19T10:40:07.97Z</time></trkpt><trkpt lat="43.5014607" lon="10.558234"><ele>133.0</ele><time>2026-04-19T10:40:08.981Z</time></trkpt><trkpt lat="43.5015887" lon="10.5581598"><ele>133.0</ele><time>2026-04-19T10:40:09.991Z</time></trkpt><trkpt lat="43.5017187" lon="10.5580987"><ele>133.0</ele><time>2026-04-19T10:40:10.982Z</time></trkpt><trkpt lat="43.5018498" lon="10.5580446"><ele>133.0</ele><time>2026-04-19T10:40:11.988Z</time></trkpt><trkpt lat="43.5019803" lon="10.5579855"><ele>133.5</ele><time>2026-04-19T10:40:12.985Z</time></trkpt><trkpt lat="43.502111" lon="10.5579236"><ele>134.0</ele><time>2026-04-19T10:40:13.983Z</time></trkpt><trkpt lat="43.5022356" lon="10.5578484"><ele>134.5</ele><time>2026-04-19T10:40:15.009Z</time></trkpt><trkpt lat="43.5023574" lon="10.5577971"><ele>135.0</ele><time>2026-04-19T10:40:15.988Z</time></trkpt><trkpt lat="43.5024851" lon="10.557749"><ele>135.0</ele><time>2026-04-19T10:40:16.992Z</time></trkpt><trkpt lat="43.5026144" lon="10.5577451"><ele>135.0</ele><time>2026-04-19T10:40:17.984Z</time></trkpt><trkpt lat="43.5027359" lon="10.5577619"><ele>135.0</ele><time>2026-04-19T10:40:18.984Z</time></trkpt><trkpt lat="43.5028554" lon="10.5577758"><ele>135.0</ele><time>2026-04-19T10:40:19.989Z</time></trkpt><trkpt lat="43.502959" lon="10.557782"><ele>135.75</ele><time>2026-04-19T10:40:20.984Z</time></trkpt><trkpt lat="43.5030682" lon="10.5577881"><ele>136.5</ele><time>2026-04-19T10:40:21.986Z</time></trkpt><trkpt lat="43.5031815" lon="10.5577926"><ele>137.25</ele><time>2026-04-19T10:40:22.985Z</time></trkpt><trkpt lat="43.5033077" lon="10.5577828"><ele>138.0</ele><time>2026-04-19T10:40:23.969Z</time></trkpt><trkpt lat="43.5034249" lon="10.5577788"><ele>138.0</ele><time>2026-04-19T10:40:24.978Z</time></trkpt><trkpt lat="43.5035258" lon="10.5577738"><ele>138.0</ele><time>2026-04-19T10:40:25.976Z</time></trkpt><trkpt lat="43.5036166" lon="10.5577671"><ele>138.0</ele><time>2026-04-19T10:40:26.977Z</time></trkpt><trkpt lat="43.5037222" lon="10.5577418"><ele>138.0</ele><time>2026-04-19T10:40:28.982Z</time></trkpt><trkpt lat="43.5038188" lon="10.5576907"><ele>138.0</ele><time>2026-04-19T10:40:30.987Z</time></trkpt><trkpt lat="43.5038785" lon="10.5576532"><ele>137.0</ele><time>2026-04-19T10:40:31.983Z</time></trkpt><trkpt lat="43.503924" lon="10.5575611"><ele>136.0</ele><time>2026-04-19T10:40:32.972Z</time></trkpt><trkpt lat="43.5039546" lon="10.557442"><ele>135.0</ele><time>2026-04-19T10:40:33.981Z</time></trkpt><trkpt lat="43.5039686" lon="10.5573063"><ele>134.0</ele><time>2026-04-19T10:40:34.977Z</time></trkpt><trkpt lat="43.5039712" lon="10.5571539"><ele>133.0</ele><time>2026-04-19T10:40:35.972Z</time></trkpt><trkpt lat="43.5039739" lon="10.557011"><ele>131.6</ele><time>2026-04-19T10:40:36.993Z</time></trkpt><trkpt lat="43.5039693" lon="10.5568668"><ele>130.20000000000002</ele><time>2026-04-19T10:40:37.989Z</time></trkpt><trkpt lat="43.5039862" lon="10.5567347"><ele>128.8</ele><time>2026-04-19T10:40:38.972Z</time></trkpt><trkpt lat="43.504021" lon="10.5566169"><ele>127.4</ele><time>2026-04-19T10:40:39.984Z</time></trkpt><trkpt lat="43.5040661" lon="10.5564989"><ele>126.0</ele><time>2026-04-19T10:40:40.984Z</time></trkpt><trkpt lat="43.5041142" lon="10.5563849"><ele>126.0</ele><time>2026-04-19T10:40:41.994Z</time></trkpt><trkpt lat="43.5041617" lon="10.5562699"><ele>126.0</ele><time>2026-04-19T10:40:42.989Z</time></trkpt><trkpt lat="43.5041739" lon="10.5561546"><ele>126.0</ele><time>2026-04-19T10:40:43.983Z</time></trkpt><trkpt lat="43.5041817" lon="10.5560469"><ele>126.0</ele><time>2026-04-19T10:40:44.979Z</time></trkpt><trkpt lat="43.5041468" lon="10.5559202"><ele>126.0</ele><time>2026-04-19T10:40:45.985Z</time></trkpt><trkpt lat="43.5041153" lon="10.5557771"><ele>124.0</ele><time>2026-04-19T10:40:46.987Z</time></trkpt><trkpt lat="43.5040924" lon="10.5556286"><ele>122.0</ele><time>2026-04-19T10:40:47.969Z</time></trkpt><trkpt lat="43.504067" lon="10.555472"><ele>120.0</ele><time>2026-04-19T10:40:48.963Z</time></trkpt><trkpt lat="43.5040715" lon="10.5553042"><ele>118.0</ele><time>2026-04-19T10:40:49.994Z</time></trkpt><trkpt lat="43.5040798" lon="10.5551352"><ele>116.60000000000001</ele><time>2026-04-19T10:40:50.979Z</time></trkpt><trkpt lat="43.5040843" lon="10.5549704"><ele>115.20000000000002</ele><time>2026-04-19T10:40:51.985Z</time></trkpt><trkpt lat="43.5040729" lon="10.5548179"><ele>113.8</ele><time>2026-04-19T10:40:52.988Z</time></trkpt><trkpt lat="43.5040511" lon="10.5546706"><ele>112.4</ele><time>2026-04-19T10:40:53.979Z</time></trkpt><trkpt lat="43.5040343" lon="10.5545236"><ele>111.0</ele><time>2026-04-19T10:40:54.971Z</time></trkpt><trkpt lat="43.5040266" lon="10.5543672"><ele>110.25</ele><time>2026-04-19T10:40:55.984Z</time></trkpt><trkpt lat="43.5040539" lon="10.5541933"><ele>109.5</ele><time>2026-04-19T10:40:56.999Z</time></trkpt><trkpt lat="43.504081" lon="10.5540217"><ele>108.75</ele><time>2026-04-19T10:40:57.985Z</time></trkpt><trkpt lat="43.5041267" lon="10.553855"><ele>108.0</ele><time>2026-04-19T10:40:58.983Z</time></trkpt><trkpt lat="43.5041745" lon="10.5536859"><ele>107.25</ele><time>2026-04-19T10:40:59.982Z</time></trkpt><trkpt lat="43.5042239" lon="10.5535134"><ele>106.5</ele><time>2026-04-19T10:41:00.988Z</time></trkpt><trkpt lat="43.5042713" lon="10.5533404"><ele>105.75</ele><time>2026-04-19T10:41:01.982Z</time></trkpt><trkpt lat="43.504319" lon="10.5531673"><ele>105.0</ele><time>2026-04-19T10:41:02.986Z</time></trkpt><trkpt lat="43.5043733" lon="10.5529909"><ele>104.0</ele><time>2026-04-19T10:41:03.983Z</time></trkpt><trkpt lat="43.5044263" lon="10.5528106"><ele>103.0</ele><time>2026-04-19T10:41:04.982Z</time></trkpt><trkpt lat="43.5044897" lon="10.5526307"><ele>102.0</ele><time>2026-04-19T10:41:05.988Z</time></trkpt><trkpt lat="43.504546" lon="10.5524646"><ele>101.0</ele><time>2026-04-19T10:41:06.986Z</time></trkpt><trkpt lat="43.5045975" lon="10.5523078"><ele>100.5</ele><time>2026-04-19T10:41:07.976Z</time></trkpt><trkpt lat="43.5046484" lon="10.5521558"><ele>100.0</ele><time>2026-04-19T10:41:08.979Z</time></trkpt><trkpt lat="43.5046968" lon="10.5519948"><ele>99.5</ele><time>2026-04-19T10:41:09.98Z</time></trkpt><trkpt lat="43.5047368" lon="10.5518531"><ele>99.0</ele><time>2026-04-19T10:41:10.984Z</time></trkpt><trkpt lat="43.5047654" lon="10.551718"><ele>98.6</ele><time>2026-04-19T10:41:11.982Z</time></trkpt><trkpt lat="43.5047775" lon="10.5515974"><ele>98.2</ele><time>2026-04-19T10:41:12.986Z</time></trkpt><trkpt lat="43.5047759" lon="10.5514829"><ele>97.8</ele><time>2026-04-19T10:41:13.988Z</time></trkpt><trkpt lat="43.5047745" lon="10.551351"><ele>97.39999999999999</ele><time>2026-04-19T10:41:14.968Z</time></trkpt><trkpt lat="43.5047853" lon="10.5511909"><ele>97.0</ele><time>2026-04-19T10:41:15.97Z</time></trkpt><trkpt lat="43.504796" lon="10.5510296"><ele>96.19999999999999</ele><time>2026-04-19T10:41:16.988Z</time></trkpt><trkpt lat="43.504828" lon="10.5508778"><ele>95.4</ele><time>2026-04-19T10:41:17.978Z</time></trkpt><trkpt lat="43.5048598" lon="10.5507441"><ele>94.6</ele><time>2026-04-19T10:41:18.983Z</time></trkpt><trkpt lat="43.5048902" lon="10.5506127"><ele>93.80000000000001</ele><time>2026-04-19T10:41:19.987Z</time></trkpt><trkpt lat="43.5049091" lon="10.5504796"><ele>93.0</ele><time>2026-04-19T10:41:20.987Z</time></trkpt><trkpt lat="43.5049114" lon="10.5503368"><ele>92.0</ele><time>2026-04-19T10:41:21.983Z</time></trkpt><trkpt lat="43.5049092" lon="10.5501883"><ele>91.0</ele><time>2026-04-19T10:41:22.989Z</time></trkpt><trkpt lat="43.504907" lon="10.5500513"><ele>90.0</ele><time>2026-04-19T10:41:23.984Z</time></trkpt><trkpt lat="43.5049008" lon="10.5499075"><ele>89.0</ele><time>2026-04-19T10:41:24.982Z</time></trkpt><trkpt lat="43.5048974" lon="10.5497649"><ele>88.0</ele><time>2026-04-19T10:41:25.992Z</time></trkpt><trkpt lat="43.5048866" lon="10.5496456"><ele>88.0</ele><time>2026-04-19T10:41:26.984Z</time></trkpt><trkpt lat="43.5048721" lon="10.5495566"><ele>88.0</ele><time>2026-04-19T10:41:27.975Z</time></trkpt><trkpt lat="43.5048206" lon="10.5494453"><ele>88.0</ele><time>2026-04-19T10:41:29.98Z</time></trkpt><trkpt lat="43.5047944" lon="10.5492462"><ele>88.0</ele><time>2026-04-19T10:41:31.989Z</time></trkpt><trkpt lat="43.5047887" lon="10.5491225"><ele>88.0</ele><time>2026-04-19T10:41:32.976Z</time></trkpt><trkpt lat="43.5047746" lon="10.5489603"><ele>87.75</ele><time>2026-04-19T10:41:33.99Z</time></trkpt><trkpt lat="43.5047612" lon="10.548787"><ele>87.5</ele><time>2026-04-19T10:41:34.983Z</time></trkpt><trkpt lat="43.504745" lon="10.5486127"><ele>87.25</ele><time>2026-04-19T10:41:35.989Z</time></trkpt><trkpt lat="43.5047293" lon="10.548456"><ele>87.0</ele><time>2026-04-19T10:41:36.98Z</time></trkpt><trkpt lat="43.504697" lon="10.5483242"><ele>87.0</ele><time>2026-04-19T10:41:37.997Z</time></trkpt><trkpt lat="43.5046668" lon="10.5482404"><ele>87.0</ele><time>2026-04-19T10:41:38.994Z</time></trkpt><trkpt lat="43.5046359" lon="10.548151"><ele>87.0</ele><time>2026-04-19T10:41:39.981Z</time></trkpt><trkpt lat="43.5046043" lon="10.5480572"><ele>87.0</ele><time>2026-04-19T10:41:40.99Z</time></trkpt><trkpt lat="43.5045757" lon="10.547953"><ele>87.0</ele><time>2026-04-19T10:41:41.988Z</time></trkpt><trkpt lat="43.5045447" lon="10.5478289"><ele>87.0</ele><time>2026-04-19T10:41:42.972Z</time></trkpt><trkpt lat="43.5045105" lon="10.5476979"><ele>94.0</ele><time>2026-04-19T10:41:43.987Z</time></trkpt><trkpt lat="43.5044746" lon="10.5475633"><ele>101.0</ele><time>2026-04-19T10:41:44.992Z</time></trkpt><trkpt lat="43.5044897" lon="10.5526307"><ele>101.0</ele><time>2026-04-19T10:41:05.988Z</time></trkpt><trkpt lat="43.504546" lon="10.5524646"><ele>101.0</ele><time>2026-04-19T10:41:06.986Z</time></trkpt><trkpt lat="43.5045975" lon="10.5523078"><ele>101.0</ele><time>2026-04-19T10:41:07.976Z</time></trkpt><trkpt lat="43.5046484" lon="10.5521558"><ele>101.0</ele><time>2026-04-19T10:41:08.979Z</time></trkpt><trkpt lat="43.5046968" lon="10.5519948"><ele>100.19999999999999</ele><time>2026-04-19T10:41:09.98Z</time></trkpt><trkpt lat="43.5047368" lon="10.5518531"><ele>99.39999999999999</ele><time>2026-04-19T10:41:10.984Z</time></trkpt><trkpt lat="43.5047654" lon="10.551718"><ele>98.6</ele><time>2026-04-19T10:41:11.982Z</time></trkpt><trkpt lat="43.5047775" lon="10.5515974"><ele>97.8</ele><time>2026-04-19T10:41:12.986Z</time></trkpt><trkpt lat="43.5047759" lon="10.5514829"><ele>97.0</ele><time>2026-04-19T10:41:13.988Z</time></trkpt><trkpt lat="43.5047745" lon="10.551351"><ele>96.0</ele><time>2026-04-19T10:41:14.968Z</time></trkpt><trkpt lat="43.5047853" lon="10.5511909"><ele>95.0</ele><time>2026-04-19T10:41:15.97Z</time></trkpt><trkpt lat="43.504796" lon="10.5510296"><ele>94.0</ele><time>2026-04-19T10:41:16.988Z</time></trkpt><trkpt lat="43.504828" lon="10.5508778"><ele>93.0</ele><time>2026-04-19T10:41:17.978Z</time></trkpt><trkpt lat="43.5048598" lon="10.5507441"><ele>93.0</ele><time>2026-04-19T10:41:18.983Z</time></trkpt><trkpt lat="43.5048902" lon="10.5506127"><ele>93.0</ele><time>2026-04-19T10:41:19.987Z</time></trkpt><trkpt lat="43.5049091" lon="10.5504796"><ele>93.0</ele><time>2026-04-19T10:41:20.987Z</time></trkpt><trkpt lat="43.5049114" lon="10.5503368"><ele>93.0</ele><time>2026-04-19T10:41:21.983Z</time></trkpt><trkpt lat="43.5049092" lon="10.5501883"><ele>93.0</ele><time>2026-04-19T10:41:22.989Z</time></trkpt><trkpt lat="43.504907" lon="10.5500513"><ele>92.0</ele><time>2026-04-19T10:41:23.984Z</time></trkpt><trkpt lat="43.5049008" lon="10.5499075"><ele>91.0</ele><time>2026-04-19T10:41:24.982Z</time></trkpt><trkpt lat="43.5048974" lon="10.5497649"><ele>90.0</ele><time>2026-04-19T10:41:25.992Z</time></trkpt><trkpt lat="43.5048866" lon="10.5496456"><ele>89.0</ele><time>2026-04-19T10:41:26.984Z</time></trkpt><trkpt lat="43.5048721" lon="10.5495566"><ele>88.0</ele><time>2026-04-19T10:41:27.975Z</time></trkpt><trkpt lat="43.5048206" lon="10.5494453"><ele>87.25</ele><time>2026-04-19T10:41:29.98Z</time></trkpt><trkpt lat="43.5047944" lon="10.5492462"><ele>86.5</ele><time>2026-04-19T10:41:31.989Z</time></trkpt><trkpt lat="43.5047887" lon="10.5491225"><ele>85.75</ele><time>2026-04-19T10:41:32.976Z</time></trkpt><trkpt lat="43.5047746" lon="10.5489603"><ele>85.0</ele><time>2026-04-19T10:41:33.99Z</time></trkpt><trkpt lat="43.5047612" lon="10.548787"><ele>85.4</ele><time>2026-04-19T10:41:34.983Z</time></trkpt><trkpt lat="43.504745" lon="10.5486127"><ele>85.8</ele><time>2026-04-19T10:41:35.989Z</time></trkpt><trkpt lat="43.5047293" lon="10.548456"><ele>86.19999999999999</ele><time>2026-04-19T10:41:36.98Z</time></trkpt><trkpt lat="43.504697" lon="10.5483242"><ele>86.6</ele><time>2026-04-19T10:41:37.997Z</time></trkpt><trkpt lat="43.5046668" lon="10.5482404"><ele>87.0</ele><time>2026-04-19T10:41:38.994Z</time></trkpt><trkpt lat="43.5046359" lon="10.548151"><ele>87.0</ele><time>2026-04-19T10:41:39.981Z</time></trkpt><trkpt lat="43.5046043" lon="10.5480572"><ele>87.0</ele><time>2026-04-19T10:41:40.99Z</time></trkpt><trkpt lat="43.5045757" lon="10.547953"><ele>87.0</ele><time>2026-04-19T10:41:41.988Z</time></trkpt><trkpt lat="43.5045447" lon="10.5478289"><ele>87.0</ele><time>2026-04-19T10:41:42.972Z</time></trkpt><trkpt lat="43.5045105" lon="10.5476979"><ele>87.0</ele><time>2026-04-19T10:41:43.987Z</time></trkpt><trkpt lat="43.5044746" lon="10.5475633"><ele>90.39999999999999</ele><time>2026-04-19T10:41:44.992Z</time></trkpt><trkpt lat="43.5044353" lon="10.5474283"><ele>93.8</ele><time>2026-04-19T10:41:45.968Z</time></trkpt><trkpt lat="43.5043964" lon="10.547297"><ele>97.2</ele><time>2026-04-19T10:41:46.985Z</time></trkpt><trkpt lat="43.5043533" lon="10.5471602"><ele>100.6</ele><time>2026-04-19T10:41:47.982Z</time></trkpt><trkpt lat="43.5043101" lon="10.5470242"><ele>104.0</ele><time>2026-04-19T10:41:48.982Z</time></trkpt><trkpt lat="43.5042677" lon="10.5468885"><ele>106.0</ele><time>2026-04-19T10:41:49.983Z</time></trkpt><trkpt lat="43.5042245" lon="10.5467463"><ele>108.0</ele><time>2026-04-19T10:41:50.992Z</time></trkpt><trkpt lat="43.504187" lon="10.5465951"><ele>110.0</ele><time>2026-04-19T10:41:51.982Z</time></trkpt><trkpt lat="43.5041485" lon="10.5464406"><ele>112.0</ele><time>2026-04-19T10:41:52.958Z</time></trkpt><trkpt lat="43.5041156" lon="10.5462884"><ele>113.25</ele><time>2026-04-19T10:41:53.991Z</time></trkpt><trkpt lat="43.5040858" lon="10.5461439"><ele>114.5</ele><time>2026-04-19T10:41:54.988Z</time></trkpt><trkpt lat="43.5040526" lon="10.5459955"><ele>115.75</ele><time>2026-04-19T10:41:55.986Z</time></trkpt><trkpt lat="43.5040189" lon="10.5458406"><ele>117.0</ele><time>2026-04-19T10:41:56.98Z</time></trkpt><trkpt lat="43.5039894" lon="10.5456895"><ele>117.0</ele><time>2026-04-19T10:41:57.989Z</time></trkpt><trkpt lat="43.5039653" lon="10.5455477"><ele>116.99999999999999</ele><time>2026-04-19T10:41:58.98Z</time></trkpt><trkpt lat="43.5039419" lon="10.5454112"><ele>116.99999999999999</ele><time>2026-04-19T10:41:59.993Z</time></trkpt><trkpt lat="43.5039212" lon="10.5452702"><ele>117.0</ele><time>2026-04-19T10:42:00.981Z</time></trkpt><trkpt lat="43.5039067" lon="10.5451183"><ele>117.0</ele><time>2026-04-19T10:42:01.992Z</time></trkpt><trkpt lat="43.503918" lon="10.5449626"><ele>118.5</ele><time>2026-04-19T10:42:02.982Z</time></trkpt><trkpt lat="43.5039267" lon="10.5448276"><ele>120.0</ele><time>2026-04-19T10:42:03.958Z</time></trkpt><trkpt lat="43.5039348" lon="10.5447103"><ele>121.5</ele><time>2026-04-19T10:42:04.987Z</time></trkpt><trkpt lat="43.5039409" lon="10.5446012"><ele>123.0</ele><time>2026-04-19T10:42:05.984Z</time></trkpt><trkpt lat="43.5039502" lon="10.5444938"><ele>124.5</ele><time>2026-04-19T10:42:06.984Z</time></trkpt><trkpt lat="43.5039572" lon="10.544399"><ele>126.0</ele><time>2026-04-19T10:42:07.979Z</time></trkpt><trkpt lat="43.5039689" lon="10.5442438"><ele>126.16666666666667</ele><time>2026-04-19T10:42:09.986Z</time></trkpt><trkpt lat="43.5039443" lon="10.5441514"><ele>126.33333333333334</ele><time>2026-04-19T10:42:11.976Z</time></trkpt><trkpt lat="43.5038728" lon="10.5441005"><ele>126.5</ele><time>2026-04-19T10:42:13.985Z</time></trkpt><trkpt lat="43.5038007" lon="10.5440211"><ele>126.66666666666667</ele><time>2026-04-19T10:42:15.984Z</time></trkpt><trkpt lat="43.5037546" lon="10.5438642"><ele>126.83333333333334</ele><time>2026-04-19T10:42:17.98Z</time></trkpt><trkpt lat="43.5037449" lon="10.5437663"><ele>127.0</ele><time>2026-04-19T10:42:18.982Z</time></trkpt><trkpt lat="43.5037352" lon="10.54367"><ele>127.00000000000001</ele><time>2026-04-19T10:42:19.98Z</time></trkpt><trkpt lat="43.5037272" lon="10.5435638"><ele>127.0</ele><time>2026-04-19T10:42:20.98Z</time></trkpt><trkpt lat="43.5037194" lon="10.5434558"><ele>127.0</ele><time>2026-04-19T10:42:21.993Z</time></trkpt><trkpt lat="43.5037151" lon="10.5433471"><ele>127.0</ele><time>2026-04-19T10:42:22.982Z</time></trkpt><trkpt lat="43.5037091" lon="10.5432255"><ele>127.00000000000001</ele><time>2026-04-19T10:42:23.981Z</time></trkpt><trkpt lat="43.503703" lon="10.5431041"><ele>127.0</ele><time>2026-04-19T10:42:24.983Z</time></trkpt><trkpt lat="43.5037024" lon="10.5429799"><ele>127.00000000000001</ele><time>2026-04-19T10:42:25.987Z</time></trkpt><trkpt lat="43.5037029" lon="10.5428624"><ele>127.0</ele><time>2026-04-19T10:42:26.986Z</time></trkpt><trkpt lat="43.5037025" lon="10.5427638"><ele>127.0</ele><time>2026-04-19T10:42:27.98Z</time></trkpt><trkpt lat="43.5037639" lon="10.5426931"><ele>127.0</ele><time>2026-04-19T10:42:30.965Z</time></trkpt><trkpt lat="43.5038504" lon="10.542767"><ele>127.00000000000001</ele><time>2026-04-19T10:42:32.99Z</time></trkpt><trkpt lat="43.5039117" lon="10.5428639"><ele>127.0</ele><time>2026-04-19T10:42:33.991Z</time></trkpt><trkpt lat="43.5039757" lon="10.5429579"><ele>128.4</ele><time>2026-04-19T10:42:34.979Z</time></trkpt><trkpt lat="43.5040404" lon="10.5430381"><ele>129.79999999999998</ele><time>2026-04-19T10:42:35.987Z</time></trkpt><trkpt lat="43.5041052" lon="10.5431149"><ele>131.2</ele><time>2026-04-19T10:42:36.986Z</time></trkpt><trkpt lat="43.5041838" lon="10.5431588"><ele>132.6</ele><time>2026-04-19T10:42:37.982Z</time></trkpt><trkpt lat="43.5042925" lon="10.543185"><ele>134.0</ele><time>2026-04-19T10:42:38.982Z</time></trkpt><trkpt lat="43.5044147" lon="10.5432078"><ele>134.0</ele><time>2026-04-19T10:42:40.002Z</time></trkpt><trkpt lat="43.5045544" lon="10.5432265"><ele>134.0</ele><time>2026-04-19T10:42:40.982Z</time></trkpt><trkpt lat="43.5046996" lon="10.5432438"><ele>134.0</ele><time>2026-04-19T10:42:41.978Z</time></trkpt><trkpt lat="43.5048498" lon="10.543262"><ele>134.0</ele><time>2026-04-19T10:42:42.976Z</time></trkpt><trkpt lat="43.505004" lon="10.5432785"><ele>133.33333333333331</ele><time>2026-04-19T10:42:43.985Z</time></trkpt><trkpt lat="43.5051691" lon="10.5432728"><ele>132.66666666666666</ele><time>2026-04-19T10:42:44.995Z</time></trkpt><trkpt lat="43.5053279" lon="10.5432507"><ele>132.0</ele><time>2026-04-19T10:42:45.99Z</time></trkpt><trkpt lat="43.5054904" lon="10.5432245"><ele>131.33333333333334</ele><time>2026-04-19T10:42:46.987Z</time></trkpt><trkpt lat="43.5056517" lon="10.5432005"><ele>130.66666666666669</ele><time>2026-04-19T10:42:47.989Z</time></trkpt><trkpt lat="43.5058199" lon="10.5431784"><ele>130.0</ele><time>2026-04-19T10:42:48.984Z</time></trkpt><trkpt lat="43.5059963" lon="10.5431571"><ele>130.0</ele><time>2026-04-19T10:42:49.988Z</time></trkpt><trkpt lat="43.5061659" lon="10.5431358"><ele>130.0</ele><time>2026-04-19T10:42:50.995Z</time></trkpt><trkpt lat="43.5063244" lon="10.5431302"><ele>130.0</ele><time>2026-04-19T10:42:51.985Z</time></trkpt><trkpt lat="43.5064846" lon="10.5431293"><ele>129.25</ele><time>2026-04-19T10:42:52.984Z</time></trkpt><trkpt lat="43.5066327" lon="10.5431573"><ele>128.5</ele><time>2026-04-19T10:42:53.991Z</time></trkpt><trkpt lat="43.5067815" lon="10.5431949"><ele>127.75</ele><time>2026-04-19T10:42:54.98Z</time></trkpt><trkpt lat="43.5069269" lon="10.5432334"><ele>127.0</ele><time>2026-04-19T10:42:55.989Z</time></trkpt><trkpt lat="43.5070746" lon="10.543251"><ele>126.0</ele><time>2026-04-19T10:42:57.001Z</time></trkpt><trkpt lat="43.5072259" lon="10.5432689"><ele>125.0</ele><time>2026-04-19T10:42:57.992Z</time></trkpt><trkpt lat="43.5073599" lon="10.5432861"><ele>124.0</ele><time>2026-04-19T10:42:58.992Z</time></trkpt><trkpt lat="43.5074673" lon="10.543307"><ele>123.0</ele><time>2026-04-19T10:42:59.993Z</time></trkpt><trkpt lat="43.5075472" lon="10.5433432"><ele>123.0</ele><time>2026-04-19T10:43:00.987Z</time></trkpt><trkpt lat="43.5076286" lon="10.5433993"><ele>123.0</ele><time>2026-04-19T10:43:01.983Z</time></trkpt><trkpt lat="43.5076928" lon="10.5435138"><ele>123.0</ele><time>2026-04-19T10:43:02.987Z</time></trkpt><trkpt lat="43.5077522" lon="10.54367"><ele>123.0</ele><time>2026-04-19T10:43:03.985Z</time></trkpt><trkpt lat="43.5078277" lon="10.543833"><ele>122.5</ele><time>2026-04-19T10:43:04.976Z</time></trkpt><trkpt lat="43.5079105" lon="10.5439973"><ele>122.0</ele><time>2026-04-19T10:43:05.979Z</time></trkpt><trkpt lat="43.5080031" lon="10.5441538"><ele>121.5</ele><time>2026-04-19T10:43:06.993Z</time></trkpt><trkpt lat="43.5080866" lon="10.5443169"><ele>121.0</ele><time>2026-04-19T10:43:07.988Z</time></trkpt><trkpt lat="43.5081622" lon="10.5444542"><ele>119.0</ele><time>2026-04-19T10:43:08.985Z</time></trkpt><trkpt lat="43.5082326" lon="10.5445816"><ele>117.0</ele><time>2026-04-19T10:43:09.988Z</time></trkpt><trkpt lat="43.5083168" lon="10.5447023"><ele>115.0</ele><time>2026-04-19T10:43:10.991Z</time></trkpt><trkpt lat="43.5084186" lon="10.5448239"><ele>113.0</ele><time>2026-04-19T10:43:11.979Z</time></trkpt><trkpt lat="43.5085246" lon="10.5449476"><ele>113.0</ele><time>2026-04-19T10:43:12.98Z</time></trkpt><trkpt lat="43.5086185" lon="10.5450557"><ele>113.0</ele><time>2026-04-19T10:43:13.983Z</time></trkpt><trkpt lat="43.5087175" lon="10.5451422"><ele>113.0</ele><time>2026-04-19T10:43:14.978Z</time></trkpt><trkpt lat="43.5088366" lon="10.5452283"><ele>113.0</ele><time>2026-04-19T10:43:15.985Z</time></trkpt><trkpt lat="43.5089682" lon="10.5453155"><ele>111.75</ele><time>2026-04-19T10:43:16.983Z</time></trkpt><trkpt lat="43.5091043" lon="10.5454086"><ele>110.5</ele><time>2026-04-19T10:43:17.984Z</time></trkpt><trkpt lat="43.5092296" lon="10.5455116"><ele>109.25</ele><time>2026-04-19T10:43:18.988Z</time></trkpt><trkpt lat="43.5093581" lon="10.5456209"><ele>108.0</ele><time>2026-04-19T10:43:20.001Z</time></trkpt><trkpt lat="43.5094822" lon="10.5457174"><ele>107.0</ele><time>2026-04-19T10:43:20.989Z</time></trkpt><trkpt lat="43.5096043" lon="10.5458106"><ele>106.0</ele><time>2026-04-19T10:43:21.992Z</time></trkpt><trkpt lat="43.5097205" lon="10.5458919"><ele>105.0</ele><time>2026-04-19T10:43:22.989Z</time></trkpt><trkpt lat="43.5098329" lon="10.5459682"><ele>104.0</ele><time>2026-04-19T10:43:23.984Z</time></trkpt><trkpt lat="43.5099544" lon="10.5460334"><ele>104.0</ele><time>2026-04-19T10:43:24.974Z</time></trkpt><trkpt lat="43.5100801" lon="10.5460983"><ele>104.0</ele><time>2026-04-19T10:43:25.992Z</time></trkpt><trkpt lat="43.5102107" lon="10.5461395"><ele>104.0</ele><time>2026-04-19T10:43:26.98Z</time></trkpt><trkpt lat="43.510366" lon="10.5461425"><ele>104.0</ele><time>2026-04-19T10:43:27.974Z</time></trkpt><trkpt lat="43.510524" lon="10.5461397"><ele>101.33333333333333</ele><time>2026-04-19T10:43:28.988Z</time></trkpt><trkpt lat="43.5106826" lon="10.5461503"><ele>98.66666666666666</ele><time>2026-04-19T10:43:29.989Z</time></trkpt><trkpt lat="43.5108344" lon="10.5461649"><ele>96.0</ele><time>2026-04-19T10:43:30.979Z</time></trkpt><trkpt lat="43.5109866" lon="10.5461779"><ele>96.0</ele><time>2026-04-19T10:43:31.991Z</time></trkpt><trkpt lat="43.5111515" lon="10.546176"><ele>96.0</ele><time>2026-04-19T10:43:32.988Z</time></trkpt><trkpt lat="43.5113032" lon="10.5461659"><ele>96.0</ele><time>2026-04-19T10:43:33.987Z</time></trkpt><trkpt lat="43.5114401" lon="10.5461493"><ele>95.0</ele><time>2026-04-19T10:43:34.992Z</time></trkpt><trkpt lat="43.5115763" lon="10.5461218"><ele>94.0</ele><time>2026-04-19T10:43:35.991Z</time></trkpt><trkpt lat="43.5117077" lon="10.5460614"><ele>93.0</ele><time>2026-04-19T10:43:36.991Z</time></trkpt><trkpt lat="43.511855" lon="10.5459726"><ele>92.0</ele><time>2026-04-19T10:43:37.995Z</time></trkpt><trkpt lat="43.5120005" lon="10.5458481"><ele>91.33333333333334</ele><time>2026-04-19T10:43:38.993Z</time></trkpt><trkpt lat="43.5121445" lon="10.5457216"><ele>90.66666666666667</ele><time>2026-04-19T10:43:39.983Z</time></trkpt><trkpt lat="43.5123079" lon="10.5456114"><ele>90.0</ele><time>2026-04-19T10:43:40.978Z</time></trkpt><trkpt lat="43.5124772" lon="10.5455127"><ele>90.0</ele><time>2026-04-19T10:43:41.991Z</time></trkpt><trkpt lat="43.5126426" lon="10.5454228"><ele>90.0</ele><time>2026-04-19T10:43:42.987Z</time></trkpt><trkpt lat="43.5127952" lon="10.545347"><ele>90.0</ele><time>2026-04-19T10:43:43.981Z</time></trkpt><trkpt lat="43.5129524" lon="10.5452939"><ele>89.33333333333333</ele><time>2026-04-19T10:43:44.994Z</time></trkpt><trkpt lat="43.5130992" lon="10.5452417"><ele>88.66666666666666</ele><time>2026-04-19T10:43:45.996Z</time></trkpt><trkpt lat="43.513267" lon="10.545164"><ele>88.0</ele><time>2026-04-19T10:43:46.973Z</time></trkpt><trkpt lat="43.5134343" lon="10.5450663"><ele>88.0</ele><time>2026-04-19T10:43:47.987Z</time></trkpt><trkpt lat="43.5135857" lon="10.5449697"><ele>88.0</ele><time>2026-04-19T10:43:48.986Z</time></trkpt><trkpt lat="43.5137289" lon="10.5448713"><ele>88.0</ele><time>2026-04-19T10:43:49.989Z</time></trkpt><trkpt lat="43.5138754" lon="10.5447422"><ele>88.25</ele><time>2026-04-19T10:43:50.984Z</time></trkpt><trkpt lat="43.5140076" lon="10.5446016"><ele>88.5</ele><time>2026-04-19T10:43:51.981Z</time></trkpt><trkpt lat="43.5141127" lon="10.5444905"><ele>88.75</ele><time>2026-04-19T10:43:52.987Z</time></trkpt><trkpt lat="43.5142054" lon="10.544379"><ele>89.0</ele><time>2026-04-19T10:43:53.994Z</time></trkpt><trkpt lat="43.5142929" lon="10.5442628"><ele>89.0</ele><time>2026-04-19T10:43:54.971Z</time></trkpt><trkpt lat="43.5143506" lon="10.5441399"><ele>89.0</ele><time>2026-04-19T10:43:55.984Z</time></trkpt><trkpt lat="43.5143843" lon="10.5440481"><ele>89.0</ele><time>2026-04-19T10:43:56.981Z</time></trkpt><trkpt lat="43.5144492" lon="10.543996"><ele>89.0</ele><time>2026-04-19T10:43:57.979Z</time></trkpt><trkpt lat="43.5145276" lon="10.5439321"><ele>89.0</ele><time>2026-04-19T10:43:58.969Z</time></trkpt><trkpt lat="43.5146533" lon="10.5439012"><ele>88.25</ele><time>2026-04-19T10:43:59.975Z</time></trkpt><trkpt lat="43.5147948" lon="10.5438691"><ele>87.5</ele><time>2026-04-19T10:44:00.988Z</time></trkpt><trkpt lat="43.5149331" lon="10.5438576"><ele>86.75</ele><time>2026-04-19T10:44:01.99Z</time></trkpt><trkpt lat="43.5150672" lon="10.5438489"><ele>86.0</ele><time>2026-04-19T10:44:02.991Z</time></trkpt><trkpt lat="43.5151913" lon="10.5438196"><ele>86.0</ele><time>2026-04-19T10:44:03.982Z</time></trkpt><trkpt lat="43.515322" lon="10.5437846"><ele>86.0</ele><time>2026-04-19T10:44:04.982Z</time></trkpt><trkpt lat="43.5154649" lon="10.5437111"><ele>86.0</ele><time>2026-04-19T10:44:05.988Z</time></trkpt><trkpt lat="43.5156008" lon="10.5436482"><ele>86.0</ele><time>2026-04-19T10:44:06.978Z</time></trkpt><trkpt lat="43.5157298" lon="10.5435819"><ele>84.0</ele><time>2026-04-19T10:44:07.979Z</time></trkpt><trkpt lat="43.5158649" lon="10.5434966"><ele>82.0</ele><time>2026-04-19T10:44:08.972Z</time></trkpt><trkpt lat="43.5160039" lon="10.543414"><ele>80.0</ele><time>2026-04-19T10:44:09.987Z</time></trkpt><trkpt lat="43.5161361" lon="10.5433378"><ele>78.0</ele><time>2026-04-19T10:44:10.987Z</time></trkpt><trkpt lat="43.5162691" lon="10.5432703"><ele>76.5</ele><time>2026-04-19T10:44:11.985Z</time></trkpt><trkpt lat="43.516394" lon="10.543202"><ele>75.0</ele><time>2026-04-19T10:44:12.976Z</time></trkpt><trkpt lat="43.5165001" lon="10.5431299"><ele>73.5</ele><time>2026-04-19T10:44:13.994Z</time></trkpt><trkpt lat="43.5166018" lon="10.5430349"><ele>72.0</ele><time>2026-04-19T10:44:14.985Z</time></trkpt><trkpt lat="43.5166576" lon="10.5428882"><ele>71.66666666666667</ele><time>2026-04-19T10:44:15.989Z</time></trkpt><trkpt lat="43.5167351" lon="10.5427198"><ele>71.33333333333334</ele><time>2026-04-19T10:44:16.99Z</time></trkpt><trkpt lat="43.5168142" lon="10.54254"><ele>71.0</ele><time>2026-04-19T10:44:17.988Z</time></trkpt><trkpt lat="43.5168865" lon="10.5423523"><ele>71.0</ele><time>2026-04-19T10:44:18.98Z</time></trkpt><trkpt lat="43.5169627" lon="10.5421786"><ele>71.0</ele><time>2026-04-19T10:44:19.996Z</time></trkpt><trkpt lat="43.5170387" lon="10.5420296"><ele>71.0</ele><time>2026-04-19T10:44:20.987Z</time></trkpt><trkpt lat="43.5171169" lon="10.541891"><ele>71.0</ele><time>2026-04-19T10:44:21.982Z</time></trkpt><trkpt lat="43.5172035" lon="10.5417486"><ele>69.33333333333334</ele><time>2026-04-19T10:44:22.972Z</time></trkpt><trkpt lat="43.5172925" lon="10.541577"><ele>67.66666666666667</ele><time>2026-04-19T10:44:23.992Z</time></trkpt><trkpt lat="43.5173733" lon="10.541394"><ele>66.0</ele><time>2026-04-19T10:44:24.987Z</time></trkpt><trkpt lat="43.5174513" lon="10.5412082"><ele>65.75</ele><time>2026-04-19T10:44:25.989Z</time></trkpt><trkpt lat="43.5175249" lon="10.5410418"><ele>65.5</ele><time>2026-04-19T10:44:26.989Z</time></trkpt><trkpt lat="43.5176001" lon="10.5408866"><ele>65.25</ele><time>2026-04-19T10:44:27.979Z</time></trkpt><trkpt lat="43.5176892" lon="10.5407495"><ele>65.0</ele><time>2026-04-19T10:44:28.992Z</time></trkpt><trkpt lat="43.5177755" lon="10.5406182"><ele>65.0</ele><time>2026-04-19T10:44:29.983Z</time></trkpt><trkpt lat="43.5178944" lon="10.5404922"><ele>65.0</ele><time>2026-04-19T10:44:30.988Z</time></trkpt><trkpt lat="43.5180225" lon="10.5403591"><ele>65.0</ele><time>2026-04-19T10:44:31.983Z</time></trkpt><trkpt lat="43.5181412" lon="10.5402341"><ele>64.75</ele><time>2026-04-19T10:44:32.983Z</time></trkpt><trkpt lat="43.5182476" lon="10.5401302"><ele>64.5</ele><time>2026-04-19T10:44:33.983Z</time></trkpt><trkpt lat="43.5183488" lon="10.5400478"><ele>64.25</ele><time>2026-04-19T10:44:34.986Z</time></trkpt><trkpt lat="43.5184465" lon="10.5399628"><ele>64.0</ele><time>2026-04-19T10:44:35.99Z</time></trkpt><trkpt lat="43.5185392" lon="10.539887"><ele>63.99999999999999</ele><time>2026-04-19T10:44:36.985Z</time></trkpt><trkpt lat="43.5186164" lon="10.5398272"><ele>64.0</ele><time>2026-04-19T10:44:37.992Z</time></trkpt><trkpt lat="43.5186825" lon="10.5397802"><ele>64.0</ele><time>2026-04-19T10:44:38.991Z</time></trkpt><trkpt lat="43.5188103" lon="10.5397858"><ele>64.0</ele><time>2026-04-19T10:44:40.985Z</time></trkpt><trkpt lat="43.5188733" lon="10.5398192"><ele>63.99999999999999</ele><time>2026-04-19T10:44:41.994Z</time></trkpt><trkpt lat="43.518933" lon="10.5398545"><ele>64.0</ele><time>2026-04-19T10:44:42.992Z</time></trkpt><trkpt lat="43.5190695" lon="10.5398296"><ele>72.0</ele><time>2026-04-19T10:44:44.991Z</time></trkpt><trkpt lat="43.5166018" lon="10.5430349"><ele>72.0</ele><time>2026-04-19T10:44:14.985Z</time></trkpt><trkpt lat="43.5166576" lon="10.5428882"><ele>72.0</ele><time>2026-04-19T10:44:15.989Z</time></trkpt><trkpt lat="43.5167351" lon="10.5427198"><ele>72.0</ele><time>2026-04-19T10:44:16.99Z</time></trkpt><trkpt lat="43.5168142" lon="10.54254"><ele>72.0</ele><time>2026-04-19T10:44:17.988Z</time></trkpt><trkpt lat="43.5168865" lon="10.5423523"><ele>71.75</ele><time>2026-04-19T10:44:18.98Z</time></trkpt><trkpt lat="43.5169627" lon="10.5421786"><ele>71.5</ele><time>2026-04-19T10:44:19.996Z</time></trkpt><trkpt lat="43.5170387" lon="10.5420296"><ele>71.25</ele><time>2026-04-19T10:44:20.987Z</time></trkpt><trkpt lat="43.5171169" lon="10.541891"><ele>71.0</ele><time>2026-04-19T10:44:21.982Z</time></trkpt><trkpt lat="43.5172035" lon="10.5417486"><ele>69.33333333333334</ele><time>2026-04-19T10:44:22.972Z</time></trkpt><trkpt lat="43.5172925" lon="10.541577"><ele>67.66666666666667</ele><time>2026-04-19T10:44:23.992Z</time></trkpt><trkpt lat="43.5173733" lon="10.541394"><ele>66.0</ele><time>2026-04-19T10:44:24.987Z</time></trkpt><trkpt lat="43.5174513" lon="10.5412082"><ele>65.75</ele><time>2026-04-19T10:44:25.989Z</time></trkpt><trkpt lat="43.5175249" lon="10.5410418"><ele>65.5</ele><time>2026-04-19T10:44:26.989Z</time></trkpt><trkpt lat="43.5176001" lon="10.5408866"><ele>65.25</ele><time>2026-04-19T10:44:27.979Z</time></trkpt><trkpt lat="43.5176892" lon="10.5407495"><ele>65.0</ele><time>2026-04-19T10:44:28.992Z</time></trkpt><trkpt lat="43.5177755" lon="10.5406182"><ele>65.0</ele><time>2026-04-19T10:44:29.983Z</time></trkpt><trkpt lat="43.5178944" lon="10.5404922"><ele>65.0</ele><time>2026-04-19T10:44:30.988Z</time></trkpt><trkpt lat="43.5180225" lon="10.5403591"><ele>65.0</ele><time>2026-04-19T10:44:31.983Z</time></trkpt><trkpt lat="43.5181412" lon="10.5402341"><ele>64.75</ele><time>2026-04-19T10:44:32.983Z</time></trkpt><trkpt lat="43.5182476" lon="10.5401302"><ele>64.5</ele><time>2026-04-19T10:44:33.983Z</time></trkpt><trkpt lat="43.5183488" lon="10.5400478"><ele>64.25</ele><time>2026-04-19T10:44:34.986Z</time></trkpt><trkpt lat="43.5184465" lon="10.5399628"><ele>64.0</ele><time>2026-04-19T10:44:35.99Z</time></trkpt><trkpt lat="43.5185392" lon="10.539887"><ele>63.99999999999999</ele><time>2026-04-19T10:44:36.985Z</time></trkpt><trkpt lat="43.5186164" lon="10.5398272"><ele>64.0</ele><time>2026-04-19T10:44:37.992Z</time></trkpt><trkpt lat="43.5186825" lon="10.5397802"><ele>64.0</ele><time>2026-04-19T10:44:38.991Z</time></trkpt><trkpt lat="43.5188103" lon="10.5397858"><ele>64.0</ele><time>2026-04-19T10:44:40.985Z</time></trkpt><trkpt lat="43.5188733" lon="10.5398192"><ele>63.99999999999999</ele><time>2026-04-19T10:44:41.994Z</time></trkpt><trkpt lat="43.518933" lon="10.5398545"><ele>64.0</ele><time>2026-04-19T10:44:42.992Z</time></trkpt><trkpt lat="43.5190695" lon="10.5398296"><ele>64.2</ele><time>2026-04-19T10:44:44.991Z</time></trkpt><trkpt lat="43.5191511" lon="10.5397669"><ele>64.4</ele><time>2026-04-19T10:44:45.977Z</time></trkpt><trkpt lat="43.5192364" lon="10.5396979"><ele>64.6</ele><time>2026-04-19T10:44:46.988Z</time></trkpt><trkpt lat="43.5193286" lon="10.5396575"><ele>64.8</ele><time>2026-04-19T10:44:47.989Z</time></trkpt><trkpt lat="43.5194229" lon="10.5396207"><ele>65.0</ele><time>2026-04-19T10:44:48.979Z</time></trkpt><trkpt lat="43.5194917" lon="10.5395883"><ele>65.5</ele><time>2026-04-19T10:44:49.985Z</time></trkpt><trkpt lat="43.5195562" lon="10.5395389"><ele>66.0</ele><time>2026-04-19T10:44:50.981Z</time></trkpt><trkpt lat="43.5196149" lon="10.5394745"><ele>66.5</ele><time>2026-04-19T10:44:51.98Z</time></trkpt><trkpt lat="43.5196653" lon="10.5393803"><ele>67.0</ele><time>2026-04-19T10:44:52.989Z</time></trkpt><trkpt lat="43.5197147" lon="10.5392897"><ele>67.5</ele><time>2026-04-19T10:44:53.983Z</time></trkpt><trkpt lat="43.5197757" lon="10.5392109"><ele>68.0</ele><time>2026-04-19T10:44:54.979Z</time></trkpt><trkpt lat="43.5198452" lon="10.5391388"><ele>66.0</ele><time>2026-04-19T10:44:55.986Z</time></trkpt><trkpt lat="43.5199346" lon="10.539087"><ele>64.0</ele><time>2026-04-19T10:44:56.988Z</time></trkpt><trkpt lat="43.5200172" lon="10.5390486"><ele>62.0</ele><time>2026-04-19T10:44:57.993Z</time></trkpt><trkpt lat="43.5200976" lon="10.5390517"><ele>60.0</ele><time>2026-04-19T10:44:58.988Z</time></trkpt><trkpt lat="43.5201869" lon="10.5390895"><ele>58.0</ele><time>2026-04-19T10:44:59.983Z</time></trkpt><trkpt lat="43.5202997" lon="10.5391228"><ele>57.33333333333333</ele><time>2026-04-19T10:45:00.989Z</time></trkpt><trkpt lat="43.5204082" lon="10.5391492"><ele>56.666666666666664</ele><time>2026-04-19T10:45:01.986Z</time></trkpt><trkpt lat="43.5205088" lon="10.5391632"><ele>56.0</ele><time>2026-04-19T10:45:02.986Z</time></trkpt><trkpt lat="43.5205813" lon="10.5391606"><ele>55.33333333333333</ele><time>2026-04-19T10:45:03.982Z</time></trkpt><trkpt lat="43.5206774" lon="10.5391381"><ele>54.666666666666664</ele><time>2026-04-19T10:45:05.982Z</time></trkpt><trkpt lat="43.5207256" lon="10.5390745"><ele>54.0</ele><time>2026-04-19T10:45:07.98Z</time></trkpt><trkpt lat="43.5207574" lon="10.5389251"><ele>54.0</ele><time>2026-04-19T10:45:09.988Z</time></trkpt><trkpt lat="43.5207675" lon="10.5387989"><ele>54.00000000000001</ele><time>2026-04-19T10:45:10.999Z</time></trkpt><trkpt lat="43.5207726" lon="10.5386472"><ele>54.00000000000001</ele><time>2026-04-19T10:45:11.989Z</time></trkpt><trkpt lat="43.5207886" lon="10.5384931"><ele>54.0</ele><time>2026-04-19T10:45:12.984Z</time></trkpt><trkpt lat="43.5208069" lon="10.5383307"><ele>54.0</ele><time>2026-04-19T10:45:13.98Z</time></trkpt><trkpt lat="43.5208716" lon="10.5381934"><ele>54.25</ele><time>2026-04-19T10:45:14.987Z</time></trkpt><trkpt lat="43.5209696" lon="10.5380805"><ele>54.5</ele><time>2026-04-19T10:45:15.983Z</time></trkpt><trkpt lat="43.52109" lon="10.5379647"><ele>54.75</ele><time>2026-04-19T10:45:16.984Z</time></trkpt><trkpt lat="43.5212087" lon="10.537836"><ele>55.0</ele><time>2026-04-19T10:45:17.991Z</time></trkpt><trkpt lat="43.5213311" lon="10.5376953"><ele>55.33333333333333</ele><time>2026-04-19T10:45:18.985Z</time></trkpt><trkpt lat="43.5214491" lon="10.537544"><ele>55.66666666666667</ele><time>2026-04-19T10:45:19.971Z</time></trkpt><trkpt lat="43.5215536" lon="10.5373967"><ele>56.0</ele><time>2026-04-19T10:45:20.981Z</time></trkpt><trkpt lat="43.5216377" lon="10.5372342"><ele>55.66666666666667</ele><time>2026-04-19T10:45:21.981Z</time></trkpt><trkpt lat="43.5217042" lon="10.5370492"><ele>55.33333333333333</ele><time>2026-04-19T10:45:22.985Z</time></trkpt><trkpt lat="43.5217565" lon="10.5368508"><ele>55.0</ele><time>2026-04-19T10:45:23.999Z</time></trkpt><trkpt lat="43.5218047" lon="10.5366514"><ele>55.0</ele><time>2026-04-19T10:45:24.982Z</time></trkpt><trkpt lat="43.5218576" lon="10.5364868"><ele>55.0</ele><time>2026-04-19T10:45:25.992Z</time></trkpt><trkpt lat="43.5219147" lon="10.5363287"><ele>55.0</ele><time>2026-04-19T10:45:26.987Z</time></trkpt><trkpt lat="43.5220226" lon="10.5362196"><ele>55.0</ele><time>2026-04-19T10:45:27.986Z</time></trkpt><trkpt lat="43.5221564" lon="10.5361303"><ele>55.0</ele><time>2026-04-19T10:45:28.985Z</time></trkpt><trkpt lat="43.5222978" lon="10.5360338"><ele>55.0</ele><time>2026-04-19T10:45:29.99Z</time></trkpt><trkpt lat="43.5224502" lon="10.5359293"><ele>55.0</ele><time>2026-04-19T10:45:30.991Z</time></trkpt><trkpt lat="43.5226081" lon="10.5358334"><ele>55.0</ele><time>2026-04-19T10:45:31.995Z</time></trkpt><trkpt lat="43.5227726" lon="10.5357565"><ele>55.0</ele><time>2026-04-19T10:45:32.992Z</time></trkpt><trkpt lat="43.5229427" lon="10.5357044"><ele>55.0</ele><time>2026-04-19T10:45:33.986Z</time></trkpt><trkpt lat="43.5231148" lon="10.5356858"><ele>55.25</ele><time>2026-04-19T10:45:34.983Z</time></trkpt><trkpt lat="43.5232675" lon="10.535695"><ele>55.5</ele><time>2026-04-19T10:45:35.991Z</time></trkpt><trkpt lat="43.5233928" lon="10.5357069"><ele>55.75</ele><time>2026-04-19T10:45:36.994Z</time></trkpt><trkpt lat="43.5234991" lon="10.5356924"><ele>56.0</ele><time>2026-04-19T10:45:37.993Z</time></trkpt><trkpt lat="43.5235933" lon="10.5356502"><ele>56.0</ele><time>2026-04-19T10:45:38.979Z</time></trkpt><trkpt lat="43.5236996" lon="10.535594"><ele>55.99999999999999</ele><time>2026-04-19T10:45:39.98Z</time></trkpt><trkpt lat="43.523769" lon="10.535464"><ele>55.99999999999999</ele><time>2026-04-19T10:45:40.983Z</time></trkpt><trkpt lat="43.5238254" lon="10.5353433"><ele>56.0</ele><time>2026-04-19T10:45:41.985Z</time></trkpt><trkpt lat="43.5238765" lon="10.5352524"><ele>56.0</ele><time>2026-04-19T10:45:42.991Z</time></trkpt><trkpt lat="43.5239827" lon="10.5351764"><ele>56.0</ele><time>2026-04-19T10:45:44.992Z</time></trkpt><trkpt lat="43.5240593" lon="10.5351899"><ele>55.99999999999999</ele><time>2026-04-19T10:45:45.991Z</time></trkpt><trkpt lat="43.5241446" lon="10.5352402"><ele>55.99999999999999</ele><time>2026-04-19T10:45:46.986Z</time></trkpt><trkpt lat="43.5242409" lon="10.5353189"><ele>56.0</ele><time>2026-04-19T10:45:47.989Z</time></trkpt><trkpt lat="43.5243309" lon="10.5353939"><ele>56.0</ele><time>2026-04-19T10:45:48.986Z</time></trkpt><trkpt lat="43.5244064" lon="10.5354528"><ele>56.00000000000001</ele><time>2026-04-19T10:45:49.985Z</time></trkpt><trkpt lat="43.5245085" lon="10.5354755"><ele>56.0</ele><time>2026-04-19T10:45:51.987Z</time></trkpt><trkpt lat="43.5245849" lon="10.5353894"><ele>56.0</ele><time>2026-04-19T10:45:53.971Z</time></trkpt><trkpt lat="43.5246202" lon="10.5353145"><ele>56.0</ele><time>2026-04-19T10:45:54.963Z</time></trkpt><trkpt lat="43.5246395" lon="10.5351994"><ele>56.00000000000001</ele><time>2026-04-19T10:45:55.991Z</time></trkpt><trkpt lat="43.5246524" lon="10.5350699"><ele>56.0</ele><time>2026-04-19T10:45:56.989Z</time></trkpt><trkpt lat="43.5246631" lon="10.5349397"><ele>56.16666666666667</ele><time>2026-04-19T10:45:57.977Z</time></trkpt><trkpt lat="43.5246758" lon="10.5348221"><ele>56.333333333333336</ele><time>2026-04-19T10:45:58.994Z</time></trkpt><trkpt lat="43.5246968" lon="10.5346994"><ele>56.5</ele><time>2026-04-19T10:45:59.99Z</time></trkpt><trkpt lat="43.5247225" lon="10.53457"><ele>56.66666666666667</ele><time>2026-04-19T10:46:00.988Z</time></trkpt><trkpt lat="43.5247409" lon="10.5344437"><ele>56.833333333333336</ele><time>2026-04-19T10:46:01.982Z</time></trkpt><trkpt lat="43.5247562" lon="10.5343428"><ele>57.0</ele><time>2026-04-19T10:46:02.987Z</time></trkpt><trkpt lat="43.5247778" lon="10.5341862"><ele>57.0</ele><time>2026-04-19T10:46:04.995Z</time></trkpt><trkpt lat="43.524788" lon="10.5340714"><ele>57.0</ele><time>2026-04-19T10:46:05.987Z</time></trkpt><trkpt lat="43.5247816" lon="10.5339171"><ele>57.0</ele><time>2026-04-19T10:46:06.983Z</time></trkpt><trkpt lat="43.5247608" lon="10.5337213"><ele>57.0</ele><time>2026-04-19T10:46:07.993Z</time></trkpt><trkpt lat="43.5247323" lon="10.5334995"><ele>56.66666666666667</ele><time>2026-04-19T10:46:08.987Z</time></trkpt><trkpt lat="43.5247104" lon="10.5332587"><ele>56.333333333333336</ele><time>2026-04-19T10:46:09.987Z</time></trkpt><trkpt lat="43.5246974" lon="10.533001"><ele>56.0</ele><time>2026-04-19T10:46:10.985Z</time></trkpt><trkpt lat="43.5247028" lon="10.5327316"><ele>55.66666666666667</ele><time>2026-04-19T10:46:11.981Z</time></trkpt><trkpt lat="43.5247314" lon="10.5324536"><ele>55.33333333333333</ele><time>2026-04-19T10:46:12.995Z</time></trkpt><trkpt lat="43.5247892" lon="10.5321803"><ele>55.0</ele><time>2026-04-19T10:46:13.989Z</time></trkpt><trkpt lat="43.52487" lon="10.5319156"><ele>54.666666666666664</ele><time>2026-04-19T10:46:14.997Z</time></trkpt><trkpt lat="43.5249699" lon="10.5316645"><ele>54.33333333333333</ele><time>2026-04-19T10:46:15.988Z</time></trkpt><trkpt lat="43.5250826" lon="10.5314256"><ele>54.0</ele><time>2026-04-19T10:46:16.981Z</time></trkpt><trkpt lat="43.5252035" lon="10.5311973"><ele>54.66666666666667</ele><time>2026-04-19T10:46:17.989Z</time></trkpt><trkpt lat="43.5253206" lon="10.5309796"><ele>55.333333333333336</ele><time>2026-04-19T10:46:18.991Z</time></trkpt><trkpt lat="43.5254315" lon="10.5307661"><ele>56.0</ele><time>2026-04-19T10:46:19.989Z</time></trkpt><trkpt lat="43.5255397" lon="10.5305571"><ele>54.333333333333336</ele><time>2026-04-19T10:46:20.992Z</time></trkpt><trkpt lat="43.5256472" lon="10.5303527"><ele>52.66666666666667</ele><time>2026-04-19T10:46:21.985Z</time></trkpt><trkpt lat="43.5257552" lon="10.5301509"><ele>51.0</ele><time>2026-04-19T10:46:22.989Z</time></trkpt><trkpt lat="43.5258642" lon="10.529952"><ele>51.0</ele><time>2026-04-19T10:46:23.982Z</time></trkpt><trkpt lat="43.5259706" lon="10.5297504"><ele>51.0</ele><time>2026-04-19T10:46:24.987Z</time></trkpt><trkpt lat="43.5260752" lon="10.5295488"><ele>51.0</ele><time>2026-04-19T10:46:25.987Z</time></trkpt><trkpt lat="43.5261816" lon="10.5293503"><ele>50.33333333333333</ele><time>2026-04-19T10:46:26.979Z</time></trkpt><trkpt lat="43.5262878" lon="10.5291557"><ele>49.666666666666664</ele><time>2026-04-19T10:46:27.999Z</time></trkpt><trkpt lat="43.5263915" lon="10.5289599"><ele>49.0</ele><time>2026-04-19T10:46:28.982Z</time></trkpt><trkpt lat="43.5264946" lon="10.5287638"><ele>48.666666666666664</ele><time>2026-04-19T10:46:29.994Z</time></trkpt><trkpt lat="43.5265972" lon="10.5285687"><ele>48.33333333333333</ele><time>2026-04-19T10:46:30.991Z</time></trkpt><trkpt lat="43.5266942" lon="10.5283865"><ele>48.0</ele><time>2026-04-19T10:46:31.994Z</time></trkpt><trkpt lat="43.526781" lon="10.5282226"><ele>48.0</ele><time>2026-04-19T10:46:32.992Z</time></trkpt><trkpt lat="43.5268588" lon="10.5280773"><ele>48.0</ele><time>2026-04-19T10:46:33.991Z</time></trkpt><trkpt lat="43.5269285" lon="10.5279469"><ele>48.0</ele><time>2026-04-19T10:46:34.988Z</time></trkpt><trkpt lat="43.5269927" lon="10.5278269"><ele>48.0</ele><time>2026-04-19T10:46:35.989Z</time></trkpt><trkpt lat="43.527053" lon="10.5277177"><ele>47.57142857142857</ele><time>2026-04-19T10:46:36.986Z</time></trkpt><trkpt lat="43.5271074" lon="10.5276181"><ele>47.14285714285714</ele><time>2026-04-19T10:46:37.983Z</time></trkpt><trkpt lat="43.5271544" lon="10.5275339"><ele>46.71428571428571</ele><time>2026-04-19T10:46:38.993Z</time></trkpt><trkpt lat="43.5272009" lon="10.5274579"><ele>46.285714285714285</ele><time>2026-04-19T10:46:39.968Z</time></trkpt><trkpt lat="43.5272512" lon="10.5273898"><ele>45.85714285714286</ele><time>2026-04-19T10:46:40.995Z</time></trkpt><trkpt lat="43.5273037" lon="10.5273416"><ele>45.42857142857142</ele><time>2026-04-19T10:46:41.99Z</time></trkpt><trkpt lat="43.5273658" lon="10.5273146"><ele>45.0</ele><time>2026-04-19T10:46:42.984Z</time></trkpt><trkpt lat="43.527445" lon="10.5273064"><ele>45.0</ele><time>2026-04-19T10:46:43.986Z</time></trkpt><trkpt lat="43.5275419" lon="10.5273182"><ele>45.0</ele><time>2026-04-19T10:46:44.988Z</time></trkpt><trkpt lat="43.5276516" lon="10.5273362"><ele>45.0</ele><time>2026-04-19T10:46:45.998Z</time></trkpt><trkpt lat="43.5277721" lon="10.5273483"><ele>45.0</ele><time>2026-04-19T10:46:47.002Z</time></trkpt><trkpt lat="43.527908" lon="10.5273587"><ele>45.333333333333336</ele><time>2026-04-19T10:46:47.983Z</time></trkpt><trkpt lat="43.5280535" lon="10.5273708"><ele>45.66666666666667</ele><time>2026-04-19T10:46:48.985Z</time></trkpt><trkpt lat="43.5282098" lon="10.5273818"><ele>46.0</ele><time>2026-04-19T10:46:49.984Z</time></trkpt><trkpt lat="43.5283738" lon="10.5273923"><ele>46.0</ele><time>2026-04-19T10:46:50.986Z</time></trkpt><trkpt lat="43.5285471" lon="10.5273988"><ele>46.0</ele><time>2026-04-19T10:46:51.986Z</time></trkpt><trkpt lat="43.5287268" lon="10.5274092"><ele>46.0</ele><time>2026-04-19T10:46:52.983Z</time></trkpt><trkpt lat="43.5289072" lon="10.5274269"><ele>46.0</ele><time>2026-04-19T10:46:53.982Z</time></trkpt><trkpt lat="43.5290861" lon="10.5274465"><ele>46.0</ele><time>2026-04-19T10:46:54.987Z</time></trkpt><trkpt lat="43.5292674" lon="10.5274696"><ele>46.0</ele><time>2026-04-19T10:46:55.983Z</time></trkpt><trkpt lat="43.5294514" lon="10.527504"><ele>46.0</ele><time>2026-04-19T10:46:56.985Z</time></trkpt><trkpt lat="43.5296318" lon="10.5275514"><ele>46.0</ele><time>2026-04-19T10:46:57.979Z</time></trkpt><trkpt lat="43.5298081" lon="10.5276081"><ele>46.0</ele><time>2026-04-19T10:46:58.991Z</time></trkpt><trkpt lat="43.5299816" lon="10.5276698"><ele>46.0</ele><time>2026-04-19T10:46:59.994Z</time></trkpt><trkpt lat="43.5301543" lon="10.5277317"><ele>46.0</ele><time>2026-04-19T10:47:00.988Z</time></trkpt><trkpt lat="43.5303258" lon="10.5277877"><ele>46.0</ele><time>2026-04-19T10:47:01.993Z</time></trkpt><trkpt lat="43.5304954" lon="10.5278326"><ele>45.333333333333336</ele><time>2026-04-19T10:47:02.993Z</time></trkpt><trkpt lat="43.5306661" lon="10.5278613"><ele>44.666666666666664</ele><time>2026-04-19T10:47:03.992Z</time></trkpt><trkpt lat="43.5308395" lon="10.5278692"><ele>44.0</ele><time>2026-04-19T10:47:04.985Z</time></trkpt><trkpt lat="43.5310127" lon="10.5278628"><ele>44.0</ele><time>2026-04-19T10:47:05.997Z</time></trkpt><trkpt lat="43.5311872" lon="10.5278474"><ele>44.0</ele><time>2026-04-19T10:47:06.993Z</time></trkpt><trkpt lat="43.5313624" lon="10.5278278"><ele>44.0</ele><time>2026-04-19T10:47:07.988Z</time></trkpt><trkpt lat="43.5315398" lon="10.5278076"><ele>44.0</ele><time>2026-04-19T10:47:08.98Z</time></trkpt><trkpt lat="43.5317204" lon="10.527786"><ele>44.0</ele><time>2026-04-19T10:47:09.982Z</time></trkpt><trkpt lat="43.5319025" lon="10.5277638"><ele>44.0</ele><time>2026-04-19T10:47:10.988Z</time></trkpt><trkpt lat="43.5320848" lon="10.5277408"><ele>43.666666666666664</ele><time>2026-04-19T10:47:11.991Z</time></trkpt><trkpt lat="43.5322667" lon="10.5277171"><ele>43.333333333333336</ele><time>2026-04-19T10:47:12.991Z</time></trkpt><trkpt lat="43.532449" lon="10.527695"><ele>43.0</ele><time>2026-04-19T10:47:13.976Z</time></trkpt><trkpt lat="43.5326317" lon="10.52768"><ele>43.0</ele><time>2026-04-19T10:47:14.979Z</time></trkpt><trkpt lat="43.5328146" lon="10.5276721"><ele>43.0</ele><time>2026-04-19T10:47:15.989Z</time></trkpt><trkpt lat="43.532998" lon="10.5276649"><ele>43.0</ele><time>2026-04-19T10:47:16.982Z</time></trkpt><trkpt lat="43.533182" lon="10.5276533"><ele>43.0</ele><time>2026-04-19T10:47:17.992Z</time></trkpt><trkpt lat="43.5333713" lon="10.5276377"><ele>43.0</ele><time>2026-04-19T10:47:18.983Z</time></trkpt><trkpt lat="43.5335516" lon="10.5276043"><ele>43.0</ele><time>2026-04-19T10:47:19.984Z</time></trkpt><trkpt lat="43.5337306" lon="10.5275645"><ele>43.333333333333336</ele><time>2026-04-19T10:47:20.99Z</time></trkpt><trkpt lat="43.5339105" lon="10.5275048"><ele>43.666666666666664</ele><time>2026-04-19T10:47:21.973Z</time></trkpt><trkpt lat="43.5340872" lon="10.5274548"><ele>44.0</ele><time>2026-04-19T10:47:22.982Z</time></trkpt><trkpt lat="43.5342584" lon="10.5273996"><ele>44.0</ele><time>2026-04-19T10:47:23.992Z</time></trkpt><trkpt lat="43.5344294" lon="10.5273466"><ele>44.0</ele><time>2026-04-19T10:47:24.997Z</time></trkpt><trkpt lat="43.5346025" lon="10.5273012"><ele>44.0</ele><time>2026-04-19T10:47:25.993Z</time></trkpt><trkpt lat="43.534776" lon="10.5272673"><ele>43.33333333333333</ele><time>2026-04-19T10:47:26.989Z</time></trkpt><trkpt lat="43.5349502" lon="10.5272431"><ele>42.666666666666664</ele><time>2026-04-19T10:47:27.985Z</time></trkpt><trkpt lat="43.5351269" lon="10.5272246"><ele>42.0</ele><time>2026-04-19T10:47:28.985Z</time></trkpt><trkpt lat="43.535303" lon="10.5272107"><ele>42.333333333333336</ele><time>2026-04-19T10:47:29.993Z</time></trkpt><trkpt lat="43.5354788" lon="10.5271996"><ele>42.66666666666667</ele><time>2026-04-19T10:47:30.975Z</time></trkpt><trkpt lat="43.5356531" lon="10.5271939"><ele>43.0</ele><time>2026-04-19T10:47:31.989Z</time></trkpt><trkpt lat="43.53583" lon="10.5271847"><ele>43.0</ele><time>2026-04-19T10:47:32.992Z</time></trkpt><trkpt lat="43.5360003" lon="10.5271681"><ele>43.0</ele><time>2026-04-19T10:47:33.993Z</time></trkpt><trkpt lat="43.5361617" lon="10.5271406"><ele>43.0</ele><time>2026-04-19T10:47:34.984Z</time></trkpt><trkpt lat="43.53632" lon="10.5270852"><ele>42.333333333333336</ele><time>2026-04-19T10:47:35.981Z</time></trkpt><trkpt lat="43.5364704" lon="10.5269992"><ele>41.666666666666664</ele><time>2026-04-19T10:47:36.987Z</time></trkpt><trkpt lat="43.5366188" lon="10.5268924"><ele>41.0</ele><time>2026-04-19T10:47:37.984Z</time></trkpt><trkpt lat="43.5367674" lon="10.5267805"><ele>41.0</ele><time>2026-04-19T10:47:38.982Z</time></trkpt><trkpt lat="43.5369142" lon="10.5266609"><ele>41.0</ele><time>2026-04-19T10:47:39.988Z</time></trkpt><trkpt lat="43.5370722" lon="10.5265831"><ele>41.0</ele><time>2026-04-19T10:47:40.98Z</time></trkpt><trkpt lat="43.5372372" lon="10.5265408"><ele>40.666666666666664</ele><time>2026-04-19T10:47:41.979Z</time></trkpt><trkpt lat="43.5374072" lon="10.5265232"><ele>40.333333333333336</ele><time>2026-04-19T10:47:42.991Z</time></trkpt><trkpt lat="43.5375822" lon="10.5265174"><ele>40.0</ele><time>2026-04-19T10:47:43.98Z</time></trkpt><trkpt lat="43.5377714" lon="10.5265426"><ele>41.0</ele><time>2026-04-19T10:47:44.982Z</time></trkpt><trkpt lat="43.5379525" lon="10.526541"><ele>42.0</ele><time>2026-04-19T10:47:45.971Z</time></trkpt><trkpt lat="43.5381366" lon="10.5265272"><ele>43.0</ele><time>2026-04-19T10:47:46.989Z</time></trkpt><trkpt lat="43.5383185" lon="10.526498"><ele>43.0</ele><time>2026-04-19T10:47:47.992Z</time></trkpt><trkpt lat="43.5384959" lon="10.5264639"><ele>43.0</ele><time>2026-04-19T10:47:48.985Z</time></trkpt><trkpt lat="43.538666" lon="10.5264298"><ele>43.0</ele><time>2026-04-19T10:47:49.993Z</time></trkpt><trkpt lat="43.5388302" lon="10.5264011"><ele>42.66666666666667</ele><time>2026-04-19T10:47:50.98Z</time></trkpt><trkpt lat="43.5389882" lon="10.5263806"><ele>42.333333333333336</ele><time>2026-04-19T10:47:51.991Z</time></trkpt><trkpt lat="43.5391381" lon="10.5263687"><ele>42.0</ele><time>2026-04-19T10:47:52.992Z</time></trkpt><trkpt lat="43.5392859" lon="10.5263647"><ele>42.0</ele><time>2026-04-19T10:47:53.971Z</time></trkpt><trkpt lat="43.5394351" lon="10.5263618"><ele>42.0</ele><time>2026-04-19T10:47:54.97Z</time></trkpt><trkpt lat="43.5395843" lon="10.526393"><ele>42.0</ele><time>2026-04-19T10:47:55.986Z</time></trkpt><trkpt lat="43.5397344" lon="10.5264391"><ele>42.333333333333336</ele><time>2026-04-19T10:47:56.983Z</time></trkpt><trkpt lat="43.5398869" lon="10.526501"><ele>42.66666666666667</ele><time>2026-04-19T10:47:57.969Z</time></trkpt><trkpt lat="43.5400386" lon="10.5265742"><ele>43.0</ele><time>2026-04-19T10:47:58.992Z</time></trkpt><trkpt lat="43.5401938" lon="10.5266456"><ele>43.0</ele><time>2026-04-19T10:47:59.986Z</time></trkpt><trkpt lat="43.5403576" lon="10.5267191"><ele>43.0</ele><time>2026-04-19T10:48:00.983Z</time></trkpt><trkpt lat="43.5405205" lon="10.526784"><ele>43.0</ele><time>2026-04-19T10:48:01.988Z</time></trkpt><trkpt lat="43.5406858" lon="10.5268458"><ele>42.0</ele><time>2026-04-19T10:48:02.986Z</time></trkpt><trkpt lat="43.5408503" lon="10.5269027"><ele>41.0</ele><time>2026-04-19T10:48:03.99Z</time></trkpt><trkpt lat="43.5410167" lon="10.5269549"><ele>40.0</ele><time>2026-04-19T10:48:04.983Z</time></trkpt><trkpt lat="43.5411836" lon="10.5270095"><ele>39.66666666666667</ele><time>2026-04-19T10:48:05.98Z</time></trkpt><trkpt lat="43.5413454" lon="10.527059"><ele>39.333333333333336</ele><time>2026-04-19T10:48:06.988Z</time></trkpt><trkpt lat="43.5415008" lon="10.527105"><ele>39.0</ele><time>2026-04-19T10:48:07.99Z</time></trkpt><trkpt lat="43.5416485" lon="10.5271267"><ele>40.0</ele><time>2026-04-19T10:48:08.988Z</time></trkpt><trkpt lat="43.5417998" lon="10.5271409"><ele>41.0</ele><time>2026-04-19T10:48:09.978Z</time></trkpt><trkpt lat="43.5419596" lon="10.5271477"><ele>42.0</ele><time>2026-04-19T10:48:10.983Z</time></trkpt><trkpt lat="43.5421184" lon="10.5271452"><ele>42.0</ele><time>2026-04-19T10:48:11.97Z</time></trkpt><trkpt lat="43.5422653" lon="10.527139"><ele>42.0</ele><time>2026-04-19T10:48:12.992Z</time></trkpt><trkpt lat="43.5424065" lon="10.5271286"><ele>42.0</ele><time>2026-04-19T10:48:13.988Z</time></trkpt><trkpt lat="43.5425445" lon="10.5271055"><ele>42.0</ele><time>2026-04-19T10:48:14.981Z</time></trkpt><trkpt lat="43.5426833" lon="10.5270576"><ele>42.0</ele><time>2026-04-19T10:48:15.99Z</time></trkpt><trkpt lat="43.5428261" lon="10.5269934"><ele>42.0</ele><time>2026-04-19T10:48:16.99Z</time></trkpt><trkpt lat="43.5429694" lon="10.5269249"><ele>42.0</ele><time>2026-04-19T10:48:17.983Z</time></trkpt><trkpt lat="43.5431165" lon="10.5268551"><ele>41.75</ele><time>2026-04-19T10:48:18.979Z</time></trkpt><trkpt lat="43.543269" lon="10.5267867"><ele>41.5</ele><time>2026-04-19T10:48:19.992Z</time></trkpt><trkpt lat="43.5434132" lon="10.5267219"><ele>41.25</ele><time>2026-04-19T10:48:20.987Z</time></trkpt><trkpt lat="43.5435401" lon="10.5266642"><ele>41.0</ele><time>2026-04-19T10:48:21.99Z</time></trkpt><trkpt lat="43.5436478" lon="10.5266166"><ele>41.199999999999996</ele><time>2026-04-19T10:48:22.987Z</time></trkpt><trkpt lat="43.5437365" lon="10.5265835"><ele>41.4</ele><time>2026-04-19T10:48:23.986Z</time></trkpt><trkpt lat="43.5438145" lon="10.5265641"><ele>41.6</ele><time>2026-04-19T10:48:24.986Z</time></trkpt><trkpt lat="43.5438841" lon="10.5265465"><ele>41.8</ele><time>2026-04-19T10:48:25.985Z</time></trkpt><trkpt lat="43.5439836" lon="10.5264994"><ele>42.0</ele><time>2026-04-19T10:48:27.986Z</time></trkpt><trkpt lat="43.5440184" lon="10.5263386"><ele>41.75</ele><time>2026-04-19T10:48:29.985Z</time></trkpt><trkpt lat="43.5440049" lon="10.526215"><ele>41.5</ele><time>2026-04-19T10:48:30.983Z</time></trkpt><trkpt lat="43.543988" lon="10.5260647"><ele>41.25</ele><time>2026-04-19T10:48:31.995Z</time></trkpt><trkpt lat="43.5439726" lon="10.5258986"><ele>41.0</ele><time>2026-04-19T10:48:32.999Z</time></trkpt><trkpt lat="43.5439538" lon="10.5257183"><ele>41.0</ele><time>2026-04-19T10:48:33.987Z</time></trkpt><trkpt lat="43.5439288" lon="10.5255329"><ele>41.0</ele><time>2026-04-19T10:48:34.979Z</time></trkpt><trkpt lat="43.5439029" lon="10.5253417"><ele>41.0</ele><time>2026-04-19T10:48:35.98Z</time></trkpt><trkpt lat="43.5438795" lon="10.5251366"><ele>41.0</ele><time>2026-04-19T10:48:36.98Z</time></trkpt><trkpt lat="43.5438596" lon="10.5249205"><ele>40.0</ele><time>2026-04-19T10:48:37.988Z</time></trkpt><trkpt lat="43.5438483" lon="10.5246994"><ele>39.0</ele><time>2026-04-19T10:48:38.984Z</time></trkpt><trkpt lat="43.5438519" lon="10.5244796"><ele>38.0</ele><time>2026-04-19T10:48:39.993Z</time></trkpt><trkpt lat="43.5438708" lon="10.5242645"><ele>37.666666666666664</ele><time>2026-04-19T10:48:40.991Z</time></trkpt><trkpt lat="43.5439015" lon="10.5240516"><ele>37.333333333333336</ele><time>2026-04-19T10:48:41.984Z</time></trkpt><trkpt lat="43.5439463" lon="10.5238442"><ele>37.0</ele><time>2026-04-19T10:48:42.988Z</time></trkpt><trkpt lat="43.5440078" lon="10.5236436"><ele>36.66666666666667</ele><time>2026-04-19T10:48:43.995Z</time></trkpt><trkpt lat="43.5440792" lon="10.5234489"><ele>36.333333333333336</ele><time>2026-04-19T10:48:44.982Z</time></trkpt><trkpt lat="43.5441561" lon="10.5232582"><ele>36.0</ele><time>2026-04-19T10:48:45.99Z</time></trkpt><trkpt lat="43.5442292" lon="10.5230781"><ele>36.0</ele><time>2026-04-19T10:48:46.992Z</time></trkpt><trkpt lat="43.5442952" lon="10.5229138"><ele>36.0</ele><time>2026-04-19T10:48:47.985Z</time></trkpt><trkpt lat="43.5443557" lon="10.5227649"><ele>36.0</ele><time>2026-04-19T10:48:49.001Z</time></trkpt><trkpt lat="43.544416" lon="10.522631"><ele>36.0</ele><time>2026-04-19T10:48:49.991Z</time></trkpt><trkpt lat="43.5444855" lon="10.5225046"><ele>36.0</ele><time>2026-04-19T10:48:50.984Z</time></trkpt><trkpt lat="43.5445674" lon="10.5224084"><ele>36.0</ele><time>2026-04-19T10:48:51.983Z</time></trkpt><trkpt lat="43.5446662" lon="10.5223372"><ele>36.0</ele><time>2026-04-19T10:48:52.99Z</time></trkpt><trkpt lat="43.5447848" lon="10.5222784"><ele>36.0</ele><time>2026-04-19T10:48:53.983Z</time></trkpt><trkpt lat="43.5449121" lon="10.5222263"><ele>36.0</ele><time>2026-04-19T10:48:54.992Z</time></trkpt><trkpt lat="43.5450649" lon="10.5221774"><ele>36.0</ele><time>2026-04-19T10:48:55.992Z</time></trkpt><trkpt lat="43.5452261" lon="10.5221257"><ele>36.0</ele><time>2026-04-19T10:48:56.986Z</time></trkpt><trkpt lat="43.5453964" lon="10.52207"><ele>36.333333333333336</ele><time>2026-04-19T10:48:57.982Z</time></trkpt><trkpt lat="43.5455672" lon="10.5220075"><ele>36.66666666666667</ele><time>2026-04-19T10:48:58.978Z</time></trkpt><trkpt lat="43.5457372" lon="10.5219419"><ele>37.0</ele><time>2026-04-19T10:48:59.986Z</time></trkpt><trkpt lat="43.5459073" lon="10.5218778"><ele>37.0</ele><time>2026-04-19T10:49:00.992Z</time></trkpt><trkpt lat="43.546076" lon="10.521812"><ele>37.0</ele><time>2026-04-19T10:49:01.98Z</time></trkpt><trkpt lat="43.5462499" lon="10.521748"><ele>37.0</ele><time>2026-04-19T10:49:02.994Z</time></trkpt><trkpt lat="43.5464223" lon="10.5216813"><ele>36.333333333333336</ele><time>2026-04-19T10:49:03.989Z</time></trkpt><trkpt lat="43.5465949" lon="10.5216135"><ele>35.666666666666664</ele><time>2026-04-19T10:49:04.981Z</time></trkpt><trkpt lat="43.5467575" lon="10.521544"><ele>35.0</ele><time>2026-04-19T10:49:05.983Z</time></trkpt><trkpt lat="43.5468855" lon="10.5214894"><ele>35.0</ele><time>2026-04-19T10:49:06.993Z</time></trkpt><trkpt lat="43.5469988" lon="10.5214423"><ele>35.0</ele><time>2026-04-19T10:49:07.993Z</time></trkpt><trkpt lat="43.5471225" lon="10.5213902"><ele>35.0</ele><time>2026-04-19T10:49:08.983Z</time></trkpt><trkpt lat="43.5472555" lon="10.5213289"><ele>35.0</ele><time>2026-04-19T10:49:09.985Z</time></trkpt><trkpt lat="43.5474004" lon="10.5212445"><ele>35.0</ele><time>2026-04-19T10:49:10.982Z</time></trkpt><trkpt lat="43.547544" lon="10.5211342"><ele>35.0</ele><time>2026-04-19T10:49:11.993Z</time></trkpt><trkpt lat="43.547684" lon="10.5210031"><ele>35.0</ele><time>2026-04-19T10:49:12.992Z</time></trkpt><trkpt lat="43.5478193" lon="10.5208511"><ele>34.666666666666664</ele><time>2026-04-19T10:49:13.984Z</time></trkpt><trkpt lat="43.5479512" lon="10.5206865"><ele>34.333333333333336</ele><time>2026-04-19T10:49:14.985Z</time></trkpt><trkpt lat="43.5480839" lon="10.5205168"><ele>34.0</ele><time>2026-04-19T10:49:15.985Z</time></trkpt><trkpt lat="43.5482176" lon="10.5203453"><ele>34.0</ele><time>2026-04-19T10:49:16.964Z</time></trkpt><trkpt lat="43.5483437" lon="10.520193"><ele>34.0</ele><time>2026-04-19T10:49:17.985Z</time></trkpt><trkpt lat="43.5484533" lon="10.5200644"><ele>34.0</ele><time>2026-04-19T10:49:18.983Z</time></trkpt><trkpt lat="43.5485599" lon="10.5199341"><ele>34.0</ele><time>2026-04-19T10:49:19.987Z</time></trkpt><trkpt lat="43.5486713" lon="10.5197928"><ele>34.0</ele><time>2026-04-19T10:49:20.984Z</time></trkpt><trkpt lat="43.5487908" lon="10.5196431"><ele>34.0</ele><time>2026-04-19T10:49:21.979Z</time></trkpt><trkpt lat="43.5489105" lon="10.5194903"><ele>35.0</ele><time>2026-04-19T10:49:22.993Z</time></trkpt><trkpt lat="43.5490323" lon="10.5193385"><ele>36.0</ele><time>2026-04-19T10:49:23.987Z</time></trkpt><trkpt lat="43.5491532" lon="10.5191857"><ele>37.0</ele><time>2026-04-19T10:49:24.992Z</time></trkpt><trkpt lat="43.5492694" lon="10.5190372"><ele>37.0</ele><time>2026-04-19T10:49:25.981Z</time></trkpt><trkpt lat="43.5493793" lon="10.5189054"><ele>37.0</ele><time>2026-04-19T10:49:26.987Z</time></trkpt><trkpt lat="43.5494823" lon="10.5187863"><ele>37.0</ele><time>2026-04-19T10:49:27.985Z</time></trkpt><trkpt lat="43.5495748" lon="10.5186727"><ele>37.0</ele><time>2026-04-19T10:49:28.969Z</time></trkpt><trkpt lat="43.5496634" lon="10.5185644"><ele>36.5</ele><time>2026-04-19T10:49:29.985Z</time></trkpt><trkpt lat="43.5497515" lon="10.5184573"><ele>36.0</ele><time>2026-04-19T10:49:30.976Z</time></trkpt><trkpt lat="43.5498382" lon="10.5183493"><ele>35.5</ele><time>2026-04-19T10:49:31.985Z</time></trkpt><trkpt lat="43.5499253" lon="10.5182458"><ele>35.0</ele><time>2026-04-19T10:49:32.992Z</time></trkpt><trkpt lat="43.5500112" lon="10.5181422"><ele>35.0</ele><time>2026-04-19T10:49:33.989Z</time></trkpt><trkpt lat="43.5500973" lon="10.5180445"><ele>35.0</ele><time>2026-04-19T10:49:34.998Z</time></trkpt><trkpt lat="43.5501684" lon="10.5179623"><ele>35.0</ele><time>2026-04-19T10:49:35.981Z</time></trkpt><trkpt lat="43.5502315" lon="10.5178912"><ele>35.0</ele><time>2026-04-19T10:49:36.98Z</time></trkpt><trkpt lat="43.5502825" lon="10.5178324"><ele>35.0</ele><time>2026-04-19T10:49:37.991Z</time></trkpt><trkpt lat="43.550369" lon="10.5177674"><ele>34.75</ele><time>2026-04-19T10:49:39.989Z</time></trkpt><trkpt lat="43.5504746" lon="10.5177983"><ele>34.5</ele><time>2026-04-19T10:49:41.993Z</time></trkpt><trkpt lat="43.5505881" lon="10.5178306"><ele>34.25</ele><time>2026-04-19T10:49:43.982Z</time></trkpt><trkpt lat="43.5507101" lon="10.5177604"><ele>34.0</ele><time>2026-04-19T10:49:45.986Z</time></trkpt><trkpt lat="43.5507805" lon="10.5176484"><ele>34.0</ele><time>2026-04-19T10:49:46.988Z</time></trkpt><trkpt lat="43.5508699" lon="10.5175314"><ele>34.0</ele><time>2026-04-19T10:49:47.992Z</time></trkpt><trkpt lat="43.5509723" lon="10.5174131"><ele>34.0</ele><time>2026-04-19T10:49:48.98Z</time></trkpt><trkpt lat="43.5510874" lon="10.5172917"><ele>34.0</ele><time>2026-04-19T10:49:49.977Z</time></trkpt><trkpt lat="43.5511971" lon="10.5171703"><ele>34.0</ele><time>2026-04-19T10:49:50.995Z</time></trkpt><trkpt lat="43.5513164" lon="10.5170325"><ele>34.0</ele><time>2026-04-19T10:49:51.981Z</time></trkpt><trkpt lat="43.5514375" lon="10.5168826"><ele>34.0</ele><time>2026-04-19T10:49:52.985Z</time></trkpt><trkpt lat="43.5515588" lon="10.51674"><ele>34.0</ele><time>2026-04-19T10:49:53.987Z</time></trkpt><trkpt lat="43.5516717" lon="10.5166"><ele>34.0</ele><time>2026-04-19T10:49:54.984Z</time></trkpt><trkpt lat="43.5517886" lon="10.516468"><ele>34.0</ele><time>2026-04-19T10:49:55.993Z</time></trkpt><trkpt lat="43.5518969" lon="10.5163293"><ele>34.0</ele><time>2026-04-19T10:49:56.985Z</time></trkpt><trkpt lat="43.5520063" lon="10.5161869"><ele>34.0</ele><time>2026-04-19T10:49:57.995Z</time></trkpt><trkpt lat="43.5521163" lon="10.5160542"><ele>34.0</ele><time>2026-04-19T10:49:58.986Z</time></trkpt><trkpt lat="43.5522232" lon="10.5159221"><ele>34.0</ele><time>2026-04-19T10:49:59.984Z</time></trkpt><trkpt lat="43.5523357" lon="10.5157919"><ele>35.0</ele><time>2026-04-19T10:50:00.984Z</time></trkpt><trkpt lat="43.5524431" lon="10.5156626"><ele>36.0</ele><time>2026-04-19T10:50:01.992Z</time></trkpt><trkpt lat="43.5525411" lon="10.515533"><ele>37.0</ele><time>2026-04-19T10:50:02.993Z</time></trkpt><trkpt lat="43.5526294" lon="10.5154175"><ele>38.0</ele><time>2026-04-19T10:50:03.984Z</time></trkpt><trkpt lat="43.552713" lon="10.5153055"><ele>38.0</ele><time>2026-04-19T10:50:04.968Z</time></trkpt><trkpt lat="43.5527967" lon="10.5151959"><ele>38.0</ele><time>2026-04-19T10:50:05.981Z</time></trkpt><trkpt lat="43.5528829" lon="10.5151092"><ele>38.0</ele><time>2026-04-19T10:50:06.979Z</time></trkpt><trkpt lat="43.5529732" lon="10.5150318"><ele>38.0</ele><time>2026-04-19T10:50:07.984Z</time></trkpt><trkpt lat="43.5530715" lon="10.5149587"><ele>38.0</ele><time>2026-04-19T10:50:08.985Z</time></trkpt><trkpt lat="43.553168" lon="10.5148974"><ele>39.8</ele><time>2026-04-19T10:50:09.987Z</time></trkpt><trkpt lat="43.5532625" lon="10.5148531"><ele>41.599999999999994</ele><time>2026-04-19T10:50:10.962Z</time></trkpt><trkpt lat="43.5533459" lon="10.5147932"><ele>43.400000000000006</ele><time>2026-04-19T10:50:11.993Z</time></trkpt><trkpt lat="43.5534469" lon="10.5147301"><ele>45.2</ele><time>2026-04-19T10:50:12.988Z</time></trkpt><trkpt lat="43.5535475" lon="10.5146614"><ele>47.0</ele><time>2026-04-19T10:50:13.982Z</time></trkpt><trkpt lat="43.5536514" lon="10.5146085"><ele>45.0</ele><time>2026-04-19T10:50:14.991Z</time></trkpt><trkpt lat="43.5537631" lon="10.5145706"><ele>43.0</ele><time>2026-04-19T10:50:15.99Z</time></trkpt><trkpt lat="43.5538524" lon="10.5145057"><ele>41.0</ele><time>2026-04-19T10:50:16.983Z</time></trkpt><trkpt lat="43.5539406" lon="10.5144101"><ele>39.0</ele><time>2026-04-19T10:50:17.985Z</time></trkpt><trkpt lat="43.5540301" lon="10.5142693"><ele>39.0</ele><time>2026-04-19T10:50:18.976Z</time></trkpt><trkpt lat="43.5541118" lon="10.5141551"><ele>39.0</ele><time>2026-04-19T10:50:19.972Z</time></trkpt><trkpt lat="43.5541782" lon="10.5140494"><ele>39.0</ele><time>2026-04-19T10:50:20.974Z</time></trkpt><trkpt lat="43.5542312" lon="10.5139807"><ele>39.0</ele><time>2026-04-19T10:50:21.99Z</time></trkpt><trkpt lat="43.5543413" lon="10.5138972"><ele>39.0</ele><time>2026-04-19T10:50:23.983Z</time></trkpt><trkpt lat="43.5544336" lon="10.5138948"><ele>41.25</ele><time>2026-04-19T10:50:24.989Z</time></trkpt><trkpt lat="43.5545437" lon="10.5139005"><ele>43.5</ele><time>2026-04-19T10:50:25.98Z</time></trkpt><trkpt lat="43.5546621" lon="10.5139054"><ele>45.75</ele><time>2026-04-19T10:50:26.981Z</time></trkpt><trkpt lat="43.554814" lon="10.5139056"><ele>48.0</ele><time>2026-04-19T10:50:27.984Z</time></trkpt><trkpt lat="43.5549729" lon="10.5138883"><ele>48.0</ele><time>2026-04-19T10:50:28.988Z</time></trkpt><trkpt lat="43.5551353" lon="10.5138555"><ele>48.0</ele><time>2026-04-19T10:50:29.987Z</time></trkpt><trkpt lat="43.5553022" lon="10.5138183"><ele>48.0</ele><time>2026-04-19T10:50:30.983Z</time></trkpt><trkpt lat="43.5554647" lon="10.5137502"><ele>54.0</ele><time>2026-04-19T10:50:31.981Z</time></trkpt><trkpt lat="43.5556288" lon="10.5136667"><ele>60.0</ele><time>2026-04-19T10:50:32.972Z</time></trkpt><trkpt lat="43.555789" lon="10.5135635"><ele>66.0</ele><time>2026-04-19T10:50:33.982Z</time></trkpt><trkpt lat="43.5559438" lon="10.5134442"><ele>66.0</ele><time>2026-04-19T10:50:34.994Z</time></trkpt><trkpt lat="43.5560935" lon="10.5133074"><ele>66.0</ele><time>2026-04-19T10:50:35.982Z</time></trkpt><trkpt lat="43.5562199" lon="10.5131804"><ele>66.0</ele><time>2026-04-19T10:50:36.972Z</time></trkpt><trkpt lat="43.5563279" lon="10.5130619"><ele>66.66666666666667</ele><time>2026-04-19T10:50:37.987Z</time></trkpt><trkpt lat="43.5564122" lon="10.5128815"><ele>67.33333333333334</ele><time>2026-04-19T10:50:38.974Z</time></trkpt><trkpt lat="43.5564889" lon="10.5126742"><ele>68.0</ele><time>2026-04-19T10:50:39.979Z</time></trkpt><trkpt lat="43.5565662" lon="10.5124885"><ele>68.0</ele><time>2026-04-19T10:50:40.993Z</time></trkpt><trkpt lat="43.5566601" lon="10.5123433"><ele>68.0</ele><time>2026-04-19T10:50:41.984Z</time></trkpt><trkpt lat="43.5567543" lon="10.5122134"><ele>68.0</ele><time>2026-04-19T10:50:42.991Z</time></trkpt><trkpt lat="43.5568809" lon="10.5120975"><ele>68.0</ele><time>2026-04-19T10:50:43.988Z</time></trkpt><trkpt lat="43.5570291" lon="10.5119621"><ele>65.0</ele><time>2026-04-19T10:50:44.98Z</time></trkpt><trkpt lat="43.5571847" lon="10.5118165"><ele>62.0</ele><time>2026-04-19T10:50:45.988Z</time></trkpt><trkpt lat="43.5573432" lon="10.5116707"><ele>59.0</ele><time>2026-04-19T10:50:46.988Z</time></trkpt><trkpt lat="43.5574999" lon="10.5115269"><ele>59.0</ele><time>2026-04-19T10:50:47.977Z</time></trkpt><trkpt lat="43.5576573" lon="10.5113858"><ele>59.0</ele><time>2026-04-19T10:50:48.982Z</time></trkpt><trkpt lat="43.5578121" lon="10.5112389"><ele>59.0</ele><time>2026-04-19T10:50:49.992Z</time></trkpt><trkpt lat="43.5579641" lon="10.5110781"><ele>58.66666666666667</ele><time>2026-04-19T10:50:50.984Z</time></trkpt><trkpt lat="43.5581079" lon="10.5109358"><ele>58.33333333333333</ele><time>2026-04-19T10:50:51.978Z</time></trkpt><trkpt lat="43.5582407" lon="10.5108115"><ele>58.0</ele><time>2026-04-19T10:50:52.982Z</time></trkpt><trkpt lat="43.5583707" lon="10.5106896"><ele>58.0</ele><time>2026-04-19T10:50:53.993Z</time></trkpt><trkpt lat="43.558497" lon="10.5105873"><ele>58.0</ele><time>2026-04-19T10:50:54.985Z</time></trkpt><trkpt lat="43.5586249" lon="10.5104989"><ele>58.0</ele><time>2026-04-19T10:50:55.995Z</time></trkpt><trkpt lat="43.5587673" lon="10.5104215"><ele>58.0</ele><time>2026-04-19T10:50:56.989Z</time></trkpt><trkpt lat="43.5589095" lon="10.5103444"><ele>57.0</ele><time>2026-04-19T10:50:57.981Z</time></trkpt><trkpt lat="43.5590599" lon="10.5102726"><ele>56.0</ele><time>2026-04-19T10:50:58.98Z</time></trkpt><trkpt lat="43.5592121" lon="10.5102117"><ele>55.0</ele><time>2026-04-19T10:50:59.988Z</time></trkpt><trkpt lat="43.5593662" lon="10.5101532"><ele>53.666666666666664</ele><time>2026-04-19T10:51:00.98Z</time></trkpt><trkpt lat="43.5595403" lon="10.5101124"><ele>52.33333333333333</ele><time>2026-04-19T10:51:01.981Z</time></trkpt><trkpt lat="43.5597049" lon="10.5100474"><ele>51.0</ele><time>2026-04-19T10:51:02.989Z</time></trkpt><trkpt lat="43.5598736" lon="10.5099909"><ele>51.0</ele><time>2026-04-19T10:51:03.978Z</time></trkpt><trkpt lat="43.5600432" lon="10.5099422"><ele>51.0</ele><time>2026-04-19T10:51:04.985Z</time></trkpt><trkpt lat="43.5601969" lon="10.5098966"><ele>51.0</ele><time>2026-04-19T10:51:05.984Z</time></trkpt><trkpt lat="43.5603365" lon="10.5098521"><ele>50.8</ele><time>2026-04-19T10:51:06.971Z</time></trkpt><trkpt lat="43.5604476" lon="10.5098241"><ele>50.599999999999994</ele><time>2026-04-19T10:51:07.982Z</time></trkpt><trkpt lat="43.5605464" lon="10.5097981"><ele>50.4</ele><time>2026-04-19T10:51:08.977Z</time></trkpt><trkpt lat="43.560621" lon="10.5097899"><ele>50.2</ele><time>2026-04-19T10:51:09.979Z</time></trkpt><trkpt lat="43.5607122" lon="10.509746"><ele>50.0</ele><time>2026-04-19T10:51:11.978Z</time></trkpt><trkpt lat="43.5607607" lon="10.5096673"><ele>50.333333333333336</ele><time>2026-04-19T10:51:13.973Z</time></trkpt><trkpt lat="43.5607676" lon="10.509552"><ele>50.66666666666667</ele><time>2026-04-19T10:51:16.987Z</time></trkpt><trkpt lat="43.5607663" lon="10.5094637"><ele>51.0</ele><time>2026-04-19T10:51:21.969Z</time></trkpt><trkpt lat="43.5607905" lon="10.5093439"><ele>51.33333333333333</ele><time>2026-04-19T10:51:26.362Z</time></trkpt><trkpt lat="43.5608315" lon="10.5092769"><ele>51.666666666666664</ele><time>2026-04-19T10:51:27.969Z</time></trkpt><trkpt lat="43.5609249" lon="10.5092777"><ele>52.0</ele><time>2026-04-19T10:51:30.972Z</time></trkpt><trkpt lat="43.5610083" lon="10.5092952"><ele>51.99999999999999</ele><time>2026-04-19T10:51:32.973Z</time></trkpt><trkpt lat="43.5610769" lon="10.5093146"><ele>52.0</ele><time>2026-04-19T10:51:34.982Z</time></trkpt><trkpt lat="43.5611592" lon="10.5093344"><ele>52.0</ele><time>2026-04-19T10:51:36.975Z</time></trkpt><trkpt lat="43.5612663" lon="10.5093561"><ele>52.0</ele><time>2026-04-19T10:51:38.978Z</time></trkpt><trkpt lat="43.5613657" lon="10.5093735"><ele>51.99999999999999</ele><time>2026-04-19T10:51:40.979Z</time></trkpt><trkpt lat="43.5614414" lon="10.5094011"><ele>52.0</ele><time>2026-04-19T10:51:42.972Z</time></trkpt><trkpt lat="43.5615162" lon="10.509431"><ele>50.99999999999999</ele><time>2026-04-19T10:51:44.963Z</time></trkpt><trkpt lat="43.5615986" lon="10.5094496"><ele>50.0</ele><time>2026-04-19T10:51:46.971Z</time></trkpt><trkpt lat="43.5616753" lon="10.5094271"><ele>49.0</ele><time>2026-04-19T10:51:48.966Z</time></trkpt><trkpt lat="43.5617696" lon="10.5093982"><ele>48.0</ele><time>2026-04-19T10:51:51.973Z</time></trkpt><trkpt lat="43.561831" lon="10.5093588"><ele>47.0</ele><time>2026-04-19T10:51:53.973Z</time></trkpt><trkpt lat="43.5619098" lon="10.5093393"><ele>46.0</ele><time>2026-04-19T10:51:55.976Z</time></trkpt><trkpt lat="43.5619978" lon="10.5093379"><ele>45.57142857142858</ele><time>2026-04-19T10:51:58.968Z</time></trkpt><trkpt lat="43.562084" lon="10.5093577"><ele>45.14285714285714</ele><time>2026-04-19T10:52:01.961Z</time></trkpt><trkpt lat="43.5621437" lon="10.5093931"><ele>44.714285714285715</ele><time>2026-04-19T10:52:03.98Z</time></trkpt><trkpt lat="43.5622077" lon="10.5093953"><ele>44.28571428571429</ele><time>2026-04-19T10:52:05.967Z</time></trkpt><trkpt lat="43.5622695" lon="10.5093515"><ele>43.85714285714286</ele><time>2026-04-19T10:52:07.984Z</time></trkpt><trkpt lat="43.5623252" lon="10.5092943"><ele>43.42857142857143</ele><time>2026-04-19T10:52:09.983Z</time></trkpt><trkpt lat="43.562377" lon="10.5092039"><ele>43.0</ele><time>2026-04-19T10:52:12.987Z</time></trkpt><trkpt lat="43.5624293" lon="10.5091188"><ele>43.0</ele><time>2026-04-19T10:52:14.987Z</time></trkpt><trkpt lat="43.5625252" lon="10.5089927"><ele>43.0</ele><time>2026-04-19T10:52:16.987Z</time></trkpt><trkpt lat="43.562599" lon="10.5089165"><ele>43.0</ele><time>2026-04-19T10:52:17.987Z</time></trkpt><trkpt lat="43.5626774" lon="10.5088226"><ele>43.0</ele><time>2026-04-19T10:52:18.991Z</time></trkpt><trkpt lat="43.5627661" lon="10.5087347"><ele>43.0</ele><time>2026-04-19T10:52:19.969Z</time></trkpt><trkpt lat="43.5628611" lon="10.5086254"><ele>42.75</ele><time>2026-04-19T10:52:20.971Z</time></trkpt><trkpt lat="43.5629302" lon="10.5084701"><ele>42.5</ele><time>2026-04-19T10:52:21.988Z</time></trkpt><trkpt lat="43.5629931" lon="10.5083279"><ele>42.25</ele><time>2026-04-19T10:52:22.983Z</time></trkpt><trkpt lat="43.5630604" lon="10.508209"><ele>42.0</ele><time>2026-04-19T10:52:23.983Z</time></trkpt><trkpt lat="43.5631313" lon="10.508078"><ele>42.0</ele><time>2026-04-19T10:52:24.979Z</time></trkpt><trkpt lat="43.563235" lon="10.5080078"><ele>42.0</ele><time>2026-04-19T10:52:25.979Z</time></trkpt><trkpt lat="43.5633534" lon="10.5079556"><ele>42.0</ele><time>2026-04-19T10:52:26.967Z</time></trkpt><trkpt lat="43.5634576" lon="10.5078874"><ele>42.0</ele><time>2026-04-19T10:52:27.979Z</time></trkpt><trkpt lat="43.5635602" lon="10.5078221"><ele>43.666666666666664</ele><time>2026-04-19T10:52:28.991Z</time></trkpt><trkpt lat="43.5636731" lon="10.5078005"><ele>45.33333333333333</ele><time>2026-04-19T10:52:29.981Z</time></trkpt><trkpt lat="43.5639173" lon="10.5078384"><ele>47.0</ele><time>2026-04-19T10:52:31.985Z</time></trkpt><trkpt lat="43.5640479" lon="10.5078274"><ele>47.25</ele><time>2026-04-19T10:52:32.984Z</time></trkpt><trkpt lat="43.5641551" lon="10.5077742"><ele>47.5</ele><time>2026-04-19T10:52:33.977Z</time></trkpt><trkpt lat="43.5642675" lon="10.507671"><ele>47.75</ele><time>2026-04-19T10:52:34.979Z</time></trkpt><trkpt lat="43.5643792" lon="10.5075599"><ele>48.0</ele><time>2026-04-19T10:52:35.987Z</time></trkpt><trkpt lat="43.5645048" lon="10.5075017"><ele>47.0</ele><time>2026-04-19T10:52:36.985Z</time></trkpt><trkpt lat="43.5646382" lon="10.5074851"><ele>46.0</ele><time>2026-04-19T10:52:37.982Z</time></trkpt><trkpt lat="43.5647934" lon="10.5074994"><ele>45.0</ele><time>2026-04-19T10:52:38.978Z</time></trkpt><trkpt lat="43.5649408" lon="10.5074926"><ele>44.0</ele><time>2026-04-19T10:52:39.981Z</time></trkpt><trkpt lat="43.5650907" lon="10.5074824"><ele>44.0</ele><time>2026-04-19T10:52:40.978Z</time></trkpt><trkpt lat="43.5652275" lon="10.5074903"><ele>44.0</ele><time>2026-04-19T10:52:41.98Z</time></trkpt><trkpt lat="43.5653493" lon="10.5074952"><ele>44.0</ele><time>2026-04-19T10:52:42.983Z</time></trkpt><trkpt lat="43.5654445" lon="10.5074939"><ele>44.0</ele><time>2026-04-19T10:52:43.993Z</time></trkpt><trkpt lat="43.5655353" lon="10.5074417"><ele>43.0</ele><time>2026-04-19T10:52:44.979Z</time></trkpt><trkpt lat="43.5656371" lon="10.5073641"><ele>42.0</ele><time>2026-04-19T10:52:45.981Z</time></trkpt><trkpt lat="43.5658462" lon="10.5071735"><ele>41.0</ele><time>2026-04-19T10:52:47.97Z</time></trkpt><trkpt lat="43.5659331" lon="10.507114"><ele>41.166666666666664</ele><time>2026-04-19T10:52:48.983Z</time></trkpt><trkpt lat="43.5660055" lon="10.5070642"><ele>41.33333333333333</ele><time>2026-04-19T10:52:49.988Z</time></trkpt><trkpt lat="43.5660657" lon="10.5070002"><ele>41.5</ele><time>2026-04-19T10:52:50.979Z</time></trkpt><trkpt lat="43.5661589" lon="10.506892"><ele>41.666666666666664</ele><time>2026-04-19T10:52:52.98Z</time></trkpt><trkpt lat="43.5662163" lon="10.5068411"><ele>41.833333333333336</ele><time>2026-04-19T10:52:53.982Z</time></trkpt><trkpt lat="43.566293" lon="10.5068236"><ele>42.0</ele><time>2026-04-19T10:52:54.985Z</time></trkpt><trkpt lat="43.5663708" lon="10.5068529"><ele>42.0</ele><time>2026-04-19T10:52:55.996Z</time></trkpt><trkpt lat="43.5664449" lon="10.5069332"><ele>42.0</ele><time>2026-04-19T10:52:56.979Z</time></trkpt><trkpt lat="43.5665226" lon="10.5069876"><ele>42.0</ele><time>2026-04-19T10:52:57.969Z</time></trkpt><trkpt lat="43.5666176" lon="10.5069976"><ele>42.0</ele><time>2026-04-19T10:52:58.98Z</time></trkpt><trkpt lat="43.5667095" lon="10.5069979"><ele>42.0</ele><time>2026-04-19T10:52:59.976Z</time></trkpt><trkpt lat="43.5668008" lon="10.5069662"><ele>42.0</ele><time>2026-04-19T10:53:00.988Z</time></trkpt><trkpt lat="43.566902" lon="10.5069214"><ele>42.0</ele><time>2026-04-19T10:53:01.983Z</time></trkpt><trkpt lat="43.5670102" lon="10.5068699"><ele>42.0</ele><time>2026-04-19T10:53:02.981Z</time></trkpt><trkpt lat="43.5671421" lon="10.5068076"><ele>42.0</ele><time>2026-04-19T10:53:03.987Z</time></trkpt><trkpt lat="43.5672654" lon="10.5067373"><ele>40.75</ele><time>2026-04-19T10:53:04.979Z</time></trkpt><trkpt lat="43.5673719" lon="10.5066815"><ele>39.5</ele><time>2026-04-19T10:53:05.982Z</time></trkpt><trkpt lat="43.5674636" lon="10.5065737"><ele>38.25</ele><time>2026-04-19T10:53:06.983Z</time></trkpt><trkpt lat="43.567548" lon="10.5064461"><ele>37.0</ele><time>2026-04-19T10:53:07.962Z</time></trkpt><trkpt lat="43.5676511" lon="10.5063145"><ele>36.75</ele><time>2026-04-19T10:53:08.988Z</time></trkpt><trkpt lat="43.5677509" lon="10.5062016"><ele>36.5</ele><time>2026-04-19T10:53:09.982Z</time></trkpt><trkpt lat="43.567854" lon="10.5060759"><ele>36.25</ele><time>2026-04-19T10:53:10.986Z</time></trkpt><trkpt lat="43.5679663" lon="10.5059416"><ele>36.0</ele><time>2026-04-19T10:53:11.985Z</time></trkpt><trkpt lat="43.5680808" lon="10.5058039"><ele>36.0</ele><time>2026-04-19T10:53:13.001Z</time></trkpt><trkpt lat="43.5681911" lon="10.5056687"><ele>36.0</ele><time>2026-04-19T10:53:13.984Z</time></trkpt><trkpt lat="43.5682988" lon="10.5055509"><ele>36.0</ele><time>2026-04-19T10:53:14.984Z</time></trkpt><trkpt lat="43.5683986" lon="10.5054624"><ele>36.0</ele><time>2026-04-19T10:53:15.982Z</time></trkpt><trkpt lat="43.5684886" lon="10.5053896"><ele>35.25</ele><time>2026-04-19T10:53:16.984Z</time></trkpt><trkpt lat="43.5685737" lon="10.5052694"><ele>34.5</ele><time>2026-04-19T10:53:17.983Z</time></trkpt><trkpt lat="43.5686585" lon="10.5051243"><ele>33.75</ele><time>2026-04-19T10:53:18.975Z</time></trkpt><trkpt lat="43.5687522" lon="10.504995"><ele>33.0</ele><time>2026-04-19T10:53:19.984Z</time></trkpt><trkpt lat="43.5688338" lon="10.5048695"><ele>33.0</ele><time>2026-04-19T10:53:20.97Z</time></trkpt><trkpt lat="43.5689305" lon="10.5047661"><ele>33.0</ele><time>2026-04-19T10:53:21.987Z</time></trkpt><trkpt lat="43.5690355" lon="10.5046763"><ele>33.0</ele><time>2026-04-19T10:53:22.989Z</time></trkpt><trkpt lat="43.5691403" lon="10.5045951"><ele>33.0</ele><time>2026-04-19T10:53:23.985Z</time></trkpt><trkpt lat="43.5692279" lon="10.5045209"><ele>34.75</ele><time>2026-04-19T10:53:24.978Z</time></trkpt><trkpt lat="43.5693083" lon="10.5044493"><ele>36.5</ele><time>2026-04-19T10:53:25.99Z</time></trkpt><trkpt lat="43.5693738" lon="10.5043395"><ele>38.25</ele><time>2026-04-19T10:53:26.98Z</time></trkpt><trkpt lat="43.5694389" lon="10.5042112"><ele>40.0</ele><time>2026-04-19T10:53:27.979Z</time></trkpt><trkpt lat="43.5695195" lon="10.5040242"><ele>38.25</ele><time>2026-04-19T10:53:28.98Z</time></trkpt><trkpt lat="43.5695688" lon="10.5038452"><ele>36.5</ele><time>2026-04-19T10:53:29.979Z</time></trkpt><trkpt lat="43.569606" lon="10.5036556"><ele>34.75</ele><time>2026-04-19T10:53:30.986Z</time></trkpt><trkpt lat="43.569643" lon="10.5034758"><ele>33.0</ele><time>2026-04-19T10:53:31.989Z</time></trkpt><trkpt lat="43.56969" lon="10.5033081"><ele>32.5</ele><time>2026-04-19T10:53:32.978Z</time></trkpt><trkpt lat="43.5697499" lon="10.5031521"><ele>32.0</ele><time>2026-04-19T10:53:33.985Z</time></trkpt><trkpt lat="43.5698391" lon="10.5030147"><ele>31.5</ele><time>2026-04-19T10:53:34.982Z</time></trkpt><trkpt lat="43.5699278" lon="10.5028784"><ele>31.0</ele><time>2026-04-19T10:53:35.983Z</time></trkpt><trkpt lat="43.5700267" lon="10.5027462"><ele>31.4</ele><time>2026-04-19T10:53:36.971Z</time></trkpt><trkpt lat="43.5701196" lon="10.5026453"><ele>31.8</ele><time>2026-04-19T10:53:37.985Z</time></trkpt><trkpt lat="43.5702129" lon="10.5025534"><ele>32.199999999999996</ele><time>2026-04-19T10:53:38.976Z</time></trkpt><trkpt lat="43.5702925" lon="10.5024532"><ele>32.6</ele><time>2026-04-19T10:53:39.987Z</time></trkpt><trkpt lat="43.5703611" lon="10.5023407"><ele>33.0</ele><time>2026-04-19T10:53:40.985Z</time></trkpt><trkpt lat="43.5704381" lon="10.5022132"><ele>32.0</ele><time>2026-04-19T10:53:41.987Z</time></trkpt><trkpt lat="43.5705146" lon="10.5020538"><ele>31.0</ele><time>2026-04-19T10:53:42.984Z</time></trkpt><trkpt lat="43.5705902" lon="10.5018662"><ele>30.0</ele><time>2026-04-19T10:53:43.974Z</time></trkpt><trkpt lat="43.5706558" lon="10.5017384"><ele>29.0</ele><time>2026-04-19T10:53:44.991Z</time></trkpt><trkpt lat="43.5707442" lon="10.5016501"><ele>29.0</ele><time>2026-04-19T10:53:45.988Z</time></trkpt><trkpt lat="43.5708546" lon="10.5015771"><ele>29.0</ele><time>2026-04-19T10:53:46.977Z</time></trkpt><trkpt lat="43.5709752" lon="10.5014978"><ele>29.0</ele><time>2026-04-19T10:53:47.986Z</time></trkpt><trkpt lat="43.5710835" lon="10.5014203"><ele>29.0</ele><time>2026-04-19T10:53:48.986Z</time></trkpt><trkpt lat="43.5711815" lon="10.5013703"><ele>29.75</ele><time>2026-04-19T10:53:49.976Z</time></trkpt><trkpt lat="43.5712764" lon="10.5013396"><ele>30.5</ele><time>2026-04-19T10:53:50.973Z</time></trkpt><trkpt lat="43.5713726" lon="10.5013381"><ele>31.25</ele><time>2026-04-19T10:53:51.979Z</time></trkpt><trkpt lat="43.5714827" lon="10.50135"><ele>32.0</ele><time>2026-04-19T10:53:52.977Z</time></trkpt><trkpt lat="43.5716268" lon="10.5013852"><ele>32.0</ele><time>2026-04-19T10:53:53.979Z</time></trkpt><trkpt lat="43.5717685" lon="10.5014111"><ele>32.0</ele><time>2026-04-19T10:53:54.978Z</time></trkpt><trkpt lat="43.5719035" lon="10.5014152"><ele>32.0</ele><time>2026-04-19T10:53:55.986Z</time></trkpt><trkpt lat="43.572028" lon="10.5013878"><ele>32.0</ele><time>2026-04-19T10:53:56.987Z</time></trkpt><trkpt lat="43.5721467" lon="10.5013069"><ele>33.25</ele><time>2026-04-19T10:53:57.958Z</time></trkpt><trkpt lat="43.5722657" lon="10.501227"><ele>34.5</ele><time>2026-04-19T10:53:58.981Z</time></trkpt><trkpt lat="43.5723829" lon="10.5011524"><ele>35.75</ele><time>2026-04-19T10:53:59.989Z</time></trkpt><trkpt lat="43.5725069" lon="10.5011242"><ele>37.0</ele><time>2026-04-19T10:54:00.986Z</time></trkpt><trkpt lat="43.5726291" lon="10.5011403"><ele>37.0</ele><time>2026-04-19T10:54:01.972Z</time></trkpt><trkpt lat="43.5727556" lon="10.5011837"><ele>37.0</ele><time>2026-04-19T10:54:02.984Z</time></trkpt><trkpt lat="43.5728843" lon="10.5012167"><ele>37.0</ele><time>2026-04-19T10:54:03.988Z</time></trkpt><trkpt lat="43.5730195" lon="10.501211"><ele>37.0</ele><time>2026-04-19T10:54:04.985Z</time></trkpt><trkpt lat="43.5731564" lon="10.5011777"><ele>37.0</ele><time>2026-04-19T10:54:05.984Z</time></trkpt><trkpt lat="43.5732914" lon="10.5011448"><ele>37.0</ele><time>2026-04-19T10:54:06.988Z</time></trkpt><trkpt lat="43.5734172" lon="10.5011174"><ele>37.0</ele><time>2026-04-19T10:54:07.985Z</time></trkpt><trkpt lat="43.5735279" lon="10.5011073"><ele>37.0</ele><time>2026-04-19T10:54:08.984Z</time></trkpt><trkpt lat="43.5736402" lon="10.5010962"><ele>35.5</ele><time>2026-04-19T10:54:09.986Z</time></trkpt><trkpt lat="43.5737615" lon="10.5010955"><ele>34.0</ele><time>2026-04-19T10:54:10.987Z</time></trkpt><trkpt lat="43.5738868" lon="10.5010991"><ele>32.5</ele><time>2026-04-19T10:54:11.988Z</time></trkpt><trkpt lat="43.5740157" lon="10.5011122"><ele>31.0</ele><time>2026-04-19T10:54:12.98Z</time></trkpt><trkpt lat="43.5741454" lon="10.5011236"><ele>31.0</ele><time>2026-04-19T10:54:13.965Z</time></trkpt><trkpt lat="43.5742782" lon="10.5011351"><ele>31.0</ele><time>2026-04-19T10:54:14.99Z</time></trkpt><trkpt lat="43.5744121" lon="10.501143"><ele>31.0</ele><time>2026-04-19T10:54:15.984Z</time></trkpt><trkpt lat="43.5745303" lon="10.5011484"><ele>31.0</ele><time>2026-04-19T10:54:16.99Z</time></trkpt><trkpt lat="43.5746374" lon="10.50115"><ele>30.200000000000003</ele><time>2026-04-19T10:54:17.973Z</time></trkpt><trkpt lat="43.5747234" lon="10.501139"><ele>29.400000000000002</ele><time>2026-04-19T10:54:18.986Z</time></trkpt><trkpt lat="43.5748075" lon="10.5010829"><ele>28.6</ele><time>2026-04-19T10:54:19.984Z</time></trkpt><trkpt lat="43.5748862" lon="10.5009873"><ele>27.8</ele><time>2026-04-19T10:54:20.977Z</time></trkpt><trkpt lat="43.5749603" lon="10.5008816"><ele>27.0</ele><time>2026-04-19T10:54:21.987Z</time></trkpt><trkpt lat="43.5750319" lon="10.5007747"><ele>27.0</ele><time>2026-04-19T10:54:22.979Z</time></trkpt><trkpt lat="43.5751094" lon="10.5007056"><ele>27.000000000000004</ele><time>2026-04-19T10:54:23.981Z</time></trkpt><trkpt lat="43.5751825" lon="10.5006578"><ele>27.000000000000004</ele><time>2026-04-19T10:54:24.985Z</time></trkpt><trkpt lat="43.5752671" lon="10.5006315"><ele>27.0</ele><time>2026-04-19T10:54:25.979Z</time></trkpt><trkpt lat="43.5753708" lon="10.5006312"><ele>27.0</ele><time>2026-04-19T10:54:26.98Z</time></trkpt><trkpt lat="43.5755024" lon="10.5006674"><ele>27.0</ele><time>2026-04-19T10:54:27.985Z</time></trkpt><trkpt lat="43.5756343" lon="10.5006951"><ele>27.000000000000004</ele><time>2026-04-19T10:54:28.982Z</time></trkpt><trkpt lat="43.5757386" lon="10.5007192"><ele>27.000000000000004</ele><time>2026-04-19T10:54:29.983Z</time></trkpt><trkpt lat="43.5758139" lon="10.500733"><ele>27.0</ele><time>2026-04-19T10:54:30.979Z</time></trkpt><trkpt lat="43.5759182" lon="10.5007476"><ele>27.0</ele><time>2026-04-19T10:54:32.988Z</time></trkpt><trkpt lat="43.5760578" lon="10.5006767"><ele>27.0</ele><time>2026-04-19T10:54:34.987Z</time></trkpt><trkpt lat="43.5761533" lon="10.5006071"><ele>27.0</ele><time>2026-04-19T10:54:35.988Z</time></trkpt><trkpt lat="43.5762675" lon="10.5005373"><ele>27.0</ele><time>2026-04-19T10:54:36.99Z</time></trkpt><trkpt lat="43.5764002" lon="10.500471"><ele>27.0</ele><time>2026-04-19T10:54:37.982Z</time></trkpt><trkpt lat="43.5765483" lon="10.5004067"><ele>27.333333333333336</ele><time>2026-04-19T10:54:38.988Z</time></trkpt><trkpt lat="43.5767042" lon="10.5003424"><ele>27.666666666666668</ele><time>2026-04-19T10:54:39.982Z</time></trkpt><trkpt lat="43.5768655" lon="10.500272"><ele>28.0</ele><time>2026-04-19T10:54:40.986Z</time></trkpt><trkpt lat="43.577025" lon="10.5002042"><ele>28.0</ele><time>2026-04-19T10:54:41.977Z</time></trkpt><trkpt lat="43.5771873" lon="10.5001357"><ele>28.0</ele><time>2026-04-19T10:54:42.983Z</time></trkpt><trkpt lat="43.5773536" lon="10.5000622"><ele>28.0</ele><time>2026-04-19T10:54:43.984Z</time></trkpt><trkpt lat="43.5775156" lon="10.4999913"><ele>28.0</ele><time>2026-04-19T10:54:44.987Z</time></trkpt><trkpt lat="43.5776792" lon="10.4999243"><ele>28.0</ele><time>2026-04-19T10:54:45.992Z</time></trkpt><trkpt lat="43.5778399" lon="10.4998557"><ele>28.0</ele><time>2026-04-19T10:54:46.988Z</time></trkpt><trkpt lat="43.5780016" lon="10.4997865"><ele>27.333333333333336</ele><time>2026-04-19T10:54:47.984Z</time></trkpt><trkpt lat="43.5781654" lon="10.4997184"><ele>26.666666666666664</ele><time>2026-04-19T10:54:48.986Z</time></trkpt><trkpt lat="43.5783291" lon="10.4996556"><ele>26.0</ele><time>2026-04-19T10:54:49.984Z</time></trkpt><trkpt lat="43.57848" lon="10.4995985"><ele>26.666666666666664</ele><time>2026-04-19T10:54:50.983Z</time></trkpt><trkpt lat="43.5786313" lon="10.4995469"><ele>27.333333333333336</ele><time>2026-04-19T10:54:51.977Z</time></trkpt><trkpt lat="43.5787741" lon="10.4994655"><ele>28.0</ele><time>2026-04-19T10:54:52.983Z</time></trkpt><trkpt lat="43.5789062" lon="10.499361"><ele>28.0</ele><time>2026-04-19T10:54:53.988Z</time></trkpt><trkpt lat="43.579023" lon="10.4991894"><ele>28.0</ele><time>2026-04-19T10:54:54.983Z</time></trkpt><trkpt lat="43.5791336" lon="10.4990597"><ele>28.0</ele><time>2026-04-19T10:54:55.987Z</time></trkpt><trkpt lat="43.5792538" lon="10.4988933"><ele>27.0</ele><time>2026-04-19T10:54:56.983Z</time></trkpt><trkpt lat="43.5793677" lon="10.4987395"><ele>26.0</ele><time>2026-04-19T10:54:57.989Z</time></trkpt><trkpt lat="43.5794839" lon="10.4985814"><ele>25.0</ele><time>2026-04-19T10:54:58.982Z</time></trkpt><trkpt lat="43.5795945" lon="10.4984253"><ele>25.0</ele><time>2026-04-19T10:54:59.98Z</time></trkpt><trkpt lat="43.5796999" lon="10.498257"><ele>25.0</ele><time>2026-04-19T10:55:00.98Z</time></trkpt><trkpt lat="43.5798041" lon="10.4981017"><ele>25.0</ele><time>2026-04-19T10:55:01.988Z</time></trkpt><trkpt lat="43.5799048" lon="10.4979284"><ele>26.333333333333336</ele><time>2026-04-19T10:55:02.975Z</time></trkpt><trkpt lat="43.5799867" lon="10.4977289"><ele>27.666666666666664</ele><time>2026-04-19T10:55:03.982Z</time></trkpt><trkpt lat="43.5800565" lon="10.4975216"><ele>29.0</ele><time>2026-04-19T10:55:04.986Z</time></trkpt><trkpt lat="43.5801091" lon="10.4973057"><ele>29.0</ele><time>2026-04-19T10:55:05.99Z</time></trkpt><trkpt lat="43.5801525" lon="10.4970962"><ele>29.0</ele><time>2026-04-19T10:55:06.985Z</time></trkpt><trkpt lat="43.5802274" lon="10.496905"><ele>29.0</ele><time>2026-04-19T10:55:07.986Z</time></trkpt><trkpt lat="43.5803079" lon="10.4967243"><ele>28.666666666666664</ele><time>2026-04-19T10:55:08.978Z</time></trkpt><trkpt lat="43.5803905" lon="10.4965337"><ele>28.333333333333336</ele><time>2026-04-19T10:55:09.988Z</time></trkpt><trkpt lat="43.5805095" lon="10.4963677"><ele>28.0</ele><time>2026-04-19T10:55:10.978Z</time></trkpt><trkpt lat="43.5806319" lon="10.4962021"><ele>28.0</ele><time>2026-04-19T10:55:11.981Z</time></trkpt><trkpt lat="43.5807627" lon="10.4960191"><ele>28.0</ele><time>2026-04-19T10:55:12.991Z</time></trkpt><trkpt lat="43.5808864" lon="10.4958323"><ele>28.0</ele><time>2026-04-19T10:55:13.973Z</time></trkpt><trkpt lat="43.5810089" lon="10.4956528"><ele>28.0</ele><time>2026-04-19T10:55:14.98Z</time></trkpt><trkpt lat="43.5811347" lon="10.4954691"><ele>28.0</ele><time>2026-04-19T10:55:15.981Z</time></trkpt><trkpt lat="43.5812686" lon="10.4952882"><ele>28.0</ele><time>2026-04-19T10:55:16.987Z</time></trkpt><trkpt lat="43.5813994" lon="10.4951053"><ele>28.666666666666668</ele><time>2026-04-19T10:55:17.968Z</time></trkpt><trkpt lat="43.5815248" lon="10.4949244"><ele>29.333333333333336</ele><time>2026-04-19T10:55:18.978Z</time></trkpt><trkpt lat="43.5816526" lon="10.4947466"><ele>30.0</ele><time>2026-04-19T10:55:19.983Z</time></trkpt><trkpt lat="43.5817778" lon="10.4945725"><ele>30.0</ele><time>2026-04-19T10:55:20.979Z</time></trkpt><trkpt lat="43.5819051" lon="10.4943989"><ele>30.0</ele><time>2026-04-19T10:55:21.977Z</time></trkpt><trkpt lat="43.5820305" lon="10.4942253"><ele>30.0</ele><time>2026-04-19T10:55:22.968Z</time></trkpt><trkpt lat="43.5821626" lon="10.4940581"><ele>29.666666666666664</ele><time>2026-04-19T10:55:23.996Z</time></trkpt><trkpt lat="43.5822983" lon="10.4938981"><ele>29.333333333333332</ele><time>2026-04-19T10:55:24.982Z</time></trkpt><trkpt lat="43.5824359" lon="10.4937443"><ele>29.0</ele><time>2026-04-19T10:55:25.981Z</time></trkpt><trkpt lat="43.5825739" lon="10.4935933"><ele>29.0</ele><time>2026-04-19T10:55:26.983Z</time></trkpt><trkpt lat="43.5827128" lon="10.4934403"><ele>29.0</ele><time>2026-04-19T10:55:27.984Z</time></trkpt><trkpt lat="43.5828522" lon="10.4932849"><ele>29.0</ele><time>2026-04-19T10:55:28.977Z</time></trkpt><trkpt lat="43.5829926" lon="10.4931309"><ele>28.333333333333332</ele><time>2026-04-19T10:55:29.982Z</time></trkpt><trkpt lat="43.5831349" lon="10.4929758"><ele>27.666666666666664</ele><time>2026-04-19T10:55:30.981Z</time></trkpt><trkpt lat="43.5832724" lon="10.4928175"><ele>27.0</ele><time>2026-04-19T10:55:31.983Z</time></trkpt><trkpt lat="43.5834107" lon="10.4926627"><ele>27.0</ele><time>2026-04-19T10:55:32.993Z</time></trkpt><trkpt lat="43.5835451" lon="10.4925118"><ele>27.0</ele><time>2026-04-19T10:55:33.98Z</time></trkpt><trkpt lat="43.5836749" lon="10.4923613"><ele>27.0</ele><time>2026-04-19T10:55:34.981Z</time></trkpt><trkpt lat="43.5838128" lon="10.4922124"><ele>25.666666666666668</ele><time>2026-04-19T10:55:35.98Z</time></trkpt><trkpt lat="43.5839462" lon="10.4920626"><ele>24.333333333333336</ele><time>2026-04-19T10:55:36.978Z</time></trkpt><trkpt lat="43.5840818" lon="10.4919183"><ele>23.0</ele><time>2026-04-19T10:55:37.978Z</time></trkpt><trkpt lat="43.5842157" lon="10.491767"><ele>23.0</ele><time>2026-04-19T10:55:38.977Z</time></trkpt><trkpt lat="43.5843553" lon="10.4916104"><ele>23.0</ele><time>2026-04-19T10:55:39.975Z</time></trkpt><trkpt lat="43.5844953" lon="10.4914548"><ele>23.0</ele><time>2026-04-19T10:55:40.98Z</time></trkpt><trkpt lat="43.5846314" lon="10.4912941"><ele>21.666666666666668</ele><time>2026-04-19T10:55:41.98Z</time></trkpt><trkpt lat="43.5847698" lon="10.4911399"><ele>20.333333333333332</ele><time>2026-04-19T10:55:42.979Z</time></trkpt><trkpt lat="43.5849114" lon="10.4909858"><ele>19.0</ele><time>2026-04-19T10:55:43.977Z</time></trkpt><trkpt lat="43.5850543" lon="10.4908384"><ele>19.0</ele><time>2026-04-19T10:55:44.985Z</time></trkpt><trkpt lat="43.5851923" lon="10.4906958"><ele>19.0</ele><time>2026-04-19T10:55:45.981Z</time></trkpt><trkpt lat="43.5853363" lon="10.4905522"><ele>19.0</ele><time>2026-04-19T10:55:46.988Z</time></trkpt><trkpt lat="43.5854721" lon="10.4904078"><ele>20.333333333333332</ele><time>2026-04-19T10:55:47.986Z</time></trkpt><trkpt lat="43.5856013" lon="10.4902666"><ele>21.666666666666668</ele><time>2026-04-19T10:55:48.983Z</time></trkpt><trkpt lat="43.58573" lon="10.4901247"><ele>23.0</ele><time>2026-04-19T10:55:49.999Z</time></trkpt><trkpt lat="43.5813994" lon="10.4951053"><ele>23.0</ele><time>2026-04-19T10:55:17.968Z</time></trkpt><trkpt lat="43.5815248" lon="10.4949244"><ele>23.0</ele><time>2026-04-19T10:55:18.978Z</time></trkpt><trkpt lat="43.5816526" lon="10.4947466"><ele>23.0</ele><time>2026-04-19T10:55:19.983Z</time></trkpt><trkpt lat="43.5817778" lon="10.4945725"><ele>22.666666666666668</ele><time>2026-04-19T10:55:20.979Z</time></trkpt><trkpt lat="43.5819051" lon="10.4943989"><ele>22.333333333333332</ele><time>2026-04-19T10:55:21.977Z</time></trkpt><trkpt lat="43.5820305" lon="10.4942253"><ele>22.0</ele><time>2026-04-19T10:55:22.968Z</time></trkpt><trkpt lat="43.5821626" lon="10.4940581"><ele>22.0</ele><time>2026-04-19T10:55:23.996Z</time></trkpt><trkpt lat="43.5822983" lon="10.4938981"><ele>22.0</ele><time>2026-04-19T10:55:24.982Z</time></trkpt><trkpt lat="43.5824359" lon="10.4937443"><ele>22.0</ele><time>2026-04-19T10:55:25.981Z</time></trkpt><trkpt lat="43.5825739" lon="10.4935933"><ele>21.0</ele><time>2026-04-19T10:55:26.983Z</time></trkpt><trkpt lat="43.5827128" lon="10.4934403"><ele>20.0</ele><time>2026-04-19T10:55:27.984Z</time></trkpt><trkpt lat="43.5828522" lon="10.4932849"><ele>19.0</ele><time>2026-04-19T10:55:28.977Z</time></trkpt><trkpt lat="43.5829926" lon="10.4931309"><ele>19.0</ele><time>2026-04-19T10:55:29.982Z</time></trkpt><trkpt lat="43.5831349" lon="10.4929758"><ele>19.0</ele><time>2026-04-19T10:55:30.981Z</time></trkpt><trkpt lat="43.5832724" lon="10.4928175"><ele>19.0</ele><time>2026-04-19T10:55:31.983Z</time></trkpt><trkpt lat="43.5834107" lon="10.4926627"><ele>19.0</ele><time>2026-04-19T10:55:32.993Z</time></trkpt><trkpt lat="43.5835451" lon="10.4925118"><ele>19.0</ele><time>2026-04-19T10:55:33.98Z</time></trkpt><trkpt lat="43.5836749" lon="10.4923613"><ele>19.0</ele><time>2026-04-19T10:55:34.981Z</time></trkpt><trkpt lat="43.5838128" lon="10.4922124"><ele>20.333333333333332</ele><time>2026-04-19T10:55:35.98Z</time></trkpt><trkpt lat="43.5839462" lon="10.4920626"><ele>21.666666666666668</ele><time>2026-04-19T10:55:36.978Z</time></trkpt><trkpt lat="43.5840818" lon="10.4919183"><ele>23.0</ele><time>2026-04-19T10:55:37.978Z</time></trkpt><trkpt lat="43.5842157" lon="10.491767"><ele>23.0</ele><time>2026-04-19T10:55:38.977Z</time></trkpt><trkpt lat="43.5843553" lon="10.4916104"><ele>23.0</ele><time>2026-04-19T10:55:39.975Z</time></trkpt><trkpt lat="43.5844953" lon="10.4914548"><ele>23.0</ele><time>2026-04-19T10:55:40.98Z</time></trkpt><trkpt lat="43.5846314" lon="10.4912941"><ele>21.666666666666668</ele><time>2026-04-19T10:55:41.98Z</time></trkpt><trkpt lat="43.5847698" lon="10.4911399"><ele>20.333333333333332</ele><time>2026-04-19T10:55:42.979Z</time></trkpt><trkpt lat="43.5849114" lon="10.4909858"><ele>19.0</ele><time>2026-04-19T10:55:43.977Z</time></trkpt><trkpt lat="43.5850543" lon="10.4908384"><ele>19.0</ele><time>2026-04-19T10:55:44.985Z</time></trkpt><trkpt lat="43.5851923" lon="10.4906958"><ele>19.0</ele><time>2026-04-19T10:55:45.981Z</time></trkpt><trkpt lat="43.5853363" lon="10.4905522"><ele>19.0</ele><time>2026-04-19T10:55:46.988Z</time></trkpt><trkpt lat="43.5854721" lon="10.4904078"><ele>22.0</ele><time>2026-04-19T10:55:47.986Z</time></trkpt><trkpt lat="43.5856013" lon="10.4902666"><ele>25.0</ele><time>2026-04-19T10:55:48.983Z</time></trkpt><trkpt lat="43.58573" lon="10.4901247"><ele>28.0</ele><time>2026-04-19T10:55:49.999Z</time></trkpt><trkpt lat="43.5858592" lon="10.4899876"><ele>28.0</ele><time>2026-04-19T10:55:50.971Z</time></trkpt><trkpt lat="43.5859921" lon="10.4898549"><ele>28.0</ele><time>2026-04-19T10:55:51.988Z</time></trkpt><trkpt lat="43.5861266" lon="10.4897333"><ele>28.0</ele><time>2026-04-19T10:55:52.991Z</time></trkpt><trkpt lat="43.5862722" lon="10.4896489"><ele>30.0</ele><time>2026-04-19T10:55:53.979Z</time></trkpt><trkpt lat="43.5864179" lon="10.4895852"><ele>32.0</ele><time>2026-04-19T10:55:54.978Z</time></trkpt><trkpt lat="43.5865701" lon="10.4895649"><ele>34.0</ele><time>2026-04-19T10:55:55.995Z</time></trkpt><trkpt lat="43.5867075" lon="10.4895368"><ele>36.0</ele><time>2026-04-19T10:55:56.974Z</time></trkpt><trkpt lat="43.5867946" lon="10.4894655"><ele>36.0</ele><time>2026-04-19T10:55:57.985Z</time></trkpt><trkpt lat="43.5868509" lon="10.4893695"><ele>36.0</ele><time>2026-04-19T10:55:58.987Z</time></trkpt><trkpt lat="43.5868663" lon="10.489253"><ele>36.0</ele><time>2026-04-19T10:55:59.976Z</time></trkpt><trkpt lat="43.58684" lon="10.4891417"><ele>36.0</ele><time>2026-04-19T10:56:00.979Z</time></trkpt><trkpt lat="43.5867764" lon="10.4890591"><ele>36.0</ele><time>2026-04-19T10:56:01.979Z</time></trkpt><trkpt lat="43.5866834" lon="10.4890215"><ele>36.0</ele><time>2026-04-19T10:56:02.986Z</time></trkpt><trkpt lat="43.586568" lon="10.4890227"><ele>36.0</ele><time>2026-04-19T10:56:03.988Z</time></trkpt><trkpt lat="43.5864372" lon="10.4890516"><ele>36.0</ele><time>2026-04-19T10:56:04.982Z</time></trkpt><trkpt lat="43.5863247" lon="10.4890695"><ele>36.0</ele><time>2026-04-19T10:56:05.979Z</time></trkpt><trkpt lat="43.586239" lon="10.4890528"><ele>36.0</ele><time>2026-04-19T10:56:06.99Z</time></trkpt><trkpt lat="43.5861803" lon="10.4889946"><ele>36.0</ele><time>2026-04-19T10:56:07.983Z</time></trkpt><trkpt lat="43.5861279" lon="10.4889317"><ele>36.25</ele><time>2026-04-19T10:56:08.976Z</time></trkpt><trkpt lat="43.5860876" lon="10.4888106"><ele>36.5</ele><time>2026-04-19T10:56:09.979Z</time></trkpt><trkpt lat="43.5861006" lon="10.488639"><ele>36.75</ele><time>2026-04-19T10:56:10.984Z</time></trkpt><trkpt lat="43.5861472" lon="10.4884772"><ele>37.0</ele><time>2026-04-19T10:56:11.976Z</time></trkpt><trkpt lat="43.5861863" lon="10.4882852"><ele>39.333333333333336</ele><time>2026-04-19T10:56:12.978Z</time></trkpt><trkpt lat="43.5862165" lon="10.4880598"><ele>41.666666666666664</ele><time>2026-04-19T10:56:13.98Z</time></trkpt><trkpt lat="43.5862558" lon="10.4878099"><ele>44.0</ele><time>2026-04-19T10:56:14.97Z</time></trkpt><trkpt lat="43.5862911" lon="10.4875473"><ele>45.33333333333333</ele><time>2026-04-19T10:56:15.978Z</time></trkpt><trkpt lat="43.5863201" lon="10.4872896"><ele>46.666666666666664</ele><time>2026-04-19T10:56:16.987Z</time></trkpt><trkpt lat="43.5863481" lon="10.4870212"><ele>48.0</ele><time>2026-04-19T10:56:17.982Z</time></trkpt><trkpt lat="43.5863706" lon="10.4867783"><ele>48.0</ele><time>2026-04-19T10:56:18.985Z</time></trkpt><trkpt lat="43.5863932" lon="10.4865503"><ele>48.0</ele><time>2026-04-19T10:56:19.983Z</time></trkpt><trkpt lat="43.5864178" lon="10.4863226"><ele>48.0</ele><time>2026-04-19T10:56:20.975Z</time></trkpt><trkpt lat="43.5864435" lon="10.486096"><ele>48.33333333333333</ele><time>2026-04-19T10:56:21.982Z</time></trkpt><trkpt lat="43.5864665" lon="10.485875"><ele>48.666666666666664</ele><time>2026-04-19T10:56:22.974Z</time></trkpt><trkpt lat="43.5864865" lon="10.4856555"><ele>49.0</ele><time>2026-04-19T10:56:23.974Z</time></trkpt><trkpt lat="43.5865091" lon="10.4854411"><ele>49.666666666666664</ele><time>2026-04-19T10:56:24.98Z</time></trkpt><trkpt lat="43.5865344" lon="10.4852301"><ele>50.33333333333333</ele><time>2026-04-19T10:56:25.984Z</time></trkpt><trkpt lat="43.5865559" lon="10.4850207"><ele>51.0</ele><time>2026-04-19T10:56:26.978Z</time></trkpt><trkpt lat="43.5865759" lon="10.4848197"><ele>51.0</ele><time>2026-04-19T10:56:27.986Z</time></trkpt><trkpt lat="43.5865858" lon="10.4846357"><ele>51.0</ele><time>2026-04-19T10:56:28.978Z</time></trkpt><trkpt lat="43.5865831" lon="10.484469"><ele>51.0</ele><time>2026-04-19T10:56:29.967Z</time></trkpt><trkpt lat="43.5865695" lon="10.484308"><ele>51.0</ele><time>2026-04-19T10:56:30.984Z</time></trkpt><trkpt lat="43.5865521" lon="10.4841435"><ele>51.25</ele><time>2026-04-19T10:56:31.962Z</time></trkpt><trkpt lat="43.5865265" lon="10.483979"><ele>51.5</ele><time>2026-04-19T10:56:32.986Z</time></trkpt><trkpt lat="43.5864993" lon="10.483817"><ele>51.75</ele><time>2026-04-19T10:56:33.978Z</time></trkpt><trkpt lat="43.5864524" lon="10.4836543"><ele>52.0</ele><time>2026-04-19T10:56:34.97Z</time></trkpt><trkpt lat="43.5863963" lon="10.4834905"><ele>52.0</ele><time>2026-04-19T10:56:35.986Z</time></trkpt><trkpt lat="43.5863421" lon="10.4833154"><ele>52.0</ele><time>2026-04-19T10:56:36.987Z</time></trkpt><trkpt lat="43.5862776" lon="10.4831512"><ele>52.0</ele><time>2026-04-19T10:56:37.979Z</time></trkpt><trkpt lat="43.5862087" lon="10.4829939"><ele>52.0</ele><time>2026-04-19T10:56:38.978Z</time></trkpt><trkpt lat="43.5861425" lon="10.4828471"><ele>51.5</ele><time>2026-04-19T10:56:39.994Z</time></trkpt><trkpt lat="43.5860715" lon="10.4826887"><ele>51.0</ele><time>2026-04-19T10:56:40.971Z</time></trkpt><trkpt lat="43.58601" lon="10.4825145"><ele>50.5</ele><time>2026-04-19T10:56:41.977Z</time></trkpt><trkpt lat="43.5859566" lon="10.4823204"><ele>50.0</ele><time>2026-04-19T10:56:42.974Z</time></trkpt><trkpt lat="43.5859203" lon="10.4821166"><ele>51.0</ele><time>2026-04-19T10:56:43.984Z</time></trkpt><trkpt lat="43.5858826" lon="10.4819096"><ele>52.0</ele><time>2026-04-19T10:56:44.993Z</time></trkpt><trkpt lat="43.5858435" lon="10.4817007"><ele>53.0</ele><time>2026-04-19T10:56:45.983Z</time></trkpt><trkpt lat="43.5858069" lon="10.4814944"><ele>53.0</ele><time>2026-04-19T10:56:46.977Z</time></trkpt><trkpt lat="43.5857687" lon="10.4812771"><ele>53.0</ele><time>2026-04-19T10:56:47.981Z</time></trkpt><trkpt lat="43.5857298" lon="10.4810611"><ele>53.0</ele><time>2026-04-19T10:56:48.983Z</time></trkpt><trkpt lat="43.5856893" lon="10.4808558"><ele>52.66666666666667</ele><time>2026-04-19T10:56:49.984Z</time></trkpt><trkpt lat="43.5856489" lon="10.4806509"><ele>52.33333333333333</ele><time>2026-04-19T10:56:50.979Z</time></trkpt><trkpt lat="43.5856124" lon="10.4804498"><ele>52.0</ele><time>2026-04-19T10:56:51.981Z</time></trkpt><trkpt lat="43.5855732" lon="10.4802507"><ele>52.0</ele><time>2026-04-19T10:56:52.984Z</time></trkpt><trkpt lat="43.5855354" lon="10.4800604"><ele>52.0</ele><time>2026-04-19T10:56:53.981Z</time></trkpt><trkpt lat="43.5854979" lon="10.4798805"><ele>52.0</ele><time>2026-04-19T10:56:54.985Z</time></trkpt><trkpt lat="43.5854606" lon="10.4797093"><ele>52.0</ele><time>2026-04-19T10:56:55.987Z</time></trkpt><trkpt lat="43.5854354" lon="10.4795095"><ele>51.0</ele><time>2026-04-19T10:56:56.99Z</time></trkpt><trkpt lat="43.5854065" lon="10.4793363"><ele>50.0</ele><time>2026-04-19T10:56:57.988Z</time></trkpt><trkpt lat="43.5853911" lon="10.4791887"><ele>49.0</ele><time>2026-04-19T10:56:58.984Z</time></trkpt><trkpt lat="43.5854011" lon="10.4790634"><ele>48.0</ele><time>2026-04-19T10:56:59.983Z</time></trkpt><trkpt lat="43.5854386" lon="10.4789637"><ele>47.0</ele><time>2026-04-19T10:57:00.986Z</time></trkpt><trkpt lat="43.5855028" lon="10.4788919"><ele>47.0</ele><time>2026-04-19T10:57:01.983Z</time></trkpt><trkpt lat="43.5855879" lon="10.4788374"><ele>47.0</ele><time>2026-04-19T10:57:02.985Z</time></trkpt><trkpt lat="43.5856919" lon="10.4787876"><ele>47.0</ele><time>2026-04-19T10:57:03.984Z</time></trkpt><trkpt lat="43.5858061" lon="10.4787292"><ele>47.0</ele><time>2026-04-19T10:57:04.988Z</time></trkpt><trkpt lat="43.5859306" lon="10.4786649"><ele>47.25</ele><time>2026-04-19T10:57:05.995Z</time></trkpt><trkpt lat="43.5860638" lon="10.4785954"><ele>47.5</ele><time>2026-04-19T10:57:06.976Z</time></trkpt><trkpt lat="43.5861839" lon="10.4785362"><ele>47.75</ele><time>2026-04-19T10:57:07.975Z</time></trkpt><trkpt lat="43.5862974" lon="10.4784837"><ele>48.0</ele><time>2026-04-19T10:57:08.984Z</time></trkpt><trkpt lat="43.5864081" lon="10.4784319"><ele>48.25</ele><time>2026-04-19T10:57:09.981Z</time></trkpt><trkpt lat="43.5865212" lon="10.4783751"><ele>48.5</ele><time>2026-04-19T10:57:10.981Z</time></trkpt><trkpt lat="43.5866364" lon="10.4783167"><ele>48.75</ele><time>2026-04-19T10:57:11.986Z</time></trkpt><trkpt lat="43.5867536" lon="10.4782405"><ele>49.0</ele><time>2026-04-19T10:57:12.979Z</time></trkpt><trkpt lat="43.5868695" lon="10.4781592"><ele>49.0</ele><time>2026-04-19T10:57:13.989Z</time></trkpt><trkpt lat="43.5869859" lon="10.4780782"><ele>49.0</ele><time>2026-04-19T10:57:14.983Z</time></trkpt><trkpt lat="43.5871022" lon="10.477996"><ele>49.0</ele><time>2026-04-19T10:57:15.981Z</time></trkpt><trkpt lat="43.5872137" lon="10.4779169"><ele>49.0</ele><time>2026-04-19T10:57:16.984Z</time></trkpt><trkpt lat="43.5873191" lon="10.4778421"><ele>48.49999999999999</ele><time>2026-04-19T10:57:17.991Z</time></trkpt><trkpt lat="43.587415" lon="10.4777718"><ele>48.0</ele><time>2026-04-19T10:57:18.987Z</time></trkpt><trkpt lat="43.5875017" lon="10.4777105"><ele>47.5</ele><time>2026-04-19T10:57:19.973Z</time></trkpt><trkpt lat="43.5875736" lon="10.4776568"><ele>47.0</ele><time>2026-04-19T10:57:20.986Z</time></trkpt><trkpt lat="43.5876367" lon="10.4776118"><ele>46.5</ele><time>2026-04-19T10:57:21.973Z</time></trkpt><trkpt lat="43.5876941" lon="10.4775625"><ele>46.0</ele><time>2026-04-19T10:57:22.981Z</time></trkpt><trkpt lat="43.587798" lon="10.4774694"><ele>45.599999999999994</ele><time>2026-04-19T10:57:24.982Z</time></trkpt><trkpt lat="43.587927" lon="10.4773607"><ele>45.2</ele><time>2026-04-19T10:57:26.991Z</time></trkpt><trkpt lat="43.5880032" lon="10.4773024"><ele>44.8</ele><time>2026-04-19T10:57:27.988Z</time></trkpt><trkpt lat="43.588088" lon="10.47725"><ele>44.400000000000006</ele><time>2026-04-19T10:57:28.97Z</time></trkpt><trkpt lat="43.5881659" lon="10.4772018"><ele>44.0</ele><time>2026-04-19T10:57:29.977Z</time></trkpt><trkpt lat="43.5882427" lon="10.4771506"><ele>44.33333333333333</ele><time>2026-04-19T10:57:30.989Z</time></trkpt><trkpt lat="43.5883236" lon="10.4770951"><ele>44.666666666666664</ele><time>2026-04-19T10:57:31.986Z</time></trkpt><trkpt lat="43.5884037" lon="10.4770327"><ele>45.0</ele><time>2026-04-19T10:57:32.989Z</time></trkpt><trkpt lat="43.5884731" lon="10.4769676"><ele>45.333333333333336</ele><time>2026-04-19T10:57:33.977Z</time></trkpt><trkpt lat="43.5885248" lon="10.4769023"><ele>45.66666666666667</ele><time>2026-04-19T10:57:34.972Z</time></trkpt><trkpt lat="43.5885788" lon="10.4768403"><ele>46.0</ele><time>2026-04-19T10:57:35.968Z</time></trkpt><trkpt lat="43.5886443" lon="10.4767684"><ele>45.833333333333336</ele><time>2026-04-19T10:57:36.981Z</time></trkpt><trkpt lat="43.5887053" lon="10.4766976"><ele>45.66666666666667</ele><time>2026-04-19T10:57:37.976Z</time></trkpt><trkpt lat="43.5887598" lon="10.4766231"><ele>45.5</ele><time>2026-04-19T10:57:38.96Z</time></trkpt><trkpt lat="43.5888117" lon="10.4765558"><ele>45.333333333333336</ele><time>2026-04-19T10:57:39.978Z</time></trkpt><trkpt lat="43.5888702" lon="10.4764988"><ele>45.166666666666664</ele><time>2026-04-19T10:57:40.982Z</time></trkpt><trkpt lat="43.5889285" lon="10.4764401"><ele>45.0</ele><time>2026-04-19T10:57:41.975Z</time></trkpt><trkpt lat="43.5890159" lon="10.4763888"><ele>45.0</ele><time>2026-04-19T10:57:42.978Z</time></trkpt><trkpt lat="43.5890995" lon="10.4763489"><ele>45.0</ele><time>2026-04-19T10:57:43.982Z</time></trkpt><trkpt lat="43.5891798" lon="10.4763225"><ele>45.0</ele><time>2026-04-19T10:57:44.97Z</time></trkpt><trkpt lat="43.589258" lon="10.4762971"><ele>45.0</ele><time>2026-04-19T10:57:45.977Z</time></trkpt><trkpt lat="43.5893401" lon="10.4762924"><ele>45.0</ele><time>2026-04-19T10:57:46.979Z</time></trkpt><trkpt lat="43.5894335" lon="10.4763085"><ele>45.0</ele><time>2026-04-19T10:57:47.964Z</time></trkpt><trkpt lat="43.5895253" lon="10.4763235"><ele>44.0</ele><time>2026-04-19T10:57:48.981Z</time></trkpt><trkpt lat="43.5896159" lon="10.4763468"><ele>43.0</ele><time>2026-04-19T10:57:49.972Z</time></trkpt><trkpt lat="43.589708" lon="10.4763774"><ele>42.0</ele><time>2026-04-19T10:57:50.967Z</time></trkpt><trkpt lat="43.5898023" lon="10.4764208"><ele>41.0</ele><time>2026-04-19T10:57:51.975Z</time></trkpt><trkpt lat="43.589895" lon="10.4764788"><ele>40.0</ele><time>2026-04-19T10:57:52.968Z</time></trkpt><trkpt lat="43.5899929" lon="10.4765586"><ele>40.0</ele><time>2026-04-19T10:57:53.974Z</time></trkpt><trkpt lat="43.5901047" lon="10.4766515"><ele>40.0</ele><time>2026-04-19T10:57:54.981Z</time></trkpt><trkpt lat="43.5902068" lon="10.4767641"><ele>40.0</ele><time>2026-04-19T10:57:55.966Z</time></trkpt><trkpt lat="43.5902973" lon="10.4768691"><ele>40.0</ele><time>2026-04-19T10:57:56.981Z</time></trkpt><trkpt lat="43.5903581" lon="10.4769836"><ele>38.5</ele><time>2026-04-19T10:57:57.978Z</time></trkpt><trkpt lat="43.5904116" lon="10.4770842"><ele>37.0</ele><time>2026-04-19T10:57:58.973Z</time></trkpt><trkpt lat="43.5904623" lon="10.4771759"><ele>35.5</ele><time>2026-04-19T10:57:59.974Z</time></trkpt><trkpt lat="43.5905126" lon="10.4772504"><ele>34.0</ele><time>2026-04-19T10:58:00.979Z</time></trkpt><trkpt lat="43.5905769" lon="10.4772948"><ele>32.5</ele><time>2026-04-19T10:58:01.983Z</time></trkpt><trkpt lat="43.5906475" lon="10.4773344"><ele>31.0</ele><time>2026-04-19T10:58:02.98Z</time></trkpt><trkpt lat="43.5907229" lon="10.4773215"><ele>31.0</ele><time>2026-04-19T10:58:03.979Z</time></trkpt><trkpt lat="43.5908061" lon="10.4772752"><ele>31.0</ele><time>2026-04-19T10:58:04.983Z</time></trkpt><trkpt lat="43.5908815" lon="10.4772115"><ele>31.0</ele><time>2026-04-19T10:58:05.988Z</time></trkpt><trkpt lat="43.5909615" lon="10.4771379"><ele>31.0</ele><time>2026-04-19T10:58:06.993Z</time></trkpt><trkpt lat="43.5910181" lon="10.4770395"><ele>31.0</ele><time>2026-04-19T10:58:07.974Z</time></trkpt><trkpt lat="43.5910644" lon="10.4769125"><ele>31.0</ele><time>2026-04-19T10:58:08.99Z</time></trkpt><trkpt lat="43.5910989" lon="10.4767798"><ele>31.0</ele><time>2026-04-19T10:58:09.979Z</time></trkpt><trkpt lat="43.5911184" lon="10.4766545"><ele>31.0</ele><time>2026-04-19T10:58:10.978Z</time></trkpt><trkpt lat="43.5911359" lon="10.4765391"><ele>31.0</ele><time>2026-04-19T10:58:11.981Z</time></trkpt><trkpt lat="43.5911467" lon="10.4764228"><ele>31.0</ele><time>2026-04-19T10:58:12.987Z</time></trkpt><trkpt lat="43.5911511" lon="10.4763033"><ele>31.333333333333336</ele><time>2026-04-19T10:58:13.974Z</time></trkpt><trkpt lat="43.5911537" lon="10.4761944"><ele>31.666666666666668</ele><time>2026-04-19T10:58:14.978Z</time></trkpt><trkpt lat="43.5911566" lon="10.4760972"><ele>32.0</ele><time>2026-04-19T10:58:15.98Z</time></trkpt><trkpt lat="43.5911621" lon="10.476009"><ele>32.333333333333336</ele><time>2026-04-19T10:58:16.977Z</time></trkpt><trkpt lat="43.5912031" lon="10.4758588"><ele>32.666666666666664</ele><time>2026-04-19T10:58:18.982Z</time></trkpt><trkpt lat="43.591307" lon="10.4758008"><ele>33.0</ele><time>2026-04-19T10:58:20.979Z</time></trkpt><trkpt lat="43.5913743" lon="10.4757895"><ele>31.599999999999998</ele><time>2026-04-19T10:58:21.977Z</time></trkpt><trkpt lat="43.5914528" lon="10.4757784"><ele>30.199999999999996</ele><time>2026-04-19T10:58:22.976Z</time></trkpt><trkpt lat="43.5915397" lon="10.4757619"><ele>28.8</ele><time>2026-04-19T10:58:23.975Z</time></trkpt><trkpt lat="43.5916328" lon="10.4757442"><ele>27.4</ele><time>2026-04-19T10:58:24.979Z</time></trkpt><trkpt lat="43.5917247" lon="10.4757275"><ele>26.0</ele><time>2026-04-19T10:58:25.972Z</time></trkpt><trkpt lat="43.5918205" lon="10.4757127"><ele>26.0</ele><time>2026-04-19T10:58:26.978Z</time></trkpt><trkpt lat="43.5919231" lon="10.475691"><ele>26.0</ele><time>2026-04-19T10:58:27.977Z</time></trkpt><trkpt lat="43.5920327" lon="10.4756639"><ele>26.0</ele><time>2026-04-19T10:58:28.982Z</time></trkpt><trkpt lat="43.5921486" lon="10.475639"><ele>26.0</ele><time>2026-04-19T10:58:29.978Z</time></trkpt><trkpt lat="43.5922651" lon="10.4756161"><ele>25.75</ele><time>2026-04-19T10:58:30.981Z</time></trkpt><trkpt lat="43.5923816" lon="10.4755949"><ele>25.5</ele><time>2026-04-19T10:58:31.987Z</time></trkpt><trkpt lat="43.5924971" lon="10.4755737"><ele>25.25</ele><time>2026-04-19T10:58:32.98Z</time></trkpt><trkpt lat="43.5926091" lon="10.4755516"><ele>25.0</ele><time>2026-04-19T10:58:33.983Z</time></trkpt><trkpt lat="43.5927154" lon="10.4755313"><ele>25.0</ele><time>2026-04-19T10:58:34.98Z</time></trkpt><trkpt lat="43.5928211" lon="10.4755102"><ele>25.0</ele><time>2026-04-19T10:58:35.981Z</time></trkpt><trkpt lat="43.5929312" lon="10.4754855"><ele>25.0</ele><time>2026-04-19T10:58:36.975Z</time></trkpt><trkpt lat="43.5930427" lon="10.4754561"><ele>25.0</ele><time>2026-04-19T10:58:37.979Z</time></trkpt><trkpt lat="43.5931488" lon="10.4754266"><ele>25.0</ele><time>2026-04-19T10:58:38.976Z</time></trkpt><trkpt lat="43.5932496" lon="10.4754019"><ele>24.500000000000004</ele><time>2026-04-19T10:58:39.976Z</time></trkpt><trkpt lat="43.5933426" lon="10.4753795"><ele>24.0</ele><time>2026-04-19T10:58:40.974Z</time></trkpt><trkpt lat="43.5934261" lon="10.4753582"><ele>23.5</ele><time>2026-04-19T10:58:41.98Z</time></trkpt><trkpt lat="43.5934923" lon="10.4753397"><ele>23.0</ele><time>2026-04-19T10:58:42.978Z</time></trkpt><trkpt lat="43.5935858" lon="10.4753163"><ele>22.5</ele><time>2026-04-19T10:58:44.982Z</time></trkpt><trkpt lat="43.5936598" lon="10.4752984"><ele>22.0</ele><time>2026-04-19T10:58:46.98Z</time></trkpt><trkpt lat="43.5937324" lon="10.4752839"><ele>22.0</ele><time>2026-04-19T10:58:48.976Z</time></trkpt><trkpt lat="43.5938591" lon="10.4752688"><ele>22.0</ele><time>2026-04-19T10:58:51Z</time></trkpt><trkpt lat="43.5939378" lon="10.475225"><ele>22.0</ele><time>2026-04-19T10:58:51.982Z</time></trkpt><trkpt lat="43.5940254" lon="10.47517"><ele>22.0</ele><time>2026-04-19T10:58:52.981Z</time></trkpt><trkpt lat="43.594112" lon="10.475117"><ele>22.0</ele><time>2026-04-19T10:58:53.997Z</time></trkpt><trkpt lat="43.5941986" lon="10.4750914"><ele>22.0</ele><time>2026-04-19T10:58:54.993Z</time></trkpt><trkpt lat="43.5942767" lon="10.4750712"><ele>22.0</ele><time>2026-04-19T10:58:55.978Z</time></trkpt><trkpt lat="43.594356" lon="10.4750436"><ele>22.0</ele><time>2026-04-19T10:58:56.98Z</time></trkpt><trkpt lat="43.5944346" lon="10.47502"><ele>22.0</ele><time>2026-04-19T10:58:57.986Z</time></trkpt><trkpt lat="43.5945341" lon="10.4749951"><ele>22.0</ele><time>2026-04-19T10:58:58.98Z</time></trkpt><trkpt lat="43.5946435" lon="10.474969"><ele>21.5</ele><time>2026-04-19T10:58:59.979Z</time></trkpt><trkpt lat="43.5947521" lon="10.4749459"><ele>21.0</ele><time>2026-04-19T10:59:00.985Z</time></trkpt><trkpt lat="43.5948575" lon="10.4749215"><ele>20.5</ele><time>2026-04-19T10:59:01.977Z</time></trkpt><trkpt lat="43.5949444" lon="10.474905"><ele>20.0</ele><time>2026-04-19T10:59:02.986Z</time></trkpt><trkpt lat="43.5950226" lon="10.4748945"><ele>19.5</ele><time>2026-04-19T10:59:03.977Z</time></trkpt><trkpt lat="43.5950874" lon="10.4748973"><ele>19.0</ele><time>2026-04-19T10:59:04.975Z</time></trkpt><trkpt lat="43.5951513" lon="10.4748956"><ele>19.0</ele><time>2026-04-19T10:59:05.99Z</time></trkpt><trkpt lat="43.5952822" lon="10.4748778"><ele>19.0</ele><time>2026-04-19T10:59:07.972Z</time></trkpt><trkpt lat="43.5953739" lon="10.4748673"><ele>19.0</ele><time>2026-04-19T10:59:08.989Z</time></trkpt><trkpt lat="43.5954935" lon="10.4748551"><ele>19.0</ele><time>2026-04-19T10:59:09.976Z</time></trkpt><trkpt lat="43.5956229" lon="10.4748411"><ele>18.0</ele><time>2026-04-19T10:59:10.99Z</time></trkpt><trkpt lat="43.5957652" lon="10.4748268"><ele>17.0</ele><time>2026-04-19T10:59:11.977Z</time></trkpt><trkpt lat="43.5959135" lon="10.4748174"><ele>16.0</ele><time>2026-04-19T10:59:12.985Z</time></trkpt><trkpt lat="43.5960618" lon="10.4748081"><ele>15.0</ele><time>2026-04-19T10:59:13.978Z</time></trkpt><trkpt lat="43.5962171" lon="10.4747985"><ele>14.333333333333332</ele><time>2026-04-19T10:59:14.981Z</time></trkpt><trkpt lat="43.5963745" lon="10.4747843"><ele>13.666666666666666</ele><time>2026-04-19T10:59:15.985Z</time></trkpt><trkpt lat="43.5965308" lon="10.4747617"><ele>13.0</ele><time>2026-04-19T10:59:16.983Z</time></trkpt><trkpt lat="43.5966855" lon="10.4747402"><ele>13.0</ele><time>2026-04-19T10:59:17.983Z</time></trkpt><trkpt lat="43.5968411" lon="10.4747022"><ele>13.0</ele><time>2026-04-19T10:59:18.975Z</time></trkpt><trkpt lat="43.5969948" lon="10.4746531"><ele>13.0</ele><time>2026-04-19T10:59:19.982Z</time></trkpt><trkpt lat="43.5971547" lon="10.4745965"><ele>13.333333333333332</ele><time>2026-04-19T10:59:20.98Z</time></trkpt><trkpt lat="43.5973202" lon="10.4745308"><ele>13.666666666666668</ele><time>2026-04-19T10:59:21.978Z</time></trkpt><trkpt lat="43.597478" lon="10.474465"><ele>14.0</ele><time>2026-04-19T10:59:22.974Z</time></trkpt><trkpt lat="43.5976315" lon="10.4743967"><ele>14.0</ele><time>2026-04-19T10:59:23.981Z</time></trkpt><trkpt lat="43.5977858" lon="10.4743279"><ele>14.0</ele><time>2026-04-19T10:59:24.984Z</time></trkpt><trkpt lat="43.5979401" lon="10.4742579"><ele>14.0</ele><time>2026-04-19T10:59:25.978Z</time></trkpt><trkpt lat="43.5980959" lon="10.4741904"><ele>13.666666666666668</ele><time>2026-04-19T10:59:26.985Z</time></trkpt><trkpt lat="43.5982511" lon="10.4741221"><ele>13.333333333333332</ele><time>2026-04-19T10:59:27.986Z</time></trkpt><trkpt lat="43.5984054" lon="10.4740526"><ele>13.0</ele><time>2026-04-19T10:59:28.984Z</time></trkpt><trkpt lat="43.598557" lon="10.4739812"><ele>12.75</ele><time>2026-04-19T10:59:29.98Z</time></trkpt><trkpt lat="43.5987066" lon="10.4739066"><ele>12.5</ele><time>2026-04-19T10:59:30.982Z</time></trkpt><trkpt lat="43.5988405" lon="10.4738322"><ele>12.25</ele><time>2026-04-19T10:59:31.955Z</time></trkpt><trkpt lat="43.598955" lon="10.4737653"><ele>12.0</ele><time>2026-04-19T10:59:32.973Z</time></trkpt><trkpt lat="43.5990522" lon="10.4737176"><ele>12.0</ele><time>2026-04-19T10:59:33.981Z</time></trkpt><trkpt lat="43.599143" lon="10.4737025"><ele>12.0</ele><time>2026-04-19T10:59:34.975Z</time></trkpt><trkpt lat="43.5992337" lon="10.4737008"><ele>12.0</ele><time>2026-04-19T10:59:35.982Z</time></trkpt><trkpt lat="43.5993308" lon="10.4736948"><ele>12.0</ele><time>2026-04-19T10:59:36.983Z</time></trkpt><trkpt lat="43.5994402" lon="10.4736455"><ele>12.0</ele><time>2026-04-19T10:59:37.972Z</time></trkpt><trkpt lat="43.5995299" lon="10.4735663"><ele>12.5</ele><time>2026-04-19T10:59:38.977Z</time></trkpt><trkpt lat="43.5996164" lon="10.4735129"><ele>13.0</ele><time>2026-04-19T10:59:39.98Z</time></trkpt><trkpt lat="43.5997235" lon="10.4734781"><ele>13.5</ele><time>2026-04-19T10:59:40.981Z</time></trkpt><trkpt lat="43.5998442" lon="10.4734463"><ele>14.0</ele><time>2026-04-19T10:59:41.96Z</time></trkpt><trkpt lat="43.5999725" lon="10.4734054"><ele>14.0</ele><time>2026-04-19T10:59:42.983Z</time></trkpt><trkpt lat="43.6001114" lon="10.4733578"><ele>14.0</ele><time>2026-04-19T10:59:43.992Z</time></trkpt><trkpt lat="43.6002539" lon="10.4733022"><ele>14.0</ele><time>2026-04-19T10:59:44.988Z</time></trkpt><trkpt lat="43.6004025" lon="10.4732428"><ele>14.0</ele><time>2026-04-19T10:59:45.978Z</time></trkpt><trkpt lat="43.6005589" lon="10.4731824"><ele>13.666666666666668</ele><time>2026-04-19T10:59:46.978Z</time></trkpt><trkpt lat="43.6007192" lon="10.4731211"><ele>13.333333333333332</ele><time>2026-04-19T10:59:47.985Z</time></trkpt><trkpt lat="43.6008765" lon="10.4730611"><ele>13.0</ele><time>2026-04-19T10:59:48.984Z</time></trkpt><trkpt lat="43.6010356" lon="10.4730006"><ele>12.666666666666666</ele><time>2026-04-19T10:59:49.982Z</time></trkpt><trkpt lat="43.6011958" lon="10.4729419"><ele>12.333333333333332</ele><time>2026-04-19T10:59:50.982Z</time></trkpt><trkpt lat="43.6013563" lon="10.4728854"><ele>12.0</ele><time>2026-04-19T10:59:51.981Z</time></trkpt><trkpt lat="43.6015181" lon="10.472824"><ele>11.666666666666666</ele><time>2026-04-19T10:59:52.976Z</time></trkpt><trkpt lat="43.6016788" lon="10.4727619"><ele>11.333333333333332</ele><time>2026-04-19T10:59:53.992Z</time></trkpt><trkpt lat="43.6018379" lon="10.4726965"><ele>11.0</ele><time>2026-04-19T10:59:54.978Z</time></trkpt><trkpt lat="43.6019981" lon="10.4726296"><ele>10.666666666666666</ele><time>2026-04-19T10:59:55.98Z</time></trkpt><trkpt lat="43.6021555" lon="10.4725654"><ele>10.333333333333334</ele><time>2026-04-19T10:59:56.992Z</time></trkpt><trkpt lat="43.6023127" lon="10.4725037"><ele>10.0</ele><time>2026-04-19T10:59:57.986Z</time></trkpt><trkpt lat="43.6024696" lon="10.4724439"><ele>10.0</ele><time>2026-04-19T10:59:58.983Z</time></trkpt><trkpt lat="43.6026269" lon="10.4723822"><ele>10.0</ele><time>2026-04-19T10:59:59.98Z</time></trkpt><trkpt lat="43.6027881" lon="10.4723219"><ele>10.0</ele><time>2026-04-19T11:00:00.979Z</time></trkpt><trkpt lat="43.6029487" lon="10.4722605"><ele>9.666666666666668</ele><time>2026-04-19T11:00:01.981Z</time></trkpt><trkpt lat="43.6031095" lon="10.4721936"><ele>9.333333333333334</ele><time>2026-04-19T11:00:02.981Z</time></trkpt><trkpt lat="43.6032709" lon="10.4721219"><ele>9.0</ele><time>2026-04-19T11:00:03.971Z</time></trkpt><trkpt lat="43.6034298" lon="10.4720528"><ele>9.333333333333334</ele><time>2026-04-19T11:00:04.978Z</time></trkpt><trkpt lat="43.6035934" lon="10.4719791"><ele>9.666666666666668</ele><time>2026-04-19T11:00:05.986Z</time></trkpt><trkpt lat="43.6037577" lon="10.4719034"><ele>10.0</ele><time>2026-04-19T11:00:06.991Z</time></trkpt><trkpt lat="43.6039235" lon="10.4718318"><ele>10.0</ele><time>2026-04-19T11:00:07.97Z</time></trkpt><trkpt lat="43.6040883" lon="10.4717607"><ele>10.0</ele><time>2026-04-19T11:00:08.961Z</time></trkpt><trkpt lat="43.6042541" lon="10.4716876"><ele>10.0</ele><time>2026-04-19T11:00:09.969Z</time></trkpt><trkpt lat="43.60442" lon="10.471615"><ele>9.666666666666668</ele><time>2026-04-19T11:00:10.978Z</time></trkpt><trkpt lat="43.6045842" lon="10.4715401"><ele>9.333333333333334</ele><time>2026-04-19T11:00:11.975Z</time></trkpt><trkpt lat="43.6047495" lon="10.4714655"><ele>9.0</ele><time>2026-04-19T11:00:12.976Z</time></trkpt><trkpt lat="43.6049181" lon="10.4713867"><ele>9.0</ele><time>2026-04-19T11:00:13.972Z</time></trkpt><trkpt lat="43.6050851" lon="10.4713073"><ele>9.0</ele><time>2026-04-19T11:00:14.985Z</time></trkpt><trkpt lat="43.6052524" lon="10.4712246"><ele>9.0</ele><time>2026-04-19T11:00:15.974Z</time></trkpt><trkpt lat="43.6054192" lon="10.4711395"><ele>9.0</ele><time>2026-04-19T11:00:16.982Z</time></trkpt><trkpt lat="43.6055857" lon="10.4710542"><ele>9.0</ele><time>2026-04-19T11:00:17.982Z</time></trkpt><trkpt lat="43.6057502" lon="10.4709668"><ele>9.0</ele><time>2026-04-19T11:00:18.982Z</time></trkpt><trkpt lat="43.6059141" lon="10.4708784"><ele>9.0</ele><time>2026-04-19T11:00:19.981Z</time></trkpt><trkpt lat="43.6060766" lon="10.4707885"><ele>9.0</ele><time>2026-04-19T11:00:20.981Z</time></trkpt><trkpt lat="43.6062349" lon="10.4706919"><ele>9.0</ele><time>2026-04-19T11:00:21.974Z</time></trkpt><trkpt lat="43.6063893" lon="10.4705833"><ele>8.666666666666666</ele><time>2026-04-19T11:00:22.98Z</time></trkpt><trkpt lat="43.6065366" lon="10.4704609"><ele>8.333333333333332</ele><time>2026-04-19T11:00:23.974Z</time></trkpt><trkpt lat="43.6066781" lon="10.4703244"><ele>8.0</ele><time>2026-04-19T11:00:24.985Z</time></trkpt><trkpt lat="43.6068173" lon="10.4701832"><ele>8.0</ele><time>2026-04-19T11:00:25.98Z</time></trkpt><trkpt lat="43.6069557" lon="10.470045"><ele>8.0</ele><time>2026-04-19T11:00:26.991Z</time></trkpt><trkpt lat="43.6070923" lon="10.469908"><ele>8.0</ele><time>2026-04-19T11:00:27.979Z</time></trkpt><trkpt lat="43.6072294" lon="10.4697695"><ele>8.333333333333332</ele><time>2026-04-19T11:00:28.986Z</time></trkpt><trkpt lat="43.6073658" lon="10.469628"><ele>8.666666666666666</ele><time>2026-04-19T11:00:29.967Z</time></trkpt><trkpt lat="43.6075015" lon="10.4694842"><ele>9.0</ele><time>2026-04-19T11:00:30.967Z</time></trkpt><trkpt lat="43.6076371" lon="10.4693413"><ele>9.0</ele><time>2026-04-19T11:00:31.984Z</time></trkpt><trkpt lat="43.6077719" lon="10.4692012"><ele>9.0</ele><time>2026-04-19T11:00:32.987Z</time></trkpt><trkpt lat="43.6079021" lon="10.4690712"><ele>9.0</ele><time>2026-04-19T11:00:33.987Z</time></trkpt><trkpt lat="43.6080301" lon="10.4689453"><ele>9.0</ele><time>2026-04-19T11:00:34.983Z</time></trkpt><trkpt lat="43.6081604" lon="10.4688214"><ele>9.0</ele><time>2026-04-19T11:00:35.969Z</time></trkpt><trkpt lat="43.6082976" lon="10.4686957"><ele>9.0</ele><time>2026-04-19T11:00:36.98Z</time></trkpt><trkpt lat="43.6084439" lon="10.4685753"><ele>8.666666666666666</ele><time>2026-04-19T11:00:37.973Z</time></trkpt><trkpt lat="43.6085911" lon="10.4684734"><ele>8.333333333333332</ele><time>2026-04-19T11:00:38.984Z</time></trkpt><trkpt lat="43.6087394" lon="10.4683852"><ele>8.0</ele><time>2026-04-19T11:00:39.982Z</time></trkpt><trkpt lat="43.6088928" lon="10.4683106"><ele>8.0</ele><time>2026-04-19T11:00:40.968Z</time></trkpt><trkpt lat="43.6090483" lon="10.4682544"><ele>8.0</ele><time>2026-04-19T11:00:41.982Z</time></trkpt><trkpt lat="43.6092074" lon="10.468212"><ele>8.0</ele><time>2026-04-19T11:00:42.98Z</time></trkpt><trkpt lat="43.6093718" lon="10.4681784"><ele>8.0</ele><time>2026-04-19T11:00:43.987Z</time></trkpt><trkpt lat="43.6095392" lon="10.4681451"><ele>8.0</ele><time>2026-04-19T11:00:44.979Z</time></trkpt><trkpt lat="43.6097073" lon="10.4681092"><ele>8.0</ele><time>2026-04-19T11:00:45.979Z</time></trkpt><trkpt lat="43.6098739" lon="10.4680711"><ele>8.0</ele><time>2026-04-19T11:00:46.98Z</time></trkpt><trkpt lat="43.6100382" lon="10.4680271"><ele>8.0</ele><time>2026-04-19T11:00:47.984Z</time></trkpt><trkpt lat="43.6101996" lon="10.4679721"><ele>8.0</ele><time>2026-04-19T11:00:48.987Z</time></trkpt><trkpt lat="43.6103547" lon="10.4678947"><ele>8.0</ele><time>2026-04-19T11:00:49.99Z</time></trkpt><trkpt lat="43.6105096" lon="10.4678098"><ele>8.0</ele><time>2026-04-19T11:00:50.973Z</time></trkpt><trkpt lat="43.6106496" lon="10.4676894"><ele>8.0</ele><time>2026-04-19T11:00:51.967Z</time></trkpt><trkpt lat="43.6107839" lon="10.4675567"><ele>8.0</ele><time>2026-04-19T11:00:52.981Z</time></trkpt><trkpt lat="43.6109156" lon="10.4674212"><ele>8.0</ele><time>2026-04-19T11:00:53.98Z</time></trkpt><trkpt lat="43.6110491" lon="10.4672951"><ele>8.0</ele><time>2026-04-19T11:00:54.966Z</time></trkpt><trkpt lat="43.6111791" lon="10.4671568"><ele>8.0</ele><time>2026-04-19T11:00:55.977Z</time></trkpt><trkpt lat="43.6113113" lon="10.4670192"><ele>8.0</ele><time>2026-04-19T11:00:56.979Z</time></trkpt><trkpt lat="43.6114441" lon="10.4668824"><ele>8.0</ele><time>2026-04-19T11:00:57.978Z</time></trkpt><trkpt lat="43.6115751" lon="10.4667418"><ele>8.0</ele><time>2026-04-19T11:00:58.974Z</time></trkpt><trkpt lat="43.6117068" lon="10.4666002"><ele>8.0</ele><time>2026-04-19T11:00:59.977Z</time></trkpt><trkpt lat="43.6118412" lon="10.4664588"><ele>8.0</ele><time>2026-04-19T11:01:00.975Z</time></trkpt><trkpt lat="43.6119772" lon="10.4663185"><ele>8.333333333333332</ele><time>2026-04-19T11:01:01.986Z</time></trkpt><trkpt lat="43.6121155" lon="10.4661754"><ele>8.666666666666666</ele><time>2026-04-19T11:01:02.978Z</time></trkpt><trkpt lat="43.6122524" lon="10.4660303"><ele>9.0</ele><time>2026-04-19T11:01:03.995Z</time></trkpt><trkpt lat="43.6123887" lon="10.4658868"><ele>9.0</ele><time>2026-04-19T11:01:04.974Z</time></trkpt><trkpt lat="43.6125241" lon="10.4657448"><ele>9.0</ele><time>2026-04-19T11:01:05.984Z</time></trkpt><trkpt lat="43.6126605" lon="10.4656035"><ele>9.0</ele><time>2026-04-19T11:01:06.993Z</time></trkpt><trkpt lat="43.6127964" lon="10.4654653"><ele>9.0</ele><time>2026-04-19T11:01:07.99Z</time></trkpt><trkpt lat="43.6129349" lon="10.4653158"><ele>9.0</ele><time>2026-04-19T11:01:08.982Z</time></trkpt><trkpt lat="43.6130737" lon="10.4651751"><ele>9.0</ele><time>2026-04-19T11:01:09.971Z</time></trkpt><trkpt lat="43.6132061" lon="10.4650498"><ele>9.0</ele><time>2026-04-19T11:01:10.975Z</time></trkpt><trkpt lat="43.6133253" lon="10.4649453"><ele>9.0</ele><time>2026-04-19T11:01:11.986Z</time></trkpt><trkpt lat="43.6134309" lon="10.4648599"><ele>9.0</ele><time>2026-04-19T11:01:12.964Z</time></trkpt><trkpt lat="43.613531" lon="10.4647883"><ele>9.0</ele><time>2026-04-19T11:01:13.979Z</time></trkpt><trkpt lat="43.6136469" lon="10.464738"><ele>8.75</ele><time>2026-04-19T11:01:14.977Z</time></trkpt><trkpt lat="43.6137798" lon="10.4647"><ele>8.5</ele><time>2026-04-19T11:01:15.968Z</time></trkpt><trkpt lat="43.6139233" lon="10.464661"><ele>8.25</ele><time>2026-04-19T11:01:16.968Z</time></trkpt><trkpt lat="43.6140731" lon="10.4646212"><ele>8.0</ele><time>2026-04-19T11:01:17.982Z</time></trkpt><trkpt lat="43.6142256" lon="10.4645836"><ele>7.800000000000001</ele><time>2026-04-19T11:01:18.976Z</time></trkpt><trkpt lat="43.6143623" lon="10.4645549"><ele>7.6000000000000005</ele><time>2026-04-19T11:01:19.971Z</time></trkpt><trkpt lat="43.6144639" lon="10.464529"><ele>7.3999999999999995</ele><time>2026-04-19T11:01:20.979Z</time></trkpt><trkpt lat="43.6145336" lon="10.4645086"><ele>7.199999999999999</ele><time>2026-04-19T11:01:21.984Z</time></trkpt><trkpt lat="43.6146635" lon="10.4644754"><ele>7.0</ele><time>2026-04-19T11:01:23.981Z</time></trkpt><trkpt lat="43.6147488" lon="10.4644539"><ele>7.000000000000001</ele><time>2026-04-19T11:01:24.98Z</time></trkpt><trkpt lat="43.6148356" lon="10.46443"><ele>7.0</ele><time>2026-04-19T11:01:25.967Z</time></trkpt><trkpt lat="43.6149143" lon="10.4644058"><ele>7.0</ele><time>2026-04-19T11:01:26.977Z</time></trkpt><trkpt lat="43.6149984" lon="10.4643833"><ele>7.0</ele><time>2026-04-19T11:01:27.968Z</time></trkpt><trkpt lat="43.6150852" lon="10.464361"><ele>7.000000000000001</ele><time>2026-04-19T11:01:28.973Z</time></trkpt><trkpt lat="43.6151851" lon="10.4643243"><ele>7.0</ele><time>2026-04-19T11:01:29.984Z</time></trkpt><trkpt lat="43.6152863" lon="10.4642886"><ele>7.25</ele><time>2026-04-19T11:01:30.965Z</time></trkpt><trkpt lat="43.6154034" lon="10.4642506"><ele>7.5</ele><time>2026-04-19T11:01:31.979Z</time></trkpt><trkpt lat="43.6155366" lon="10.4642277"><ele>7.75</ele><time>2026-04-19T11:01:32.968Z</time></trkpt><trkpt lat="43.6156816" lon="10.4642028"><ele>8.0</ele><time>2026-04-19T11:01:33.957Z</time></trkpt><trkpt lat="43.6158278" lon="10.4641678"><ele>8.0</ele><time>2026-04-19T11:01:34.964Z</time></trkpt><trkpt lat="43.6159821" lon="10.4641168"><ele>8.0</ele><time>2026-04-19T11:01:35.989Z</time></trkpt><trkpt lat="43.6161249" lon="10.4640751"><ele>8.0</ele><time>2026-04-19T11:01:36.965Z</time></trkpt><trkpt lat="43.6162647" lon="10.464034"><ele>8.0</ele><time>2026-04-19T11:01:37.967Z</time></trkpt><trkpt lat="43.616395" lon="10.4639887"><ele>7.5</ele><time>2026-04-19T11:01:38.964Z</time></trkpt><trkpt lat="43.6165245" lon="10.4639424"><ele>7.0</ele><time>2026-04-19T11:01:39.971Z</time></trkpt><trkpt lat="43.6166291" lon="10.4638954"><ele>6.5</ele><time>2026-04-19T11:01:40.965Z</time></trkpt><trkpt lat="43.6167326" lon="10.4638441"><ele>6.0</ele><time>2026-04-19T11:01:41.976Z</time></trkpt><trkpt lat="43.6168384" lon="10.4637891"><ele>6.0</ele><time>2026-04-19T11:01:42.957Z</time></trkpt><trkpt lat="43.6169517" lon="10.4637286"><ele>6.0</ele><time>2026-04-19T11:01:43.977Z</time></trkpt><trkpt lat="43.6170774" lon="10.4636825"><ele>6.0</ele><time>2026-04-19T11:01:44.97Z</time></trkpt><trkpt lat="43.6172133" lon="10.4636243"><ele>6.0</ele><time>2026-04-19T11:01:45.966Z</time></trkpt><trkpt lat="43.6173525" lon="10.4635554"><ele>6.0</ele><time>2026-04-19T11:01:46.96Z</time></trkpt><trkpt lat="43.6174933" lon="10.463487"><ele>6.0</ele><time>2026-04-19T11:01:47.976Z</time></trkpt><trkpt lat="43.6176384" lon="10.4634197"><ele>6.0</ele><time>2026-04-19T11:01:48.97Z</time></trkpt><trkpt lat="43.6177889" lon="10.4633528"><ele>6.0</ele><time>2026-04-19T11:01:49.98Z</time></trkpt><trkpt lat="43.6179386" lon="10.4632912"><ele>6.0</ele><time>2026-04-19T11:01:50.979Z</time></trkpt><trkpt lat="43.618081" lon="10.4632331"><ele>6.0</ele><time>2026-04-19T11:01:51.979Z</time></trkpt><trkpt lat="43.6182142" lon="10.4631856"><ele>6.0</ele><time>2026-04-19T11:01:52.963Z</time></trkpt><trkpt lat="43.6183394" lon="10.4631694"><ele>6.0</ele><time>2026-04-19T11:01:53.982Z</time></trkpt><trkpt lat="43.6184682" lon="10.4631708"><ele>6.0</ele><time>2026-04-19T11:01:54.973Z</time></trkpt><trkpt lat="43.6185893" lon="10.4632502"><ele>6.0</ele><time>2026-04-19T11:01:55.98Z</time></trkpt><trkpt lat="43.6187048" lon="10.4633547"><ele>6.0</ele><time>2026-04-19T11:01:56.98Z</time></trkpt><trkpt lat="43.6188255" lon="10.4634791"><ele>5.666666666666667</ele><time>2026-04-19T11:01:57.973Z</time></trkpt><trkpt lat="43.6189495" lon="10.4636109"><ele>5.333333333333334</ele><time>2026-04-19T11:01:58.971Z</time></trkpt><trkpt lat="43.61908" lon="10.4637473"><ele>5.0</ele><time>2026-04-19T11:01:59.971Z</time></trkpt><trkpt lat="43.6192055" lon="10.4638747"><ele>5.0</ele><time>2026-04-19T11:02:00.978Z</time></trkpt><trkpt lat="43.6193127" lon="10.463988"><ele>5.0</ele><time>2026-04-19T11:02:01.981Z</time></trkpt><trkpt lat="43.619407" lon="10.4640893"><ele>5.0</ele><time>2026-04-19T11:02:02.969Z</time></trkpt><trkpt lat="43.6194839" lon="10.4641833"><ele>5.0</ele><time>2026-04-19T11:02:03.972Z</time></trkpt><trkpt lat="43.6195386" lon="10.464282"><ele>5.0</ele><time>2026-04-19T11:02:04.971Z</time></trkpt><trkpt lat="43.6195751" lon="10.4643981"><ele>4.8</ele><time>2026-04-19T11:02:05.979Z</time></trkpt><trkpt lat="43.6195892" lon="10.4645209"><ele>4.6</ele><time>2026-04-19T11:02:06.985Z</time></trkpt><trkpt lat="43.6195785" lon="10.4646496"><ele>4.4</ele><time>2026-04-19T11:02:07.981Z</time></trkpt><trkpt lat="43.6195381" lon="10.4647768"><ele>4.2</ele><time>2026-04-19T11:02:08.962Z</time></trkpt><trkpt lat="43.6194814" lon="10.4649052"><ele>4.0</ele><time>2026-04-19T11:02:09.981Z</time></trkpt><trkpt lat="43.6194106" lon="10.4650144"><ele>4.0</ele><time>2026-04-19T11:02:10.969Z</time></trkpt><trkpt lat="43.6193392" lon="10.4651354"><ele>4.0</ele><time>2026-04-19T11:02:11.974Z</time></trkpt><trkpt lat="43.619267" lon="10.4652755"><ele>4.0</ele><time>2026-04-19T11:02:12.975Z</time></trkpt><trkpt lat="43.6191974" lon="10.4654209"><ele>4.0</ele><time>2026-04-19T11:02:13.975Z</time></trkpt><trkpt lat="43.6191393" lon="10.465553"><ele>3.8000000000000003</ele><time>2026-04-19T11:02:14.974Z</time></trkpt><trkpt lat="43.619089" lon="10.4656777"><ele>3.6000000000000005</ele><time>2026-04-19T11:02:15.971Z</time></trkpt><trkpt lat="43.6190843" lon="10.4658018"><ele>3.4</ele><time>2026-04-19T11:02:16.986Z</time></trkpt><trkpt lat="43.6191118" lon="10.4659005"><ele>3.2</ele><time>2026-04-19T11:02:17.981Z</time></trkpt><trkpt lat="43.6191586" lon="10.4659611"><ele>3.0</ele><time>2026-04-19T11:02:18.973Z</time></trkpt><trkpt lat="43.6192787" lon="10.4659863"><ele>3.0</ele><time>2026-04-19T11:02:20.991Z</time></trkpt><trkpt lat="43.6193449" lon="10.4659414"><ele>3.0</ele><time>2026-04-19T11:02:21.984Z</time></trkpt><trkpt lat="43.6194263" lon="10.4658796"><ele>3.0</ele><time>2026-04-19T11:02:22.98Z</time></trkpt><trkpt lat="43.6195039" lon="10.4657502"><ele>3.0</ele><time>2026-04-19T11:02:23.991Z</time></trkpt><trkpt lat="43.6195897" lon="10.4655894"><ele>3.0</ele><time>2026-04-19T11:02:24.981Z</time></trkpt><trkpt lat="43.6196836" lon="10.4654126"><ele>3.333333333333333</ele><time>2026-04-19T11:02:25.976Z</time></trkpt><trkpt lat="43.6197797" lon="10.4652344"><ele>3.6666666666666665</ele><time>2026-04-19T11:02:26.984Z</time></trkpt><trkpt lat="43.6198813" lon="10.4650532"><ele>4.0</ele><time>2026-04-19T11:02:27.993Z</time></trkpt><trkpt lat="43.6199901" lon="10.4648637"><ele>4.0</ele><time>2026-04-19T11:02:28.979Z</time></trkpt><trkpt lat="43.6201054" lon="10.4646668"><ele>4.0</ele><time>2026-04-19T11:02:29.982Z</time></trkpt><trkpt lat="43.6202174" lon="10.4644723"><ele>4.0</ele><time>2026-04-19T11:02:30.978Z</time></trkpt><trkpt lat="43.6203345" lon="10.4642866"><ele>5.0</ele><time>2026-04-19T11:02:31.983Z</time></trkpt><trkpt lat="43.6204576" lon="10.4641198"><ele>6.0</ele><time>2026-04-19T11:02:32.976Z</time></trkpt><trkpt lat="43.6205945" lon="10.4639858"><ele>7.0</ele><time>2026-04-19T11:02:33.995Z</time></trkpt><trkpt lat="43.6207475" lon="10.4638799"><ele>7.0</ele><time>2026-04-19T11:02:34.982Z</time></trkpt><trkpt lat="43.6209127" lon="10.4637922"><ele>7.0</ele><time>2026-04-19T11:02:35.984Z</time></trkpt><trkpt lat="43.6210871" lon="10.46371"><ele>7.0</ele><time>2026-04-19T11:02:36.976Z</time></trkpt><trkpt lat="43.6212677" lon="10.4636249"><ele>6.333333333333334</ele><time>2026-04-19T11:02:37.967Z</time></trkpt><trkpt lat="43.6214499" lon="10.4635384"><ele>5.666666666666667</ele><time>2026-04-19T11:02:38.985Z</time></trkpt><trkpt lat="43.6216316" lon="10.4634496"><ele>5.0</ele><time>2026-04-19T11:02:39.981Z</time></trkpt><trkpt lat="43.6218134" lon="10.4633574"><ele>5.0</ele><time>2026-04-19T11:02:40.986Z</time></trkpt><trkpt lat="43.6219959" lon="10.4632616"><ele>5.0</ele><time>2026-04-19T11:02:41.977Z</time></trkpt><trkpt lat="43.6221744" lon="10.4631575"><ele>5.0</ele><time>2026-04-19T11:02:42.974Z</time></trkpt><trkpt lat="43.6223501" lon="10.4630516"><ele>4.666666666666667</ele><time>2026-04-19T11:02:43.971Z</time></trkpt><trkpt lat="43.6225254" lon="10.4629457"><ele>4.333333333333333</ele><time>2026-04-19T11:02:44.98Z</time></trkpt><trkpt lat="43.6226947" lon="10.4628367"><ele>4.0</ele><time>2026-04-19T11:02:45.99Z</time></trkpt><trkpt lat="43.622861" lon="10.4627294"><ele>4.666666666666666</ele><time>2026-04-19T11:02:46.978Z</time></trkpt><trkpt lat="43.6230287" lon="10.4626232"><ele>5.333333333333333</ele><time>2026-04-19T11:02:47.984Z</time></trkpt><trkpt lat="43.6231977" lon="10.4625191"><ele>6.0</ele><time>2026-04-19T11:02:48.98Z</time></trkpt><trkpt lat="43.6233671" lon="10.4624102"><ele>6.0</ele><time>2026-04-19T11:02:49.976Z</time></trkpt><trkpt lat="43.6235386" lon="10.4623007"><ele>6.0</ele><time>2026-04-19T11:02:50.983Z</time></trkpt><trkpt lat="43.6237134" lon="10.4621896"><ele>6.0</ele><time>2026-04-19T11:02:51.979Z</time></trkpt><trkpt lat="43.6238897" lon="10.4620782"><ele>6.333333333333334</ele><time>2026-04-19T11:02:52.983Z</time></trkpt><trkpt lat="43.6240647" lon="10.461968"><ele>6.666666666666667</ele><time>2026-04-19T11:02:53.987Z</time></trkpt><trkpt lat="43.6242378" lon="10.4618624"><ele>7.0</ele><time>2026-04-19T11:02:54.978Z</time></trkpt><trkpt lat="43.6244167" lon="10.4617595"><ele>6.0</ele><time>2026-04-19T11:02:55.977Z</time></trkpt><trkpt lat="43.6245962" lon="10.4616488"><ele>5.0</ele><time>2026-04-19T11:02:56.969Z</time></trkpt><trkpt lat="43.6247726" lon="10.4615357"><ele>4.0</ele><time>2026-04-19T11:02:57.979Z</time></trkpt><trkpt lat="43.6249439" lon="10.4614207"><ele>4.0</ele><time>2026-04-19T11:02:58.984Z</time></trkpt><trkpt lat="43.6251152" lon="10.4613059"><ele>4.0</ele><time>2026-04-19T11:02:59.98Z</time></trkpt><trkpt lat="43.625288" lon="10.461193"><ele>4.0</ele><time>2026-04-19T11:03:00.983Z</time></trkpt><trkpt lat="43.6254614" lon="10.461079"><ele>3.0</ele><time>2026-04-19T11:03:01.99Z</time></trkpt><trkpt lat="43.6256364" lon="10.4609662"><ele>2.0</ele><time>2026-04-19T11:03:02.978Z</time></trkpt><trkpt lat="43.6258151" lon="10.4608502"><ele>1.0</ele><time>2026-04-19T11:03:03.973Z</time></trkpt><trkpt lat="43.625997" lon="10.4607322"><ele>1.3333333333333333</ele><time>2026-04-19T11:03:04.978Z</time></trkpt><trkpt lat="43.6261791" lon="10.4606135"><ele>1.6666666666666665</ele><time>2026-04-19T11:03:05.984Z</time></trkpt><trkpt lat="43.626363" lon="10.4604968"><ele>2.0</ele><time>2026-04-19T11:03:06.984Z</time></trkpt><trkpt lat="43.6265457" lon="10.4603807"><ele>2.0</ele><time>2026-04-19T11:03:07.977Z</time></trkpt><trkpt lat="43.6267232" lon="10.4602669"><ele>2.0</ele><time>2026-04-19T11:03:08.983Z</time></trkpt><trkpt lat="43.6268978" lon="10.4601529"><ele>2.0</ele><time>2026-04-19T11:03:09.981Z</time></trkpt><trkpt lat="43.6270715" lon="10.460041"><ele>2.0</ele><time>2026-04-19T11:03:10.977Z</time></trkpt><trkpt lat="43.6272419" lon="10.4599323"><ele>2.0</ele><time>2026-04-19T11:03:11.965Z</time></trkpt><trkpt lat="43.6274092" lon="10.4598234"><ele>2.0</ele><time>2026-04-19T11:03:12.978Z</time></trkpt><trkpt lat="43.6275752" lon="10.4597139"><ele>1.6666666666666665</ele><time>2026-04-19T11:03:13.98Z</time></trkpt><trkpt lat="43.6277412" lon="10.4596048"><ele>1.3333333333333333</ele><time>2026-04-19T11:03:14.992Z</time></trkpt><trkpt lat="43.6279091" lon="10.4594957"><ele>1.0</ele><time>2026-04-19T11:03:15.985Z</time></trkpt><trkpt lat="43.6280775" lon="10.4593891"><ele>1.0</ele><time>2026-04-19T11:03:16.979Z</time></trkpt><trkpt lat="43.6282468" lon="10.4592832"><ele>1.0</ele><time>2026-04-19T11:03:17.985Z</time></trkpt><trkpt lat="43.6284147" lon="10.4591766"><ele>1.0</ele><time>2026-04-19T11:03:18.989Z</time></trkpt><trkpt lat="43.628581" lon="10.4590721"><ele>1.0</ele><time>2026-04-19T11:03:19.987Z</time></trkpt><trkpt lat="43.628745" lon="10.4589713"><ele>1.0</ele><time>2026-04-19T11:03:20.996Z</time></trkpt><trkpt lat="43.6289077" lon="10.4588679"><ele>1.0</ele><time>2026-04-19T11:03:21.982Z</time></trkpt><trkpt lat="43.6290685" lon="10.4587625"><ele>1.0</ele><time>2026-04-19T11:03:22.985Z</time></trkpt><trkpt lat="43.6292297" lon="10.4586583"><ele>1.0</ele><time>2026-04-19T11:03:23.986Z</time></trkpt><trkpt lat="43.6293881" lon="10.458557"><ele>1.0</ele><time>2026-04-19T11:03:24.985Z</time></trkpt><trkpt lat="43.6295423" lon="10.4584577"><ele>1.3333333333333333</ele><time>2026-04-19T11:03:25.979Z</time></trkpt><trkpt lat="43.6296953" lon="10.45836"><ele>1.6666666666666665</ele><time>2026-04-19T11:03:26.961Z</time></trkpt><trkpt lat="43.6298489" lon="10.4582621"><ele>2.0</ele><time>2026-04-19T11:03:27.984Z</time></trkpt><trkpt lat="43.6300037" lon="10.4581651"><ele>2.0</ele><time>2026-04-19T11:03:28.975Z</time></trkpt><trkpt lat="43.6301596" lon="10.4580689"><ele>2.0</ele><time>2026-04-19T11:03:29.969Z</time></trkpt><trkpt lat="43.6303162" lon="10.4579721"><ele>2.0</ele><time>2026-04-19T11:03:30.98Z</time></trkpt><trkpt lat="43.6304729" lon="10.4578739"><ele>2.0</ele><time>2026-04-19T11:03:31.984Z</time></trkpt><trkpt lat="43.63063" lon="10.4577747"><ele>2.0</ele><time>2026-04-19T11:03:32.987Z</time></trkpt><trkpt lat="43.6307878" lon="10.4576749"><ele>2.0</ele><time>2026-04-19T11:03:33.987Z</time></trkpt><trkpt lat="43.6309412" lon="10.457579"><ele>2.0</ele><time>2026-04-19T11:03:34.984Z</time></trkpt><trkpt lat="43.6310714" lon="10.4575011"><ele>2.0</ele><time>2026-04-19T11:03:35.988Z</time></trkpt><trkpt lat="43.6311931" lon="10.4574424"><ele>2.0</ele><time>2026-04-19T11:03:36.975Z</time></trkpt><trkpt lat="43.6313173" lon="10.4573782"><ele>2.0</ele><time>2026-04-19T11:03:37.987Z</time></trkpt><trkpt lat="43.6314451" lon="10.4572914"><ele>2.0</ele><time>2026-04-19T11:03:38.984Z</time></trkpt><trkpt lat="43.6315802" lon="10.4572066"><ele>2.0</ele><time>2026-04-19T11:03:39.986Z</time></trkpt><trkpt lat="43.631735" lon="10.4571075"><ele>2.0</ele><time>2026-04-19T11:03:40.984Z</time></trkpt><trkpt lat="43.6319016" lon="10.4570015"><ele>1.6666666666666665</ele><time>2026-04-19T11:03:41.979Z</time></trkpt><trkpt lat="43.6320737" lon="10.456893"><ele>1.3333333333333333</ele><time>2026-04-19T11:03:42.981Z</time></trkpt><trkpt lat="43.6322493" lon="10.4567828"><ele>1.0</ele><time>2026-04-19T11:03:43.988Z</time></trkpt><trkpt lat="43.6324243" lon="10.4566729"><ele>1.0</ele><time>2026-04-19T11:03:44.981Z</time></trkpt><trkpt lat="43.6325985" lon="10.4565606"><ele>1.0</ele><time>2026-04-19T11:03:45.985Z</time></trkpt><trkpt lat="43.6327728" lon="10.4564417"><ele>1.0</ele><time>2026-04-19T11:03:46.993Z</time></trkpt><trkpt lat="43.6329453" lon="10.456322"><ele>1.0</ele><time>2026-04-19T11:03:47.986Z</time></trkpt><trkpt lat="43.6331202" lon="10.4562041"><ele>1.0</ele><time>2026-04-19T11:03:48.979Z</time></trkpt><trkpt lat="43.6332915" lon="10.456091"><ele>1.0</ele><time>2026-04-19T11:03:49.992Z</time></trkpt><trkpt lat="43.6334495" lon="10.4559855"><ele>1.0</ele><time>2026-04-19T11:03:50.995Z</time></trkpt><trkpt lat="43.6335943" lon="10.4558949"><ele>1.0</ele><time>2026-04-19T11:03:51.994Z</time></trkpt><trkpt lat="43.6337256" lon="10.455813"><ele>1.0</ele><time>2026-04-19T11:03:52.985Z</time></trkpt><trkpt lat="43.6338473" lon="10.4557375"><ele>1.0</ele><time>2026-04-19T11:03:53.984Z</time></trkpt><trkpt lat="43.633963" lon="10.4556676"><ele>1.4</ele><time>2026-04-19T11:03:54.977Z</time></trkpt><trkpt lat="43.6340684" lon="10.4556019"><ele>1.8</ele><time>2026-04-19T11:03:55.983Z</time></trkpt><trkpt lat="43.6341691" lon="10.4555376"><ele>2.1999999999999997</ele><time>2026-04-19T11:03:56.97Z</time></trkpt><trkpt lat="43.6342591" lon="10.4554771"><ele>2.6</ele><time>2026-04-19T11:03:57.985Z</time></trkpt><trkpt lat="43.6343298" lon="10.4554287"><ele>3.0</ele><time>2026-04-19T11:03:58.979Z</time></trkpt><trkpt lat="43.6344289" lon="10.4553931"><ele>2.6</ele><time>2026-04-19T11:04:00.983Z</time></trkpt><trkpt lat="43.6344917" lon="10.4554722"><ele>2.1999999999999997</ele><time>2026-04-19T11:04:02.973Z</time></trkpt><trkpt lat="43.6344981" lon="10.4555692"><ele>1.8</ele><time>2026-04-19T11:04:03.969Z</time></trkpt><trkpt lat="43.6345035" lon="10.4556841"><ele>1.4</ele><time>2026-04-19T11:04:04.981Z</time></trkpt><trkpt lat="43.6345112" lon="10.4558197"><ele>1.0</ele><time>2026-04-19T11:04:05.976Z</time></trkpt><trkpt lat="43.6345183" lon="10.4559759"><ele>1.0</ele><time>2026-04-19T11:04:06.982Z</time></trkpt><trkpt lat="43.6345296" lon="10.4561469"><ele>1.0</ele><time>2026-04-19T11:04:07.976Z</time></trkpt><trkpt lat="43.6345365" lon="10.4563363"><ele>1.0</ele><time>2026-04-19T11:04:08.98Z</time></trkpt><trkpt lat="43.6345413" lon="10.4565434"><ele>1.0</ele><time>2026-04-19T11:04:09.979Z</time></trkpt><trkpt lat="43.6345414" lon="10.45675"><ele>1.0</ele><time>2026-04-19T11:04:10.975Z</time></trkpt><trkpt lat="43.6345352" lon="10.4569547"><ele>1.0</ele><time>2026-04-19T11:04:11.976Z</time></trkpt><trkpt lat="43.6345301" lon="10.4571631"><ele>1.0</ele><time>2026-04-19T11:04:12.98Z</time></trkpt><trkpt lat="43.6345249" lon="10.4573789"><ele>1.0</ele><time>2026-04-19T11:04:13.98Z</time></trkpt><trkpt lat="43.6345228" lon="10.4575866"><ele>1.0</ele><time>2026-04-19T11:04:14.991Z</time></trkpt><trkpt lat="43.6345219" lon="10.4577919"><ele>1.0</ele><time>2026-04-19T11:04:15.979Z</time></trkpt><trkpt lat="43.6345182" lon="10.4580023"><ele>0.6666666666666666</ele><time>2026-04-19T11:04:16.979Z</time></trkpt><trkpt lat="43.6345146" lon="10.4582187"><ele>0.3333333333333333</ele><time>2026-04-19T11:04:17.983Z</time></trkpt><trkpt lat="43.6345073" lon="10.4584386"><ele>0.0</ele><time>2026-04-19T11:04:18.989Z</time></trkpt><trkpt lat="43.6345035" lon="10.4586646"><ele>0.0</ele><time>2026-04-19T11:04:19.982Z</time></trkpt><trkpt lat="43.634501" lon="10.4588903"><ele>0.0</ele><time>2026-04-19T11:04:20.978Z</time></trkpt><trkpt lat="43.6344967" lon="10.4591119"><ele>0.0</ele><time>2026-04-19T11:04:21.99Z</time></trkpt><trkpt lat="43.6344934" lon="10.4593298"><ele>0.0</ele><time>2026-04-19T11:04:22.979Z</time></trkpt><trkpt lat="43.6344925" lon="10.4595461"><ele>0.0</ele><time>2026-04-19T11:04:23.974Z</time></trkpt><trkpt lat="43.6344894" lon="10.4597575"><ele>0.0</ele><time>2026-04-19T11:04:24.983Z</time></trkpt><trkpt lat="43.6344873" lon="10.4599632"><ele>0.3333333333333333</ele><time>2026-04-19T11:04:25.984Z</time></trkpt><trkpt lat="43.6344822" lon="10.4601897"><ele>0.6666666666666666</ele><time>2026-04-19T11:04:26.981Z</time></trkpt><trkpt lat="43.6344783" lon="10.4604131"><ele>1.0</ele><time>2026-04-19T11:04:27.994Z</time></trkpt><trkpt lat="43.634482" lon="10.4606287"><ele>1.0</ele><time>2026-04-19T11:04:28.98Z</time></trkpt><trkpt lat="43.6344839" lon="10.4608408"><ele>1.0</ele><time>2026-04-19T11:04:29.994Z</time></trkpt><trkpt lat="43.6344841" lon="10.4610544"><ele>1.0</ele><time>2026-04-19T11:04:30.986Z</time></trkpt><trkpt lat="43.6344776" lon="10.4612734"><ele>0.6666666666666666</ele><time>2026-04-19T11:04:31.99Z</time></trkpt><trkpt lat="43.6344768" lon="10.4614976"><ele>0.3333333333333333</ele><time>2026-04-19T11:04:32.983Z</time></trkpt><trkpt lat="43.634472" lon="10.4617281"><ele>0.0</ele><time>2026-04-19T11:04:33.984Z</time></trkpt><trkpt lat="43.6344702" lon="10.4619595"><ele>0.6666666666666666</ele><time>2026-04-19T11:04:34.979Z</time></trkpt><trkpt lat="43.6344662" lon="10.4621849"><ele>1.3333333333333333</ele><time>2026-04-19T11:04:35.98Z</time></trkpt><trkpt lat="43.6344653" lon="10.4624025"><ele>2.0</ele><time>2026-04-19T11:04:36.979Z</time></trkpt><trkpt lat="43.6344684" lon="10.4626254"><ele>2.0</ele><time>2026-04-19T11:04:37.985Z</time></trkpt><trkpt lat="43.6344644" lon="10.4628634"><ele>2.0</ele><time>2026-04-19T11:04:38.974Z</time></trkpt><trkpt lat="43.6344582" lon="10.4631001"><ele>2.0</ele><time>2026-04-19T11:04:39.975Z</time></trkpt><trkpt lat="43.6344564" lon="10.4633341"><ele>1.6666666666666665</ele><time>2026-04-19T11:04:40.987Z</time></trkpt><trkpt lat="43.6344599" lon="10.4635565"><ele>1.3333333333333333</ele><time>2026-04-19T11:04:41.975Z</time></trkpt><trkpt lat="43.6344579" lon="10.4637827"><ele>1.0</ele><time>2026-04-19T11:04:42.986Z</time></trkpt><trkpt lat="43.6344567" lon="10.4640203"><ele>1.0</ele><time>2026-04-19T11:04:43.973Z</time></trkpt><trkpt lat="43.6344551" lon="10.4642538"><ele>1.0</ele><time>2026-04-19T11:04:44.969Z</time></trkpt><trkpt lat="43.6344538" lon="10.4644866"><ele>1.0</ele><time>2026-04-19T11:04:45.993Z</time></trkpt><trkpt lat="43.6344566" lon="10.4647187"><ele>1.0</ele><time>2026-04-19T11:04:46.98Z</time></trkpt><trkpt lat="43.6344569" lon="10.4649526"><ele>1.0</ele><time>2026-04-19T11:04:47.977Z</time></trkpt><trkpt lat="43.634449" lon="10.465188"><ele>1.0</ele><time>2026-04-19T11:04:48.978Z</time></trkpt><trkpt lat="43.6344439" lon="10.4654204"><ele>1.0</ele><time>2026-04-19T11:04:49.977Z</time></trkpt><trkpt lat="43.6344418" lon="10.4656459"><ele>1.0</ele><time>2026-04-19T11:04:50.992Z</time></trkpt><trkpt lat="43.6344394" lon="10.4658686"><ele>1.0</ele><time>2026-04-19T11:04:51.986Z</time></trkpt><trkpt lat="43.6344378" lon="10.4660987"><ele>1.0</ele><time>2026-04-19T11:04:52.982Z</time></trkpt><trkpt lat="43.6344359" lon="10.466337"><ele>1.0</ele><time>2026-04-19T11:04:53.989Z</time></trkpt><trkpt lat="43.6344333" lon="10.4665739"><ele>1.0</ele><time>2026-04-19T11:04:54.984Z</time></trkpt><trkpt lat="43.6344307" lon="10.4668082"><ele>1.0</ele><time>2026-04-19T11:04:55.979Z</time></trkpt><trkpt lat="43.6344288" lon="10.467041"><ele>1.0</ele><time>2026-04-19T11:04:56.985Z</time></trkpt><trkpt lat="43.634423" lon="10.4672601"><ele>1.0</ele><time>2026-04-19T11:04:57.978Z</time></trkpt><trkpt lat="43.6344184" lon="10.4674638"><ele>1.0</ele><time>2026-04-19T11:04:58.983Z</time></trkpt><trkpt lat="43.6344215" lon="10.4676413"><ele>1.0</ele><time>2026-04-19T11:04:59.977Z</time></trkpt><trkpt lat="43.6344433" lon="10.4677903"><ele>1.0</ele><time>2026-04-19T11:05:00.983Z</time></trkpt><trkpt lat="43.6344726" lon="10.4679311"><ele>1.0</ele><time>2026-04-19T11:05:01.979Z</time></trkpt><trkpt lat="43.6345409" lon="10.4680315"><ele>1.0</ele><time>2026-04-19T11:05:02.992Z</time></trkpt><trkpt lat="43.6346149" lon="10.4681195"><ele>1.5</ele><time>2026-04-19T11:05:03.981Z</time></trkpt><trkpt lat="43.6347183" lon="10.4681367"><ele>2.0</ele><time>2026-04-19T11:05:04.988Z</time></trkpt><trkpt lat="43.6348294" lon="10.4681518"><ele>2.5</ele><time>2026-04-19T11:05:05.988Z</time></trkpt><trkpt lat="43.634954" lon="10.468152"><ele>3.0</ele><time>2026-04-19T11:05:06.981Z</time></trkpt><trkpt lat="43.6350872" lon="10.468141"><ele>3.0</ele><time>2026-04-19T11:05:07.989Z</time></trkpt><trkpt lat="43.6352296" lon="10.4681498"><ele>3.0</ele><time>2026-04-19T11:05:08.984Z</time></trkpt><trkpt lat="43.635364" lon="10.4681518"><ele>3.0</ele><time>2026-04-19T11:05:09.994Z</time></trkpt><trkpt lat="43.6355043" lon="10.4681609"><ele>3.0</ele><time>2026-04-19T11:05:10.988Z</time></trkpt><trkpt lat="43.6356491" lon="10.4681696"><ele>2.6666666666666665</ele><time>2026-04-19T11:05:11.988Z</time></trkpt><trkpt lat="43.6358071" lon="10.4681797"><ele>2.333333333333333</ele><time>2026-04-19T11:05:12.987Z</time></trkpt><trkpt lat="43.6359614" lon="10.4681917"><ele>2.0</ele><time>2026-04-19T11:05:13.977Z</time></trkpt><trkpt lat="43.6361144" lon="10.4682051"><ele>1.75</ele><time>2026-04-19T11:05:14.976Z</time></trkpt><trkpt lat="43.6362621" lon="10.4682201"><ele>1.5</ele><time>2026-04-19T11:05:15.973Z</time></trkpt><trkpt lat="43.6364061" lon="10.4682328"><ele>1.25</ele><time>2026-04-19T11:05:16.989Z</time></trkpt><trkpt lat="43.6365442" lon="10.4682437"><ele>1.0</ele><time>2026-04-19T11:05:17.979Z</time></trkpt><trkpt lat="43.6366813" lon="10.4682498"><ele>1.0</ele><time>2026-04-19T11:05:18.987Z</time></trkpt><trkpt lat="43.6368206" lon="10.4682552"><ele>1.0</ele><time>2026-04-19T11:05:19.993Z</time></trkpt><trkpt lat="43.6369678" lon="10.4682856"><ele>1.0</ele><time>2026-04-19T11:05:20.983Z</time></trkpt><trkpt lat="43.6371054" lon="10.4683168"><ele>1.0</ele><time>2026-04-19T11:05:21.987Z</time></trkpt><trkpt lat="43.6372452" lon="10.4683553"><ele>1.0</ele><time>2026-04-19T11:05:22.983Z</time></trkpt><trkpt lat="43.637385" lon="10.4684141"><ele>1.0</ele><time>2026-04-19T11:05:23.98Z</time></trkpt><trkpt lat="43.6375262" lon="10.4684822"><ele>1.0</ele><time>2026-04-19T11:05:24.986Z</time></trkpt><trkpt lat="43.6376631" lon="10.4685567"><ele>1.0</ele><time>2026-04-19T11:05:25.975Z</time></trkpt><trkpt lat="43.6378053" lon="10.4686243"><ele>1.0</ele><time>2026-04-19T11:05:26.981Z</time></trkpt><trkpt lat="43.6379506" lon="10.4686902"><ele>1.0</ele><time>2026-04-19T11:05:27.984Z</time></trkpt><trkpt lat="43.6380955" lon="10.4687579"><ele>1.0</ele><time>2026-04-19T11:05:28.978Z</time></trkpt><trkpt lat="43.6382439" lon="10.4688304"><ele>1.3333333333333333</ele><time>2026-04-19T11:05:29.98Z</time></trkpt><trkpt lat="43.6383934" lon="10.4689056"><ele>1.6666666666666665</ele><time>2026-04-19T11:05:30.988Z</time></trkpt><trkpt lat="43.6385339" lon="10.4689772"><ele>2.0</ele><time>2026-04-19T11:05:31.996Z</time></trkpt><trkpt lat="43.6386712" lon="10.4690354"><ele>2.0</ele><time>2026-04-19T11:05:32.98Z</time></trkpt><trkpt lat="43.6388111" lon="10.4690866"><ele>2.0</ele><time>2026-04-19T11:05:33.991Z</time></trkpt><trkpt lat="43.6389483" lon="10.4691369"><ele>2.0</ele><time>2026-04-19T11:05:34.992Z</time></trkpt><trkpt lat="43.6390715" lon="10.46919"><ele>2.0</ele><time>2026-04-19T11:05:35.984Z</time></trkpt><trkpt lat="43.6391805" lon="10.4692415"><ele>1.9999999999999998</ele><time>2026-04-19T11:05:36.99Z</time></trkpt><trkpt lat="43.6392738" lon="10.4692881"><ele>2.0</ele><time>2026-04-19T11:05:37.97Z</time></trkpt><trkpt lat="43.6393494" lon="10.4693176"><ele>2.0</ele><time>2026-04-19T11:05:38.995Z</time></trkpt><trkpt lat="43.6394512" lon="10.4693352"><ele>2.0</ele><time>2026-04-19T11:05:40.986Z</time></trkpt><trkpt lat="43.6395032" lon="10.469252"><ele>1.9999999999999998</ele><time>2026-04-19T11:05:42.966Z</time></trkpt><trkpt lat="43.6395366" lon="10.4691651"><ele>2.0</ele><time>2026-04-19T11:05:43.98Z</time></trkpt><trkpt lat="43.6395679" lon="10.4690321"><ele>1.75</ele><time>2026-04-19T11:05:44.985Z</time></trkpt><trkpt lat="43.6396042" lon="10.4688785"><ele>1.5</ele><time>2026-04-19T11:05:45.975Z</time></trkpt><trkpt lat="43.6396491" lon="10.4687058"><ele>1.25</ele><time>2026-04-19T11:05:46.986Z</time></trkpt><trkpt lat="43.6396943" lon="10.4685332"><ele>1.0</ele><time>2026-04-19T11:05:47.979Z</time></trkpt><trkpt lat="43.6397346" lon="10.4683859"><ele>1.0</ele><time>2026-04-19T11:05:48.976Z</time></trkpt><trkpt lat="43.6397814" lon="10.4682749"><ele>1.0</ele><time>2026-04-19T11:05:49.99Z</time></trkpt><trkpt lat="43.639842" lon="10.4682107"><ele>1.0</ele><time>2026-04-19T11:05:50.983Z</time></trkpt><trkpt lat="43.6399179" lon="10.4681886"><ele>1.0</ele><time>2026-04-19T11:05:51.983Z</time></trkpt><trkpt lat="43.6400122" lon="10.4681984"><ele>1.0</ele><time>2026-04-19T11:05:52.978Z</time></trkpt><trkpt lat="43.6401248" lon="10.4682272"><ele>1.0</ele><time>2026-04-19T11:05:53.981Z</time></trkpt><trkpt lat="43.6402489" lon="10.4682668"><ele>1.0</ele><time>2026-04-19T11:05:54.979Z</time></trkpt><trkpt lat="43.6403876" lon="10.4683047"><ele>1.0</ele><time>2026-04-19T11:05:55.984Z</time></trkpt><trkpt lat="43.6405347" lon="10.468336"><ele>1.0</ele><time>2026-04-19T11:05:56.986Z</time></trkpt><trkpt lat="43.640687" lon="10.46837"><ele>1.0</ele><time>2026-04-19T11:05:57.983Z</time></trkpt><trkpt lat="43.6408425" lon="10.4684005"><ele>1.0</ele><time>2026-04-19T11:05:58.979Z</time></trkpt><trkpt lat="43.6409898" lon="10.4684321"><ele>1.0</ele><time>2026-04-19T11:05:59.971Z</time></trkpt><trkpt lat="43.6411175" lon="10.4684623"><ele>1.0</ele><time>2026-04-19T11:06:00.992Z</time></trkpt><trkpt lat="43.6412182" lon="10.4684989"><ele>1.0</ele><time>2026-04-19T11:06:01.987Z</time></trkpt><trkpt lat="43.6412913" lon="10.468556"><ele>1.0</ele><time>2026-04-19T11:06:02.992Z</time></trkpt><trkpt lat="43.641339" lon="10.4686424"><ele>1.0</ele><time>2026-04-19T11:06:03.982Z</time></trkpt><trkpt lat="43.6413681" lon="10.4687634"><ele>1.0</ele><time>2026-04-19T11:06:04.988Z</time></trkpt><trkpt lat="43.6413858" lon="10.4689152"><ele>1.0</ele><time>2026-04-19T11:06:05.993Z</time></trkpt><trkpt lat="43.6413961" lon="10.4690926"><ele>1.0</ele><time>2026-04-19T11:06:06.988Z</time></trkpt><trkpt lat="43.6414095" lon="10.4692911"><ele>1.0</ele><time>2026-04-19T11:06:07.985Z</time></trkpt><trkpt lat="43.6414234" lon="10.4694856"><ele>1.0</ele><time>2026-04-19T11:06:08.988Z</time></trkpt><trkpt lat="43.6414358" lon="10.4696417"><ele>1.0</ele><time>2026-04-19T11:06:09.981Z</time></trkpt><trkpt lat="43.6414479" lon="10.4697636"><ele>1.4</ele><time>2026-04-19T11:06:10.99Z</time></trkpt><trkpt lat="43.6414729" lon="10.469855"><ele>1.8</ele><time>2026-04-19T11:06:11.982Z</time></trkpt><trkpt lat="43.6415883" lon="10.469951"><ele>2.1999999999999997</ele><time>2026-04-19T11:06:13.992Z</time></trkpt><trkpt lat="43.6416739" lon="10.4699636"><ele>2.6</ele><time>2026-04-19T11:06:14.985Z</time></trkpt><trkpt lat="43.641763" lon="10.4699708"><ele>3.0</ele><time>2026-04-19T11:06:15.977Z</time></trkpt><trkpt lat="43.6418611" lon="10.4699753"><ele>2.0</ele><time>2026-04-19T11:06:16.992Z</time></trkpt><trkpt lat="43.6419701" lon="10.4699743"><ele>1.0</ele><time>2026-04-19T11:06:17.99Z</time></trkpt><trkpt lat="43.6420818" lon="10.4699645"><ele>0.0</ele><time>2026-04-19T11:06:18.986Z</time></trkpt><trkpt lat="43.6422054" lon="10.4699516"><ele>-1.0</ele><time>2026-04-19T11:06:19.995Z</time></trkpt><trkpt lat="43.642332" lon="10.4699413"><ele>-1.0</ele><time>2026-04-19T11:06:20.978Z</time></trkpt><trkpt lat="43.6424732" lon="10.4699352"><ele>-1.0</ele><time>2026-04-19T11:06:21.981Z</time></trkpt><trkpt lat="43.6426236" lon="10.4699371"><ele>-1.0</ele><time>2026-04-19T11:06:22.986Z</time></trkpt><trkpt lat="43.6427822" lon="10.4699519"><ele>-0.6666666666666666</ele><time>2026-04-19T11:06:23.978Z</time></trkpt><trkpt lat="43.6429447" lon="10.4699674"><ele>-0.3333333333333333</ele><time>2026-04-19T11:06:24.991Z</time></trkpt><trkpt lat="43.6431064" lon="10.4699856"><ele>0.0</ele><time>2026-04-19T11:06:25.985Z</time></trkpt><trkpt lat="43.6432688" lon="10.470003"><ele>0.0</ele><time>2026-04-19T11:06:26.992Z</time></trkpt><trkpt lat="43.643433" lon="10.4700217"><ele>0.0</ele><time>2026-04-19T11:06:27.993Z</time></trkpt><trkpt lat="43.6435949" lon="10.4700398"><ele>0.0</ele><time>2026-04-19T11:06:28.983Z</time></trkpt><trkpt lat="43.6437567" lon="10.4700573"><ele>0.6666666666666666</ele><time>2026-04-19T11:06:29.985Z</time></trkpt><trkpt lat="43.6439154" lon="10.4700756"><ele>1.3333333333333333</ele><time>2026-04-19T11:06:30.985Z</time></trkpt><trkpt lat="43.6440729" lon="10.4700988"><ele>2.0</ele><time>2026-04-19T11:06:31.983Z</time></trkpt><trkpt lat="43.644231" lon="10.4701238"><ele>2.0</ele><time>2026-04-19T11:06:32.983Z</time></trkpt><trkpt lat="43.6443887" lon="10.4701475"><ele>2.0</ele><time>2026-04-19T11:06:33.996Z</time></trkpt><trkpt lat="43.644547" lon="10.4701683"><ele>2.0</ele><time>2026-04-19T11:06:34.99Z</time></trkpt><trkpt lat="43.644705" lon="10.4701868"><ele>2.0</ele><time>2026-04-19T11:06:35.981Z</time></trkpt><trkpt lat="43.6448602" lon="10.4702065"><ele>2.0</ele><time>2026-04-19T11:06:36.988Z</time></trkpt><trkpt lat="43.6450158" lon="10.470227"><ele>2.0</ele><time>2026-04-19T11:06:37.981Z</time></trkpt><trkpt lat="43.645171" lon="10.4702489"><ele>1.6666666666666665</ele><time>2026-04-19T11:06:38.981Z</time></trkpt><trkpt lat="43.6453261" lon="10.4702744"><ele>1.3333333333333333</ele><time>2026-04-19T11:06:39.984Z</time></trkpt><trkpt lat="43.6454805" lon="10.4703029"><ele>1.0</ele><time>2026-04-19T11:06:40.982Z</time></trkpt><trkpt lat="43.6456384" lon="10.4703336"><ele>1.0</ele><time>2026-04-19T11:06:41.983Z</time></trkpt><trkpt lat="43.6457973" lon="10.4703639"><ele>1.0</ele><time>2026-04-19T11:06:42.989Z</time></trkpt><trkpt lat="43.6459577" lon="10.4703904"><ele>1.0</ele><time>2026-04-19T11:06:43.977Z</time></trkpt><trkpt lat="43.6461214" lon="10.4704128"><ele>1.0</ele><time>2026-04-19T11:06:44.985Z</time></trkpt><trkpt lat="43.6462826" lon="10.4704382"><ele>1.0</ele><time>2026-04-19T11:06:45.972Z</time></trkpt><trkpt lat="43.6464457" lon="10.4704549"><ele>1.0</ele><time>2026-04-19T11:06:46.978Z</time></trkpt><trkpt lat="43.6466139" lon="10.4704785"><ele>1.0</ele><time>2026-04-19T11:06:47.969Z</time></trkpt><trkpt lat="43.646779" lon="10.4705045"><ele>1.0</ele><time>2026-04-19T11:06:48.998Z</time></trkpt><trkpt lat="43.6469446" lon="10.4705317"><ele>1.0</ele><time>2026-04-19T11:06:49.98Z</time></trkpt><trkpt lat="43.6471023" lon="10.4705643"><ele>1.25</ele><time>2026-04-19T11:06:50.98Z</time></trkpt><trkpt lat="43.6472458" lon="10.4706097"><ele>1.5</ele><time>2026-04-19T11:06:51.978Z</time></trkpt><trkpt lat="43.6473747" lon="10.4706638"><ele>1.75</ele><time>2026-04-19T11:06:52.981Z</time></trkpt><trkpt lat="43.6474992" lon="10.470735"><ele>2.0</ele><time>2026-04-19T11:06:53.98Z</time></trkpt><trkpt lat="43.6476237" lon="10.4708208"><ele>2.0</ele><time>2026-04-19T11:06:54.968Z</time></trkpt><trkpt lat="43.6477516" lon="10.4709152"><ele>2.0</ele><time>2026-04-19T11:06:55.981Z</time></trkpt><trkpt lat="43.6478802" lon="10.4710388"><ele>2.0</ele><time>2026-04-19T11:06:56.984Z</time></trkpt><trkpt lat="43.6480075" lon="10.4711638"><ele>2.333333333333333</ele><time>2026-04-19T11:06:57.968Z</time></trkpt><trkpt lat="43.6481357" lon="10.4712869"><ele>2.6666666666666665</ele><time>2026-04-19T11:06:58.991Z</time></trkpt><trkpt lat="43.6482665" lon="10.4714119"><ele>3.0</ele><time>2026-04-19T11:06:59.981Z</time></trkpt><trkpt lat="43.6483958" lon="10.4715383"><ele>3.0</ele><time>2026-04-19T11:07:00.969Z</time></trkpt><trkpt lat="43.6485253" lon="10.4716652"><ele>3.0</ele><time>2026-04-19T11:07:01.98Z</time></trkpt><trkpt lat="43.6486576" lon="10.4717948"><ele>3.0</ele><time>2026-04-19T11:07:02.966Z</time></trkpt><trkpt lat="43.6487896" lon="10.471924"><ele>2.6666666666666665</ele><time>2026-04-19T11:07:03.993Z</time></trkpt><trkpt lat="43.6489216" lon="10.4720514"><ele>2.333333333333333</ele><time>2026-04-19T11:07:04.984Z</time></trkpt><trkpt lat="43.6490521" lon="10.4721794"><ele>2.0</ele><time>2026-04-19T11:07:05.979Z</time></trkpt><trkpt lat="43.6491832" lon="10.4723089"><ele>2.0</ele><time>2026-04-19T11:07:06.981Z</time></trkpt><trkpt lat="43.6493149" lon="10.4724419"><ele>2.0</ele><time>2026-04-19T11:07:07.971Z</time></trkpt><trkpt lat="43.6494477" lon="10.4725786"><ele>2.0</ele><time>2026-04-19T11:07:08.991Z</time></trkpt><trkpt lat="43.6495805" lon="10.4727171"><ele>2.0</ele><time>2026-04-19T11:07:09.977Z</time></trkpt><trkpt lat="43.6497132" lon="10.4728619"><ele>2.0</ele><time>2026-04-19T11:07:10.983Z</time></trkpt><trkpt lat="43.649847" lon="10.4730099"><ele>2.0</ele><time>2026-04-19T11:07:11.983Z</time></trkpt><trkpt lat="43.6499811" lon="10.4731606"><ele>2.0</ele><time>2026-04-19T11:07:12.983Z</time></trkpt><trkpt lat="43.650117" lon="10.4733097"><ele>2.0</ele><time>2026-04-19T11:07:13.987Z</time></trkpt><trkpt lat="43.6502398" lon="10.4734464"><ele>2.0</ele><time>2026-04-19T11:07:14.992Z</time></trkpt><trkpt lat="43.6503478" lon="10.4735664"><ele>2.25</ele><time>2026-04-19T11:07:15.971Z</time></trkpt><trkpt lat="43.6504492" lon="10.4736642"><ele>2.5</ele><time>2026-04-19T11:07:16.983Z</time></trkpt><trkpt lat="43.6505554" lon="10.4737292"><ele>2.75</ele><time>2026-04-19T11:07:17.991Z</time></trkpt><trkpt lat="43.6506618" lon="10.4737613"><ele>3.0</ele><time>2026-04-19T11:07:18.99Z</time></trkpt><trkpt lat="43.6507683" lon="10.4737541"><ele>3.0</ele><time>2026-04-19T11:07:19.984Z</time></trkpt><trkpt lat="43.6508696" lon="10.4737171"><ele>3.0</ele><time>2026-04-19T11:07:20.975Z</time></trkpt><trkpt lat="43.6509658" lon="10.4736625"><ele>3.0</ele><time>2026-04-19T11:07:21.985Z</time></trkpt><trkpt lat="43.6510543" lon="10.4736117"><ele>3.0</ele><time>2026-04-19T11:07:22.983Z</time></trkpt><trkpt lat="43.6511287" lon="10.4735704"><ele>3.0</ele><time>2026-04-19T11:07:23.976Z</time></trkpt><trkpt lat="43.6511925" lon="10.4735298"><ele>3.0</ele><time>2026-04-19T11:07:24.989Z</time></trkpt><trkpt lat="43.651258" lon="10.4734872"><ele>3.0</ele><time>2026-04-19T11:07:25.984Z</time></trkpt><trkpt lat="43.6513186" lon="10.4734484"><ele>3.0</ele><time>2026-04-19T11:07:26.98Z</time></trkpt><trkpt lat="43.6513788" lon="10.4734131"><ele>3.0</ele><time>2026-04-19T11:07:27.984Z</time></trkpt><trkpt lat="43.6514751" lon="10.4733572"><ele>3.0</ele><time>2026-04-19T11:07:29.989Z</time></trkpt><trkpt lat="43.6515397" lon="10.4733237"><ele>3.0</ele><time>2026-04-19T11:07:32.987Z</time></trkpt><trkpt lat="43.6516164" lon="10.4732761"><ele>3.0</ele><time>2026-04-19T11:07:34.975Z</time></trkpt><trkpt lat="43.6516856" lon="10.4732345"><ele>3.0</ele><time>2026-04-19T11:07:35.978Z</time></trkpt><trkpt lat="43.651757" lon="10.4732"><ele>3.0</ele><time>2026-04-19T11:07:36.965Z</time></trkpt><trkpt lat="43.6518309" lon="10.4731673"><ele>3.0</ele><time>2026-04-19T11:07:37.979Z</time></trkpt><trkpt lat="43.651918" lon="10.4731765"><ele>3.0</ele><time>2026-04-19T11:07:38.978Z</time></trkpt><trkpt lat="43.6520083" lon="10.4732257"><ele>3.0</ele><time>2026-04-19T11:07:39.988Z</time></trkpt><trkpt lat="43.6520983" lon="10.4733142"><ele>2.5</ele><time>2026-04-19T11:07:40.981Z</time></trkpt><trkpt lat="43.6521923" lon="10.4734261"><ele>2.0</ele><time>2026-04-19T11:07:41.983Z</time></trkpt><trkpt lat="43.6522913" lon="10.4735606"><ele>1.5</ele><time>2026-04-19T11:07:42.988Z</time></trkpt><trkpt lat="43.6524047" lon="10.4737044"><ele>1.0</ele><time>2026-04-19T11:07:43.977Z</time></trkpt><trkpt lat="43.652531" lon="10.4738496"><ele>1.0</ele><time>2026-04-19T11:07:44.983Z</time></trkpt><trkpt lat="43.6526735" lon="10.4739993"><ele>1.0</ele><time>2026-04-19T11:07:45.971Z</time></trkpt><trkpt lat="43.6528237" lon="10.4741561"><ele>1.0</ele><time>2026-04-19T11:07:46.976Z</time></trkpt><trkpt lat="43.6529761" lon="10.4743164"><ele>1.0</ele><time>2026-04-19T11:07:47.977Z</time></trkpt><trkpt lat="43.6531288" lon="10.4744738"><ele>1.0</ele><time>2026-04-19T11:07:48.979Z</time></trkpt><trkpt lat="43.6532802" lon="10.4746315"><ele>1.0</ele><time>2026-04-19T11:07:49.985Z</time></trkpt><trkpt lat="43.6534326" lon="10.4747888"><ele>1.0</ele><time>2026-04-19T11:07:50.985Z</time></trkpt><trkpt lat="43.6535842" lon="10.4749481"><ele>1.0</ele><time>2026-04-19T11:07:51.98Z</time></trkpt><trkpt lat="43.6537342" lon="10.4751072"><ele>1.0</ele><time>2026-04-19T11:07:52.99Z</time></trkpt><trkpt lat="43.6538868" lon="10.4752662"><ele>1.0</ele><time>2026-04-19T11:07:53.981Z</time></trkpt><trkpt lat="43.654043" lon="10.475425"><ele>1.0</ele><time>2026-04-19T11:07:54.975Z</time></trkpt><trkpt lat="43.6541981" lon="10.475586"><ele>1.0</ele><time>2026-04-19T11:07:55.99Z</time></trkpt><trkpt lat="43.654354" lon="10.4757454"><ele>1.0</ele><time>2026-04-19T11:07:56.981Z</time></trkpt><trkpt lat="43.6545108" lon="10.4759073"><ele>1.0</ele><time>2026-04-19T11:07:57.975Z</time></trkpt><trkpt lat="43.6546708" lon="10.4760714"><ele>1.0</ele><time>2026-04-19T11:07:58.968Z</time></trkpt><trkpt lat="43.6548299" lon="10.4762369"><ele>1.0</ele><time>2026-04-19T11:07:59.982Z</time></trkpt><trkpt lat="43.6549894" lon="10.4764023"><ele>1.0</ele><time>2026-04-19T11:08:00.982Z</time></trkpt><trkpt lat="43.6551483" lon="10.4765662"><ele>1.0</ele><time>2026-04-19T11:08:01.98Z</time></trkpt><trkpt lat="43.6553066" lon="10.4767274"><ele>1.0</ele><time>2026-04-19T11:08:02.99Z</time></trkpt><trkpt lat="43.655464" lon="10.4768934"><ele>1.0</ele><time>2026-04-19T11:08:03.98Z</time></trkpt><trkpt lat="43.6556204" lon="10.477059"><ele>1.0</ele><time>2026-04-19T11:08:04.987Z</time></trkpt><trkpt lat="43.6557784" lon="10.4772245"><ele>1.0</ele><time>2026-04-19T11:08:05.996Z</time></trkpt><trkpt lat="43.6559391" lon="10.4773909"><ele>1.0</ele><time>2026-04-19T11:08:06.976Z</time></trkpt><trkpt lat="43.6560995" lon="10.4775603"><ele>1.0</ele><time>2026-04-19T11:08:07.986Z</time></trkpt><trkpt lat="43.6562603" lon="10.4777311"><ele>0.6666666666666666</ele><time>2026-04-19T11:08:08.978Z</time></trkpt><trkpt lat="43.6564185" lon="10.4778985"><ele>0.3333333333333333</ele><time>2026-04-19T11:08:09.989Z</time></trkpt><trkpt lat="43.6565629" lon="10.478053"><ele>0.0</ele><time>2026-04-19T11:08:10.974Z</time></trkpt><trkpt lat="43.6566993" lon="10.4781929"><ele>0.0</ele><time>2026-04-19T11:08:11.995Z</time></trkpt><trkpt lat="43.6568221" lon="10.4783136"><ele>0.0</ele><time>2026-04-19T11:08:12.987Z</time></trkpt><trkpt lat="43.656935" lon="10.4784318"><ele>0.0</ele><time>2026-04-19T11:08:13.978Z</time></trkpt><trkpt lat="43.6570394" lon="10.4785419"><ele>0.0</ele><time>2026-04-19T11:08:14.975Z</time></trkpt><trkpt lat="43.6571395" lon="10.4786515"><ele>0.2</ele><time>2026-04-19T11:08:15.983Z</time></trkpt><trkpt lat="43.6572319" lon="10.4787452"><ele>0.4</ele><time>2026-04-19T11:08:16.988Z</time></trkpt><trkpt lat="43.6573196" lon="10.4788301"><ele>0.6000000000000001</ele><time>2026-04-19T11:08:17.985Z</time></trkpt><trkpt lat="43.6574035" lon="10.478912"><ele>0.8</ele><time>2026-04-19T11:08:18.984Z</time></trkpt><trkpt lat="43.6574862" lon="10.4790015"><ele>1.0</ele><time>2026-04-19T11:08:19.981Z</time></trkpt><trkpt lat="43.6575723" lon="10.4790948"><ele>1.2000000000000002</ele><time>2026-04-19T11:08:20.979Z</time></trkpt><trkpt lat="43.6576529" lon="10.4791798"><ele>1.4000000000000001</ele><time>2026-04-19T11:08:21.99Z</time></trkpt><trkpt lat="43.6577286" lon="10.4792569"><ele>1.6</ele><time>2026-04-19T11:08:22.992Z</time></trkpt><trkpt lat="43.6578008" lon="10.4793324"><ele>1.8</ele><time>2026-04-19T11:08:23.975Z</time></trkpt><trkpt lat="43.6578719" lon="10.479408"><ele>2.0</ele><time>2026-04-19T11:08:24.984Z</time></trkpt><trkpt lat="43.6579389" lon="10.4794777"><ele>1.857142857142857</ele><time>2026-04-19T11:08:25.985Z</time></trkpt><trkpt lat="43.6579992" lon="10.4795393"><ele>1.714285714285714</ele><time>2026-04-19T11:08:26.988Z</time></trkpt><trkpt lat="43.658057" lon="10.479601"><ele>1.5714285714285714</ele><time>2026-04-19T11:08:27.981Z</time></trkpt><trkpt lat="43.6581173" lon="10.4796664"><ele>1.4285714285714284</ele><time>2026-04-19T11:08:28.988Z</time></trkpt><trkpt lat="43.6581792" lon="10.4797293"><ele>1.2857142857142856</ele><time>2026-04-19T11:08:29.979Z</time></trkpt><trkpt lat="43.6582376" lon="10.4797855"><ele>1.1428571428571428</ele><time>2026-04-19T11:08:31.001Z</time></trkpt><trkpt lat="43.6582979" lon="10.4798408"><ele>1.0</ele><time>2026-04-19T11:08:31.989Z</time></trkpt><trkpt lat="43.6583646" lon="10.4799043"><ele>1.0</ele><time>2026-04-19T11:08:32.987Z</time></trkpt><trkpt lat="43.658436" lon="10.4799779"><ele>1.0</ele><time>2026-04-19T11:08:33.995Z</time></trkpt><trkpt lat="43.658514" lon="10.4800585"><ele>1.0</ele><time>2026-04-19T11:08:34.987Z</time></trkpt><trkpt lat="43.6585965" lon="10.4801465"><ele>1.0</ele><time>2026-04-19T11:08:35.984Z</time></trkpt><trkpt lat="43.6586841" lon="10.4802394"><ele>1.0</ele><time>2026-04-19T11:08:36.98Z</time></trkpt><trkpt lat="43.6587745" lon="10.4803298"><ele>1.0</ele><time>2026-04-19T11:08:37.989Z</time></trkpt><trkpt lat="43.6588721" lon="10.4804261"><ele>1.0</ele><time>2026-04-19T11:08:38.977Z</time></trkpt><trkpt lat="43.6589744" lon="10.4805372"><ele>1.0</ele><time>2026-04-19T11:08:39.983Z</time></trkpt><trkpt lat="43.6590796" lon="10.4806596"><ele>1.0</ele><time>2026-04-19T11:08:40.979Z</time></trkpt><trkpt lat="43.6591968" lon="10.4807852"><ele>1.0</ele><time>2026-04-19T11:08:41.977Z</time></trkpt><trkpt lat="43.6593182" lon="10.4809144"><ele>1.0</ele><time>2026-04-19T11:08:42.978Z</time></trkpt><trkpt lat="43.6594415" lon="10.4810445"><ele>1.0</ele><time>2026-04-19T11:08:43.986Z</time></trkpt><trkpt lat="43.6595729" lon="10.4811779"><ele>1.0</ele><time>2026-04-19T11:08:44.979Z</time></trkpt><trkpt lat="43.6597121" lon="10.481317"><ele>1.0</ele><time>2026-04-19T11:08:45.986Z</time></trkpt><trkpt lat="43.6598535" lon="10.481465"><ele>1.0</ele><time>2026-04-19T11:08:46.987Z</time></trkpt><trkpt lat="43.6600022" lon="10.4816221"><ele>1.0</ele><time>2026-04-19T11:08:47.984Z</time></trkpt><trkpt lat="43.6601575" lon="10.4817828"><ele>1.0</ele><time>2026-04-19T11:08:48.975Z</time></trkpt><trkpt lat="43.6603149" lon="10.4819527"><ele>1.0</ele><time>2026-04-19T11:08:49.989Z</time></trkpt><trkpt lat="43.6604794" lon="10.4821257"><ele>0.6666666666666666</ele><time>2026-04-19T11:08:50.982Z</time></trkpt><trkpt lat="43.6606465" lon="10.4823034"><ele>0.3333333333333333</ele><time>2026-04-19T11:08:51.985Z</time></trkpt><trkpt lat="43.6608145" lon="10.4824751"><ele>0.0</ele><time>2026-04-19T11:08:52.987Z</time></trkpt><trkpt lat="43.660978" lon="10.4826536"><ele>0.3333333333333333</ele><time>2026-04-19T11:08:53.997Z</time></trkpt><trkpt lat="43.6611471" lon="10.4828336"><ele>0.6666666666666666</ele><time>2026-04-19T11:08:54.991Z</time></trkpt><trkpt lat="43.6613209" lon="10.4830054"><ele>1.0</ele><time>2026-04-19T11:08:55.98Z</time></trkpt><trkpt lat="43.6614886" lon="10.4831783"><ele>1.0</ele><time>2026-04-19T11:08:56.981Z</time></trkpt><trkpt lat="43.6616609" lon="10.4833544"><ele>1.0</ele><time>2026-04-19T11:08:57.982Z</time></trkpt><trkpt lat="43.6618339" lon="10.4835343"><ele>1.0</ele><time>2026-04-19T11:08:58.963Z</time></trkpt><trkpt lat="43.6620086" lon="10.4837148"><ele>1.0</ele><time>2026-04-19T11:08:59.981Z</time></trkpt><trkpt lat="43.662186" lon="10.4838968"><ele>1.0</ele><time>2026-04-19T11:09:00.98Z</time></trkpt><trkpt lat="43.6623624" lon="10.4840777"><ele>1.0</ele><time>2026-04-19T11:09:01.985Z</time></trkpt><trkpt lat="43.6625416" lon="10.4842613"><ele>1.0</ele><time>2026-04-19T11:09:02.987Z</time></trkpt><trkpt lat="43.6627224" lon="10.4844448"><ele>1.0</ele><time>2026-04-19T11:09:03.994Z</time></trkpt><trkpt lat="43.6628968" lon="10.4846299"><ele>1.0</ele><time>2026-04-19T11:09:04.994Z</time></trkpt><trkpt lat="43.6630696" lon="10.484816"><ele>1.3333333333333333</ele><time>2026-04-19T11:09:05.984Z</time></trkpt><trkpt lat="43.663244" lon="10.4849975"><ele>1.6666666666666665</ele><time>2026-04-19T11:09:06.983Z</time></trkpt><trkpt lat="43.6634187" lon="10.4851833"><ele>2.0</ele><time>2026-04-19T11:09:07.979Z</time></trkpt><trkpt lat="43.6635948" lon="10.4853655"><ele>2.0</ele><time>2026-04-19T11:09:08.989Z</time></trkpt><trkpt lat="43.6637758" lon="10.4855487"><ele>2.0</ele><time>2026-04-19T11:09:09.979Z</time></trkpt><trkpt lat="43.6639526" lon="10.4857321"><ele>2.0</ele><time>2026-04-19T11:09:10.99Z</time></trkpt><trkpt lat="43.6641304" lon="10.485915"><ele>2.0</ele><time>2026-04-19T11:09:11.981Z</time></trkpt><trkpt lat="43.6643064" lon="10.4860994"><ele>2.0</ele><time>2026-04-19T11:09:12.985Z</time></trkpt><trkpt lat="43.6644841" lon="10.4862811"><ele>2.0</ele><time>2026-04-19T11:09:13.981Z</time></trkpt><trkpt lat="43.6646655" lon="10.4864589"><ele>1.3333333333333333</ele><time>2026-04-19T11:09:14.98Z</time></trkpt><trkpt lat="43.664844" lon="10.4866332"><ele>0.6666666666666666</ele><time>2026-04-19T11:09:15.981Z</time></trkpt><trkpt lat="43.665021" lon="10.4868154"><ele>0.0</ele><time>2026-04-19T11:09:16.976Z</time></trkpt><trkpt lat="43.6651985" lon="10.4869952"><ele>0.0</ele><time>2026-04-19T11:09:17.994Z</time></trkpt><trkpt lat="43.6653753" lon="10.4871664"><ele>0.0</ele><time>2026-04-19T11:09:18.99Z</time></trkpt><trkpt lat="43.6655502" lon="10.4873506"><ele>0.0</ele><time>2026-04-19T11:09:19.983Z</time></trkpt><trkpt lat="43.6657225" lon="10.4875343"><ele>0.0</ele><time>2026-04-19T11:09:20.979Z</time></trkpt><trkpt lat="43.6658925" lon="10.487709"><ele>0.0</ele><time>2026-04-19T11:09:21.983Z</time></trkpt><trkpt lat="43.666058" lon="10.4878822"><ele>0.0</ele><time>2026-04-19T11:09:22.993Z</time></trkpt><trkpt lat="43.6662222" lon="10.488057"><ele>0.3333333333333333</ele><time>2026-04-19T11:09:23.995Z</time></trkpt><trkpt lat="43.6663884" lon="10.4882305"><ele>0.6666666666666666</ele><time>2026-04-19T11:09:24.991Z</time></trkpt><trkpt lat="43.6665552" lon="10.488406"><ele>1.0</ele><time>2026-04-19T11:09:25.979Z</time></trkpt><trkpt lat="43.6667267" lon="10.4885837"><ele>1.0</ele><time>2026-04-19T11:09:26.987Z</time></trkpt><trkpt lat="43.6668971" lon="10.4887608"><ele>1.0</ele><time>2026-04-19T11:09:27.977Z</time></trkpt><trkpt lat="43.6670666" lon="10.4889378"><ele>1.0</ele><time>2026-04-19T11:09:28.988Z</time></trkpt><trkpt lat="43.6672335" lon="10.4891129"><ele>1.0</ele><time>2026-04-19T11:09:29.987Z</time></trkpt><trkpt lat="43.6673977" lon="10.4892825"><ele>1.0</ele><time>2026-04-19T11:09:30.966Z</time></trkpt><trkpt lat="43.6675585" lon="10.4894484"><ele>1.0</ele><time>2026-04-19T11:09:31.989Z</time></trkpt><trkpt lat="43.6677154" lon="10.4896133"><ele>0.6666666666666666</ele><time>2026-04-19T11:09:32.982Z</time></trkpt><trkpt lat="43.667867" lon="10.4897781"><ele>0.3333333333333333</ele><time>2026-04-19T11:09:33.996Z</time></trkpt><trkpt lat="43.6680095" lon="10.4899317"><ele>0.0</ele><time>2026-04-19T11:09:34.987Z</time></trkpt><trkpt lat="43.6681532" lon="10.4900877"><ele>0.0</ele><time>2026-04-19T11:09:35.987Z</time></trkpt><trkpt lat="43.6683065" lon="10.490241"><ele>0.0</ele><time>2026-04-19T11:09:36.996Z</time></trkpt><trkpt lat="43.6684666" lon="10.4904075"><ele>0.0</ele><time>2026-04-19T11:09:37.968Z</time></trkpt><trkpt lat="43.6686281" lon="10.4905788"><ele>0.6666666666666666</ele><time>2026-04-19T11:09:38.982Z</time></trkpt><trkpt lat="43.6687918" lon="10.4907441"><ele>1.3333333333333333</ele><time>2026-04-19T11:09:39.992Z</time></trkpt><trkpt lat="43.668949" lon="10.4909075"><ele>2.0</ele><time>2026-04-19T11:09:40.982Z</time></trkpt><trkpt lat="43.669102" lon="10.4910583"><ele>2.0</ele><time>2026-04-19T11:09:41.982Z</time></trkpt><trkpt lat="43.6692385" lon="10.4911992"><ele>2.0</ele><time>2026-04-19T11:09:42.982Z</time></trkpt><trkpt lat="43.6693651" lon="10.4913379"><ele>2.0</ele><time>2026-04-19T11:09:43.994Z</time></trkpt><trkpt lat="43.6694837" lon="10.4914653"><ele>1.75</ele><time>2026-04-19T11:09:44.997Z</time></trkpt><trkpt lat="43.6696012" lon="10.4915952"><ele>1.5</ele><time>2026-04-19T11:09:45.991Z</time></trkpt><trkpt lat="43.6697175" lon="10.4917175"><ele>1.25</ele><time>2026-04-19T11:09:46.989Z</time></trkpt><trkpt lat="43.6698224" lon="10.4918302"><ele>1.0</ele><time>2026-04-19T11:09:47.992Z</time></trkpt><trkpt lat="43.669919" lon="10.4919307"><ele>1.0</ele><time>2026-04-19T11:09:48.986Z</time></trkpt><trkpt lat="43.6700136" lon="10.4920252"><ele>1.0</ele><time>2026-04-19T11:09:49.99Z</time></trkpt><trkpt lat="43.6700986" lon="10.4921117"><ele>1.0</ele><time>2026-04-19T11:09:50.983Z</time></trkpt><trkpt lat="43.6701844" lon="10.4921974"><ele>1.0</ele><time>2026-04-19T11:09:51.988Z</time></trkpt><trkpt lat="43.6702722" lon="10.4922725"><ele>1.0</ele><time>2026-04-19T11:09:52.977Z</time></trkpt><trkpt lat="43.6703453" lon="10.4923427"><ele>1.1666666666666665</ele><time>2026-04-19T11:09:53.977Z</time></trkpt><trkpt lat="43.6704039" lon="10.4924019"><ele>1.3333333333333333</ele><time>2026-04-19T11:09:54.979Z</time></trkpt><trkpt lat="43.6704311" lon="10.4924835"><ele>1.5</ele><time>2026-04-19T11:09:55.99Z</time></trkpt><trkpt lat="43.6704362" lon="10.4925807"><ele>1.6666666666666665</ele><time>2026-04-19T11:09:56.978Z</time></trkpt><trkpt lat="43.6704288" lon="10.4926897"><ele>1.8333333333333333</ele><time>2026-04-19T11:09:57.981Z</time></trkpt><trkpt lat="43.6704148" lon="10.4928196"><ele>2.0</ele><time>2026-04-19T11:09:58.991Z</time></trkpt><trkpt lat="43.670406" lon="10.4929463"><ele>2.0</ele><time>2026-04-19T11:09:59.987Z</time></trkpt><trkpt lat="43.6703987" lon="10.4930679"><ele>2.0</ele><time>2026-04-19T11:10:00.985Z</time></trkpt><trkpt lat="43.6703954" lon="10.4931982"><ele>2.0</ele><time>2026-04-19T11:10:01.981Z</time></trkpt><trkpt lat="43.6703922" lon="10.4933416"><ele>2.0</ele><time>2026-04-19T11:10:02.989Z</time></trkpt><trkpt lat="43.6703897" lon="10.4934936"><ele>2.0</ele><time>2026-04-19T11:10:03.964Z</time></trkpt><trkpt lat="43.6703866" lon="10.4936521"><ele>2.0</ele><time>2026-04-19T11:10:04.983Z</time></trkpt><trkpt lat="43.670384" lon="10.4938189"><ele>2.0</ele><time>2026-04-19T11:10:05.989Z</time></trkpt><trkpt lat="43.6703806" lon="10.493995"><ele>2.0</ele><time>2026-04-19T11:10:06.985Z</time></trkpt><trkpt lat="43.6703775" lon="10.4941679"><ele>2.0</ele><time>2026-04-19T11:10:07.98Z</time></trkpt><trkpt lat="43.6703829" lon="10.4943258"><ele>2.0</ele><time>2026-04-19T11:10:08.987Z</time></trkpt><trkpt lat="43.6704056" lon="10.4944726"><ele>2.0</ele><time>2026-04-19T11:10:09.975Z</time></trkpt><trkpt lat="43.6704516" lon="10.4946066"><ele>2.0</ele><time>2026-04-19T11:10:10.988Z</time></trkpt><trkpt lat="43.6705168" lon="10.4947248"><ele>2.0</ele><time>2026-04-19T11:10:11.99Z</time></trkpt><trkpt lat="43.670598" lon="10.4948236"><ele>2.0</ele><time>2026-04-19T11:10:12.992Z</time></trkpt><trkpt lat="43.6706928" lon="10.4948971"><ele>2.2</ele><time>2026-04-19T11:10:13.981Z</time></trkpt><trkpt lat="43.6707947" lon="10.494944"><ele>2.4000000000000004</ele><time>2026-04-19T11:10:14.988Z</time></trkpt><trkpt lat="43.6708977" lon="10.4949848"><ele>2.5999999999999996</ele><time>2026-04-19T11:10:15.992Z</time></trkpt><trkpt lat="43.6710028" lon="10.4950057"><ele>2.8</ele><time>2026-04-19T11:10:16.987Z</time></trkpt><trkpt lat="43.6711115" lon="10.4950267"><ele>3.0</ele><time>2026-04-19T11:10:17.983Z</time></trkpt><trkpt lat="43.6712239" lon="10.4950484"><ele>3.0</ele><time>2026-04-19T11:10:18.994Z</time></trkpt><trkpt lat="43.6713379" lon="10.4950656"><ele>3.0</ele><time>2026-04-19T11:10:19.995Z</time></trkpt><trkpt lat="43.6714542" lon="10.4950855"><ele>3.0</ele><time>2026-04-19T11:10:20.986Z</time></trkpt><trkpt lat="43.6715833" lon="10.4951082"><ele>3.0</ele><time>2026-04-19T11:10:21.985Z</time></trkpt><trkpt lat="43.6717147" lon="10.4951406"><ele>3.0</ele><time>2026-04-19T11:10:22.983Z</time></trkpt><trkpt lat="43.6718405" lon="10.4951694"><ele>3.0</ele><time>2026-04-19T11:10:23.993Z</time></trkpt><trkpt lat="43.6719677" lon="10.4951833"><ele>3.0</ele><time>2026-04-19T11:10:24.986Z</time></trkpt><trkpt lat="43.6720919" lon="10.4951745"><ele>3.0</ele><time>2026-04-19T11:10:25.984Z</time></trkpt><trkpt lat="43.672208" lon="10.4951537"><ele>3.0</ele><time>2026-04-19T11:10:26.99Z</time></trkpt><trkpt lat="43.672307" lon="10.4951347"><ele>3.0</ele><time>2026-04-19T11:10:27.986Z</time></trkpt><trkpt lat="43.6723814" lon="10.4951178"><ele>3.0</ele><time>2026-04-19T11:10:28.983Z</time></trkpt><trkpt lat="43.6724482" lon="10.4950951"><ele>3.0</ele><time>2026-04-19T11:10:30.989Z</time></trkpt><trkpt lat="43.6725121" lon="10.4949752"><ele>3.0</ele><time>2026-04-19T11:10:33.987Z</time></trkpt><trkpt lat="43.6725209" lon="10.4948707"><ele>3.0</ele><time>2026-04-19T11:10:34.985Z</time></trkpt><trkpt lat="43.672526" lon="10.4947685"><ele>3.0</ele><time>2026-04-19T11:10:35.992Z</time></trkpt><trkpt lat="43.6725561" lon="10.4946382"><ele>3.0</ele><time>2026-04-19T11:10:37.983Z</time></trkpt><trkpt lat="43.6726433" lon="10.494687"><ele>3.0</ele><time>2026-04-19T11:10:39.985Z</time></trkpt><trkpt lat="43.6726981" lon="10.4947624"><ele>3.0</ele><time>2026-04-19T11:10:40.969Z</time></trkpt><trkpt lat="43.6727623" lon="10.4948456"><ele>3.0</ele><time>2026-04-19T11:10:41.99Z</time></trkpt><trkpt lat="43.6728404" lon="10.494922"><ele>3.0</ele><time>2026-04-19T11:10:42.986Z</time></trkpt><trkpt lat="43.6729353" lon="10.4949947"><ele>3.0</ele><time>2026-04-19T11:10:43.984Z</time></trkpt><trkpt lat="43.673038" lon="10.4950808"><ele>3.0</ele><time>2026-04-19T11:10:44.989Z</time></trkpt><trkpt lat="43.6731444" lon="10.4951743"><ele>3.0</ele><time>2026-04-19T11:10:45.988Z</time></trkpt><trkpt lat="43.6732592" lon="10.4952685"><ele>3.0</ele><time>2026-04-19T11:10:46.979Z</time></trkpt><trkpt lat="43.6733759" lon="10.495363"><ele>3.0</ele><time>2026-04-19T11:10:48.004Z</time></trkpt><trkpt lat="43.6734871" lon="10.4954518"><ele>3.0</ele><time>2026-04-19T11:10:48.975Z</time></trkpt><trkpt lat="43.6735938" lon="10.4955361"><ele>3.0</ele><time>2026-04-19T11:10:49.985Z</time></trkpt><trkpt lat="43.6736996" lon="10.4956199"><ele>2.75</ele><time>2026-04-19T11:10:50.987Z</time></trkpt><trkpt lat="43.6738073" lon="10.495707"><ele>2.5</ele><time>2026-04-19T11:10:51.979Z</time></trkpt><trkpt lat="43.6739177" lon="10.4957962"><ele>2.25</ele><time>2026-04-19T11:10:52.979Z</time></trkpt><trkpt lat="43.6740284" lon="10.495886"><ele>2.0</ele><time>2026-04-19T11:10:53.986Z</time></trkpt><trkpt lat="43.6741382" lon="10.4959754"><ele>2.0</ele><time>2026-04-19T11:10:54.976Z</time></trkpt><trkpt lat="43.6742373" lon="10.4960581"><ele>2.0</ele><time>2026-04-19T11:10:55.992Z</time></trkpt><trkpt lat="43.6743288" lon="10.4961302"><ele>2.0</ele><time>2026-04-19T11:10:56.995Z</time></trkpt><trkpt lat="43.6744086" lon="10.4961938"><ele>2.0</ele><time>2026-04-19T11:10:57.985Z</time></trkpt><trkpt lat="43.6744727" lon="10.4962626"><ele>2.0</ele><time>2026-04-19T11:10:58.994Z</time></trkpt><trkpt lat="43.6745131" lon="10.4963479"><ele>1.9999999999999998</ele><time>2026-04-19T11:10:59.986Z</time></trkpt><trkpt lat="43.6745551" lon="10.4964332"><ele>2.0</ele><time>2026-04-19T11:11:00.97Z</time></trkpt><trkpt lat="43.6745422" lon="10.4965494"><ele>2.0</ele><time>2026-04-19T11:11:01.98Z</time></trkpt><trkpt lat="43.6745269" lon="10.4966671"><ele>2.0</ele><time>2026-04-19T11:11:03.002Z</time></trkpt><trkpt lat="43.6744914" lon="10.4967926"><ele>1.9999999999999998</ele><time>2026-04-19T11:11:03.972Z</time></trkpt><trkpt lat="43.6744574" lon="10.4969023"><ele>2.0</ele><time>2026-04-19T11:11:04.971Z</time></trkpt><trkpt lat="43.6744249" lon="10.4970024"><ele>2.333333333333333</ele><time>2026-04-19T11:11:05.965Z</time></trkpt><trkpt lat="43.6744437" lon="10.4970899"><ele>2.6666666666666665</ele><time>2026-04-19T11:11:06.959Z</time></trkpt><trkpt lat="43.6744896" lon="10.4971564"><ele>3.0</ele><time>2026-04-19T11:11:07.973Z</time></trkpt><trkpt lat="43.6745418" lon="10.4972282"><ele>3.333333333333333</ele><time>2026-04-19T11:11:08.97Z</time></trkpt><trkpt lat="43.674628" lon="10.4972739"><ele>3.6666666666666665</ele><time>2026-04-19T11:11:09.971Z</time></trkpt><trkpt lat="43.674732" lon="10.4973341"><ele>4.0</ele><time>2026-04-19T11:11:10.982Z</time></trkpt><trkpt lat="43.6748408" lon="10.497396"><ele>4.0</ele><time>2026-04-19T11:11:11.966Z</time></trkpt><trkpt lat="43.674951" lon="10.4974468"><ele>4.0</ele><time>2026-04-19T11:11:12.973Z</time></trkpt><trkpt lat="43.675063" lon="10.4975049"><ele>4.0</ele><time>2026-04-19T11:11:13.995Z</time></trkpt><trkpt lat="43.6751687" lon="10.4975729"><ele>4.0</ele><time>2026-04-19T11:11:14.99Z</time></trkpt><trkpt lat="43.675276" lon="10.4976326"><ele>4.2</ele><time>2026-04-19T11:11:15.995Z</time></trkpt><trkpt lat="43.6753877" lon="10.4976936"><ele>4.4</ele><time>2026-04-19T11:11:17Z</time></trkpt><trkpt lat="43.6754874" lon="10.4977548"><ele>4.6</ele><time>2026-04-19T11:11:17.977Z</time></trkpt><trkpt lat="43.6755796" lon="10.4978195"><ele>4.8</ele><time>2026-04-19T11:11:18.993Z</time></trkpt><trkpt lat="43.6756648" lon="10.4978778"><ele>5.0</ele><time>2026-04-19T11:11:19.985Z</time></trkpt><trkpt lat="43.6757387" lon="10.4979292"><ele>5.0</ele><time>2026-04-19T11:11:20.984Z</time></trkpt><trkpt lat="43.6758159" lon="10.4979793"><ele>5.0</ele><time>2026-04-19T11:11:21.982Z</time></trkpt><trkpt lat="43.6759" lon="10.4980327"><ele>5.0</ele><time>2026-04-19T11:11:22.981Z</time></trkpt><trkpt lat="43.6759905" lon="10.4980895"><ele>5.0</ele><time>2026-04-19T11:11:23.98Z</time></trkpt><trkpt lat="43.6760835" lon="10.4981538"><ele>5.0</ele><time>2026-04-19T11:11:24.982Z</time></trkpt><trkpt lat="43.6761771" lon="10.4982163"><ele>5.0</ele><time>2026-04-19T11:11:25.965Z</time></trkpt><trkpt lat="43.676267" lon="10.4982782"><ele>5.0</ele><time>2026-04-19T11:11:26.98Z</time></trkpt><trkpt lat="43.6763453" lon="10.498331"><ele>5.0</ele><time>2026-04-19T11:11:27.98Z</time></trkpt><trkpt lat="43.6764202" lon="10.4983829"><ele>5.0</ele><time>2026-04-19T11:11:28.986Z</time></trkpt><trkpt lat="43.6764943" lon="10.4984377"><ele>5.0</ele><time>2026-04-19T11:11:29.993Z</time></trkpt><trkpt lat="43.6765672" lon="10.4984892"><ele>5.0</ele><time>2026-04-19T11:11:30.985Z</time></trkpt><trkpt lat="43.6766378" lon="10.4985365"><ele>5.0</ele><time>2026-04-19T11:11:31.985Z</time></trkpt><trkpt lat="43.6766954" lon="10.4985766"><ele>5.0</ele><time>2026-04-19T11:11:32.991Z</time></trkpt><trkpt lat="43.6767506" lon="10.498637"><ele>5.0</ele><time>2026-04-19T11:11:34.988Z</time></trkpt><trkpt lat="43.6767725" lon="10.498735"><ele>5.0</ele><time>2026-04-19T11:11:36.976Z</time></trkpt><trkpt lat="43.6767401" lon="10.4988911"><ele>5.0</ele><time>2026-04-19T11:11:38.99Z</time></trkpt><trkpt lat="43.6767198" lon="10.4990075"><ele>5.0</ele><time>2026-04-19T11:11:39.986Z</time></trkpt><trkpt lat="43.6766895" lon="10.4991413"><ele>4.833333333333334</ele><time>2026-04-19T11:11:40.979Z</time></trkpt><trkpt lat="43.6766583" lon="10.4992736"><ele>4.666666666666667</ele><time>2026-04-19T11:11:41.994Z</time></trkpt><trkpt lat="43.6766295" lon="10.4993979"><ele>4.5</ele><time>2026-04-19T11:11:42.985Z</time></trkpt><trkpt lat="43.6766107" lon="10.4995004"><ele>4.333333333333333</ele><time>2026-04-19T11:11:43.982Z</time></trkpt><trkpt lat="43.6765934" lon="10.4995842"><ele>4.166666666666666</ele><time>2026-04-19T11:11:44.979Z</time></trkpt><trkpt lat="43.6765992" lon="10.4997231"><ele>4.0</ele><time>2026-04-19T11:11:46.981Z</time></trkpt><trkpt lat="43.6766946" lon="10.499828"><ele>3.8000000000000003</ele><time>2026-04-19T11:11:48.979Z</time></trkpt><trkpt lat="43.676764" lon="10.4998889"><ele>3.6000000000000005</ele><time>2026-04-19T11:11:49.994Z</time></trkpt><trkpt lat="43.6768372" lon="10.4999633"><ele>3.4</ele><time>2026-04-19T11:11:50.979Z</time></trkpt><trkpt lat="43.6769129" lon="10.5000412"><ele>3.2</ele><time>2026-04-19T11:11:51.996Z</time></trkpt><trkpt lat="43.6770047" lon="10.5001338"><ele>3.0</ele><time>2026-04-19T11:11:52.984Z</time></trkpt><trkpt lat="43.6771035" lon="10.500227"><ele>2.75</ele><time>2026-04-19T11:11:53.986Z</time></trkpt><trkpt lat="43.6772069" lon="10.5003218"><ele>2.5</ele><time>2026-04-19T11:11:54.997Z</time></trkpt><trkpt lat="43.677313" lon="10.5004213"><ele>2.25</ele><time>2026-04-19T11:11:55.982Z</time></trkpt><trkpt lat="43.6774184" lon="10.5005299"><ele>2.0</ele><time>2026-04-19T11:11:56.973Z</time></trkpt><trkpt lat="43.6775283" lon="10.5006325"><ele>2.25</ele><time>2026-04-19T11:11:57.992Z</time></trkpt><trkpt lat="43.6776381" lon="10.5007284"><ele>2.5</ele><time>2026-04-19T11:11:58.97Z</time></trkpt><trkpt lat="43.6777483" lon="10.5008232"><ele>2.75</ele><time>2026-04-19T11:11:59.987Z</time></trkpt><trkpt lat="43.6778599" lon="10.5009191"><ele>3.0</ele><time>2026-04-19T11:12:00.985Z</time></trkpt><trkpt lat="43.6779702" lon="10.5010117"><ele>3.0</ele><time>2026-04-19T11:12:01.988Z</time></trkpt><trkpt lat="43.6780787" lon="10.5011088"><ele>3.0</ele><time>2026-04-19T11:12:02.979Z</time></trkpt><trkpt lat="43.6781871" lon="10.5012124"><ele>3.0</ele><time>2026-04-19T11:12:03.977Z</time></trkpt><trkpt lat="43.6782963" lon="10.5013154"><ele>3.0</ele><time>2026-04-19T11:12:04.983Z</time></trkpt><trkpt lat="43.6784001" lon="10.5014107"><ele>3.5</ele><time>2026-04-19T11:12:05.984Z</time></trkpt><trkpt lat="43.6785014" lon="10.5014989"><ele>4.0</ele><time>2026-04-19T11:12:06.991Z</time></trkpt><trkpt lat="43.6786006" lon="10.5015856"><ele>4.5</ele><time>2026-04-19T11:12:07.988Z</time></trkpt><trkpt lat="43.6786983" lon="10.5016713"><ele>5.0</ele><time>2026-04-19T11:12:08.979Z</time></trkpt><trkpt lat="43.678798" lon="10.5017572"><ele>5.0</ele><time>2026-04-19T11:12:09.981Z</time></trkpt><trkpt lat="43.678901" lon="10.5018399"><ele>5.0</ele><time>2026-04-19T11:12:10.981Z</time></trkpt><trkpt lat="43.6790046" lon="10.5019191"><ele>5.0</ele><time>2026-04-19T11:12:11.995Z</time></trkpt><trkpt lat="43.679109" lon="10.5019998"><ele>5.0</ele><time>2026-04-19T11:12:12.987Z</time></trkpt><trkpt lat="43.6792081" lon="10.5020766"><ele>5.0</ele><time>2026-04-19T11:12:13.986Z</time></trkpt><trkpt lat="43.6792904" lon="10.5021451"><ele>5.0</ele><time>2026-04-19T11:12:14.989Z</time></trkpt><trkpt lat="43.6793568" lon="10.5021999"><ele>5.0</ele><time>2026-04-19T11:12:15.987Z</time></trkpt><trkpt lat="43.6794249" lon="10.5022436"><ele>5.0</ele><time>2026-04-19T11:12:17.985Z</time></trkpt><trkpt lat="43.6795157" lon="10.5021957"><ele>5.0</ele><time>2026-04-19T11:12:20.978Z</time></trkpt><trkpt lat="43.6795592" lon="10.5021129"><ele>5.0</ele><time>2026-04-19T11:12:21.973Z</time></trkpt><trkpt lat="43.6796033" lon="10.5020025"><ele>5.333333333333334</ele><time>2026-04-19T11:12:22.984Z</time></trkpt><trkpt lat="43.6797657" lon="10.5016012"><ele>5.666666666666667</ele><time>2026-04-19T11:12:25.984Z</time></trkpt><trkpt lat="43.6798152" lon="10.501484"><ele>6.0</ele><time>2026-04-19T11:12:26.973Z</time></trkpt><trkpt lat="43.6799009" lon="10.5012868"><ele>5.333333333333333</ele><time>2026-04-19T11:12:28.981Z</time></trkpt><trkpt lat="43.6799644" lon="10.501128"><ele>4.666666666666666</ele><time>2026-04-19T11:12:30.962Z</time></trkpt><trkpt lat="43.6800769" lon="10.5008848"><ele>4.0</ele><time>2026-04-19T11:12:33.983Z</time></trkpt><trkpt lat="43.6801781" lon="10.5006904"><ele>4.0</ele><time>2026-04-19T11:12:35.976Z</time></trkpt><trkpt lat="43.6802231" lon="10.5006053"><ele>4.0</ele><time>2026-04-19T11:12:36.967Z</time></trkpt><trkpt lat="43.6803255" lon="10.5004105"><ele>4.0</ele><time>2026-04-19T11:12:38.971Z</time></trkpt><trkpt lat="43.6803806" lon="10.500288"><ele>4.0</ele><time>2026-04-19T11:12:39.974Z</time></trkpt><trkpt lat="43.6804346" lon="10.5001465"><ele>3.75</ele><time>2026-04-19T11:12:40.979Z</time></trkpt><trkpt lat="43.6804919" lon="10.4999943"><ele>3.5</ele><time>2026-04-19T11:12:41.959Z</time></trkpt><trkpt lat="43.6805566" lon="10.4998307"><ele>3.25</ele><time>2026-04-19T11:12:42.974Z</time></trkpt><trkpt lat="43.6806298" lon="10.4996562"><ele>3.0</ele><time>2026-04-19T11:12:43.969Z</time></trkpt><trkpt lat="43.6807056" lon="10.4994749"><ele>3.5</ele><time>2026-04-19T11:12:44.967Z</time></trkpt><trkpt lat="43.6807797" lon="10.4992936"><ele>4.0</ele><time>2026-04-19T11:12:45.977Z</time></trkpt><trkpt lat="43.6808491" lon="10.4991137"><ele>4.5</ele><time>2026-04-19T11:12:46.996Z</time></trkpt><trkpt lat="43.6809152" lon="10.498939"><ele>5.0</ele><time>2026-04-19T11:12:47.97Z</time></trkpt><trkpt lat="43.6809779" lon="10.4987757"><ele>5.0</ele><time>2026-04-19T11:12:48.966Z</time></trkpt><trkpt lat="43.6810381" lon="10.4986174"><ele>5.0</ele><time>2026-04-19T11:12:49.97Z</time></trkpt><trkpt lat="43.6810987" lon="10.4984636"><ele>5.0</ele><time>2026-04-19T11:12:50.976Z</time></trkpt><trkpt lat="43.6811612" lon="10.4983081"><ele>5.0</ele><time>2026-04-19T11:12:51.96Z</time></trkpt><trkpt lat="43.6812259" lon="10.4981531"><ele>5.0</ele><time>2026-04-19T11:12:52.973Z</time></trkpt><trkpt lat="43.6812841" lon="10.4980094"><ele>5.0</ele><time>2026-04-19T11:12:53.975Z</time></trkpt><trkpt lat="43.6813417" lon="10.4978616"><ele>5.0</ele><time>2026-04-19T11:12:54.978Z</time></trkpt><trkpt lat="43.6813936" lon="10.4977237"><ele>5.0</ele><time>2026-04-19T11:12:55.978Z</time></trkpt><trkpt lat="43.6814417" lon="10.4975996"><ele>4.833333333333334</ele><time>2026-04-19T11:12:56.967Z</time></trkpt><trkpt lat="43.6814858" lon="10.4974881"><ele>4.666666666666667</ele><time>2026-04-19T11:12:57.981Z</time></trkpt><trkpt lat="43.6815275" lon="10.4973916"><ele>4.5</ele><time>2026-04-19T11:12:58.993Z</time></trkpt><trkpt lat="43.6815761" lon="10.4973172"><ele>4.333333333333333</ele><time>2026-04-19T11:12:59.991Z</time></trkpt><trkpt lat="43.6816384" lon="10.4972658"><ele>4.166666666666666</ele><time>2026-04-19T11:13:00.994Z</time></trkpt><trkpt lat="43.6817169" lon="10.4972333"><ele>4.0</ele><time>2026-04-19T11:13:01.983Z</time></trkpt><trkpt lat="43.6818045" lon="10.4972324"><ele>4.0</ele><time>2026-04-19T11:13:02.98Z</time></trkpt><trkpt lat="43.6818921" lon="10.4972719"><ele>4.0</ele><time>2026-04-19T11:13:03.987Z</time></trkpt><trkpt lat="43.6819779" lon="10.4973489"><ele>4.0</ele><time>2026-04-19T11:13:04.977Z</time></trkpt><trkpt lat="43.6820606" lon="10.4974628"><ele>4.0</ele><time>2026-04-19T11:13:05.979Z</time></trkpt><trkpt lat="43.6821428" lon="10.4976043"><ele>4.0</ele><time>2026-04-19T11:13:06.981Z</time></trkpt><trkpt lat="43.6822301" lon="10.4977639"><ele>4.666666666666666</ele><time>2026-04-19T11:13:07.988Z</time></trkpt><trkpt lat="43.6823229" lon="10.4979318"><ele>5.333333333333333</ele><time>2026-04-19T11:13:08.982Z</time></trkpt><trkpt lat="43.6824192" lon="10.4981015"><ele>6.0</ele><time>2026-04-19T11:13:09.989Z</time></trkpt><trkpt lat="43.6825169" lon="10.4982695"><ele>6.0</ele><time>2026-04-19T11:13:10.98Z</time></trkpt><trkpt lat="43.6826076" lon="10.4984271"><ele>6.0</ele><time>2026-04-19T11:13:11.984Z</time></trkpt><trkpt lat="43.6826964" lon="10.4985703"><ele>6.0</ele><time>2026-04-19T11:13:12.99Z</time></trkpt><trkpt lat="43.6827924" lon="10.4987062"><ele>6.0</ele><time>2026-04-19T11:13:13.981Z</time></trkpt><trkpt lat="43.6828955" lon="10.4988384"><ele>5.75</ele><time>2026-04-19T11:13:14.99Z</time></trkpt><trkpt lat="43.6830056" lon="10.4989663"><ele>5.5</ele><time>2026-04-19T11:13:15.989Z</time></trkpt><trkpt lat="43.6831235" lon="10.499087"><ele>5.25</ele><time>2026-04-19T11:13:16.975Z</time></trkpt><trkpt lat="43.6832474" lon="10.4992019"><ele>5.0</ele><time>2026-04-19T11:13:17.984Z</time></trkpt><trkpt lat="43.6833692" lon="10.4993061"><ele>5.0</ele><time>2026-04-19T11:13:18.984Z</time></trkpt><trkpt lat="43.683487" lon="10.4994079"><ele>5.0</ele><time>2026-04-19T11:13:19.997Z</time></trkpt><trkpt lat="43.6836044" lon="10.4995008"><ele>5.0</ele><time>2026-04-19T11:13:20.977Z</time></trkpt><trkpt lat="43.6837221" lon="10.4995942"><ele>5.0</ele><time>2026-04-19T11:13:21.985Z</time></trkpt><trkpt lat="43.6838376" lon="10.4996856"><ele>5.0</ele><time>2026-04-19T11:13:22.987Z</time></trkpt><trkpt lat="43.6839561" lon="10.4997793"><ele>5.0</ele><time>2026-04-19T11:13:23.973Z</time></trkpt><trkpt lat="43.684072" lon="10.499864"><ele>5.0</ele><time>2026-04-19T11:13:24.98Z</time></trkpt><trkpt lat="43.684188" lon="10.4999463"><ele>5.0</ele><time>2026-04-19T11:13:25.984Z</time></trkpt><trkpt lat="43.6843045" lon="10.5000186"><ele>5.0</ele><time>2026-04-19T11:13:26.988Z</time></trkpt><trkpt lat="43.6844221" lon="10.5000822"><ele>5.0</ele><time>2026-04-19T11:13:27.994Z</time></trkpt><trkpt lat="43.6845313" lon="10.5001337"><ele>5.0</ele><time>2026-04-19T11:13:28.98Z</time></trkpt><trkpt lat="43.6846307" lon="10.5001733"><ele>5.0</ele><time>2026-04-19T11:13:29.982Z</time></trkpt><trkpt lat="43.6847194" lon="10.5002103"><ele>5.0</ele><time>2026-04-19T11:13:30.98Z</time></trkpt><trkpt lat="43.6847979" lon="10.5002405"><ele>5.166666666666667</ele><time>2026-04-19T11:13:31.964Z</time></trkpt><trkpt lat="43.6848583" lon="10.5002655"><ele>5.333333333333334</ele><time>2026-04-19T11:13:32.986Z</time></trkpt><trkpt lat="43.6849383" lon="10.5002977"><ele>5.5</ele><time>2026-04-19T11:13:34.982Z</time></trkpt><trkpt lat="43.6850144" lon="10.5003078"><ele>5.666666666666667</ele><time>2026-04-19T11:13:38.981Z</time></trkpt><trkpt lat="43.6850754" lon="10.500204"><ele>5.833333333333333</ele><time>2026-04-19T11:13:40.985Z</time></trkpt><trkpt lat="43.6850962" lon="10.500099"><ele>6.0</ele><time>2026-04-19T11:13:41.983Z</time></trkpt><trkpt lat="43.6851129" lon="10.4999639"><ele>6.0</ele><time>2026-04-19T11:13:42.984Z</time></trkpt><trkpt lat="43.6851334" lon="10.4998007"><ele>6.0</ele><time>2026-04-19T11:13:43.996Z</time></trkpt><trkpt lat="43.6851558" lon="10.4996213"><ele>6.0</ele><time>2026-04-19T11:13:44.99Z</time></trkpt><trkpt lat="43.6851793" lon="10.4994256"><ele>6.0</ele><time>2026-04-19T11:13:45.98Z</time></trkpt><trkpt lat="43.6852048" lon="10.4992191"><ele>6.0</ele><time>2026-04-19T11:13:46.979Z</time></trkpt><trkpt lat="43.6852327" lon="10.4989997"><ele>6.0</ele><time>2026-04-19T11:13:47.977Z</time></trkpt><trkpt lat="43.6852602" lon="10.4987749"><ele>6.0</ele><time>2026-04-19T11:13:48.984Z</time></trkpt><trkpt lat="43.6852881" lon="10.498544"><ele>6.0</ele><time>2026-04-19T11:13:49.976Z</time></trkpt><trkpt lat="43.6853177" lon="10.498314"><ele>6.0</ele><time>2026-04-19T11:13:50.987Z</time></trkpt><trkpt lat="43.6853469" lon="10.4980911"><ele>6.0</ele><time>2026-04-19T11:13:51.988Z</time></trkpt><trkpt lat="43.685373" lon="10.4978862"><ele>5.75</ele><time>2026-04-19T11:13:52.986Z</time></trkpt><trkpt lat="43.6853965" lon="10.4976881"><ele>5.5</ele><time>2026-04-19T11:13:53.992Z</time></trkpt><trkpt lat="43.6854163" lon="10.497497"><ele>5.25</ele><time>2026-04-19T11:13:54.968Z</time></trkpt><trkpt lat="43.6854364" lon="10.4973123"><ele>5.0</ele><time>2026-04-19T11:13:55.977Z</time></trkpt><trkpt lat="43.6854612" lon="10.497127"><ele>5.25</ele><time>2026-04-19T11:13:56.982Z</time></trkpt><trkpt lat="43.6854878" lon="10.496941"><ele>5.5</ele><time>2026-04-19T11:13:57.986Z</time></trkpt><trkpt lat="43.6855195" lon="10.4967533"><ele>5.75</ele><time>2026-04-19T11:13:58.984Z</time></trkpt><trkpt lat="43.6855502" lon="10.4965615"><ele>6.0</ele><time>2026-04-19T11:13:59.986Z</time></trkpt><trkpt lat="43.6855778" lon="10.4963725"><ele>6.75</ele><time>2026-04-19T11:14:00.977Z</time></trkpt><trkpt lat="43.6856035" lon="10.4961949"><ele>7.5</ele><time>2026-04-19T11:14:01.982Z</time></trkpt><trkpt lat="43.6856264" lon="10.4960264"><ele>8.25</ele><time>2026-04-19T11:14:02.995Z</time></trkpt><trkpt lat="43.6856462" lon="10.4958805"><ele>9.0</ele><time>2026-04-19T11:14:03.976Z</time></trkpt><trkpt lat="43.6856648" lon="10.4957458"><ele>9.0</ele><time>2026-04-19T11:14:04.989Z</time></trkpt><trkpt lat="43.6856829" lon="10.4956118"><ele>9.0</ele><time>2026-04-19T11:14:05.985Z</time></trkpt><trkpt lat="43.6856995" lon="10.4954838"><ele>9.0</ele><time>2026-04-19T11:14:06.988Z</time></trkpt><trkpt lat="43.6857167" lon="10.4953583"><ele>9.0</ele><time>2026-04-19T11:14:07.987Z</time></trkpt><trkpt lat="43.6857358" lon="10.4952232"><ele>9.0</ele><time>2026-04-19T11:14:08.994Z</time></trkpt><trkpt lat="43.6857552" lon="10.4950868"><ele>8.833333333333334</ele><time>2026-04-19T11:14:09.994Z</time></trkpt><trkpt lat="43.6857733" lon="10.4949633"><ele>8.666666666666666</ele><time>2026-04-19T11:14:10.971Z</time></trkpt><trkpt lat="43.6857905" lon="10.4948556"><ele>8.5</ele><time>2026-04-19T11:14:11.992Z</time></trkpt><trkpt lat="43.6858051" lon="10.4947575"><ele>8.333333333333332</ele><time>2026-04-19T11:14:12.989Z</time></trkpt><trkpt lat="43.6858173" lon="10.4946682"><ele>8.166666666666666</ele><time>2026-04-19T11:14:13.981Z</time></trkpt><trkpt lat="43.6858397" lon="10.4945091"><ele>8.0</ele><time>2026-04-19T11:14:15.981Z</time></trkpt><trkpt lat="43.6858623" lon="10.4943709"><ele>7.666666666666666</ele><time>2026-04-19T11:14:17.983Z</time></trkpt><trkpt lat="43.6858755" lon="10.4942456"><ele>7.333333333333333</ele><time>2026-04-19T11:14:19.983Z</time></trkpt><trkpt lat="43.6858863" lon="10.4941471"><ele>7.0</ele><time>2026-04-19T11:14:21.986Z</time></trkpt><trkpt lat="43.6859047" lon="10.4940459"><ele>6.666666666666666</ele><time>2026-04-19T11:14:23.988Z</time></trkpt><trkpt lat="43.6859345" lon="10.4938892"><ele>6.333333333333333</ele><time>2026-04-19T11:14:25.975Z</time></trkpt><trkpt lat="43.6859549" lon="10.4937816"><ele>6.0</ele><time>2026-04-19T11:14:26.987Z</time></trkpt><trkpt lat="43.68598" lon="10.4936482"><ele>5.8</ele><time>2026-04-19T11:14:27.991Z</time></trkpt><trkpt lat="43.6860073" lon="10.4934996"><ele>5.6</ele><time>2026-04-19T11:14:28.994Z</time></trkpt><trkpt lat="43.6860359" lon="10.4933523"><ele>5.4</ele><time>2026-04-19T11:14:29.975Z</time></trkpt><trkpt lat="43.6860621" lon="10.4932104"><ele>5.2</ele><time>2026-04-19T11:14:30.983Z</time></trkpt><trkpt lat="43.6860856" lon="10.493069"><ele>5.0</ele><time>2026-04-19T11:14:31.983Z</time></trkpt><trkpt lat="43.6861069" lon="10.4929292"><ele>5.666666666666667</ele><time>2026-04-19T11:14:32.988Z</time></trkpt><trkpt lat="43.6861276" lon="10.4927989"><ele>6.333333333333334</ele><time>2026-04-19T11:14:33.992Z</time></trkpt><trkpt lat="43.6861456" lon="10.492682"><ele>7.0</ele><time>2026-04-19T11:14:34.981Z</time></trkpt><trkpt lat="43.686161" lon="10.492576"><ele>7.666666666666667</ele><time>2026-04-19T11:14:35.98Z</time></trkpt><trkpt lat="43.6861742" lon="10.4924866"><ele>8.333333333333334</ele><time>2026-04-19T11:14:36.983Z</time></trkpt><trkpt lat="43.6861944" lon="10.4923445"><ele>9.0</ele><time>2026-04-19T11:14:38.979Z</time></trkpt><trkpt lat="43.6861814" lon="10.4922492"><ele>9.0</ele><time>2026-04-19T11:14:42.979Z</time></trkpt><trkpt lat="43.6861022" lon="10.4922302"><ele>9.0</ele><time>2026-04-19T11:14:44.981Z</time></trkpt><trkpt lat="43.6859874" lon="10.492194"><ele>9.0</ele><time>2026-04-19T11:14:46.988Z</time></trkpt><trkpt lat="43.6858728" lon="10.4921497"><ele>9.0</ele><time>2026-04-19T11:14:48.986Z</time></trkpt><trkpt lat="43.6857695" lon="10.4921318"><ele>9.0</ele><time>2026-04-19T11:14:50.978Z</time></trkpt><trkpt lat="43.6856905" lon="10.4921152"><ele>8.571428571428573</ele><time>2026-04-19T11:14:52.984Z</time></trkpt><trkpt lat="43.6856268" lon="10.4920898"><ele>8.142857142857142</ele><time>2026-04-19T11:14:54.982Z</time></trkpt><trkpt lat="43.685699" lon="10.4920114"><ele>7.714285714285714</ele><time>2026-04-19T11:21:12.981Z</time></trkpt><trkpt lat="43.6856143" lon="10.4920228"><ele>7.2857142857142865</ele><time>2026-04-19T11:21:19.978Z</time></trkpt><trkpt lat="43.6855514" lon="10.4920066"><ele>6.857142857142858</ele><time>2026-04-19T11:21:22.974Z</time></trkpt><trkpt lat="43.6854869" lon="10.4919824"><ele>6.428571428571428</ele><time>2026-04-19T11:21:28.987Z</time></trkpt><trkpt lat="43.6854289" lon="10.4919347"><ele>6.0</ele><time>2026-04-19T11:21:33.992Z</time></trkpt><trkpt lat="43.6854363" lon="10.4918449"><ele>6.0</ele><time>2026-04-19T11:21:38.986Z</time></trkpt><trkpt lat="43.6854644" lon="10.491939"><ele>6.0</ele><time>2026-04-19T11:22:38.985Z</time></trkpt></trkseg></trk></gpx>